<?xml version='1.0' encoding='UTF-8'?><gpx version="1.1" creator="JPX - https://github.com/jenetics/jpx" xmlns="http://www.topografix.com/GPX/1/1"><trk><trkseg><trkpt lat="41.4237085" lon="12.7873637"><ele>1.0</ele><time>2026-04-04T08:48:12.187Z</time></trkpt><trkpt lat="41.4237096" lon="12.7874616"><ele>0.9999999999999999</ele><time>2026-04-04T08:53:37.195Z</time></trkpt><trkpt lat="41.423753" lon="12.7875465"><ele>1.0</ele><time>2026-04-04T08:53:42.194Z</time></trkpt><trkpt lat="41.4237672" lon="12.7876362"><ele>1.0</ele><time>2026-04-04T08:53:47.2Z</time></trkpt><trkpt lat="41.4237182" lon="12.7875785"><ele>0.9999999999999999</ele><time>2026-04-04T08:55:15.244Z</time></trkpt><trkpt lat="41.4236914" lon="12.7874837"><ele>1.0</ele><time>2026-04-04T08:58:08.195Z</time></trkpt><trkpt lat="41.4237119" lon="12.7873938"><ele>1.0</ele><time>2026-04-04T08:58:12.195Z</time></trkpt><trkpt lat="41.4236988" lon="12.787287"><ele>1.0</ele><time>2026-04-04T08:58:34.195Z</time></trkpt><trkpt lat="41.4236167" lon="12.7872214"><ele>1.0</ele><time>2026-04-04T08:58:37.194Z</time></trkpt><trkpt lat="41.4235451" lon="12.7871528"><ele>1.0</ele><time>2026-04-04T08:58:39.194Z</time></trkpt><trkpt lat="41.4234189" lon="12.7871221"><ele>1.0</ele><time>2026-04-04T08:58:41.195Z</time></trkpt><trkpt lat="41.4234727" lon="12.7872014"><ele>1.0</ele><time>2026-04-04T08:58:46.194Z</time></trkpt><trkpt lat="41.4235387" lon="12.7871677"><ele>0.9999999999999999</ele><time>2026-04-04T08:58:49.194Z</time></trkpt><trkpt lat="41.4236185" lon="12.7871826"><ele>1.0</ele><time>2026-04-04T08:58:52.194Z</time></trkpt><trkpt lat="41.4235972" lon="12.7873031"><ele>1.0</ele><time>2026-04-04T08:58:56.194Z</time></trkpt><trkpt lat="41.423566" lon="12.7874331"><ele>1.0</ele><time>2026-04-04T08:58:58.194Z</time></trkpt><trkpt lat="41.4235334" lon="12.7875391"><ele>0.9999999999999999</ele><time>2026-04-04T08:59:00.194Z</time></trkpt><trkpt lat="41.4235746" lon="12.7874458"><ele>1.0</ele><time>2026-04-04T08:59:05.195Z</time></trkpt><trkpt lat="41.4236125" lon="12.7873258"><ele>0.9999999999999999</ele><time>2026-04-04T08:59:07.194Z</time></trkpt><trkpt lat="41.4235532" lon="12.7872207"><ele>1.0</ele><time>2026-04-04T08:59:10.194Z</time></trkpt><trkpt lat="41.423505" lon="12.7871641"><ele>1.0</ele><time>2026-04-04T08:59:11.194Z</time></trkpt><trkpt lat="41.4234426" lon="12.7871081"><ele>1.0</ele><time>2026-04-04T08:59:12.194Z</time></trkpt><trkpt lat="41.4233737" lon="12.7870664"><ele>0.9999999999999999</ele><time>2026-04-04T08:59:13.194Z</time></trkpt><trkpt lat="41.4232996" lon="12.787033"><ele>1.0</ele><time>2026-04-04T08:59:14.194Z</time></trkpt><trkpt lat="41.4231372" lon="12.7869823"><ele>1.0</ele><time>2026-04-04T08:59:16.195Z</time></trkpt><trkpt lat="41.4230557" lon="12.7869678"><ele>1.0</ele><time>2026-04-04T08:59:17.194Z</time></trkpt><trkpt lat="41.4229832" lon="12.7869798"><ele>1.0</ele><time>2026-04-04T08:59:18.194Z</time></trkpt><trkpt lat="41.422865" lon="12.7869836"><ele>1.0</ele><time>2026-04-04T08:59:20.194Z</time></trkpt><trkpt lat="41.4227584" lon="12.7869567"><ele>1.0</ele><time>2026-04-04T08:59:22.194Z</time></trkpt><trkpt lat="41.4226057" lon="12.7869298"><ele>0.75</ele><time>2026-04-04T08:59:25.195Z</time></trkpt><trkpt lat="41.4225062" lon="12.7868795"><ele>0.5</ele><time>2026-04-04T08:59:27.194Z</time></trkpt><trkpt lat="41.4224607" lon="12.7867724"><ele>0.25</ele><time>2026-04-04T08:59:29.195Z</time></trkpt><trkpt lat="41.4224864" lon="12.7866336"><ele>0.0</ele><time>2026-04-04T08:59:31.194Z</time></trkpt><trkpt lat="41.4225398" lon="12.7863914"><ele>0.2</ele><time>2026-04-04T08:59:34.194Z</time></trkpt><trkpt lat="41.4225583" lon="12.7863108"><ele>0.4</ele><time>2026-04-04T08:59:35.195Z</time></trkpt><trkpt lat="41.422528" lon="12.7861168"><ele>0.6000000000000001</ele><time>2026-04-04T08:59:38.194Z</time></trkpt><trkpt lat="41.4224296" lon="12.7860662"><ele>0.8</ele><time>2026-04-04T08:59:40.194Z</time></trkpt><trkpt lat="41.4223214" lon="12.7860196"><ele>1.0</ele><time>2026-04-04T08:59:42.194Z</time></trkpt><trkpt lat="41.4222516" lon="12.7859917"><ele>1.0</ele><time>2026-04-04T08:59:43.194Z</time></trkpt><trkpt lat="41.422188" lon="12.7859736"><ele>1.0</ele><time>2026-04-04T08:59:44.194Z</time></trkpt><trkpt lat="41.4220313" lon="12.7859187"><ele>1.0</ele><time>2026-04-04T08:59:46.194Z</time></trkpt><trkpt lat="41.4218533" lon="12.7858483"><ele>1.0</ele><time>2026-04-04T08:59:49.194Z</time></trkpt><trkpt lat="41.4217793" lon="12.7858374"><ele>1.0</ele><time>2026-04-04T08:59:50.194Z</time></trkpt><trkpt lat="41.4216559" lon="12.785802"><ele>1.0</ele><time>2026-04-04T08:59:52.194Z</time></trkpt><trkpt lat="41.4215824" lon="12.7857847"><ele>1.0</ele><time>2026-04-04T08:59:53.194Z</time></trkpt><trkpt lat="41.4215196" lon="12.7857688"><ele>1.0</ele><time>2026-04-04T08:59:54.194Z</time></trkpt><trkpt lat="41.4214007" lon="12.7857324"><ele>1.0</ele><time>2026-04-04T08:59:56.195Z</time></trkpt><trkpt lat="41.421295" lon="12.7857102"><ele>1.0</ele><time>2026-04-04T08:59:58.194Z</time></trkpt><trkpt lat="41.4211114" lon="12.7856353"><ele>1.0</ele><time>2026-04-04T09:00:01.194Z</time></trkpt><trkpt lat="41.4210316" lon="12.7856064"><ele>1.0</ele><time>2026-04-04T09:00:02.194Z</time></trkpt><trkpt lat="41.4209616" lon="12.7855618"><ele>1.0</ele><time>2026-04-04T09:00:03.194Z</time></trkpt><trkpt lat="41.4208405" lon="12.785513"><ele>1.0</ele><time>2026-04-04T09:00:05.195Z</time></trkpt><trkpt lat="41.4206396" lon="12.7854587"><ele>1.0</ele><time>2026-04-04T09:00:08.194Z</time></trkpt><trkpt lat="41.4205103" lon="12.7854217"><ele>1.0</ele><time>2026-04-04T09:00:10.195Z</time></trkpt><trkpt lat="41.4203916" lon="12.7853813"><ele>0.9999999999999999</ele><time>2026-04-04T09:00:12.194Z</time></trkpt><trkpt lat="41.420329" lon="12.7853483"><ele>1.0</ele><time>2026-04-04T09:00:13.194Z</time></trkpt><trkpt lat="41.4202705" lon="12.7853157"><ele>1.0</ele><time>2026-04-04T09:00:14.195Z</time></trkpt><trkpt lat="41.4201687" lon="12.7852839"><ele>1.0</ele><time>2026-04-04T09:00:17.194Z</time></trkpt><trkpt lat="41.4201005" lon="12.7852846"><ele>0.9999999999999999</ele><time>2026-04-04T09:00:23.195Z</time></trkpt><trkpt lat="41.4200219" lon="12.7853226"><ele>1.0</ele><time>2026-04-04T09:00:28.194Z</time></trkpt><trkpt lat="41.419997" lon="12.7854847"><ele>1.0</ele><time>2026-04-04T09:00:30.194Z</time></trkpt><trkpt lat="41.4199686" lon="12.7856877"><ele>1.0</ele><time>2026-04-04T09:00:32.194Z</time></trkpt><trkpt lat="41.4199526" lon="12.7858007"><ele>1.0</ele><time>2026-04-04T09:00:33.195Z</time></trkpt><trkpt lat="41.4199413" lon="12.7859607"><ele>1.0</ele><time>2026-04-04T09:00:34.194Z</time></trkpt><trkpt lat="41.4199176" lon="12.7861113"><ele>0.75</ele><time>2026-04-04T09:00:35.194Z</time></trkpt><trkpt lat="41.4198949" lon="12.7862938"><ele>0.5</ele><time>2026-04-04T09:00:36.194Z</time></trkpt><trkpt lat="41.4198677" lon="12.7864647"><ele>0.25</ele><time>2026-04-04T09:00:37.194Z</time></trkpt><trkpt lat="41.4198499" lon="12.7866654"><ele>0.0</ele><time>2026-04-04T09:00:38.194Z</time></trkpt><trkpt lat="41.4198289" lon="12.7868687"><ele>0.0</ele><time>2026-04-04T09:00:39.194Z</time></trkpt><trkpt lat="41.4198176" lon="12.7870843"><ele>0.0</ele><time>2026-04-04T09:00:40.194Z</time></trkpt><trkpt lat="41.4197967" lon="12.7872922"><ele>0.0</ele><time>2026-04-04T09:00:41.194Z</time></trkpt><trkpt lat="41.4197809" lon="12.7875123"><ele>0.5</ele><time>2026-04-04T09:00:42.195Z</time></trkpt><trkpt lat="41.4197668" lon="12.787745"><ele>1.0</ele><time>2026-04-04T09:00:43.194Z</time></trkpt><trkpt lat="41.419733" lon="12.7882208"><ele>1.0</ele><time>2026-04-04T09:00:45.194Z</time></trkpt><trkpt lat="41.4197171" lon="12.7884461"><ele>1.0</ele><time>2026-04-04T09:00:46.194Z</time></trkpt><trkpt lat="41.4197062" lon="12.7886712"><ele>1.0</ele><time>2026-04-04T09:00:47.194Z</time></trkpt><trkpt lat="41.4196716" lon="12.7891148"><ele>1.0</ele><time>2026-04-04T09:00:49.194Z</time></trkpt><trkpt lat="41.4196633" lon="12.7892987"><ele>1.0</ele><time>2026-04-04T09:00:50.194Z</time></trkpt><trkpt lat="41.4196515" lon="12.7895013"><ele>1.0</ele><time>2026-04-04T09:00:51.194Z</time></trkpt><trkpt lat="41.4196233" lon="12.79007"><ele>1.0</ele><time>2026-04-04T09:00:54.194Z</time></trkpt><trkpt lat="41.4195998" lon="12.7904482"><ele>1.0</ele><time>2026-04-04T09:00:56.194Z</time></trkpt><trkpt lat="41.4195696" lon="12.790847"><ele>0.0</ele><time>2026-04-04T09:00:58.195Z</time></trkpt><trkpt lat="41.419541" lon="12.7910538"><ele>-1.0</ele><time>2026-04-04T09:00:59.194Z</time></trkpt><trkpt lat="41.4194749" lon="12.7914805"><ele>0.0</ele><time>2026-04-04T09:01:01.194Z</time></trkpt><trkpt lat="41.4193968" lon="12.7919774"><ele>1.0</ele><time>2026-04-04T09:01:03.194Z</time></trkpt><trkpt lat="41.4193333" lon="12.7924851"><ele>1.0</ele><time>2026-04-04T09:01:05.194Z</time></trkpt><trkpt lat="41.4193048" lon="12.7927081"><ele>1.0</ele><time>2026-04-04T09:01:06.194Z</time></trkpt><trkpt lat="41.4192685" lon="12.7929241"><ele>1.0</ele><time>2026-04-04T09:01:07.195Z</time></trkpt><trkpt lat="41.4192412" lon="12.7931219"><ele>1.0</ele><time>2026-04-04T09:01:08.195Z</time></trkpt><trkpt lat="41.4192124" lon="12.7933195"><ele>1.0</ele><time>2026-04-04T09:01:09.195Z</time></trkpt><trkpt lat="41.4191906" lon="12.7934981"><ele>1.0</ele><time>2026-04-04T09:01:10.194Z</time></trkpt><trkpt lat="41.4191584" lon="12.7936768"><ele>1.0</ele><time>2026-04-04T09:01:11.194Z</time></trkpt><trkpt lat="41.4190791" lon="12.7940354"><ele>0.5</ele><time>2026-04-04T09:01:13.194Z</time></trkpt><trkpt lat="41.4189844" lon="12.7944362"><ele>0.0</ele><time>2026-04-04T09:01:15.194Z</time></trkpt><trkpt lat="41.4188938" lon="12.7948535"><ele>0.0</ele><time>2026-04-04T09:01:17.195Z</time></trkpt><trkpt lat="41.4188457" lon="12.7950566"><ele>0.0</ele><time>2026-04-04T09:01:18.194Z</time></trkpt><trkpt lat="41.418806" lon="12.7952846"><ele>0.0</ele><time>2026-04-04T09:01:19.194Z</time></trkpt><trkpt lat="41.418758" lon="12.7954922"><ele>0.5</ele><time>2026-04-04T09:01:20.194Z</time></trkpt><trkpt lat="41.418663" lon="12.7959201"><ele>1.0</ele><time>2026-04-04T09:01:22.194Z</time></trkpt><trkpt lat="41.4185508" lon="12.7963663"><ele>1.0</ele><time>2026-04-04T09:01:24.194Z</time></trkpt><trkpt lat="41.418489" lon="12.7965809"><ele>1.0</ele><time>2026-04-04T09:01:25.195Z</time></trkpt><trkpt lat="41.4183832" lon="12.7970339"><ele>1.0</ele><time>2026-04-04T09:01:27.195Z</time></trkpt><trkpt lat="41.4183255" lon="12.7972664"><ele>1.0</ele><time>2026-04-04T09:01:28.195Z</time></trkpt><trkpt lat="41.418275" lon="12.7974929"><ele>1.0</ele><time>2026-04-04T09:01:29.195Z</time></trkpt><trkpt lat="41.4182224" lon="12.7977252"><ele>1.0</ele><time>2026-04-04T09:01:30.195Z</time></trkpt><trkpt lat="41.4181667" lon="12.797953"><ele>1.0</ele><time>2026-04-04T09:01:31.194Z</time></trkpt><trkpt lat="41.4181246" lon="12.7981836"><ele>1.0</ele><time>2026-04-04T09:01:32.194Z</time></trkpt><trkpt lat="41.4180168" lon="12.7986171"><ele>1.3333333333333333</ele><time>2026-04-04T09:01:34.194Z</time></trkpt><trkpt lat="41.4179561" lon="12.798849"><ele>1.6666666666666665</ele><time>2026-04-04T09:01:35.194Z</time></trkpt><trkpt lat="41.4179149" lon="12.7990799"><ele>2.0</ele><time>2026-04-04T09:01:36.194Z</time></trkpt><trkpt lat="41.4178702" lon="12.7993068"><ele>1.5</ele><time>2026-04-04T09:01:37.194Z</time></trkpt><trkpt lat="41.417801" lon="12.7997187"><ele>1.0</ele><time>2026-04-04T09:01:39.194Z</time></trkpt><trkpt lat="41.417778" lon="12.8001409"><ele>1.25</ele><time>2026-04-04T09:01:41.194Z</time></trkpt><trkpt lat="41.417769" lon="12.8003391"><ele>1.5</ele><time>2026-04-04T09:01:42.194Z</time></trkpt><trkpt lat="41.4177571" lon="12.8005303"><ele>1.75</ele><time>2026-04-04T09:01:43.195Z</time></trkpt><trkpt lat="41.417744" lon="12.8007126"><ele>2.0</ele><time>2026-04-04T09:01:44.194Z</time></trkpt><trkpt lat="41.4177343" lon="12.8008913"><ele>1.6666666666666665</ele><time>2026-04-04T09:01:45.194Z</time></trkpt><trkpt lat="41.417728" lon="12.801073"><ele>1.3333333333333333</ele><time>2026-04-04T09:01:46.194Z</time></trkpt><trkpt lat="41.4177183" lon="12.8012379"><ele>1.0</ele><time>2026-04-04T09:01:47.194Z</time></trkpt><trkpt lat="41.4176874" lon="12.8015764"><ele>1.0</ele><time>2026-04-04T09:01:49.194Z</time></trkpt><trkpt lat="41.4175985" lon="12.8018359"><ele>1.0</ele><time>2026-04-04T09:01:51.194Z</time></trkpt><trkpt lat="41.4175435" lon="12.8019575"><ele>1.0</ele><time>2026-04-04T09:01:52.195Z</time></trkpt><trkpt lat="41.4174778" lon="12.8020523"><ele>1.0</ele><time>2026-04-04T09:01:53.194Z</time></trkpt><trkpt lat="41.4173749" lon="12.8021603"><ele>1.0</ele><time>2026-04-04T09:01:54.194Z</time></trkpt><trkpt lat="41.4171933" lon="12.802321"><ele>1.0</ele><time>2026-04-04T09:01:55.195Z</time></trkpt><trkpt lat="41.4170863" lon="12.8024721"><ele>1.0</ele><time>2026-04-04T09:01:56.194Z</time></trkpt><trkpt lat="41.4169086" lon="12.8028228"><ele>1.0</ele><time>2026-04-04T09:01:58.195Z</time></trkpt><trkpt lat="41.416834" lon="12.803019"><ele>1.0</ele><time>2026-04-04T09:01:59.194Z</time></trkpt><trkpt lat="41.4167707" lon="12.8032214"><ele>1.0</ele><time>2026-04-04T09:02:00.194Z</time></trkpt><trkpt lat="41.4166867" lon="12.8034638"><ele>0.5</ele><time>2026-04-04T09:02:01.194Z</time></trkpt><trkpt lat="41.4166141" lon="12.8037671"><ele>0.0</ele><time>2026-04-04T09:02:02.195Z</time></trkpt><trkpt lat="41.4165363" lon="12.8040295"><ele>0.0</ele><time>2026-04-04T09:02:03.194Z</time></trkpt><trkpt lat="41.4164643" lon="12.8042925"><ele>0.0</ele><time>2026-04-04T09:02:04.194Z</time></trkpt><trkpt lat="41.4163905" lon="12.8045152"><ele>0.0</ele><time>2026-04-04T09:02:05.194Z</time></trkpt><trkpt lat="41.4162593" lon="12.8049508"><ele>0.5</ele><time>2026-04-04T09:02:07.195Z</time></trkpt><trkpt lat="41.4161496" lon="12.8053666"><ele>1.0</ele><time>2026-04-04T09:02:09.194Z</time></trkpt><trkpt lat="41.4160848" lon="12.8055654"><ele>1.0</ele><time>2026-04-04T09:02:10.195Z</time></trkpt><trkpt lat="41.4159815" lon="12.8059775"><ele>1.0</ele><time>2026-04-04T09:02:12.194Z</time></trkpt><trkpt lat="41.4159166" lon="12.8061931"><ele>1.5</ele><time>2026-04-04T09:02:13.194Z</time></trkpt><trkpt lat="41.4158635" lon="12.8064038"><ele>2.0</ele><time>2026-04-04T09:02:14.194Z</time></trkpt><trkpt lat="41.4157434" lon="12.8068161"><ele>2.6666666666666665</ele><time>2026-04-04T09:02:16.194Z</time></trkpt><trkpt lat="41.4157212" lon="12.807082"><ele>3.333333333333333</ele><time>2026-04-04T09:02:17.195Z</time></trkpt><trkpt lat="41.4157062" lon="12.8073755"><ele>4.0</ele><time>2026-04-04T09:02:18.195Z</time></trkpt><trkpt lat="41.4156927" lon="12.807709"><ele>4.0</ele><time>2026-04-04T09:02:19.194Z</time></trkpt><trkpt lat="41.4156811" lon="12.8080247"><ele>4.0</ele><time>2026-04-04T09:02:20.194Z</time></trkpt><trkpt lat="41.4156662" lon="12.8083158"><ele>4.0</ele><time>2026-04-04T09:02:21.195Z</time></trkpt><trkpt lat="41.4156514" lon="12.8086038"><ele>4.0</ele><time>2026-04-04T09:02:22.194Z</time></trkpt><trkpt lat="41.4156245" lon="12.8088891"><ele>4.0</ele><time>2026-04-04T09:02:23.194Z</time></trkpt><trkpt lat="41.415611" lon="12.8091487"><ele>4.5</ele><time>2026-04-04T09:02:24.194Z</time></trkpt><trkpt lat="41.4155944" lon="12.8096571"><ele>5.0</ele><time>2026-04-04T09:02:26.195Z</time></trkpt><trkpt lat="41.4155489" lon="12.8102153"><ele>5.0</ele><time>2026-04-04T09:02:28.195Z</time></trkpt><trkpt lat="41.4155424" lon="12.8104611"><ele>5.0</ele><time>2026-04-04T09:02:29.195Z</time></trkpt><trkpt lat="41.4155372" lon="12.8106711"><ele>5.0</ele><time>2026-04-04T09:02:30.194Z</time></trkpt><trkpt lat="41.4155319" lon="12.8111063"><ele>5.0</ele><time>2026-04-04T09:02:32.194Z</time></trkpt><trkpt lat="41.4155151" lon="12.8114345"><ele>5.0</ele><time>2026-04-04T09:02:34.194Z</time></trkpt><trkpt lat="41.4155094" lon="12.8116046"><ele>5.0</ele><time>2026-04-04T09:02:35.194Z</time></trkpt><trkpt lat="41.415505" lon="12.8117532"><ele>4.4</ele><time>2026-04-04T09:02:36.194Z</time></trkpt><trkpt lat="41.4155043" lon="12.8118773"><ele>3.8</ele><time>2026-04-04T09:02:37.195Z</time></trkpt><trkpt lat="41.415553" lon="12.8119908"><ele>3.2</ele><time>2026-04-04T09:02:39.194Z</time></trkpt><trkpt lat="41.4156917" lon="12.8120465"><ele>2.6</ele><time>2026-04-04T09:02:41.194Z</time></trkpt><trkpt lat="41.415785" lon="12.8120828"><ele>2.0</ele><time>2026-04-04T09:02:42.195Z</time></trkpt><trkpt lat="41.4158843" lon="12.8120968"><ele>2.0</ele><time>2026-04-04T09:02:43.194Z</time></trkpt><trkpt lat="41.4160041" lon="12.8121141"><ele>2.0</ele><time>2026-04-04T09:02:44.194Z</time></trkpt><trkpt lat="41.4162708" lon="12.812114"><ele>2.0</ele><time>2026-04-04T09:02:46.194Z</time></trkpt><trkpt lat="41.4164292" lon="12.8121171"><ele>2.0</ele><time>2026-04-04T09:02:47.195Z</time></trkpt><trkpt lat="41.4167698" lon="12.8121221"><ele>2.0</ele><time>2026-04-04T09:02:49.194Z</time></trkpt><trkpt lat="41.4169583" lon="12.8121236"><ele>2.0</ele><time>2026-04-04T09:02:50.194Z</time></trkpt><trkpt lat="41.4171326" lon="12.8121128"><ele>2.0</ele><time>2026-04-04T09:02:51.194Z</time></trkpt><trkpt lat="41.417296" lon="12.8121116"><ele>2.0</ele><time>2026-04-04T09:02:52.194Z</time></trkpt><trkpt lat="41.4174575" lon="12.8121181"><ele>2.5</ele><time>2026-04-04T09:02:53.195Z</time></trkpt><trkpt lat="41.4176056" lon="12.8121128"><ele>3.0</ele><time>2026-04-04T09:02:54.194Z</time></trkpt><trkpt lat="41.4177497" lon="12.8121216"><ele>3.5</ele><time>2026-04-04T09:02:55.194Z</time></trkpt><trkpt lat="41.417895" lon="12.812128"><ele>4.0</ele><time>2026-04-04T09:02:56.194Z</time></trkpt><trkpt lat="41.4180468" lon="12.8121422"><ele>4.0</ele><time>2026-04-04T09:02:57.194Z</time></trkpt><trkpt lat="41.4181772" lon="12.8121469"><ele>4.0</ele><time>2026-04-04T09:02:58.194Z</time></trkpt><trkpt lat="41.4183027" lon="12.8121522"><ele>4.0</ele><time>2026-04-04T09:02:59.195Z</time></trkpt><trkpt lat="41.4185129" lon="12.8121637"><ele>3.9999999999999996</ele><time>2026-04-04T09:03:01.194Z</time></trkpt><trkpt lat="41.4185886" lon="12.8121692"><ele>4.0</ele><time>2026-04-04T09:03:02.194Z</time></trkpt><trkpt lat="41.4186719" lon="12.8121636"><ele>4.0</ele><time>2026-04-04T09:03:03.195Z</time></trkpt><trkpt lat="41.4187353" lon="12.8122466"><ele>4.0</ele><time>2026-04-04T09:03:11.194Z</time></trkpt><trkpt lat="41.4187546" lon="12.8123397"><ele>3.9999999999999996</ele><time>2026-04-04T09:03:13.194Z</time></trkpt><trkpt lat="41.4188061" lon="12.8123959"><ele>4.0</ele><time>2026-04-04T09:03:15.195Z</time></trkpt><trkpt lat="41.4189317" lon="12.81247"><ele>4.0</ele><time>2026-04-04T09:03:17.194Z</time></trkpt><trkpt lat="41.4190407" lon="12.8124961"><ele>4.0</ele><time>2026-04-04T09:03:19.194Z</time></trkpt><trkpt lat="41.4191796" lon="12.8125277"><ele>4.0</ele><time>2026-04-04T09:03:21.194Z</time></trkpt><trkpt lat="41.4193662" lon="12.8125645"><ele>4.0</ele><time>2026-04-04T09:03:23.194Z</time></trkpt><trkpt lat="41.4195785" lon="12.8125683"><ele>4.25</ele><time>2026-04-04T09:03:25.195Z</time></trkpt><trkpt lat="41.4196958" lon="12.8125689"><ele>4.5</ele><time>2026-04-04T09:03:26.194Z</time></trkpt><trkpt lat="41.4198257" lon="12.812587"><ele>4.75</ele><time>2026-04-04T09:03:27.194Z</time></trkpt><trkpt lat="41.4199529" lon="12.8125921"><ele>5.0</ele><time>2026-04-04T09:03:28.194Z</time></trkpt><trkpt lat="41.4200894" lon="12.812593"><ele>5.0</ele><time>2026-04-04T09:03:29.195Z</time></trkpt><trkpt lat="41.4203991" lon="12.8126019"><ele>5.0</ele><time>2026-04-04T09:03:31.194Z</time></trkpt><trkpt lat="41.4207159" lon="12.8126047"><ele>5.333333333333334</ele><time>2026-04-04T09:03:33.195Z</time></trkpt><trkpt lat="41.4210119" lon="12.8126442"><ele>5.666666666666667</ele><time>2026-04-04T09:03:35.194Z</time></trkpt><trkpt lat="41.4211418" lon="12.81265"><ele>6.0</ele><time>2026-04-04T09:03:36.194Z</time></trkpt><trkpt lat="41.4214127" lon="12.8126226"><ele>5.333333333333333</ele><time>2026-04-04T09:03:38.194Z</time></trkpt><trkpt lat="41.421529" lon="12.8125961"><ele>4.666666666666666</ele><time>2026-04-04T09:03:39.194Z</time></trkpt><trkpt lat="41.4217377" lon="12.8125569"><ele>4.0</ele><time>2026-04-04T09:03:41.194Z</time></trkpt><trkpt lat="41.421952" lon="12.8126052"><ele>4.0</ele><time>2026-04-04T09:03:43.194Z</time></trkpt><trkpt lat="41.4220494" lon="12.8126133"><ele>4.0</ele><time>2026-04-04T09:03:44.195Z</time></trkpt><trkpt lat="41.422146" lon="12.8125987"><ele>4.0</ele><time>2026-04-04T09:03:45.194Z</time></trkpt><trkpt lat="41.4222549" lon="12.8125878"><ele>4.0</ele><time>2026-04-04T09:03:46.194Z</time></trkpt><trkpt lat="41.4224981" lon="12.8125568"><ele>4.0</ele><time>2026-04-04T09:03:48.195Z</time></trkpt><trkpt lat="41.4226353" lon="12.8125654"><ele>4.0</ele><time>2026-04-04T09:03:49.194Z</time></trkpt><trkpt lat="41.4227566" lon="12.8125817"><ele>4.0</ele><time>2026-04-04T09:03:50.194Z</time></trkpt><trkpt lat="41.4228797" lon="12.8125864"><ele>4.0</ele><time>2026-04-04T09:03:51.194Z</time></trkpt><trkpt lat="41.4230159" lon="12.8125822"><ele>4.0</ele><time>2026-04-04T09:03:52.194Z</time></trkpt><trkpt lat="41.4231488" lon="12.8125787"><ele>4.0</ele><time>2026-04-04T09:03:53.194Z</time></trkpt><trkpt lat="41.4232735" lon="12.8125828"><ele>4.0</ele><time>2026-04-04T09:03:54.195Z</time></trkpt><trkpt lat="41.4233911" lon="12.8125961"><ele>4.0</ele><time>2026-04-04T09:03:55.194Z</time></trkpt><trkpt lat="41.4236041" lon="12.8126242"><ele>3.0</ele><time>2026-04-04T09:03:57.194Z</time></trkpt><trkpt lat="41.4237987" lon="12.8126686"><ele>2.0</ele><time>2026-04-04T09:03:59.194Z</time></trkpt><trkpt lat="41.4239568" lon="12.8126943"><ele>1.0</ele><time>2026-04-04T09:04:01.194Z</time></trkpt><trkpt lat="41.4241521" lon="12.8127223"><ele>1.0</ele><time>2026-04-04T09:04:04.194Z</time></trkpt><trkpt lat="41.4242253" lon="12.8127095"><ele>1.0</ele><time>2026-04-04T09:04:05.194Z</time></trkpt><trkpt lat="41.4242935" lon="12.8127141"><ele>1.0</ele><time>2026-04-04T09:04:06.194Z</time></trkpt><trkpt lat="41.4243644" lon="12.8127141"><ele>1.0</ele><time>2026-04-04T09:04:07.194Z</time></trkpt><trkpt lat="41.4244491" lon="12.8127069"><ele>1.0</ele><time>2026-04-04T09:04:08.195Z</time></trkpt><trkpt lat="41.4246196" lon="12.812703"><ele>1.25</ele><time>2026-04-04T09:04:10.194Z</time></trkpt><trkpt lat="41.4247057" lon="12.812698"><ele>1.5</ele><time>2026-04-04T09:04:11.195Z</time></trkpt><trkpt lat="41.4247893" lon="12.8127032"><ele>1.75</ele><time>2026-04-04T09:04:12.194Z</time></trkpt><trkpt lat="41.4249802" lon="12.8127108"><ele>2.0</ele><time>2026-04-04T09:04:14.194Z</time></trkpt><trkpt lat="41.4250814" lon="12.8127232"><ele>2.0</ele><time>2026-04-04T09:04:15.195Z</time></trkpt><trkpt lat="41.4251908" lon="12.8127312"><ele>2.0</ele><time>2026-04-04T09:04:16.194Z</time></trkpt><trkpt lat="41.4252872" lon="12.812737"><ele>2.0</ele><time>2026-04-04T09:04:17.194Z</time></trkpt><trkpt lat="41.4254779" lon="12.8127465"><ele>2.0</ele><time>2026-04-04T09:04:19.194Z</time></trkpt><trkpt lat="41.4256643" lon="12.8127611"><ele>2.0</ele><time>2026-04-04T09:04:21.194Z</time></trkpt><trkpt lat="41.4258584" lon="12.812787"><ele>2.0</ele><time>2026-04-04T09:04:23.194Z</time></trkpt><trkpt lat="41.426036" lon="12.8128269"><ele>2.0</ele><time>2026-04-04T09:04:25.195Z</time></trkpt><trkpt lat="41.426125" lon="12.8128539"><ele>2.0</ele><time>2026-04-04T09:04:26.194Z</time></trkpt><trkpt lat="41.4262177" lon="12.8128832"><ele>2.0</ele><time>2026-04-04T09:04:27.194Z</time></trkpt><trkpt lat="41.4263194" lon="12.8129162"><ele>2.0</ele><time>2026-04-04T09:04:28.194Z</time></trkpt><trkpt lat="41.4264076" lon="12.8129355"><ele>2.0</ele><time>2026-04-04T09:04:29.194Z</time></trkpt><trkpt lat="41.4265951" lon="12.8129741"><ele>2.333333333333333</ele><time>2026-04-04T09:04:31.194Z</time></trkpt><trkpt lat="41.4267744" lon="12.8130495"><ele>2.6666666666666665</ele><time>2026-04-04T09:04:33.194Z</time></trkpt><trkpt lat="41.4269476" lon="12.8131164"><ele>3.0</ele><time>2026-04-04T09:04:35.194Z</time></trkpt><trkpt lat="41.4271041" lon="12.8132074"><ele>3.25</ele><time>2026-04-04T09:04:37.194Z</time></trkpt><trkpt lat="41.4272654" lon="12.8133098"><ele>3.5</ele><time>2026-04-04T09:04:39.194Z</time></trkpt><trkpt lat="41.4274001" lon="12.8134203"><ele>3.75</ele><time>2026-04-04T09:04:41.194Z</time></trkpt><trkpt lat="41.4274686" lon="12.8134663"><ele>4.0</ele><time>2026-04-04T09:04:42.194Z</time></trkpt><trkpt lat="41.4276173" lon="12.8135812"><ele>3.75</ele><time>2026-04-04T09:04:44.194Z</time></trkpt><trkpt lat="41.4276813" lon="12.8136336"><ele>3.5</ele><time>2026-04-04T09:04:45.195Z</time></trkpt><trkpt lat="41.4277852" lon="12.8137348"><ele>3.25</ele><time>2026-04-04T09:04:47.194Z</time></trkpt><trkpt lat="41.4279009" lon="12.8138264"><ele>3.0</ele><time>2026-04-04T09:04:49.194Z</time></trkpt><trkpt lat="41.4280235" lon="12.8139189"><ele>3.0</ele><time>2026-04-04T09:04:51.194Z</time></trkpt><trkpt lat="41.4281711" lon="12.8139784"><ele>3.0</ele><time>2026-04-04T09:04:53.194Z</time></trkpt><trkpt lat="41.4282986" lon="12.814064"><ele>3.0</ele><time>2026-04-04T09:04:55.194Z</time></trkpt><trkpt lat="41.4283752" lon="12.814117"><ele>3.0</ele><time>2026-04-04T09:04:56.194Z</time></trkpt><trkpt lat="41.4285246" lon="12.8142267"><ele>3.0</ele><time>2026-04-04T09:04:58.194Z</time></trkpt><trkpt lat="41.4286721" lon="12.8143379"><ele>3.0</ele><time>2026-04-04T09:05:00.195Z</time></trkpt><trkpt lat="41.4287468" lon="12.8143853"><ele>3.0</ele><time>2026-04-04T09:05:01.194Z</time></trkpt><trkpt lat="41.428822" lon="12.8144402"><ele>3.0</ele><time>2026-04-04T09:05:02.194Z</time></trkpt><trkpt lat="41.428899" lon="12.8144914"><ele>3.0</ele><time>2026-04-04T09:05:03.195Z</time></trkpt><trkpt lat="41.4289776" lon="12.8145337"><ele>3.0</ele><time>2026-04-04T09:05:04.194Z</time></trkpt><trkpt lat="41.4290521" lon="12.8145746"><ele>3.0</ele><time>2026-04-04T09:05:05.194Z</time></trkpt><trkpt lat="41.4291302" lon="12.8146191"><ele>3.0</ele><time>2026-04-04T09:05:06.194Z</time></trkpt><trkpt lat="41.4292127" lon="12.8146604"><ele>3.0</ele><time>2026-04-04T09:05:07.194Z</time></trkpt><trkpt lat="41.4292886" lon="12.8147058"><ele>3.0</ele><time>2026-04-04T09:05:08.194Z</time></trkpt><trkpt lat="41.4293653" lon="12.8147485"><ele>3.0</ele><time>2026-04-04T09:05:09.194Z</time></trkpt><trkpt lat="41.4294483" lon="12.8147911"><ele>3.0</ele><time>2026-04-04T09:05:10.194Z</time></trkpt><trkpt lat="41.4296079" lon="12.8148738"><ele>3.0</ele><time>2026-04-04T09:05:12.194Z</time></trkpt><trkpt lat="41.4297503" lon="12.8149575"><ele>3.0</ele><time>2026-04-04T09:05:14.194Z</time></trkpt><trkpt lat="41.4298734" lon="12.8150435"><ele>4.0</ele><time>2026-04-04T09:05:16.194Z</time></trkpt><trkpt lat="41.4299989" lon="12.8150813"><ele>5.0</ele><time>2026-04-04T09:05:18.194Z</time></trkpt><trkpt lat="41.4301074" lon="12.8150347"><ele>6.000000000000001</ele><time>2026-04-04T09:05:20.194Z</time></trkpt><trkpt lat="41.4302069" lon="12.8150073"><ele>7.0</ele><time>2026-04-04T09:05:22.195Z</time></trkpt><trkpt lat="41.4302859" lon="12.8149553"><ele>8.0</ele><time>2026-04-04T09:05:24.194Z</time></trkpt><trkpt lat="41.4303556" lon="12.814864"><ele>8.0</ele><time>2026-04-04T09:05:26.194Z</time></trkpt><trkpt lat="41.4303835" lon="12.8147403"><ele>8.0</ele><time>2026-04-04T09:05:28.194Z</time></trkpt><trkpt lat="41.4304246" lon="12.8146207"><ele>8.0</ele><time>2026-04-04T09:05:30.195Z</time></trkpt><trkpt lat="41.4304511" lon="12.814496"><ele>8.0</ele><time>2026-04-04T09:05:32.194Z</time></trkpt><trkpt lat="41.4304637" lon="12.8143335"><ele>8.0</ele><time>2026-04-04T09:05:34.194Z</time></trkpt><trkpt lat="41.4304701" lon="12.8142199"><ele>8.0</ele><time>2026-04-04T09:05:36.195Z</time></trkpt><trkpt lat="41.4305067" lon="12.8141114"><ele>8.0</ele><time>2026-04-04T09:05:39.194Z</time></trkpt><trkpt lat="41.4305211" lon="12.8142053"><ele>8.0</ele><time>2026-04-04T09:05:42.194Z</time></trkpt><trkpt lat="41.4305002" lon="12.8143124"><ele>8.0</ele><time>2026-04-04T09:05:43.195Z</time></trkpt><trkpt lat="41.4304782" lon="12.8144014"><ele>8.0</ele><time>2026-04-04T09:05:44.194Z</time></trkpt><trkpt lat="41.430454" lon="12.8145795"><ele>8.0</ele><time>2026-04-04T09:05:45.194Z</time></trkpt><trkpt lat="41.430442" lon="12.8147597"><ele>8.0</ele><time>2026-04-04T09:05:46.194Z</time></trkpt><trkpt lat="41.4304164" lon="12.8149404"><ele>8.0</ele><time>2026-04-04T09:05:47.194Z</time></trkpt><trkpt lat="41.430384" lon="12.8151393"><ele>8.0</ele><time>2026-04-04T09:05:48.194Z</time></trkpt><trkpt lat="41.4303556" lon="12.8153089"><ele>6.75</ele><time>2026-04-04T09:05:49.194Z</time></trkpt><trkpt lat="41.4303294" lon="12.8154765"><ele>5.5</ele><time>2026-04-04T09:05:50.194Z</time></trkpt><trkpt lat="41.4303043" lon="12.8156147"><ele>4.25</ele><time>2026-04-04T09:05:51.194Z</time></trkpt><trkpt lat="41.430281" lon="12.815865"><ele>3.0</ele><time>2026-04-04T09:05:53.194Z</time></trkpt><trkpt lat="41.4302431" lon="12.8159353"><ele>3.0</ele><time>2026-04-04T09:05:55.194Z</time></trkpt><trkpt lat="41.4301958" lon="12.8158766"><ele>3.0</ele><time>2026-04-04T09:05:58.194Z</time></trkpt><trkpt lat="41.4301091" lon="12.8158376"><ele>3.0</ele><time>2026-04-04T09:06:01.194Z</time></trkpt><trkpt lat="41.4300465" lon="12.8158141"><ele>3.0</ele><time>2026-04-04T09:06:03.194Z</time></trkpt><trkpt lat="41.4300002" lon="12.8157327"><ele>3.0</ele><time>2026-04-04T09:06:06.194Z</time></trkpt><trkpt lat="41.43005" lon="12.815646"><ele>3.0</ele><time>2026-04-04T09:06:09.195Z</time></trkpt><trkpt lat="41.4301354" lon="12.8156591"><ele>3.0</ele><time>2026-04-04T09:06:12.194Z</time></trkpt><trkpt lat="41.430217" lon="12.8156773"><ele>3.0</ele><time>2026-04-04T09:06:14.194Z</time></trkpt><trkpt lat="41.4303075" lon="12.8156922"><ele>3.0</ele><time>2026-04-04T09:06:16.194Z</time></trkpt><trkpt lat="41.4304151" lon="12.8157343"><ele>3.0</ele><time>2026-04-04T09:06:18.194Z</time></trkpt><trkpt lat="41.4305057" lon="12.8157135"><ele>3.0</ele><time>2026-04-04T09:06:20.194Z</time></trkpt><trkpt lat="41.4306576" lon="12.8156851"><ele>3.0</ele><time>2026-04-04T09:06:23.194Z</time></trkpt><trkpt lat="41.4307647" lon="12.815741"><ele>3.0</ele><time>2026-04-04T09:06:25.194Z</time></trkpt><trkpt lat="41.4308315" lon="12.8157793"><ele>3.0</ele><time>2026-04-04T09:06:26.194Z</time></trkpt><trkpt lat="41.4309124" lon="12.8158152"><ele>3.0</ele><time>2026-04-04T09:06:27.194Z</time></trkpt><trkpt lat="41.4309922" lon="12.8158464"><ele>3.0</ele><time>2026-04-04T09:06:28.194Z</time></trkpt><trkpt lat="41.4310677" lon="12.8158647"><ele>3.0</ele><time>2026-04-04T09:06:29.194Z</time></trkpt><trkpt lat="41.4312384" lon="12.8159195"><ele>3.0</ele><time>2026-04-04T09:06:32.194Z</time></trkpt><trkpt lat="41.4313201" lon="12.8159231"><ele>3.0</ele><time>2026-04-04T09:06:34.194Z</time></trkpt><trkpt lat="41.431395" lon="12.8159135"><ele>3.0</ele><time>2026-04-04T09:06:36.194Z</time></trkpt><trkpt lat="41.4314798" lon="12.8160219"><ele>3.0</ele><time>2026-04-04T09:06:38.195Z</time></trkpt><trkpt lat="41.4316096" lon="12.8161602"><ele>3.0</ele><time>2026-04-04T09:06:40.194Z</time></trkpt><trkpt lat="41.4316717" lon="12.8162108"><ele>3.0</ele><time>2026-04-04T09:06:41.195Z</time></trkpt><trkpt lat="41.4317379" lon="12.816252"><ele>3.0</ele><time>2026-04-04T09:06:42.194Z</time></trkpt><trkpt lat="41.431797" lon="12.816282"><ele>3.0</ele><time>2026-04-04T09:06:43.195Z</time></trkpt><trkpt lat="41.4318671" lon="12.8162963"><ele>3.0</ele><time>2026-04-04T09:06:44.194Z</time></trkpt><trkpt lat="41.4320286" lon="12.8163034"><ele>3.0</ele><time>2026-04-04T09:06:46.194Z</time></trkpt><trkpt lat="41.4321114" lon="12.8163036"><ele>2.8</ele><time>2026-04-04T09:06:47.194Z</time></trkpt><trkpt lat="41.4322088" lon="12.816302"><ele>2.5999999999999996</ele><time>2026-04-04T09:06:48.194Z</time></trkpt><trkpt lat="41.4322858" lon="12.8163122"><ele>2.4000000000000004</ele><time>2026-04-04T09:06:49.194Z</time></trkpt><trkpt lat="41.4323782" lon="12.8163133"><ele>2.2</ele><time>2026-04-04T09:06:50.194Z</time></trkpt><trkpt lat="41.4324661" lon="12.8163041"><ele>2.0</ele><time>2026-04-04T09:06:51.195Z</time></trkpt><trkpt lat="41.4326226" lon="12.8162991"><ele>2.0</ele><time>2026-04-04T09:06:53.194Z</time></trkpt><trkpt lat="41.4326887" lon="12.8163037"><ele>2.0</ele><time>2026-04-04T09:06:54.194Z</time></trkpt><trkpt lat="41.4328272" lon="12.8162618"><ele>2.0</ele><time>2026-04-04T09:06:56.194Z</time></trkpt><trkpt lat="41.4329878" lon="12.8162101"><ele>2.0</ele><time>2026-04-04T09:06:58.194Z</time></trkpt><trkpt lat="41.4331492" lon="12.816174"><ele>2.2</ele><time>2026-04-04T09:07:00.194Z</time></trkpt><trkpt lat="41.4332294" lon="12.8161342"><ele>2.4000000000000004</ele><time>2026-04-04T09:07:01.195Z</time></trkpt><trkpt lat="41.4333946" lon="12.8160923"><ele>2.5999999999999996</ele><time>2026-04-04T09:07:03.194Z</time></trkpt><trkpt lat="41.4334564" lon="12.8160643"><ele>2.8</ele><time>2026-04-04T09:07:04.195Z</time></trkpt><trkpt lat="41.4335199" lon="12.8160013"><ele>3.0</ele><time>2026-04-04T09:07:05.194Z</time></trkpt><trkpt lat="41.4335928" lon="12.8159375"><ele>3.0</ele><time>2026-04-04T09:07:06.194Z</time></trkpt><trkpt lat="41.4337297" lon="12.8158582"><ele>3.0</ele><time>2026-04-04T09:07:08.194Z</time></trkpt><trkpt lat="41.4338093" lon="12.8158116"><ele>3.0</ele><time>2026-04-04T09:07:09.195Z</time></trkpt><trkpt lat="41.4338973" lon="12.8157463"><ele>3.0</ele><time>2026-04-04T09:07:10.194Z</time></trkpt><trkpt lat="41.434066" lon="12.8156117"><ele>3.333333333333333</ele><time>2026-04-04T09:07:12.194Z</time></trkpt><trkpt lat="41.4341415" lon="12.8155445"><ele>3.6666666666666665</ele><time>2026-04-04T09:07:13.194Z</time></trkpt><trkpt lat="41.434302" lon="12.8153916"><ele>4.0</ele><time>2026-04-04T09:07:15.195Z</time></trkpt><trkpt lat="41.4344525" lon="12.8151906"><ele>3.75</ele><time>2026-04-04T09:07:17.195Z</time></trkpt><trkpt lat="41.4345898" lon="12.8150138"><ele>3.5</ele><time>2026-04-04T09:07:19.194Z</time></trkpt><trkpt lat="41.4346762" lon="12.8149098"><ele>3.25</ele><time>2026-04-04T09:07:21.194Z</time></trkpt><trkpt lat="41.4347683" lon="12.8148196"><ele>3.0</ele><time>2026-04-04T09:07:23.194Z</time></trkpt><trkpt lat="41.43485" lon="12.8147873"><ele>3.0</ele><time>2026-04-04T09:07:25.194Z</time></trkpt><trkpt lat="41.4349857" lon="12.8147966"><ele>3.0</ele><time>2026-04-04T09:07:28.194Z</time></trkpt><trkpt lat="41.4350716" lon="12.8149169"><ele>3.0</ele><time>2026-04-04T09:07:30.194Z</time></trkpt><trkpt lat="41.435151" lon="12.8151305"><ele>3.0</ele><time>2026-04-04T09:07:32.194Z</time></trkpt><trkpt lat="41.4352542" lon="12.8153731"><ele>3.0</ele><time>2026-04-04T09:07:34.194Z</time></trkpt><trkpt lat="41.435363" lon="12.8156353"><ele>3.0</ele><time>2026-04-04T09:07:36.194Z</time></trkpt><trkpt lat="41.4354302" lon="12.8158025"><ele>3.0</ele><time>2026-04-04T09:07:37.194Z</time></trkpt><trkpt lat="41.4355044" lon="12.8159567"><ele>2.6666666666666665</ele><time>2026-04-04T09:07:38.194Z</time></trkpt><trkpt lat="41.4355878" lon="12.8161532"><ele>2.333333333333333</ele><time>2026-04-04T09:07:39.195Z</time></trkpt><trkpt lat="41.435664" lon="12.8163674"><ele>2.0</ele><time>2026-04-04T09:07:40.194Z</time></trkpt><trkpt lat="41.435836" lon="12.8167828"><ele>2.0</ele><time>2026-04-04T09:07:42.194Z</time></trkpt><trkpt lat="41.4359084" lon="12.8169676"><ele>2.0</ele><time>2026-04-04T09:07:43.194Z</time></trkpt><trkpt lat="41.4359751" lon="12.8171298"><ele>2.0</ele><time>2026-04-04T09:07:44.194Z</time></trkpt><trkpt lat="41.4360289" lon="12.8172744"><ele>2.0</ele><time>2026-04-04T09:07:45.194Z</time></trkpt><trkpt lat="41.4360899" lon="12.8174936"><ele>2.0</ele><time>2026-04-04T09:07:47.194Z</time></trkpt><trkpt lat="41.4361225" lon="12.817642"><ele>2.0</ele><time>2026-04-04T09:07:49.194Z</time></trkpt><trkpt lat="41.4361893" lon="12.8177102"><ele>2.0</ele><time>2026-04-04T09:07:51.194Z</time></trkpt><trkpt lat="41.4362801" lon="12.8178054"><ele>2.0</ele><time>2026-04-04T09:07:53.194Z</time></trkpt><trkpt lat="41.4363738" lon="12.8178828"><ele>2.0</ele><time>2026-04-04T09:07:55.194Z</time></trkpt><trkpt lat="41.4364765" lon="12.8179549"><ele>2.8</ele><time>2026-04-04T09:07:57.194Z</time></trkpt><trkpt lat="41.4365803" lon="12.8180392"><ele>3.6</ele><time>2026-04-04T09:07:59.194Z</time></trkpt><trkpt lat="41.4366552" lon="12.8181077"><ele>4.3999999999999995</ele><time>2026-04-04T09:08:01.194Z</time></trkpt><trkpt lat="41.4367451" lon="12.8181757"><ele>5.2</ele><time>2026-04-04T09:08:03.194Z</time></trkpt><trkpt lat="41.4368494" lon="12.8182508"><ele>6.0</ele><time>2026-04-04T09:08:05.194Z</time></trkpt><trkpt lat="41.4369081" lon="12.8182883"><ele>6.0</ele><time>2026-04-04T09:08:06.194Z</time></trkpt><trkpt lat="41.4370263" lon="12.8183663"><ele>6.0</ele><time>2026-04-04T09:08:08.194Z</time></trkpt><trkpt lat="41.4371259" lon="12.8184532"><ele>6.0</ele><time>2026-04-04T09:08:10.194Z</time></trkpt><trkpt lat="41.4372609" lon="12.8185367"><ele>6.0</ele><time>2026-04-04T09:08:12.194Z</time></trkpt><trkpt lat="41.4373178" lon="12.8185861"><ele>7.0</ele><time>2026-04-04T09:08:13.194Z</time></trkpt><trkpt lat="41.437441" lon="12.8186866"><ele>8.0</ele><time>2026-04-04T09:08:15.194Z</time></trkpt><trkpt lat="41.4375749" lon="12.8187737"><ele>9.0</ele><time>2026-04-04T09:08:17.194Z</time></trkpt><trkpt lat="41.4376894" lon="12.8188692"><ele>10.0</ele><time>2026-04-04T09:08:19.194Z</time></trkpt><trkpt lat="41.4378114" lon="12.8189478"><ele>10.0</ele><time>2026-04-04T09:08:21.194Z</time></trkpt><trkpt lat="41.4379039" lon="12.819031"><ele>10.0</ele><time>2026-04-04T09:08:23.194Z</time></trkpt><trkpt lat="41.4379678" lon="12.8190734"><ele>10.0</ele><time>2026-04-04T09:08:24.194Z</time></trkpt><trkpt lat="41.4380355" lon="12.8191124"><ele>10.0</ele><time>2026-04-04T09:08:25.194Z</time></trkpt><trkpt lat="41.4381439" lon="12.819208"><ele>10.0</ele><time>2026-04-04T09:08:27.194Z</time></trkpt><trkpt lat="41.4381994" lon="12.819251"><ele>10.0</ele><time>2026-04-04T09:08:28.194Z</time></trkpt><trkpt lat="41.4382597" lon="12.819287"><ele>10.0</ele><time>2026-04-04T09:08:29.194Z</time></trkpt><trkpt lat="41.4383164" lon="12.8193365"><ele>10.0</ele><time>2026-04-04T09:08:30.194Z</time></trkpt><trkpt lat="41.4383887" lon="12.8193818"><ele>10.0</ele><time>2026-04-04T09:08:31.194Z</time></trkpt><trkpt lat="41.4385183" lon="12.819465"><ele>10.0</ele><time>2026-04-04T09:08:33.194Z</time></trkpt><trkpt lat="41.4386298" lon="12.8195408"><ele>10.0</ele><time>2026-04-04T09:08:35.194Z</time></trkpt><trkpt lat="41.438697" lon="12.8195827"><ele>10.0</ele><time>2026-04-04T09:08:36.194Z</time></trkpt><trkpt lat="41.4388064" lon="12.8196809"><ele>10.0</ele><time>2026-04-04T09:08:38.194Z</time></trkpt><trkpt lat="41.4388994" lon="12.8197795"><ele>10.0</ele><time>2026-04-04T09:08:40.195Z</time></trkpt><trkpt lat="41.4389583" lon="12.819821"><ele>10.0</ele><time>2026-04-04T09:08:41.194Z</time></trkpt><trkpt lat="41.4391107" lon="12.8199024"><ele>10.0</ele><time>2026-04-04T09:08:44.194Z</time></trkpt><trkpt lat="41.4391165" lon="12.8200286"><ele>10.0</ele><time>2026-04-04T09:08:47.194Z</time></trkpt><trkpt lat="41.4390682" lon="12.8201944"><ele>10.0</ele><time>2026-04-04T09:08:49.195Z</time></trkpt><trkpt lat="41.4390419" lon="12.8202756"><ele>10.0</ele><time>2026-04-04T09:08:50.194Z</time></trkpt><trkpt lat="41.4390193" lon="12.8203596"><ele>10.0</ele><time>2026-04-04T09:08:51.194Z</time></trkpt><trkpt lat="41.4389896" lon="12.8204445"><ele>10.0</ele><time>2026-04-04T09:08:52.194Z</time></trkpt><trkpt lat="41.4389675" lon="12.8205692"><ele>10.25</ele><time>2026-04-04T09:08:53.194Z</time></trkpt><trkpt lat="41.4389352" lon="12.8206928"><ele>10.5</ele><time>2026-04-04T09:08:54.194Z</time></trkpt><trkpt lat="41.4389127" lon="12.820831"><ele>10.75</ele><time>2026-04-04T09:08:55.195Z</time></trkpt><trkpt lat="41.4388377" lon="12.8210395"><ele>11.0</ele><time>2026-04-04T09:08:57.194Z</time></trkpt><trkpt lat="41.4388095" lon="12.8211403"><ele>10.8</ele><time>2026-04-04T09:08:58.194Z</time></trkpt><trkpt lat="41.4387602" lon="12.8213505"><ele>10.600000000000001</ele><time>2026-04-04T09:09:00.194Z</time></trkpt><trkpt lat="41.4387311" lon="12.8214513"><ele>10.4</ele><time>2026-04-04T09:09:01.194Z</time></trkpt><trkpt lat="41.4387119" lon="12.8215707"><ele>10.2</ele><time>2026-04-04T09:09:02.194Z</time></trkpt><trkpt lat="41.4386843" lon="12.8216843"><ele>10.0</ele><time>2026-04-04T09:09:03.195Z</time></trkpt><trkpt lat="41.43863" lon="12.8219104"><ele>10.0</ele><time>2026-04-04T09:09:05.195Z</time></trkpt><trkpt lat="41.4385897" lon="12.8221533"><ele>10.0</ele><time>2026-04-04T09:09:07.195Z</time></trkpt><trkpt lat="41.4385552" lon="12.8223005"><ele>10.0</ele><time>2026-04-04T09:09:08.194Z</time></trkpt><trkpt lat="41.4385228" lon="12.8224452"><ele>10.0</ele><time>2026-04-04T09:09:09.194Z</time></trkpt><trkpt lat="41.4384231" lon="12.8228404"><ele>10.0</ele><time>2026-04-04T09:09:11.194Z</time></trkpt><trkpt lat="41.4383707" lon="12.823051"><ele>10.0</ele><time>2026-04-04T09:09:12.194Z</time></trkpt><trkpt lat="41.4383121" lon="12.8232337"><ele>10.0</ele><time>2026-04-04T09:09:13.194Z</time></trkpt><trkpt lat="41.4382593" lon="12.8234418"><ele>10.0</ele><time>2026-04-04T09:09:14.194Z</time></trkpt><trkpt lat="41.4381996" lon="12.8236381"><ele>10.0</ele><time>2026-04-04T09:09:15.194Z</time></trkpt><trkpt lat="41.4381579" lon="12.8238464"><ele>10.0</ele><time>2026-04-04T09:09:16.194Z</time></trkpt><trkpt lat="41.4381057" lon="12.8240398"><ele>10.0</ele><time>2026-04-04T09:09:17.195Z</time></trkpt><trkpt lat="41.4380446" lon="12.8242125"><ele>10.0</ele><time>2026-04-04T09:09:18.194Z</time></trkpt><trkpt lat="41.4379915" lon="12.8243904"><ele>10.0</ele><time>2026-04-04T09:09:19.194Z</time></trkpt><trkpt lat="41.4379449" lon="12.8245772"><ele>10.0</ele><time>2026-04-04T09:09:20.194Z</time></trkpt><trkpt lat="41.4378903" lon="12.8247442"><ele>10.0</ele><time>2026-04-04T09:09:21.194Z</time></trkpt><trkpt lat="41.4377958" lon="12.8251198"><ele>10.0</ele><time>2026-04-04T09:09:23.194Z</time></trkpt><trkpt lat="41.4377025" lon="12.8254735"><ele>10.0</ele><time>2026-04-04T09:09:25.195Z</time></trkpt><trkpt lat="41.4376262" lon="12.8258498"><ele>10.0</ele><time>2026-04-04T09:09:27.194Z</time></trkpt><trkpt lat="41.4375744" lon="12.8260202"><ele>10.0</ele><time>2026-04-04T09:09:28.194Z</time></trkpt><trkpt lat="41.4375404" lon="12.8261834"><ele>10.0</ele><time>2026-04-04T09:09:29.194Z</time></trkpt><trkpt lat="41.4374939" lon="12.8263432"><ele>10.0</ele><time>2026-04-04T09:09:30.194Z</time></trkpt><trkpt lat="41.4374018" lon="12.8266494"><ele>10.0</ele><time>2026-04-04T09:09:32.195Z</time></trkpt><trkpt lat="41.4373533" lon="12.8267866"><ele>10.0</ele><time>2026-04-04T09:09:33.194Z</time></trkpt><trkpt lat="41.4373209" lon="12.8269335"><ele>10.0</ele><time>2026-04-04T09:09:34.194Z</time></trkpt><trkpt lat="41.437274" lon="12.8270457"><ele>10.0</ele><time>2026-04-04T09:09:35.194Z</time></trkpt><trkpt lat="41.4372399" lon="12.8271852"><ele>10.0</ele><time>2026-04-04T09:09:36.194Z</time></trkpt><trkpt lat="41.4372039" lon="12.8272962"><ele>10.0</ele><time>2026-04-04T09:09:37.194Z</time></trkpt><trkpt lat="41.4371629" lon="12.8273723"><ele>10.0</ele><time>2026-04-04T09:09:38.194Z</time></trkpt><trkpt lat="41.437139" lon="12.8275118"><ele>10.0</ele><time>2026-04-04T09:09:41.195Z</time></trkpt><trkpt lat="41.4372336" lon="12.8277599"><ele>10.0</ele><time>2026-04-04T09:09:52.194Z</time></trkpt><trkpt lat="41.4372755" lon="12.8278667"><ele>10.0</ele><time>2026-04-04T09:09:54.194Z</time></trkpt><trkpt lat="41.4373266" lon="12.8279243"><ele>10.0</ele><time>2026-04-04T09:09:56.194Z</time></trkpt><trkpt lat="41.4373491" lon="12.8280239"><ele>10.0</ele><time>2026-04-04T09:10:11.194Z</time></trkpt><trkpt lat="41.4372913" lon="12.8279028"><ele>10.0</ele><time>2026-04-04T09:14:05.194Z</time></trkpt><trkpt lat="41.4372864" lon="12.827711"><ele>10.0</ele><time>2026-04-04T09:14:06.195Z</time></trkpt><trkpt lat="41.4372264" lon="12.8276233"><ele>10.0</ele><time>2026-04-04T09:14:07.195Z</time></trkpt><trkpt lat="41.4372158" lon="12.8275306"><ele>10.0</ele><time>2026-04-04T09:14:08.195Z</time></trkpt><trkpt lat="41.4372514" lon="12.8274228"><ele>10.0</ele><time>2026-04-04T09:14:09.194Z</time></trkpt><trkpt lat="41.4372663" lon="12.8273274"><ele>10.0</ele><time>2026-04-04T09:14:10.194Z</time></trkpt><trkpt lat="41.4372775" lon="12.8272334"><ele>10.0</ele><time>2026-04-04T09:14:11.195Z</time></trkpt><trkpt lat="41.4372972" lon="12.8271298"><ele>10.0</ele><time>2026-04-04T09:14:12.194Z</time></trkpt><trkpt lat="41.437327" lon="12.8269942"><ele>10.0</ele><time>2026-04-04T09:14:14.194Z</time></trkpt><trkpt lat="41.4373412" lon="12.8269023"><ele>10.0</ele><time>2026-04-04T09:14:15.194Z</time></trkpt><trkpt lat="41.4373685" lon="12.8268201"><ele>10.0</ele><time>2026-04-04T09:14:16.195Z</time></trkpt><trkpt lat="41.4373873" lon="12.8267198"><ele>10.0</ele><time>2026-04-04T09:14:17.194Z</time></trkpt><trkpt lat="41.4374085" lon="12.8266387"><ele>10.0</ele><time>2026-04-04T09:14:18.194Z</time></trkpt><trkpt lat="41.4374608" lon="12.8265016"><ele>10.0</ele><time>2026-04-04T09:14:20.194Z</time></trkpt><trkpt lat="41.4374876" lon="12.826402"><ele>10.0</ele><time>2026-04-04T09:14:21.194Z</time></trkpt><trkpt lat="41.4375129" lon="12.8262833"><ele>10.0</ele><time>2026-04-04T09:14:22.195Z</time></trkpt><trkpt lat="41.4375419" lon="12.8261528"><ele>10.0</ele><time>2026-04-04T09:14:23.194Z</time></trkpt><trkpt lat="41.4375719" lon="12.8260111"><ele>10.0</ele><time>2026-04-04T09:14:24.194Z</time></trkpt><trkpt lat="41.4376126" lon="12.8258679"><ele>10.0</ele><time>2026-04-04T09:14:25.194Z</time></trkpt><trkpt lat="41.4376574" lon="12.8257054"><ele>10.0</ele><time>2026-04-04T09:14:26.194Z</time></trkpt><trkpt lat="41.4376893" lon="12.8255682"><ele>10.0</ele><time>2026-04-04T09:14:27.194Z</time></trkpt><trkpt lat="41.4377413" lon="12.8254228"><ele>10.0</ele><time>2026-04-04T09:14:28.194Z</time></trkpt><trkpt lat="41.4377761" lon="12.8252382"><ele>10.0</ele><time>2026-04-04T09:14:29.194Z</time></trkpt><trkpt lat="41.4378162" lon="12.8250741"><ele>10.0</ele><time>2026-04-04T09:14:30.194Z</time></trkpt><trkpt lat="41.4378693" lon="12.8248801"><ele>10.0</ele><time>2026-04-04T09:14:31.194Z</time></trkpt><trkpt lat="41.4379122" lon="12.8247036"><ele>10.0</ele><time>2026-04-04T09:14:32.195Z</time></trkpt><trkpt lat="41.437967" lon="12.8245218"><ele>10.0</ele><time>2026-04-04T09:14:33.194Z</time></trkpt><trkpt lat="41.43803" lon="12.8243459"><ele>10.0</ele><time>2026-04-04T09:14:34.194Z</time></trkpt><trkpt lat="41.4380812" lon="12.8241529"><ele>10.0</ele><time>2026-04-04T09:14:35.194Z</time></trkpt><trkpt lat="41.4381227" lon="12.8239664"><ele>10.0</ele><time>2026-04-04T09:14:36.194Z</time></trkpt><trkpt lat="41.4381832" lon="12.8237708"><ele>10.0</ele><time>2026-04-04T09:14:37.195Z</time></trkpt><trkpt lat="41.4382433" lon="12.8235655"><ele>10.0</ele><time>2026-04-04T09:14:38.195Z</time></trkpt><trkpt lat="41.4382857" lon="12.8233799"><ele>10.0</ele><time>2026-04-04T09:14:39.194Z</time></trkpt><trkpt lat="41.438338" lon="12.8232011"><ele>10.0</ele><time>2026-04-04T09:14:40.194Z</time></trkpt><trkpt lat="41.4383858" lon="12.8230253"><ele>10.0</ele><time>2026-04-04T09:14:41.194Z</time></trkpt><trkpt lat="41.4384239" lon="12.8228635"><ele>10.0</ele><time>2026-04-04T09:14:42.195Z</time></trkpt><trkpt lat="41.438471" lon="12.8227138"><ele>10.0</ele><time>2026-04-04T09:14:43.194Z</time></trkpt><trkpt lat="41.4385648" lon="12.8223942"><ele>10.0</ele><time>2026-04-04T09:14:45.195Z</time></trkpt><trkpt lat="41.4386111" lon="12.8222253"><ele>10.0</ele><time>2026-04-04T09:14:46.194Z</time></trkpt><trkpt lat="41.4386522" lon="12.8220388"><ele>10.0</ele><time>2026-04-04T09:14:47.194Z</time></trkpt><trkpt lat="41.438693" lon="12.8218599"><ele>10.0</ele><time>2026-04-04T09:14:48.194Z</time></trkpt><trkpt lat="41.4387407" lon="12.8216784"><ele>10.0</ele><time>2026-04-04T09:14:49.194Z</time></trkpt><trkpt lat="41.43879" lon="12.821502"><ele>10.0</ele><time>2026-04-04T09:14:50.195Z</time></trkpt><trkpt lat="41.4388346" lon="12.821297"><ele>10.0</ele><time>2026-04-04T09:14:51.195Z</time></trkpt><trkpt lat="41.4389407" lon="12.8209124"><ele>10.333333333333334</ele><time>2026-04-04T09:14:53.194Z</time></trkpt><trkpt lat="41.4390358" lon="12.8205519"><ele>10.666666666666666</ele><time>2026-04-04T09:14:55.194Z</time></trkpt><trkpt lat="41.4390886" lon="12.8203623"><ele>11.0</ele><time>2026-04-04T09:14:56.194Z</time></trkpt><trkpt lat="41.4391389" lon="12.8201809"><ele>10.666666666666666</ele><time>2026-04-04T09:14:57.194Z</time></trkpt><trkpt lat="41.439232" lon="12.8198166"><ele>10.333333333333334</ele><time>2026-04-04T09:14:59.194Z</time></trkpt><trkpt lat="41.4392781" lon="12.81963"><ele>10.0</ele><time>2026-04-04T09:15:00.194Z</time></trkpt><trkpt lat="41.4393642" lon="12.8192765"><ele>9.0</ele><time>2026-04-04T09:15:02.194Z</time></trkpt><trkpt lat="41.439447" lon="12.818946"><ele>8.0</ele><time>2026-04-04T09:15:04.194Z</time></trkpt><trkpt lat="41.4395418" lon="12.8186267"><ele>8.0</ele><time>2026-04-04T09:15:06.194Z</time></trkpt><trkpt lat="41.4395824" lon="12.818443"><ele>8.0</ele><time>2026-04-04T09:15:07.194Z</time></trkpt><trkpt lat="41.4396172" lon="12.818263"><ele>8.0</ele><time>2026-04-04T09:15:08.194Z</time></trkpt><trkpt lat="41.4396629" lon="12.818089"><ele>8.0</ele><time>2026-04-04T09:15:09.194Z</time></trkpt><trkpt lat="41.4397233" lon="12.8179314"><ele>8.666666666666666</ele><time>2026-04-04T09:15:10.195Z</time></trkpt><trkpt lat="41.4397569" lon="12.8177635"><ele>9.333333333333334</ele><time>2026-04-04T09:15:11.194Z</time></trkpt><trkpt lat="41.4398344" lon="12.8174692"><ele>10.0</ele><time>2026-04-04T09:15:13.194Z</time></trkpt><trkpt lat="41.4398766" lon="12.8173444"><ele>10.0</ele><time>2026-04-04T09:15:14.194Z</time></trkpt><trkpt lat="41.4399297" lon="12.817126"><ele>10.0</ele><time>2026-04-04T09:15:16.194Z</time></trkpt><trkpt lat="41.4399545" lon="12.8169898"><ele>10.0</ele><time>2026-04-04T09:15:18.194Z</time></trkpt><trkpt lat="41.4398985" lon="12.8169427"><ele>10.0</ele><time>2026-04-04T09:15:23.194Z</time></trkpt><trkpt lat="41.4398743" lon="12.8170468"><ele>10.0</ele><time>2026-04-04T09:15:25.194Z</time></trkpt><trkpt lat="41.4398377" lon="12.8171587"><ele>10.0</ele><time>2026-04-04T09:15:26.194Z</time></trkpt><trkpt lat="41.4398088" lon="12.8172777"><ele>10.0</ele><time>2026-04-04T09:15:27.194Z</time></trkpt><trkpt lat="41.4397666" lon="12.8173826"><ele>10.0</ele><time>2026-04-04T09:15:28.194Z</time></trkpt><trkpt lat="41.4397162" lon="12.8175665"><ele>10.0</ele><time>2026-04-04T09:15:29.194Z</time></trkpt><trkpt lat="41.4396571" lon="12.8178389"><ele>9.5</ele><time>2026-04-04T09:15:30.194Z</time></trkpt><trkpt lat="41.4396013" lon="12.8180297"><ele>9.0</ele><time>2026-04-04T09:15:31.195Z</time></trkpt><trkpt lat="41.4395517" lon="12.8182145"><ele>8.5</ele><time>2026-04-04T09:15:32.194Z</time></trkpt><trkpt lat="41.439513" lon="12.818404"><ele>8.0</ele><time>2026-04-04T09:15:33.194Z</time></trkpt><trkpt lat="41.4394302" lon="12.8187489"><ele>8.0</ele><time>2026-04-04T09:15:35.194Z</time></trkpt><trkpt lat="41.439358" lon="12.8190435"><ele>8.0</ele><time>2026-04-04T09:15:37.194Z</time></trkpt><trkpt lat="41.4393253" lon="12.8191897"><ele>8.0</ele><time>2026-04-04T09:15:38.194Z</time></trkpt><trkpt lat="41.4392907" lon="12.8192978"><ele>8.0</ele><time>2026-04-04T09:15:39.194Z</time></trkpt><trkpt lat="41.4392592" lon="12.8194158"><ele>8.333333333333332</ele><time>2026-04-04T09:15:40.194Z</time></trkpt><trkpt lat="41.439238" lon="12.8194991"><ele>8.666666666666666</ele><time>2026-04-04T09:15:41.194Z</time></trkpt><trkpt lat="41.4392083" lon="12.8196598"><ele>9.0</ele><time>2026-04-04T09:15:57.194Z</time></trkpt><trkpt lat="41.4391823" lon="12.819766"><ele>9.333333333333334</ele><time>2026-04-04T09:15:58.194Z</time></trkpt><trkpt lat="41.4391687" lon="12.8198675"><ele>9.666666666666668</ele><time>2026-04-04T09:15:59.194Z</time></trkpt><trkpt lat="41.4390886" lon="12.8198899"><ele>10.0</ele><time>2026-04-04T09:16:02.194Z</time></trkpt><trkpt lat="41.4390138" lon="12.819799"><ele>10.0</ele><time>2026-04-04T09:16:05.194Z</time></trkpt><trkpt lat="41.4389477" lon="12.8197544"><ele>10.0</ele><time>2026-04-04T09:16:06.194Z</time></trkpt><trkpt lat="41.4388883" lon="12.8197044"><ele>10.0</ele><time>2026-04-04T09:16:07.194Z</time></trkpt><trkpt lat="41.4388137" lon="12.8196593"><ele>10.0</ele><time>2026-04-04T09:16:08.195Z</time></trkpt><trkpt lat="41.4387557" lon="12.8196162"><ele>10.0</ele><time>2026-04-04T09:16:09.194Z</time></trkpt><trkpt lat="41.4386943" lon="12.8195743"><ele>10.0</ele><time>2026-04-04T09:16:10.194Z</time></trkpt><trkpt lat="41.4386307" lon="12.819529"><ele>10.0</ele><time>2026-04-04T09:16:11.194Z</time></trkpt><trkpt lat="41.4385668" lon="12.8194844"><ele>10.0</ele><time>2026-04-04T09:16:12.194Z</time></trkpt><trkpt lat="41.4385067" lon="12.8194493"><ele>10.0</ele><time>2026-04-04T09:16:13.194Z</time></trkpt><trkpt lat="41.4384316" lon="12.8194145"><ele>10.0</ele><time>2026-04-04T09:16:14.194Z</time></trkpt><trkpt lat="41.4383424" lon="12.819331"><ele>10.0</ele><time>2026-04-04T09:16:16.195Z</time></trkpt><trkpt lat="41.4382171" lon="12.8192586"><ele>10.0</ele><time>2026-04-04T09:16:18.195Z</time></trkpt><trkpt lat="41.4381316" lon="12.8191914"><ele>10.0</ele><time>2026-04-04T09:16:20.194Z</time></trkpt><trkpt lat="41.43807" lon="12.8191584"><ele>10.0</ele><time>2026-04-04T09:16:21.194Z</time></trkpt><trkpt lat="41.437988" lon="12.8190898"><ele>10.0</ele><time>2026-04-04T09:16:23.195Z</time></trkpt><trkpt lat="41.4378917" lon="12.8190126"><ele>10.0</ele><time>2026-04-04T09:16:25.194Z</time></trkpt><trkpt lat="41.4378028" lon="12.8189485"><ele>10.0</ele><time>2026-04-04T09:16:27.194Z</time></trkpt><trkpt lat="41.4376766" lon="12.8188515"><ele>10.0</ele><time>2026-04-04T09:16:30.194Z</time></trkpt><trkpt lat="41.4375988" lon="12.8187737"><ele>10.0</ele><time>2026-04-04T09:16:32.194Z</time></trkpt><trkpt lat="41.4375395" lon="12.8187329"><ele>10.0</ele><time>2026-04-04T09:16:33.194Z</time></trkpt><trkpt lat="41.4374337" lon="12.8186503"><ele>10.0</ele><time>2026-04-04T09:16:35.194Z</time></trkpt><trkpt lat="41.4373745" lon="12.818597"><ele>10.0</ele><time>2026-04-04T09:16:36.195Z</time></trkpt><trkpt lat="41.4373179" lon="12.8185494"><ele>10.0</ele><time>2026-04-04T09:16:37.194Z</time></trkpt><trkpt lat="41.4372626" lon="12.8185043"><ele>9.5</ele><time>2026-04-04T09:16:38.195Z</time></trkpt><trkpt lat="41.4372077" lon="12.8184544"><ele>9.0</ele><time>2026-04-04T09:16:39.194Z</time></trkpt><trkpt lat="41.4370894" lon="12.8183599"><ele>8.5</ele><time>2026-04-04T09:16:41.194Z</time></trkpt><trkpt lat="41.4369765" lon="12.8182772"><ele>8.0</ele><time>2026-04-04T09:16:43.194Z</time></trkpt><trkpt lat="41.4368467" lon="12.8181981"><ele>7.666666666666666</ele><time>2026-04-04T09:16:45.194Z</time></trkpt><trkpt lat="41.4367881" lon="12.8181649"><ele>7.333333333333333</ele><time>2026-04-04T09:16:46.194Z</time></trkpt><trkpt lat="41.4367328" lon="12.8181224"><ele>7.0</ele><time>2026-04-04T09:16:47.195Z</time></trkpt><trkpt lat="41.4366753" lon="12.818082"><ele>6.666666666666666</ele><time>2026-04-04T09:16:48.194Z</time></trkpt><trkpt lat="41.4365439" lon="12.8179717"><ele>6.333333333333333</ele><time>2026-04-04T09:16:50.194Z</time></trkpt><trkpt lat="41.436468" lon="12.8179215"><ele>6.0</ele><time>2026-04-04T09:16:51.194Z</time></trkpt><trkpt lat="41.4364085" lon="12.817881"><ele>6.0</ele><time>2026-04-04T09:16:52.194Z</time></trkpt><trkpt lat="41.4363243" lon="12.8178209"><ele>6.0</ele><time>2026-04-04T09:16:54.194Z</time></trkpt><trkpt lat="41.4362523" lon="12.8177664"><ele>6.0</ele><time>2026-04-04T09:16:57.194Z</time></trkpt><trkpt lat="41.4361895" lon="12.8177133"><ele>6.0</ele><time>2026-04-04T09:16:59.195Z</time></trkpt><trkpt lat="41.43615" lon="12.8176355"><ele>6.0</ele><time>2026-04-04T09:17:02.194Z</time></trkpt><trkpt lat="41.4361135" lon="12.8174062"><ele>4.666666666666667</ele><time>2026-04-04T09:17:30.194Z</time></trkpt><trkpt lat="41.4360916" lon="12.8173046"><ele>3.333333333333333</ele><time>2026-04-04T09:17:31.194Z</time></trkpt><trkpt lat="41.4360522" lon="12.817188"><ele>2.0</ele><time>2026-04-04T09:17:32.194Z</time></trkpt><trkpt lat="41.4359137" lon="12.8168702"><ele>2.0</ele><time>2026-04-04T09:17:34.195Z</time></trkpt><trkpt lat="41.4357747" lon="12.816524"><ele>2.0</ele><time>2026-04-04T09:17:36.194Z</time></trkpt><trkpt lat="41.4357052" lon="12.8163566"><ele>2.0</ele><time>2026-04-04T09:17:37.194Z</time></trkpt><trkpt lat="41.4356422" lon="12.8161894"><ele>2.0</ele><time>2026-04-04T09:17:38.194Z</time></trkpt><trkpt lat="41.4355735" lon="12.8160154"><ele>2.0</ele><time>2026-04-04T09:17:39.194Z</time></trkpt><trkpt lat="41.4355123" lon="12.8158509"><ele>2.0</ele><time>2026-04-04T09:17:40.194Z</time></trkpt><trkpt lat="41.4354312" lon="12.815676"><ele>2.0</ele><time>2026-04-04T09:17:41.194Z</time></trkpt><trkpt lat="41.4353642" lon="12.8155126"><ele>2.333333333333333</ele><time>2026-04-04T09:17:42.195Z</time></trkpt><trkpt lat="41.4352405" lon="12.8151956"><ele>2.6666666666666665</ele><time>2026-04-04T09:17:44.194Z</time></trkpt><trkpt lat="41.4351894" lon="12.8150575"><ele>3.0</ele><time>2026-04-04T09:17:45.194Z</time></trkpt><trkpt lat="41.4351403" lon="12.814948"><ele>3.0</ele><time>2026-04-04T09:17:46.194Z</time></trkpt><trkpt lat="41.435092" lon="12.8148726"><ele>3.0</ele><time>2026-04-04T09:17:47.194Z</time></trkpt><trkpt lat="41.4349891" lon="12.8147726"><ele>3.0</ele><time>2026-04-04T09:17:49.194Z</time></trkpt><trkpt lat="41.4347821" lon="12.8148218"><ele>3.0</ele><time>2026-04-04T09:17:52.194Z</time></trkpt><trkpt lat="41.434618" lon="12.8149511"><ele>2.6666666666666665</ele><time>2026-04-04T09:17:54.194Z</time></trkpt><trkpt lat="41.4344776" lon="12.8151137"><ele>2.333333333333333</ele><time>2026-04-04T09:17:56.194Z</time></trkpt><trkpt lat="41.4343843" lon="12.8152156"><ele>2.0</ele><time>2026-04-04T09:17:57.194Z</time></trkpt><trkpt lat="41.4342047" lon="12.8154333"><ele>2.333333333333333</ele><time>2026-04-04T09:17:59.195Z</time></trkpt><trkpt lat="41.4340062" lon="12.8156367"><ele>2.6666666666666665</ele><time>2026-04-04T09:18:01.194Z</time></trkpt><trkpt lat="41.4338936" lon="12.8157184"><ele>3.0</ele><time>2026-04-04T09:18:02.194Z</time></trkpt><trkpt lat="41.4337649" lon="12.8158032"><ele>3.0</ele><time>2026-04-04T09:18:03.194Z</time></trkpt><trkpt lat="41.4336356" lon="12.8158921"><ele>3.0</ele><time>2026-04-04T09:18:04.194Z</time></trkpt><trkpt lat="41.4335289" lon="12.8159685"><ele>3.0</ele><time>2026-04-04T09:18:05.195Z</time></trkpt><trkpt lat="41.4334041" lon="12.8160411"><ele>3.0</ele><time>2026-04-04T09:18:06.194Z</time></trkpt><trkpt lat="41.4331575" lon="12.8161528"><ele>2.5</ele><time>2026-04-04T09:18:08.194Z</time></trkpt><trkpt lat="41.4328981" lon="12.8162151"><ele>2.0</ele><time>2026-04-04T09:18:10.194Z</time></trkpt><trkpt lat="41.4326426" lon="12.8162677"><ele>2.0</ele><time>2026-04-04T09:18:12.194Z</time></trkpt><trkpt lat="41.432404" lon="12.8162912"><ele>2.0</ele><time>2026-04-04T09:18:14.194Z</time></trkpt><trkpt lat="41.432305" lon="12.816297"><ele>2.0</ele><time>2026-04-04T09:18:15.194Z</time></trkpt><trkpt lat="41.4322156" lon="12.8162918"><ele>2.0</ele><time>2026-04-04T09:18:16.194Z</time></trkpt><trkpt lat="41.4321282" lon="12.8162917"><ele>2.25</ele><time>2026-04-04T09:18:17.194Z</time></trkpt><trkpt lat="41.4320365" lon="12.8162853"><ele>2.5</ele><time>2026-04-04T09:18:18.194Z</time></trkpt><trkpt lat="41.4318759" lon="12.8162429"><ele>2.75</ele><time>2026-04-04T09:18:20.194Z</time></trkpt><trkpt lat="41.4317352" lon="12.8162347"><ele>3.0</ele><time>2026-04-04T09:18:22.195Z</time></trkpt><trkpt lat="41.4316723" lon="12.8161995"><ele>3.0</ele><time>2026-04-04T09:18:24.194Z</time></trkpt><trkpt lat="41.4315981" lon="12.8161793"><ele>3.0</ele><time>2026-04-04T09:18:27.194Z</time></trkpt><trkpt lat="41.4315274" lon="12.816179"><ele>3.0</ele><time>2026-04-04T09:18:50.195Z</time></trkpt><trkpt lat="41.4314611" lon="12.8160929"><ele>3.0</ele><time>2026-04-04T09:18:52.194Z</time></trkpt><trkpt lat="41.4313891" lon="12.8159737"><ele>3.0</ele><time>2026-04-04T09:18:54.194Z</time></trkpt><trkpt lat="41.4313083" lon="12.8158607"><ele>3.0</ele><time>2026-04-04T09:18:56.194Z</time></trkpt><trkpt lat="41.431193" lon="12.8158573"><ele>3.0</ele><time>2026-04-04T09:18:58.194Z</time></trkpt><trkpt lat="41.4310541" lon="12.8158319"><ele>3.0</ele><time>2026-04-04T09:19:00.194Z</time></trkpt><trkpt lat="41.4309583" lon="12.8157927"><ele>3.0</ele><time>2026-04-04T09:19:01.195Z</time></trkpt><trkpt lat="41.4308777" lon="12.8157645"><ele>3.0</ele><time>2026-04-04T09:19:02.194Z</time></trkpt><trkpt lat="41.4307926" lon="12.8157386"><ele>3.0</ele><time>2026-04-04T09:19:03.194Z</time></trkpt><trkpt lat="41.4306708" lon="12.8156808"><ele>3.0</ele><time>2026-04-04T09:19:05.194Z</time></trkpt><trkpt lat="41.4305746" lon="12.815674"><ele>3.0</ele><time>2026-04-04T09:19:07.195Z</time></trkpt><trkpt lat="41.4304831" lon="12.8156918"><ele>3.0</ele><time>2026-04-04T09:19:09.194Z</time></trkpt><trkpt lat="41.4303926" lon="12.8156686"><ele>3.0</ele><time>2026-04-04T09:19:11.194Z</time></trkpt><trkpt lat="41.430305" lon="12.8156716"><ele>3.0</ele><time>2026-04-04T09:19:12.194Z</time></trkpt><trkpt lat="41.4302313" lon="12.8156414"><ele>3.0</ele><time>2026-04-04T09:19:13.195Z</time></trkpt><trkpt lat="41.4301414" lon="12.8156113"><ele>3.0</ele><time>2026-04-04T09:19:15.194Z</time></trkpt><trkpt lat="41.4300792" lon="12.8155921"><ele>3.0</ele><time>2026-04-04T09:19:17.194Z</time></trkpt><trkpt lat="41.4300056" lon="12.8156106"><ele>3.0</ele><time>2026-04-04T09:19:19.194Z</time></trkpt><trkpt lat="41.4299226" lon="12.8156992"><ele>3.0</ele><time>2026-04-04T09:19:21.194Z</time></trkpt><trkpt lat="41.4298548" lon="12.8157386"><ele>3.0</ele><time>2026-04-04T09:19:23.194Z</time></trkpt><trkpt lat="41.4299094" lon="12.8158156"><ele>3.0</ele><time>2026-04-04T09:19:27.195Z</time></trkpt><trkpt lat="41.4299791" lon="12.8158349"><ele>3.0</ele><time>2026-04-04T09:19:29.195Z</time></trkpt><trkpt lat="41.4300498" lon="12.8158515"><ele>3.0</ele><time>2026-04-04T09:19:31.194Z</time></trkpt><trkpt lat="41.430111" lon="12.8158723"><ele>3.0</ele><time>2026-04-04T09:19:33.194Z</time></trkpt><trkpt lat="41.4302132" lon="12.8159188"><ele>3.0</ele><time>2026-04-04T09:19:36.194Z</time></trkpt><trkpt lat="41.4302897" lon="12.8158766"><ele>3.0</ele><time>2026-04-04T09:21:49.194Z</time></trkpt><trkpt lat="41.4303549" lon="12.8157506"><ele>3.0</ele><time>2026-04-04T09:21:50.195Z</time></trkpt><trkpt lat="41.4303889" lon="12.81556"><ele>3.0</ele><time>2026-04-04T09:21:52.194Z</time></trkpt><trkpt lat="41.4304061" lon="12.8154519"><ele>3.0</ele><time>2026-04-04T09:21:53.195Z</time></trkpt><trkpt lat="41.4304224" lon="12.8153106"><ele>3.25</ele><time>2026-04-04T09:21:54.194Z</time></trkpt><trkpt lat="41.4304425" lon="12.815149"><ele>3.5</ele><time>2026-04-04T09:21:55.194Z</time></trkpt><trkpt lat="41.4304691" lon="12.8149729"><ele>3.75</ele><time>2026-04-04T09:21:56.194Z</time></trkpt><trkpt lat="41.4305001" lon="12.8147922"><ele>4.0</ele><time>2026-04-04T09:21:57.194Z</time></trkpt><trkpt lat="41.4305241" lon="12.8146233"><ele>4.0</ele><time>2026-04-04T09:21:58.194Z</time></trkpt><trkpt lat="41.4305468" lon="12.8144686"><ele>4.0</ele><time>2026-04-04T09:21:59.195Z</time></trkpt><trkpt lat="41.4305611" lon="12.814347"><ele>4.0</ele><time>2026-04-04T09:22:00.186Z</time></trkpt><trkpt lat="41.4305681" lon="12.814249"><ele>4.0</ele><time>2026-04-04T09:22:01.194Z</time></trkpt><trkpt lat="41.4305696" lon="12.8141213"><ele>4.0</ele><time>2026-04-04T09:22:03.195Z</time></trkpt><trkpt lat="41.4304942" lon="12.8141742"><ele>4.666666666666666</ele><time>2026-04-04T09:22:05.194Z</time></trkpt><trkpt lat="41.4304474" lon="12.8142404"><ele>5.333333333333333</ele><time>2026-04-04T09:22:07.194Z</time></trkpt><trkpt lat="41.4304504" lon="12.8143377"><ele>6.0</ele><time>2026-04-04T09:22:08.194Z</time></trkpt><trkpt lat="41.4304385" lon="12.8144221"><ele>6.666666666666666</ele><time>2026-04-04T09:22:09.194Z</time></trkpt><trkpt lat="41.4304223" lon="12.8145201"><ele>7.333333333333333</ele><time>2026-04-04T09:22:10.194Z</time></trkpt><trkpt lat="41.4303939" lon="12.8145987"><ele>8.0</ele><time>2026-04-04T09:22:11.194Z</time></trkpt><trkpt lat="41.4303604" lon="12.8147668"><ele>7.999999999999999</ele><time>2026-04-04T09:22:13.194Z</time></trkpt><trkpt lat="41.4303607" lon="12.8148735"><ele>8.0</ele><time>2026-04-04T09:22:14.194Z</time></trkpt><trkpt lat="41.4302872" lon="12.8149376"><ele>8.0</ele><time>2026-04-04T09:22:16.194Z</time></trkpt><trkpt lat="41.4302043" lon="12.8149803"><ele>8.0</ele><time>2026-04-04T09:22:18.194Z</time></trkpt><trkpt lat="41.4301284" lon="12.815027"><ele>7.999999999999999</ele><time>2026-04-04T09:22:20.194Z</time></trkpt><trkpt lat="41.4300769" lon="12.81511"><ele>8.0</ele><time>2026-04-04T09:22:23.194Z</time></trkpt><trkpt lat="41.430104" lon="12.8151985"><ele>7.0</ele><time>2026-04-04T09:22:25.194Z</time></trkpt><trkpt lat="41.4301887" lon="12.8152439"><ele>6.000000000000001</ele><time>2026-04-04T09:22:27.195Z</time></trkpt><trkpt lat="41.4302945" lon="12.81527"><ele>5.0</ele><time>2026-04-04T09:22:29.194Z</time></trkpt><trkpt lat="41.4304304" lon="12.8152835"><ele>4.0</ele><time>2026-04-04T09:22:31.195Z</time></trkpt><trkpt lat="41.4305089" lon="12.8153098"><ele>3.0</ele><time>2026-04-04T09:22:32.194Z</time></trkpt><trkpt lat="41.4305919" lon="12.815313"><ele>3.0</ele><time>2026-04-04T09:22:33.194Z</time></trkpt><trkpt lat="41.4306597" lon="12.8153251"><ele>3.0</ele><time>2026-04-04T09:22:34.195Z</time></trkpt><trkpt lat="41.4307255" lon="12.8153227"><ele>3.0</ele><time>2026-04-04T09:22:35.194Z</time></trkpt><trkpt lat="41.4308454" lon="12.8153202"><ele>3.0</ele><time>2026-04-04T09:22:37.195Z</time></trkpt><trkpt lat="41.4309104" lon="12.8153188"><ele>3.0</ele><time>2026-04-04T09:22:38.194Z</time></trkpt><trkpt lat="41.4310355" lon="12.8153156"><ele>3.0</ele><time>2026-04-04T09:22:40.195Z</time></trkpt><trkpt lat="41.4311591" lon="12.8152945"><ele>3.0</ele><time>2026-04-04T09:22:42.194Z</time></trkpt><trkpt lat="41.4312861" lon="12.8152973"><ele>3.0</ele><time>2026-04-04T09:22:44.194Z</time></trkpt><trkpt lat="41.4314283" lon="12.8153653"><ele>3.0</ele><time>2026-04-04T09:22:46.194Z</time></trkpt><trkpt lat="41.4315245" lon="12.815409"><ele>3.0</ele><time>2026-04-04T09:22:47.194Z</time></trkpt><trkpt lat="41.431614" lon="12.8154466"><ele>2.5</ele><time>2026-04-04T09:22:48.194Z</time></trkpt><trkpt lat="41.4317232" lon="12.8154737"><ele>2.0</ele><time>2026-04-04T09:22:49.195Z</time></trkpt><trkpt lat="41.4318483" lon="12.815499"><ele>1.5</ele><time>2026-04-04T09:22:50.195Z</time></trkpt><trkpt lat="41.4319819" lon="12.8155155"><ele>1.0</ele><time>2026-04-04T09:22:51.194Z</time></trkpt><trkpt lat="41.4321069" lon="12.8155398"><ele>1.0</ele><time>2026-04-04T09:22:52.195Z</time></trkpt><trkpt lat="41.4322283" lon="12.8155577"><ele>1.0</ele><time>2026-04-04T09:22:53.194Z</time></trkpt><trkpt lat="41.4323406" lon="12.8155753"><ele>1.0</ele><time>2026-04-04T09:22:54.194Z</time></trkpt><trkpt lat="41.4324511" lon="12.8155809"><ele>1.0</ele><time>2026-04-04T09:22:55.194Z</time></trkpt><trkpt lat="41.4325703" lon="12.8155558"><ele>1.0</ele><time>2026-04-04T09:22:56.194Z</time></trkpt><trkpt lat="41.4327046" lon="12.8155324"><ele>1.0</ele><time>2026-04-04T09:22:57.195Z</time></trkpt><trkpt lat="41.4328351" lon="12.8154961"><ele>1.0</ele><time>2026-04-04T09:22:58.194Z</time></trkpt><trkpt lat="41.4330802" lon="12.8153925"><ele>1.5</ele><time>2026-04-04T09:23:00.194Z</time></trkpt><trkpt lat="41.4331996" lon="12.8153288"><ele>2.0</ele><time>2026-04-04T09:23:01.194Z</time></trkpt><trkpt lat="41.4333078" lon="12.815259"><ele>2.5</ele><time>2026-04-04T09:23:02.194Z</time></trkpt><trkpt lat="41.4334242" lon="12.8151695"><ele>3.0</ele><time>2026-04-04T09:23:03.194Z</time></trkpt><trkpt lat="41.433542" lon="12.8150977"><ele>2.75</ele><time>2026-04-04T09:23:04.194Z</time></trkpt><trkpt lat="41.4336481" lon="12.8150291"><ele>2.5</ele><time>2026-04-04T09:23:05.195Z</time></trkpt><trkpt lat="41.4337571" lon="12.8149469"><ele>2.25</ele><time>2026-04-04T09:23:06.195Z</time></trkpt><trkpt lat="41.4338629" lon="12.814857"><ele>2.0</ele><time>2026-04-04T09:23:07.195Z</time></trkpt><trkpt lat="41.4339654" lon="12.8147486"><ele>2.0</ele><time>2026-04-04T09:23:08.194Z</time></trkpt><trkpt lat="41.4340564" lon="12.8146438"><ele>2.0</ele><time>2026-04-04T09:23:09.195Z</time></trkpt><trkpt lat="41.4342244" lon="12.8144123"><ele>2.0</ele><time>2026-04-04T09:23:11.195Z</time></trkpt><trkpt lat="41.4343038" lon="12.8142908"><ele>2.25</ele><time>2026-04-04T09:23:12.194Z</time></trkpt><trkpt lat="41.4344456" lon="12.814055"><ele>2.5</ele><time>2026-04-04T09:23:14.194Z</time></trkpt><trkpt lat="41.4345079" lon="12.8139423"><ele>2.75</ele><time>2026-04-04T09:23:15.194Z</time></trkpt><trkpt lat="41.4345626" lon="12.8138211"><ele>3.0</ele><time>2026-04-04T09:23:16.195Z</time></trkpt><trkpt lat="41.4346093" lon="12.8137001"><ele>2.8</ele><time>2026-04-04T09:23:17.194Z</time></trkpt><trkpt lat="41.4346769" lon="12.8134752"><ele>2.5999999999999996</ele><time>2026-04-04T09:23:19.194Z</time></trkpt><trkpt lat="41.434712" lon="12.8133742"><ele>2.4000000000000004</ele><time>2026-04-04T09:23:20.194Z</time></trkpt><trkpt lat="41.4347397" lon="12.8132818"><ele>2.2</ele><time>2026-04-04T09:23:21.194Z</time></trkpt><trkpt lat="41.4347645" lon="12.8131924"><ele>2.0</ele><time>2026-04-04T09:23:22.195Z</time></trkpt><trkpt lat="41.4347872" lon="12.8131037"><ele>2.0</ele><time>2026-04-04T09:23:23.194Z</time></trkpt><trkpt lat="41.434821" lon="12.8129212"><ele>2.0</ele><time>2026-04-04T09:23:25.195Z</time></trkpt><trkpt lat="41.4348666" lon="12.8127529"><ele>2.0</ele><time>2026-04-04T09:23:27.194Z</time></trkpt><trkpt lat="41.4348973" lon="12.812665"><ele>2.0</ele><time>2026-04-04T09:23:28.194Z</time></trkpt><trkpt lat="41.4349539" lon="12.8124847"><ele>2.0</ele><time>2026-04-04T09:23:30.195Z</time></trkpt><trkpt lat="41.4349833" lon="12.81238"><ele>2.0</ele><time>2026-04-04T09:23:31.194Z</time></trkpt><trkpt lat="41.4350163" lon="12.8122611"><ele>2.0</ele><time>2026-04-04T09:23:32.194Z</time></trkpt><trkpt lat="41.435102" lon="12.8120164"><ele>2.0</ele><time>2026-04-04T09:23:34.194Z</time></trkpt><trkpt lat="41.4352025" lon="12.8117734"><ele>3.0</ele><time>2026-04-04T09:23:36.194Z</time></trkpt><trkpt lat="41.4352588" lon="12.8116372"><ele>4.0</ele><time>2026-04-04T09:23:37.194Z</time></trkpt><trkpt lat="41.4353587" lon="12.8114028"><ele>5.0</ele><time>2026-04-04T09:23:39.194Z</time></trkpt><trkpt lat="41.435445" lon="12.8111661"><ele>4.5</ele><time>2026-04-04T09:23:41.194Z</time></trkpt><trkpt lat="41.4354916" lon="12.8110494"><ele>4.0</ele><time>2026-04-04T09:23:42.194Z</time></trkpt><trkpt lat="41.435543" lon="12.8109257"><ele>3.5</ele><time>2026-04-04T09:23:43.194Z</time></trkpt><trkpt lat="41.4355937" lon="12.8107928"><ele>3.0</ele><time>2026-04-04T09:23:44.194Z</time></trkpt><trkpt lat="41.4356851" lon="12.810492"><ele>3.0</ele><time>2026-04-04T09:23:46.194Z</time></trkpt><trkpt lat="41.4357276" lon="12.8103557"><ele>3.0</ele><time>2026-04-04T09:23:47.194Z</time></trkpt><trkpt lat="41.4357765" lon="12.8102145"><ele>3.0</ele><time>2026-04-04T09:23:48.194Z</time></trkpt><trkpt lat="41.4358095" lon="12.8100901"><ele>3.0</ele><time>2026-04-04T09:23:49.194Z</time></trkpt><trkpt lat="41.4358348" lon="12.8099571"><ele>3.0</ele><time>2026-04-04T09:23:50.194Z</time></trkpt><trkpt lat="41.4358634" lon="12.8098413"><ele>3.0</ele><time>2026-04-04T09:23:51.194Z</time></trkpt><trkpt lat="41.4359034" lon="12.8097304"><ele>3.0</ele><time>2026-04-04T09:23:52.194Z</time></trkpt><trkpt lat="41.4359935" lon="12.8094809"><ele>3.0</ele><time>2026-04-04T09:23:54.194Z</time></trkpt><trkpt lat="41.4360327" lon="12.8093294"><ele>3.0</ele><time>2026-04-04T09:23:55.194Z</time></trkpt><trkpt lat="41.4361128" lon="12.809035"><ele>3.0</ele><time>2026-04-04T09:23:57.194Z</time></trkpt><trkpt lat="41.4362014" lon="12.8087626"><ele>3.0</ele><time>2026-04-04T09:23:59.194Z</time></trkpt><trkpt lat="41.4362529" lon="12.8086287"><ele>3.0</ele><time>2026-04-04T09:24:00.195Z</time></trkpt><trkpt lat="41.4363082" lon="12.8084985"><ele>3.0</ele><time>2026-04-04T09:24:01.194Z</time></trkpt><trkpt lat="41.4363695" lon="12.8083735"><ele>3.5</ele><time>2026-04-04T09:24:02.194Z</time></trkpt><trkpt lat="41.4365004" lon="12.8081292"><ele>4.0</ele><time>2026-04-04T09:24:04.195Z</time></trkpt><trkpt lat="41.436564" lon="12.8080088"><ele>4.5</ele><time>2026-04-04T09:24:05.194Z</time></trkpt><trkpt lat="41.4366261" lon="12.8078903"><ele>5.0</ele><time>2026-04-04T09:24:06.195Z</time></trkpt><trkpt lat="41.4366925" lon="12.8077751"><ele>5.0</ele><time>2026-04-04T09:24:07.194Z</time></trkpt><trkpt lat="41.4367488" lon="12.8076736"><ele>5.0</ele><time>2026-04-04T09:24:08.194Z</time></trkpt><trkpt lat="41.4368569" lon="12.8075131"><ele>5.0</ele><time>2026-04-04T09:24:10.194Z</time></trkpt><trkpt lat="41.436943" lon="12.8074092"><ele>5.0</ele><time>2026-04-04T09:24:12.194Z</time></trkpt><trkpt lat="41.4369799" lon="12.8073362"><ele>5.0</ele><time>2026-04-04T09:24:14.194Z</time></trkpt><trkpt lat="41.4369587" lon="12.8072477"><ele>5.2</ele><time>2026-04-04T09:24:16.195Z</time></trkpt><trkpt lat="41.4369564" lon="12.8071194"><ele>5.4</ele><time>2026-04-04T09:24:18.194Z</time></trkpt><trkpt lat="41.4369532" lon="12.8069816"><ele>5.6</ele><time>2026-04-04T09:24:20.194Z</time></trkpt><trkpt lat="41.4369392" lon="12.8067762"><ele>5.8</ele><time>2026-04-04T09:24:22.195Z</time></trkpt><trkpt lat="41.4369393" lon="12.8066646"><ele>6.0</ele><time>2026-04-04T09:24:23.194Z</time></trkpt><trkpt lat="41.4369466" lon="12.8065408"><ele>6.25</ele><time>2026-04-04T09:24:24.194Z</time></trkpt><trkpt lat="41.4369437" lon="12.8063659"><ele>6.5</ele><time>2026-04-04T09:24:25.194Z</time></trkpt><trkpt lat="41.4369555" lon="12.8062155"><ele>6.75</ele><time>2026-04-04T09:24:26.194Z</time></trkpt><trkpt lat="41.4369534" lon="12.8060463"><ele>7.0</ele><time>2026-04-04T09:24:27.194Z</time></trkpt><trkpt lat="41.4369562" lon="12.8058743"><ele>6.5</ele><time>2026-04-04T09:24:28.194Z</time></trkpt><trkpt lat="41.4369573" lon="12.8056871"><ele>6.0</ele><time>2026-04-04T09:24:29.194Z</time></trkpt><trkpt lat="41.4369462" lon="12.8055259"><ele>5.5</ele><time>2026-04-04T09:24:30.194Z</time></trkpt><trkpt lat="41.4369474" lon="12.8053714"><ele>5.0</ele><time>2026-04-04T09:24:31.194Z</time></trkpt><trkpt lat="41.4369482" lon="12.8052405"><ele>5.166666666666667</ele><time>2026-04-04T09:24:32.194Z</time></trkpt><trkpt lat="41.4369556" lon="12.8051067"><ele>5.333333333333334</ele><time>2026-04-04T09:24:33.195Z</time></trkpt><trkpt lat="41.4369575" lon="12.8049785"><ele>5.5</ele><time>2026-04-04T09:24:34.194Z</time></trkpt><trkpt lat="41.4369459" lon="12.8048768"><ele>5.666666666666667</ele><time>2026-04-04T09:24:35.194Z</time></trkpt><trkpt lat="41.436935" lon="12.8047911"><ele>5.833333333333333</ele><time>2026-04-04T09:24:36.194Z</time></trkpt><trkpt lat="41.4369416" lon="12.8046558"><ele>6.0</ele><time>2026-04-04T09:24:38.194Z</time></trkpt><trkpt lat="41.4370083" lon="12.8046252"><ele>6.0</ele><time>2026-04-04T09:24:40.194Z</time></trkpt><trkpt lat="41.4370495" lon="12.8045493"><ele>6.0</ele><time>2026-04-04T09:24:42.195Z</time></trkpt><trkpt lat="41.4371182" lon="12.8044679"><ele>6.0</ele><time>2026-04-04T09:24:44.195Z</time></trkpt><trkpt lat="41.4372327" lon="12.8044651"><ele>6.0</ele><time>2026-04-04T09:24:46.194Z</time></trkpt><trkpt lat="41.4373599" lon="12.8045075"><ele>6.0</ele><time>2026-04-04T09:24:48.194Z</time></trkpt><trkpt lat="41.4374312" lon="12.8045106"><ele>5.8</ele><time>2026-04-04T09:24:49.194Z</time></trkpt><trkpt lat="41.4375063" lon="12.8045117"><ele>5.6</ele><time>2026-04-04T09:24:50.195Z</time></trkpt><trkpt lat="41.4375909" lon="12.8045224"><ele>5.4</ele><time>2026-04-04T09:24:51.194Z</time></trkpt><trkpt lat="41.4376807" lon="12.8045325"><ele>5.2</ele><time>2026-04-04T09:24:52.194Z</time></trkpt><trkpt lat="41.437772" lon="12.8045323"><ele>5.0</ele><time>2026-04-04T09:24:53.194Z</time></trkpt><trkpt lat="41.4378804" lon="12.8045383"><ele>5.0</ele><time>2026-04-04T09:24:54.194Z</time></trkpt><trkpt lat="41.4379673" lon="12.8045436"><ele>5.0</ele><time>2026-04-04T09:24:55.194Z</time></trkpt><trkpt lat="41.4381592" lon="12.8045578"><ele>5.0</ele><time>2026-04-04T09:24:57.194Z</time></trkpt><trkpt lat="41.43825" lon="12.8045583"><ele>5.0</ele><time>2026-04-04T09:24:58.195Z</time></trkpt><trkpt lat="41.4383336" lon="12.8045594"><ele>5.25</ele><time>2026-04-04T09:24:59.195Z</time></trkpt><trkpt lat="41.4384132" lon="12.8045654"><ele>5.5</ele><time>2026-04-04T09:25:00.194Z</time></trkpt><trkpt lat="41.4384792" lon="12.804555"><ele>5.75</ele><time>2026-04-04T09:25:01.194Z</time></trkpt><trkpt lat="41.4385603" lon="12.8046758"><ele>6.0</ele><time>2026-04-04T09:25:05.194Z</time></trkpt><trkpt lat="41.4387423" lon="12.8046106"><ele>6.199999999999999</ele><time>2026-04-04T09:25:07.195Z</time></trkpt><trkpt lat="41.4388167" lon="12.8045919"><ele>6.3999999999999995</ele><time>2026-04-04T09:25:08.194Z</time></trkpt><trkpt lat="41.4388929" lon="12.8045496"><ele>6.6</ele><time>2026-04-04T09:25:09.194Z</time></trkpt><trkpt lat="41.4390694" lon="12.8044238"><ele>6.8</ele><time>2026-04-04T09:25:11.194Z</time></trkpt><trkpt lat="41.439134" lon="12.8043592"><ele>7.0</ele><time>2026-04-04T09:25:12.195Z</time></trkpt><trkpt lat="41.4392244" lon="12.8042839"><ele>7.166666666666667</ele><time>2026-04-04T09:25:13.194Z</time></trkpt><trkpt lat="41.4393051" lon="12.8042086"><ele>7.333333333333334</ele><time>2026-04-04T09:25:14.195Z</time></trkpt><trkpt lat="41.43937" lon="12.8041511"><ele>7.5</ele><time>2026-04-04T09:25:15.194Z</time></trkpt><trkpt lat="41.4394348" lon="12.8040862"><ele>7.666666666666666</ele><time>2026-04-04T09:25:16.194Z</time></trkpt><trkpt lat="41.4394951" lon="12.8040284"><ele>7.833333333333333</ele><time>2026-04-04T09:25:17.194Z</time></trkpt><trkpt lat="41.4395628" lon="12.803971"><ele>8.0</ele><time>2026-04-04T09:25:18.194Z</time></trkpt><trkpt lat="41.439633" lon="12.8039373"><ele>7.6000000000000005</ele><time>2026-04-04T09:25:19.194Z</time></trkpt><trkpt lat="41.439777" lon="12.8039047"><ele>7.200000000000001</ele><time>2026-04-04T09:25:21.194Z</time></trkpt><trkpt lat="41.4398459" lon="12.8039307"><ele>6.8</ele><time>2026-04-04T09:25:22.194Z</time></trkpt><trkpt lat="41.4399131" lon="12.8039662"><ele>6.4</ele><time>2026-04-04T09:25:23.194Z</time></trkpt><trkpt lat="41.4399962" lon="12.8039873"><ele>6.0</ele><time>2026-04-04T09:25:24.194Z</time></trkpt><trkpt lat="41.4400741" lon="12.8039907"><ele>6.0</ele><time>2026-04-04T09:25:25.194Z</time></trkpt><trkpt lat="41.4401427" lon="12.8040136"><ele>6.0</ele><time>2026-04-04T09:25:26.195Z</time></trkpt><trkpt lat="41.4402814" lon="12.804027"><ele>6.0</ele><time>2026-04-04T09:25:28.194Z</time></trkpt><trkpt lat="41.4403735" lon="12.8040573"><ele>6.0</ele><time>2026-04-04T09:25:31.194Z</time></trkpt><trkpt lat="41.4403939" lon="12.8042062"><ele>6.0</ele><time>2026-04-04T09:25:33.194Z</time></trkpt><trkpt lat="41.4404319" lon="12.8043311"><ele>5.833333333333333</ele><time>2026-04-04T09:25:34.238Z</time></trkpt><trkpt lat="41.4404578" lon="12.8044332"><ele>5.666666666666667</ele><time>2026-04-04T09:25:35.187Z</time></trkpt><trkpt lat="41.4404888" lon="12.8045565"><ele>5.5</ele><time>2026-04-04T09:25:36.207Z</time></trkpt><trkpt lat="41.4405195" lon="12.8046676"><ele>5.333333333333334</ele><time>2026-04-04T09:25:37.206Z</time></trkpt><trkpt lat="41.4405544" lon="12.8047769"><ele>5.166666666666667</ele><time>2026-04-04T09:25:38.23Z</time></trkpt><trkpt lat="41.4405822" lon="12.804868"><ele>5.0</ele><time>2026-04-04T09:25:39.213Z</time></trkpt><trkpt lat="41.4406041" lon="12.8050049"><ele>5.0</ele><time>2026-04-04T09:25:41.213Z</time></trkpt><trkpt lat="41.4406219" lon="12.8051139"><ele>5.0</ele><time>2026-04-04T09:25:43.213Z</time></trkpt><trkpt lat="41.4407239" lon="12.8051834"><ele>5.0</ele><time>2026-04-04T09:25:46.213Z</time></trkpt><trkpt lat="41.4408363" lon="12.8051785"><ele>5.0</ele><time>2026-04-04T09:25:48.213Z</time></trkpt><trkpt lat="41.4409473" lon="12.8051756"><ele>5.0</ele><time>2026-04-04T09:25:49.213Z</time></trkpt><trkpt lat="41.4411714" lon="12.805153"><ele>4.8</ele><time>2026-04-04T09:25:51.213Z</time></trkpt><trkpt lat="41.4412406" lon="12.8051594"><ele>4.6</ele><time>2026-04-04T09:25:52.213Z</time></trkpt><trkpt lat="41.4413419" lon="12.8051506"><ele>4.4</ele><time>2026-04-04T09:25:53.213Z</time></trkpt><trkpt lat="41.4414339" lon="12.8051518"><ele>4.2</ele><time>2026-04-04T09:25:54.214Z</time></trkpt><trkpt lat="41.4415215" lon="12.8051587"><ele>4.0</ele><time>2026-04-04T09:25:55.213Z</time></trkpt><trkpt lat="41.4416921" lon="12.805169"><ele>4.0</ele><time>2026-04-04T09:25:57.213Z</time></trkpt><trkpt lat="41.4418295" lon="12.8052028"><ele>4.0</ele><time>2026-04-04T09:25:59.213Z</time></trkpt><trkpt lat="41.4420103" lon="12.8051867"><ele>4.0</ele><time>2026-04-04T09:26:01.214Z</time></trkpt><trkpt lat="41.4421224" lon="12.8052431"><ele>4.0</ele><time>2026-04-04T09:26:03.213Z</time></trkpt><trkpt lat="41.4423179" lon="12.805326"><ele>4.0</ele><time>2026-04-04T09:26:07.213Z</time></trkpt><trkpt lat="41.4424578" lon="12.8055171"><ele>4.0</ele><time>2026-04-04T09:26:10.213Z</time></trkpt><trkpt lat="41.4425488" lon="12.8055521"><ele>4.0</ele><time>2026-04-04T09:26:12.213Z</time></trkpt><trkpt lat="41.4426166" lon="12.8055836"><ele>4.0</ele><time>2026-04-04T09:26:14.213Z</time></trkpt><trkpt lat="41.4426905" lon="12.8055808"><ele>4.0</ele><time>2026-04-04T09:26:16.214Z</time></trkpt><trkpt lat="41.4427953" lon="12.8055436"><ele>4.0</ele><time>2026-04-04T09:26:18.213Z</time></trkpt><trkpt lat="41.4428889" lon="12.805535"><ele>4.0</ele><time>2026-04-04T09:26:20.213Z</time></trkpt><trkpt lat="41.4430607" lon="12.8056556"><ele>4.0</ele><time>2026-04-04T09:26:23.213Z</time></trkpt><trkpt lat="41.4431433" lon="12.8056941"><ele>4.0</ele><time>2026-04-04T09:26:24.213Z</time></trkpt><trkpt lat="41.4432179" lon="12.8057482"><ele>3.9999999999999996</ele><time>2026-04-04T09:26:25.213Z</time></trkpt><trkpt lat="41.4433011" lon="12.8057954"><ele>4.0</ele><time>2026-04-04T09:26:26.213Z</time></trkpt><trkpt lat="41.4433912" lon="12.8058415"><ele>4.0</ele><time>2026-04-04T09:26:27.214Z</time></trkpt><trkpt lat="41.4434726" lon="12.8058944"><ele>4.0</ele><time>2026-04-04T09:26:28.213Z</time></trkpt><trkpt lat="41.4435471" lon="12.8059479"><ele>3.9999999999999996</ele><time>2026-04-04T09:26:29.213Z</time></trkpt><trkpt lat="41.4436158" lon="12.8059896"><ele>4.0</ele><time>2026-04-04T09:26:30.214Z</time></trkpt><trkpt lat="41.4437554" lon="12.8060665"><ele>4.0</ele><time>2026-04-04T09:26:32.213Z</time></trkpt><trkpt lat="41.4438694" lon="12.8061068"><ele>4.0</ele><time>2026-04-04T09:26:34.213Z</time></trkpt><trkpt lat="41.4439268" lon="12.8061509"><ele>4.0</ele><time>2026-04-04T09:26:36.213Z</time></trkpt><trkpt lat="41.4439733" lon="12.8062523"><ele>4.0</ele><time>2026-04-04T09:26:38.213Z</time></trkpt><trkpt lat="41.4440982" lon="12.8063551"><ele>4.0</ele><time>2026-04-04T09:26:40.213Z</time></trkpt><trkpt lat="41.444196" lon="12.8064223"><ele>4.0</ele><time>2026-04-04T09:26:41.213Z</time></trkpt><trkpt lat="41.444389" lon="12.8065343"><ele>4.0</ele><time>2026-04-04T09:26:43.213Z</time></trkpt><trkpt lat="41.4444791" lon="12.8065911"><ele>4.0</ele><time>2026-04-04T09:26:44.214Z</time></trkpt><trkpt lat="41.4445507" lon="12.8066238"><ele>4.0</ele><time>2026-04-04T09:26:45.213Z</time></trkpt><trkpt lat="41.444615" lon="12.806657"><ele>4.5</ele><time>2026-04-04T09:26:46.214Z</time></trkpt><trkpt lat="41.444761" lon="12.8067496"><ele>5.0</ele><time>2026-04-04T09:26:49.213Z</time></trkpt><trkpt lat="41.4449155" lon="12.806856"><ele>5.5</ele><time>2026-04-04T09:26:51.213Z</time></trkpt><trkpt lat="41.4450073" lon="12.8069075"><ele>6.0</ele><time>2026-04-04T09:26:52.213Z</time></trkpt><trkpt lat="41.4452196" lon="12.8070494"><ele>6.0</ele><time>2026-04-04T09:26:54.214Z</time></trkpt><trkpt lat="41.4454316" lon="12.8071961"><ele>6.0</ele><time>2026-04-04T09:26:56.214Z</time></trkpt><trkpt lat="41.4455324" lon="12.8072401"><ele>6.0</ele><time>2026-04-04T09:26:57.213Z</time></trkpt><trkpt lat="41.4457071" lon="12.80735"><ele>6.0</ele><time>2026-04-04T09:26:59.214Z</time></trkpt><trkpt lat="41.4459043" lon="12.8074698"><ele>6.0</ele><time>2026-04-04T09:27:01.214Z</time></trkpt><trkpt lat="41.4460912" lon="12.8075962"><ele>6.0</ele><time>2026-04-04T09:27:03.213Z</time></trkpt><trkpt lat="41.4461864" lon="12.8076543"><ele>6.333333333333334</ele><time>2026-04-04T09:27:04.213Z</time></trkpt><trkpt lat="41.4463537" lon="12.8077597"><ele>6.666666666666667</ele><time>2026-04-04T09:27:06.214Z</time></trkpt><trkpt lat="41.4465206" lon="12.807866"><ele>7.0</ele><time>2026-04-04T09:27:08.214Z</time></trkpt><trkpt lat="41.4465929" lon="12.8079164"><ele>7.000000000000001</ele><time>2026-04-04T09:27:09.214Z</time></trkpt><trkpt lat="41.4466592" lon="12.8079574"><ele>7.0</ele><time>2026-04-04T09:27:10.214Z</time></trkpt><trkpt lat="41.4467175" lon="12.8079945"><ele>7.0</ele><time>2026-04-04T09:27:11.214Z</time></trkpt><trkpt lat="41.4468048" lon="12.8080034"><ele>7.0</ele><time>2026-04-04T09:27:13.213Z</time></trkpt><trkpt lat="41.4468866" lon="12.8080076"><ele>7.000000000000001</ele><time>2026-04-04T09:27:15.213Z</time></trkpt><trkpt lat="41.4470047" lon="12.808089"><ele>7.0</ele><time>2026-04-04T09:27:17.214Z</time></trkpt><trkpt lat="41.4470679" lon="12.8081363"><ele>7.333333333333334</ele><time>2026-04-04T09:27:18.213Z</time></trkpt><trkpt lat="41.4472481" lon="12.8082272"><ele>7.666666666666666</ele><time>2026-04-04T09:27:20.213Z</time></trkpt><trkpt lat="41.4473468" lon="12.808274"><ele>8.0</ele><time>2026-04-04T09:27:21.213Z</time></trkpt><trkpt lat="41.4475395" lon="12.8083525"><ele>8.0</ele><time>2026-04-04T09:27:23.213Z</time></trkpt><trkpt lat="41.4476269" lon="12.8083961"><ele>8.0</ele><time>2026-04-04T09:27:24.213Z</time></trkpt><trkpt lat="41.4477078" lon="12.808395"><ele>8.0</ele><time>2026-04-04T09:27:25.213Z</time></trkpt><trkpt lat="41.4478597" lon="12.8084548"><ele>8.0</ele><time>2026-04-04T09:27:27.213Z</time></trkpt><trkpt lat="41.4479396" lon="12.8084973"><ele>8.0</ele><time>2026-04-04T09:27:29.213Z</time></trkpt><trkpt lat="41.4479893" lon="12.8085725"><ele>7.75</ele><time>2026-04-04T09:27:33.213Z</time></trkpt><trkpt lat="41.4479959" lon="12.8086848"><ele>7.5</ele><time>2026-04-04T09:27:36.213Z</time></trkpt><trkpt lat="41.4481404" lon="12.8087935"><ele>7.25</ele><time>2026-04-04T09:27:38.213Z</time></trkpt><trkpt lat="41.4482559" lon="12.8088408"><ele>7.0</ele><time>2026-04-04T09:27:39.213Z</time></trkpt><trkpt lat="41.4483312" lon="12.8089062"><ele>7.0</ele><time>2026-04-04T09:27:40.213Z</time></trkpt><trkpt lat="41.4485143" lon="12.809012"><ele>7.0</ele><time>2026-04-04T09:27:42.213Z</time></trkpt><trkpt lat="41.4485906" lon="12.8090733"><ele>7.0</ele><time>2026-04-04T09:27:43.213Z</time></trkpt><trkpt lat="41.44867" lon="12.8091347"><ele>7.0</ele><time>2026-04-04T09:27:44.213Z</time></trkpt><trkpt lat="41.4487506" lon="12.8092059"><ele>7.0</ele><time>2026-04-04T09:27:45.213Z</time></trkpt><trkpt lat="41.4488309" lon="12.8092905"><ele>7.0</ele><time>2026-04-04T09:27:46.213Z</time></trkpt><trkpt lat="41.4489276" lon="12.8093619"><ele>7.0</ele><time>2026-04-04T09:27:47.213Z</time></trkpt><trkpt lat="41.4490359" lon="12.809442"><ele>7.0</ele><time>2026-04-04T09:27:48.213Z</time></trkpt><trkpt lat="41.4491408" lon="12.8095035"><ele>7.0</ele><time>2026-04-04T09:27:49.214Z</time></trkpt><trkpt lat="41.4492455" lon="12.8095878"><ele>7.0</ele><time>2026-04-04T09:27:50.213Z</time></trkpt><trkpt lat="41.4493547" lon="12.8096517"><ele>7.0</ele><time>2026-04-04T09:27:51.213Z</time></trkpt><trkpt lat="41.4495588" lon="12.8098157"><ele>7.5</ele><time>2026-04-04T09:27:53.214Z</time></trkpt><trkpt lat="41.449665" lon="12.8098991"><ele>8.0</ele><time>2026-04-04T09:27:54.213Z</time></trkpt><trkpt lat="41.4497619" lon="12.809978"><ele>8.5</ele><time>2026-04-04T09:27:55.213Z</time></trkpt><trkpt lat="41.4498516" lon="12.8100738"><ele>9.0</ele><time>2026-04-04T09:27:56.214Z</time></trkpt><trkpt lat="41.4499345" lon="12.8101645"><ele>9.0</ele><time>2026-04-04T09:27:57.214Z</time></trkpt><trkpt lat="41.4500211" lon="12.8102456"><ele>9.0</ele><time>2026-04-04T09:27:58.213Z</time></trkpt><trkpt lat="41.4501818" lon="12.8103904"><ele>9.0</ele><time>2026-04-04T09:28:00.214Z</time></trkpt><trkpt lat="41.4503359" lon="12.8104607"><ele>9.0</ele><time>2026-04-04T09:28:02.214Z</time></trkpt><trkpt lat="41.4504045" lon="12.8105047"><ele>9.0</ele><time>2026-04-04T09:28:03.213Z</time></trkpt><trkpt lat="41.450468" lon="12.8105146"><ele>9.0</ele><time>2026-04-04T09:28:04.213Z</time></trkpt><trkpt lat="41.4505488" lon="12.8104928"><ele>9.0</ele><time>2026-04-04T09:28:06.213Z</time></trkpt><trkpt lat="41.4506671" lon="12.8105549"><ele>9.0</ele><time>2026-04-04T09:28:10.214Z</time></trkpt><trkpt lat="41.4507042" lon="12.8106534"><ele>9.0</ele><time>2026-04-04T09:28:12.214Z</time></trkpt><trkpt lat="41.4507751" lon="12.8107145"><ele>9.0</ele><time>2026-04-04T09:28:14.214Z</time></trkpt><trkpt lat="41.450845" lon="12.8107275"><ele>9.0</ele><time>2026-04-04T09:28:15.213Z</time></trkpt><trkpt lat="41.4509731" lon="12.8107502"><ele>9.0</ele><time>2026-04-04T09:28:17.213Z</time></trkpt><trkpt lat="41.4510583" lon="12.8107743"><ele>9.0</ele><time>2026-04-04T09:28:18.214Z</time></trkpt><trkpt lat="41.451145" lon="12.8108"><ele>9.0</ele><time>2026-04-04T09:28:19.213Z</time></trkpt><trkpt lat="41.4512313" lon="12.8108256"><ele>9.4</ele><time>2026-04-04T09:28:20.213Z</time></trkpt><trkpt lat="41.4513231" lon="12.810836"><ele>9.8</ele><time>2026-04-04T09:28:21.213Z</time></trkpt><trkpt lat="41.4514138" lon="12.8108591"><ele>10.200000000000001</ele><time>2026-04-04T09:28:22.213Z</time></trkpt><trkpt lat="41.4515065" lon="12.8108741"><ele>10.600000000000001</ele><time>2026-04-04T09:28:23.213Z</time></trkpt><trkpt lat="41.4516022" lon="12.8108927"><ele>11.0</ele><time>2026-04-04T09:28:24.213Z</time></trkpt><trkpt lat="41.4516869" lon="12.8109044"><ele>11.0</ele><time>2026-04-04T09:28:25.213Z</time></trkpt><trkpt lat="41.451861" lon="12.8109415"><ele>11.0</ele><time>2026-04-04T09:28:27.214Z</time></trkpt><trkpt lat="41.452041" lon="12.8109725"><ele>11.0</ele><time>2026-04-04T09:28:29.213Z</time></trkpt><trkpt lat="41.4521242" lon="12.8109883"><ele>11.0</ele><time>2026-04-04T09:28:30.213Z</time></trkpt><trkpt lat="41.452216" lon="12.8110077"><ele>10.8</ele><time>2026-04-04T09:28:31.214Z</time></trkpt><trkpt lat="41.4523048" lon="12.8110291"><ele>10.600000000000001</ele><time>2026-04-04T09:28:32.213Z</time></trkpt><trkpt lat="41.4523893" lon="12.811052"><ele>10.4</ele><time>2026-04-04T09:28:33.214Z</time></trkpt><trkpt lat="41.4524721" lon="12.8110689"><ele>10.2</ele><time>2026-04-04T09:28:34.214Z</time></trkpt><trkpt lat="41.4525489" lon="12.811081"><ele>10.0</ele><time>2026-04-04T09:28:35.213Z</time></trkpt><trkpt lat="41.4526753" lon="12.811115"><ele>10.0</ele><time>2026-04-04T09:28:37.213Z</time></trkpt><trkpt lat="41.452753" lon="12.811155"><ele>10.0</ele><time>2026-04-04T09:28:39.213Z</time></trkpt><trkpt lat="41.4527927" lon="12.8112311"><ele>10.0</ele><time>2026-04-04T09:28:41.213Z</time></trkpt><trkpt lat="41.4527692" lon="12.8114559"><ele>10.0</ele><time>2026-04-04T09:28:44.213Z</time></trkpt><trkpt lat="41.452761" lon="12.8115494"><ele>10.0</ele><time>2026-04-04T09:28:45.213Z</time></trkpt><trkpt lat="41.4527505" lon="12.811648"><ele>9.5</ele><time>2026-04-04T09:28:46.213Z</time></trkpt><trkpt lat="41.4527329" lon="12.8118568"><ele>9.0</ele><time>2026-04-04T09:28:48.213Z</time></trkpt><trkpt lat="41.4526896" lon="12.8120482"><ele>8.5</ele><time>2026-04-04T09:28:50.213Z</time></trkpt><trkpt lat="41.4526753" lon="12.8121587"><ele>8.0</ele><time>2026-04-04T09:28:51.213Z</time></trkpt><trkpt lat="41.4526555" lon="12.8123993"><ele>8.0</ele><time>2026-04-04T09:28:53.213Z</time></trkpt><trkpt lat="41.452641" lon="12.8125259"><ele>8.0</ele><time>2026-04-04T09:28:54.214Z</time></trkpt><trkpt lat="41.4526118" lon="12.812762"><ele>8.0</ele><time>2026-04-04T09:28:56.213Z</time></trkpt><trkpt lat="41.4526005" lon="12.8128807"><ele>8.0</ele><time>2026-04-04T09:28:57.213Z</time></trkpt><trkpt lat="41.4526113" lon="12.8131456"><ele>8.0</ele><time>2026-04-04T09:29:00.213Z</time></trkpt><trkpt lat="41.4527114" lon="12.8132594"><ele>8.0</ele><time>2026-04-04T09:29:02.213Z</time></trkpt><trkpt lat="41.452824" lon="12.8134005"><ele>8.0</ele><time>2026-04-04T09:29:04.214Z</time></trkpt><trkpt lat="41.4528893" lon="12.8134757"><ele>8.0</ele><time>2026-04-04T09:29:05.213Z</time></trkpt><trkpt lat="41.4530475" lon="12.8136326"><ele>8.25</ele><time>2026-04-04T09:29:07.213Z</time></trkpt><trkpt lat="41.4531888" lon="12.8137956"><ele>8.5</ele><time>2026-04-04T09:29:09.213Z</time></trkpt><trkpt lat="41.4532593" lon="12.8138738"><ele>8.75</ele><time>2026-04-04T09:29:10.213Z</time></trkpt><trkpt lat="41.4533974" lon="12.8140021"><ele>9.0</ele><time>2026-04-04T09:29:12.214Z</time></trkpt><trkpt lat="41.4534625" lon="12.8140574"><ele>9.0</ele><time>2026-04-04T09:29:13.213Z</time></trkpt><trkpt lat="41.4535257" lon="12.814101"><ele>9.0</ele><time>2026-04-04T09:29:14.213Z</time></trkpt><trkpt lat="41.4536226" lon="12.8141887"><ele>9.0</ele><time>2026-04-04T09:29:16.213Z</time></trkpt><trkpt lat="41.4537135" lon="12.8142416"><ele>9.0</ele><time>2026-04-04T09:29:18.213Z</time></trkpt><trkpt lat="41.4537788" lon="12.8142847"><ele>9.0</ele><time>2026-04-04T09:29:19.213Z</time></trkpt><trkpt lat="41.4538501" lon="12.814316"><ele>9.0</ele><time>2026-04-04T09:29:20.214Z</time></trkpt><trkpt lat="41.4539207" lon="12.814335"><ele>9.4</ele><time>2026-04-04T09:29:21.213Z</time></trkpt><trkpt lat="41.4539893" lon="12.8144067"><ele>9.8</ele><time>2026-04-04T09:29:22.213Z</time></trkpt><trkpt lat="41.4540824" lon="12.8144234"><ele>10.200000000000001</ele><time>2026-04-04T09:29:24.213Z</time></trkpt><trkpt lat="41.4540683" lon="12.8145131"><ele>10.600000000000001</ele><time>2026-04-04T09:29:28.213Z</time></trkpt><trkpt lat="41.4541169" lon="12.8146765"><ele>11.0</ele><time>2026-04-04T09:29:30.213Z</time></trkpt><trkpt lat="41.4541887" lon="12.8147576"><ele>11.0</ele><time>2026-04-04T09:29:31.213Z</time></trkpt><trkpt lat="41.4542681" lon="12.8148141"><ele>11.0</ele><time>2026-04-04T09:29:32.213Z</time></trkpt><trkpt lat="41.4543528" lon="12.814883"><ele>11.0</ele><time>2026-04-04T09:29:33.213Z</time></trkpt><trkpt lat="41.4544296" lon="12.8149449"><ele>11.0</ele><time>2026-04-04T09:29:34.213Z</time></trkpt><trkpt lat="41.4545414" lon="12.8150555"><ele>11.0</ele><time>2026-04-04T09:29:36.213Z</time></trkpt><trkpt lat="41.4546813" lon="12.8151145"><ele>10.25</ele><time>2026-04-04T09:29:38.213Z</time></trkpt><trkpt lat="41.4547902" lon="12.8151802"><ele>9.5</ele><time>2026-04-04T09:29:40.213Z</time></trkpt><trkpt lat="41.4548991" lon="12.8152382"><ele>8.75</ele><time>2026-04-04T09:29:42.213Z</time></trkpt><trkpt lat="41.4550294" lon="12.8152509"><ele>8.0</ele><time>2026-04-04T09:29:44.213Z</time></trkpt><trkpt lat="41.4551691" lon="12.8152686"><ele>8.0</ele><time>2026-04-04T09:29:46.213Z</time></trkpt><trkpt lat="41.455247" lon="12.8152771"><ele>8.0</ele><time>2026-04-04T09:29:47.214Z</time></trkpt><trkpt lat="41.4554055" lon="12.815299"><ele>8.0</ele><time>2026-04-04T09:29:49.213Z</time></trkpt><trkpt lat="41.4555567" lon="12.8152778"><ele>8.0</ele><time>2026-04-04T09:29:51.213Z</time></trkpt><trkpt lat="41.4557184" lon="12.8152552"><ele>8.200000000000001</ele><time>2026-04-04T09:29:53.213Z</time></trkpt><trkpt lat="41.4558741" lon="12.8152334"><ele>8.4</ele><time>2026-04-04T09:29:55.213Z</time></trkpt><trkpt lat="41.4559439" lon="12.8152375"><ele>8.600000000000001</ele><time>2026-04-04T09:29:56.213Z</time></trkpt><trkpt lat="41.4560137" lon="12.8152366"><ele>8.8</ele><time>2026-04-04T09:29:57.214Z</time></trkpt><trkpt lat="41.4560785" lon="12.81519"><ele>9.0</ele><time>2026-04-04T09:29:58.213Z</time></trkpt><trkpt lat="41.4561629" lon="12.8151829"><ele>9.166666666666666</ele><time>2026-04-04T09:29:59.213Z</time></trkpt><trkpt lat="41.4562325" lon="12.815138"><ele>9.333333333333334</ele><time>2026-04-04T09:30:00.213Z</time></trkpt><trkpt lat="41.4562962" lon="12.8150996"><ele>9.5</ele><time>2026-04-04T09:30:01.213Z</time></trkpt><trkpt lat="41.4563643" lon="12.8150467"><ele>9.666666666666668</ele><time>2026-04-04T09:30:02.213Z</time></trkpt><trkpt lat="41.4564283" lon="12.8150027"><ele>9.833333333333334</ele><time>2026-04-04T09:30:03.214Z</time></trkpt><trkpt lat="41.4564929" lon="12.8149584"><ele>10.0</ele><time>2026-04-04T09:30:04.213Z</time></trkpt><trkpt lat="41.4566192" lon="12.8148923"><ele>10.166666666666668</ele><time>2026-04-04T09:30:06.213Z</time></trkpt><trkpt lat="41.4567092" lon="12.8148259"><ele>10.333333333333334</ele><time>2026-04-04T09:30:08.213Z</time></trkpt><trkpt lat="41.456743" lon="12.8147549"><ele>10.5</ele><time>2026-04-04T09:30:10.213Z</time></trkpt><trkpt lat="41.4567691" lon="12.8146532"><ele>10.666666666666666</ele><time>2026-04-04T09:30:13.214Z</time></trkpt><trkpt lat="41.456813" lon="12.8145562"><ele>10.833333333333332</ele><time>2026-04-04T09:30:23.213Z</time></trkpt><trkpt lat="41.4568776" lon="12.8144882"><ele>11.0</ele><time>2026-04-04T09:30:25.213Z</time></trkpt><trkpt lat="41.4569682" lon="12.8144245"><ele>11.0</ele><time>2026-04-04T09:30:28.213Z</time></trkpt><trkpt lat="41.4570483" lon="12.8143714"><ele>11.0</ele><time>2026-04-04T09:30:30.213Z</time></trkpt><trkpt lat="41.4571598" lon="12.8142979"><ele>11.0</ele><time>2026-04-04T09:30:32.213Z</time></trkpt><trkpt lat="41.4572271" lon="12.8142258"><ele>11.0</ele><time>2026-04-04T09:30:33.213Z</time></trkpt><trkpt lat="41.4573779" lon="12.8141212"><ele>11.75</ele><time>2026-04-04T09:30:35.214Z</time></trkpt><trkpt lat="41.4574593" lon="12.8140544"><ele>12.5</ele><time>2026-04-04T09:30:36.213Z</time></trkpt><trkpt lat="41.4575809" lon="12.8139485"><ele>13.25</ele><time>2026-04-04T09:30:38.214Z</time></trkpt><trkpt lat="41.4576831" lon="12.8138648"><ele>14.0</ele><time>2026-04-04T09:30:39.213Z</time></trkpt><trkpt lat="41.4577613" lon="12.8137852"><ele>14.0</ele><time>2026-04-04T09:30:40.214Z</time></trkpt><trkpt lat="41.4578244" lon="12.8137411"><ele>14.0</ele><time>2026-04-04T09:30:41.213Z</time></trkpt><trkpt lat="41.4579733" lon="12.8136086"><ele>14.0</ele><time>2026-04-04T09:30:43.213Z</time></trkpt><trkpt lat="41.4581475" lon="12.8134423"><ele>14.0</ele><time>2026-04-04T09:30:45.213Z</time></trkpt><trkpt lat="41.4582498" lon="12.8133744"><ele>14.0</ele><time>2026-04-04T09:30:46.213Z</time></trkpt><trkpt lat="41.4583376" lon="12.8133168"><ele>14.0</ele><time>2026-04-04T09:30:47.213Z</time></trkpt><trkpt lat="41.4584469" lon="12.8132275"><ele>14.0</ele><time>2026-04-04T09:30:48.213Z</time></trkpt><trkpt lat="41.4585469" lon="12.813146"><ele>14.0</ele><time>2026-04-04T09:30:49.213Z</time></trkpt><trkpt lat="41.4586462" lon="12.8130649"><ele>13.999999999999998</ele><time>2026-04-04T09:30:50.213Z</time></trkpt><trkpt lat="41.4587496" lon="12.8129906"><ele>13.999999999999998</ele><time>2026-04-04T09:30:51.213Z</time></trkpt><trkpt lat="41.4588251" lon="12.8129329"><ele>14.0</ele><time>2026-04-04T09:30:52.214Z</time></trkpt><trkpt lat="41.4589256" lon="12.8128549"><ele>14.0</ele><time>2026-04-04T09:30:53.213Z</time></trkpt><trkpt lat="41.4590151" lon="12.8127839"><ele>14.0</ele><time>2026-04-04T09:30:54.214Z</time></trkpt><trkpt lat="41.4591136" lon="12.8127087"><ele>13.999999999999998</ele><time>2026-04-04T09:30:55.213Z</time></trkpt><trkpt lat="41.4592081" lon="12.8126334"><ele>13.999999999999998</ele><time>2026-04-04T09:30:56.213Z</time></trkpt><trkpt lat="41.4592849" lon="12.8125647"><ele>14.0</ele><time>2026-04-04T09:30:57.213Z</time></trkpt><trkpt lat="41.4593783" lon="12.8124972"><ele>14.0</ele><time>2026-04-04T09:30:58.214Z</time></trkpt><trkpt lat="41.4594675" lon="12.8124218"><ele>14.0</ele><time>2026-04-04T09:30:59.214Z</time></trkpt><trkpt lat="41.4595588" lon="12.8123513"><ele>13.999999999999998</ele><time>2026-04-04T09:31:00.213Z</time></trkpt><trkpt lat="41.4596379" lon="12.8122731"><ele>13.999999999999998</ele><time>2026-04-04T09:31:01.214Z</time></trkpt><trkpt lat="41.4597226" lon="12.8122159"><ele>14.0</ele><time>2026-04-04T09:31:02.213Z</time></trkpt><trkpt lat="41.4598117" lon="12.8121499"><ele>14.0</ele><time>2026-04-04T09:31:03.213Z</time></trkpt><trkpt lat="41.459906" lon="12.8120856"><ele>14.166666666666668</ele><time>2026-04-04T09:31:04.213Z</time></trkpt><trkpt lat="41.4599838" lon="12.8120137"><ele>14.333333333333334</ele><time>2026-04-04T09:31:05.213Z</time></trkpt><trkpt lat="41.4600467" lon="12.8119327"><ele>14.5</ele><time>2026-04-04T09:31:06.214Z</time></trkpt><trkpt lat="41.4601023" lon="12.8118528"><ele>14.666666666666668</ele><time>2026-04-04T09:31:07.214Z</time></trkpt><trkpt lat="41.4601515" lon="12.8117848"><ele>14.833333333333334</ele><time>2026-04-04T09:31:08.214Z</time></trkpt><trkpt lat="41.4602528" lon="12.811715"><ele>15.0</ele><time>2026-04-04T09:31:10.214Z</time></trkpt><trkpt lat="41.4603353" lon="12.8116561"><ele>14.333333333333332</ele><time>2026-04-04T09:31:11.214Z</time></trkpt><trkpt lat="41.4604897" lon="12.8115373"><ele>13.666666666666666</ele><time>2026-04-04T09:31:14.213Z</time></trkpt><trkpt lat="41.46059" lon="12.8114566"><ele>13.0</ele><time>2026-04-04T09:31:16.213Z</time></trkpt><trkpt lat="41.4607531" lon="12.8114839"><ele>12.999999999999998</ele><time>2026-04-04T09:31:21.213Z</time></trkpt><trkpt lat="41.4608392" lon="12.8114158"><ele>13.0</ele><time>2026-04-04T09:31:23.213Z</time></trkpt><trkpt lat="41.4609031" lon="12.8113806"><ele>13.0</ele><time>2026-04-04T09:31:24.213Z</time></trkpt><trkpt lat="41.4609675" lon="12.811335"><ele>13.0</ele><time>2026-04-04T09:31:25.213Z</time></trkpt><trkpt lat="41.4610426" lon="12.8112924"><ele>12.999999999999998</ele><time>2026-04-04T09:31:26.213Z</time></trkpt><trkpt lat="41.4611182" lon="12.8112565"><ele>13.0</ele><time>2026-04-04T09:31:27.213Z</time></trkpt><trkpt lat="41.4611809" lon="12.8112278"><ele>12.999999999999998</ele><time>2026-04-04T09:31:28.214Z</time></trkpt><trkpt lat="41.4612452" lon="12.8111891"><ele>13.0</ele><time>2026-04-04T09:31:29.213Z</time></trkpt><trkpt lat="41.4613415" lon="12.8111182"><ele>13.0</ele><time>2026-04-04T09:31:31.213Z</time></trkpt><trkpt lat="41.4614541" lon="12.8110647"><ele>13.0</ele><time>2026-04-04T09:31:33.213Z</time></trkpt><trkpt lat="41.4615114" lon="12.8110246"><ele>12.999999999999998</ele><time>2026-04-04T09:31:34.214Z</time></trkpt><trkpt lat="41.4615768" lon="12.8109682"><ele>13.0</ele><time>2026-04-04T09:31:35.213Z</time></trkpt><trkpt lat="41.461698" lon="12.8109153"><ele>13.600000000000001</ele><time>2026-04-04T09:31:37.213Z</time></trkpt><trkpt lat="41.4617654" lon="12.8108926"><ele>14.200000000000001</ele><time>2026-04-04T09:31:38.213Z</time></trkpt><trkpt lat="41.4618451" lon="12.8108778"><ele>14.8</ele><time>2026-04-04T09:31:39.213Z</time></trkpt><trkpt lat="41.4619455" lon="12.8108425"><ele>15.4</ele><time>2026-04-04T09:31:41.213Z</time></trkpt><trkpt lat="41.4620774" lon="12.8107917"><ele>16.0</ele><time>2026-04-04T09:31:43.213Z</time></trkpt><trkpt lat="41.4621859" lon="12.8107445"><ele>16.0</ele><time>2026-04-04T09:31:45.213Z</time></trkpt><trkpt lat="41.4623103" lon="12.8107236"><ele>16.0</ele><time>2026-04-04T09:31:47.213Z</time></trkpt><trkpt lat="41.4624434" lon="12.8107037"><ele>16.0</ele><time>2026-04-04T09:31:49.213Z</time></trkpt><trkpt lat="41.4625434" lon="12.8106895"><ele>16.0</ele><time>2026-04-04T09:31:51.214Z</time></trkpt><trkpt lat="41.4626369" lon="12.8106676"><ele>15.999999999999998</ele><time>2026-04-04T09:31:53.214Z</time></trkpt><trkpt lat="41.4627055" lon="12.8106639"><ele>16.0</ele><time>2026-04-04T09:31:55.213Z</time></trkpt><trkpt lat="41.462809" lon="12.8106417"><ele>16.0</ele><time>2026-04-04T09:34:35.213Z</time></trkpt><trkpt lat="41.4628752" lon="12.8106287"><ele>16.0</ele><time>2026-04-04T09:34:36.213Z</time></trkpt><trkpt lat="41.462944" lon="12.8106027"><ele>15.999999999999998</ele><time>2026-04-04T09:34:38.213Z</time></trkpt><trkpt lat="41.4630081" lon="12.810606"><ele>16.0</ele><time>2026-04-04T09:34:43.213Z</time></trkpt><trkpt lat="41.4630282" lon="12.8107903"><ele>15.833333333333332</ele><time>2026-04-04T09:34:47.213Z</time></trkpt><trkpt lat="41.4630281" lon="12.8108762"><ele>15.666666666666666</ele><time>2026-04-04T09:34:48.213Z</time></trkpt><trkpt lat="41.4630373" lon="12.8109843"><ele>15.5</ele><time>2026-04-04T09:34:49.213Z</time></trkpt><trkpt lat="41.4630467" lon="12.8110864"><ele>15.333333333333332</ele><time>2026-04-04T09:34:50.213Z</time></trkpt><trkpt lat="41.4630542" lon="12.8111937"><ele>15.166666666666666</ele><time>2026-04-04T09:34:51.213Z</time></trkpt><trkpt lat="41.4630746" lon="12.8112906"><ele>15.0</ele><time>2026-04-04T09:34:52.213Z</time></trkpt><trkpt lat="41.4630919" lon="12.8114058"><ele>15.0</ele><time>2026-04-04T09:34:53.213Z</time></trkpt><trkpt lat="41.4631215" lon="12.8115215"><ele>15.0</ele><time>2026-04-04T09:34:55.213Z</time></trkpt><trkpt lat="41.4631895" lon="12.8115464"><ele>15.0</ele><time>2026-04-04T09:34:57.213Z</time></trkpt><trkpt lat="41.4633051" lon="12.8114908"><ele>15.0</ele><time>2026-04-04T09:34:59.213Z</time></trkpt><trkpt lat="41.4633862" lon="12.811458"><ele>15.0</ele><time>2026-04-04T09:35:00.213Z</time></trkpt><trkpt lat="41.4634841" lon="12.8114433"><ele>15.0</ele><time>2026-04-04T09:35:01.213Z</time></trkpt><trkpt lat="41.4635941" lon="12.8114293"><ele>15.0</ele><time>2026-04-04T09:35:02.213Z</time></trkpt><trkpt lat="41.463706" lon="12.8114166"><ele>15.0</ele><time>2026-04-04T09:35:03.213Z</time></trkpt><trkpt lat="41.4638131" lon="12.8114136"><ele>15.0</ele><time>2026-04-04T09:35:04.213Z</time></trkpt><trkpt lat="41.4639153" lon="12.8114144"><ele>15.0</ele><time>2026-04-04T09:35:05.213Z</time></trkpt><trkpt lat="41.4640178" lon="12.8114313"><ele>14.833333333333334</ele><time>2026-04-04T09:35:06.214Z</time></trkpt><trkpt lat="41.464111" lon="12.8114383"><ele>14.666666666666668</ele><time>2026-04-04T09:35:07.213Z</time></trkpt><trkpt lat="41.4642053" lon="12.8114177"><ele>14.5</ele><time>2026-04-04T09:35:08.213Z</time></trkpt><trkpt lat="41.4642837" lon="12.8114341"><ele>14.333333333333334</ele><time>2026-04-04T09:35:09.213Z</time></trkpt><trkpt lat="41.4643549" lon="12.81146"><ele>14.166666666666668</ele><time>2026-04-04T09:35:10.213Z</time></trkpt><trkpt lat="41.4643926" lon="12.8115367"><ele>14.0</ele><time>2026-04-04T09:35:11.213Z</time></trkpt><trkpt lat="41.4644271" lon="12.8116176"><ele>14.0</ele><time>2026-04-04T09:35:12.214Z</time></trkpt><trkpt lat="41.4644599" lon="12.8117121"><ele>13.999999999999998</ele><time>2026-04-04T09:35:13.213Z</time></trkpt><trkpt lat="41.4645366" lon="12.811813"><ele>13.999999999999998</ele><time>2026-04-04T09:35:14.214Z</time></trkpt><trkpt lat="41.4646161" lon="12.8119053"><ele>14.0</ele><time>2026-04-04T09:35:15.213Z</time></trkpt><trkpt lat="41.4647183" lon="12.8120114"><ele>14.0</ele><time>2026-04-04T09:35:16.213Z</time></trkpt><trkpt lat="41.4648376" lon="12.812118"><ele>14.0</ele><time>2026-04-04T09:35:17.213Z</time></trkpt><trkpt lat="41.4649522" lon="12.8122343"><ele>14.0</ele><time>2026-04-04T09:35:18.213Z</time></trkpt><trkpt lat="41.4650486" lon="12.8123573"><ele>14.0</ele><time>2026-04-04T09:35:19.213Z</time></trkpt><trkpt lat="41.4651645" lon="12.8124867"><ele>14.0</ele><time>2026-04-04T09:35:20.213Z</time></trkpt><trkpt lat="41.465268" lon="12.8126116"><ele>14.25</ele><time>2026-04-04T09:35:21.214Z</time></trkpt><trkpt lat="41.4653695" lon="12.8127341"><ele>14.5</ele><time>2026-04-04T09:35:22.213Z</time></trkpt><trkpt lat="41.4654929" lon="12.8128346"><ele>14.75</ele><time>2026-04-04T09:35:23.213Z</time></trkpt><trkpt lat="41.4656182" lon="12.8129212"><ele>15.0</ele><time>2026-04-04T09:35:24.213Z</time></trkpt><trkpt lat="41.4657455" lon="12.8130027"><ele>15.0</ele><time>2026-04-04T09:35:25.213Z</time></trkpt><trkpt lat="41.4658661" lon="12.8130719"><ele>15.0</ele><time>2026-04-04T09:35:26.213Z</time></trkpt><trkpt lat="41.4659789" lon="12.8131249"><ele>15.0</ele><time>2026-04-04T09:35:27.213Z</time></trkpt><trkpt lat="41.4660903" lon="12.813185"><ele>15.0</ele><time>2026-04-04T09:35:28.214Z</time></trkpt><trkpt lat="41.4661921" lon="12.8132097"><ele>15.2</ele><time>2026-04-04T09:35:29.213Z</time></trkpt><trkpt lat="41.4662855" lon="12.8132451"><ele>15.4</ele><time>2026-04-04T09:35:30.213Z</time></trkpt><trkpt lat="41.4663908" lon="12.8132636"><ele>15.600000000000001</ele><time>2026-04-04T09:35:31.213Z</time></trkpt><trkpt lat="41.466515" lon="12.8132871"><ele>15.8</ele><time>2026-04-04T09:35:32.213Z</time></trkpt><trkpt lat="41.4666125" lon="12.8132983"><ele>16.0</ele><time>2026-04-04T09:35:33.214Z</time></trkpt><trkpt lat="41.4667104" lon="12.8133006"><ele>15.999999999999998</ele><time>2026-04-04T09:35:34.213Z</time></trkpt><trkpt lat="41.4667752" lon="12.813305"><ele>16.0</ele><time>2026-04-04T09:35:35.213Z</time></trkpt><trkpt lat="41.4668387" lon="12.8133107"><ele>16.0</ele><time>2026-04-04T09:35:36.213Z</time></trkpt><trkpt lat="41.4669317" lon="12.8133373"><ele>16.0</ele><time>2026-04-04T09:35:38.213Z</time></trkpt><trkpt lat="41.4669998" lon="12.8133956"><ele>15.999999999999998</ele><time>2026-04-04T09:35:40.213Z</time></trkpt><trkpt lat="41.4671344" lon="12.8133952"><ele>16.0</ele><time>2026-04-04T09:35:42.213Z</time></trkpt><trkpt lat="41.4672226" lon="12.8133877"><ele>16.0</ele><time>2026-04-04T09:35:43.213Z</time></trkpt><trkpt lat="41.4673099" lon="12.8133751"><ele>16.0</ele><time>2026-04-04T09:35:44.213Z</time></trkpt><trkpt lat="41.4673907" lon="12.8133786"><ele>16.0</ele><time>2026-04-04T09:35:45.213Z</time></trkpt><trkpt lat="41.4674882" lon="12.8133693"><ele>16.0</ele><time>2026-04-04T09:35:46.213Z</time></trkpt><trkpt lat="41.4675814" lon="12.813366"><ele>16.0</ele><time>2026-04-04T09:35:47.213Z</time></trkpt><trkpt lat="41.4676717" lon="12.8133614"><ele>16.0</ele><time>2026-04-04T09:35:48.213Z</time></trkpt><trkpt lat="41.4677598" lon="12.8133574"><ele>16.0</ele><time>2026-04-04T09:35:49.214Z</time></trkpt><trkpt lat="41.4678452" lon="12.8133548"><ele>16.0</ele><time>2026-04-04T09:35:50.213Z</time></trkpt><trkpt lat="41.4679349" lon="12.8133417"><ele>16.0</ele><time>2026-04-04T09:35:51.214Z</time></trkpt><trkpt lat="41.4680094" lon="12.8133515"><ele>16.0</ele><time>2026-04-04T09:35:52.213Z</time></trkpt><trkpt lat="41.4681161" lon="12.8133065"><ele>15.8</ele><time>2026-04-04T09:35:54.213Z</time></trkpt><trkpt lat="41.4681552" lon="12.8132032"><ele>15.600000000000001</ele><time>2026-04-04T09:35:56.213Z</time></trkpt><trkpt lat="41.4681999" lon="12.8130997"><ele>15.4</ele><time>2026-04-04T09:35:58.213Z</time></trkpt><trkpt lat="41.4682901" lon="12.8130816"><ele>15.2</ele><time>2026-04-04T09:36:00.213Z</time></trkpt><trkpt lat="41.4683941" lon="12.8131465"><ele>15.0</ele><time>2026-04-04T09:36:02.214Z</time></trkpt><trkpt lat="41.468486" lon="12.8132788"><ele>15.0</ele><time>2026-04-04T09:36:04.213Z</time></trkpt><trkpt lat="41.4685339" lon="12.8133548"><ele>15.0</ele><time>2026-04-04T09:36:05.213Z</time></trkpt><trkpt lat="41.4685742" lon="12.8134305"><ele>15.0</ele><time>2026-04-04T09:36:06.214Z</time></trkpt><trkpt lat="41.4686159" lon="12.8135114"><ele>15.0</ele><time>2026-04-04T09:36:07.213Z</time></trkpt><trkpt lat="41.4686666" lon="12.8136057"><ele>15.0</ele><time>2026-04-04T09:36:08.213Z</time></trkpt><trkpt lat="41.4687093" lon="12.8137078"><ele>15.0</ele><time>2026-04-04T09:36:09.213Z</time></trkpt><trkpt lat="41.4687451" lon="12.8138057"><ele>15.0</ele><time>2026-04-04T09:36:10.213Z</time></trkpt><trkpt lat="41.4687925" lon="12.8138951"><ele>15.0</ele><time>2026-04-04T09:36:11.213Z</time></trkpt><trkpt lat="41.468826" lon="12.8140095"><ele>15.0</ele><time>2026-04-04T09:36:12.213Z</time></trkpt><trkpt lat="41.4688574" lon="12.8141123"><ele>15.0</ele><time>2026-04-04T09:36:13.213Z</time></trkpt><trkpt lat="41.4688749" lon="12.8142065"><ele>15.0</ele><time>2026-04-04T09:36:14.213Z</time></trkpt><trkpt lat="41.4689251" lon="12.8143667"><ele>15.0</ele><time>2026-04-04T09:36:16.214Z</time></trkpt><trkpt lat="41.4689489" lon="12.8144696"><ele>15.0</ele><time>2026-04-04T09:36:17.213Z</time></trkpt><trkpt lat="41.4690021" lon="12.8145785"><ele>15.0</ele><time>2026-04-04T09:36:18.214Z</time></trkpt><trkpt lat="41.4690442" lon="12.8146903"><ele>15.0</ele><time>2026-04-04T09:36:19.213Z</time></trkpt><trkpt lat="41.4690786" lon="12.8148086"><ele>15.0</ele><time>2026-04-04T09:36:20.213Z</time></trkpt><trkpt lat="41.4691222" lon="12.8149208"><ele>15.0</ele><time>2026-04-04T09:36:21.213Z</time></trkpt><trkpt lat="41.4691645" lon="12.8150283"><ele>15.0</ele><time>2026-04-04T09:36:22.213Z</time></trkpt><trkpt lat="41.4692031" lon="12.8151415"><ele>15.0</ele><time>2026-04-04T09:36:23.214Z</time></trkpt><trkpt lat="41.4692451" lon="12.815254"><ele>15.0</ele><time>2026-04-04T09:36:24.213Z</time></trkpt><trkpt lat="41.4692993" lon="12.8153633"><ele>15.0</ele><time>2026-04-04T09:36:25.213Z</time></trkpt><trkpt lat="41.4693529" lon="12.815491"><ele>15.4</ele><time>2026-04-04T09:36:26.213Z</time></trkpt><trkpt lat="41.4694019" lon="12.815619"><ele>15.8</ele><time>2026-04-04T09:36:27.214Z</time></trkpt><trkpt lat="41.469452" lon="12.8157448"><ele>16.2</ele><time>2026-04-04T09:36:28.213Z</time></trkpt><trkpt lat="41.4694873" lon="12.8158674"><ele>16.6</ele><time>2026-04-04T09:36:29.213Z</time></trkpt><trkpt lat="41.4695312" lon="12.8160005"><ele>17.0</ele><time>2026-04-04T09:36:30.213Z</time></trkpt><trkpt lat="41.4695759" lon="12.8161369"><ele>16.4</ele><time>2026-04-04T09:36:31.213Z</time></trkpt><trkpt lat="41.4696207" lon="12.8162563"><ele>15.799999999999999</ele><time>2026-04-04T09:36:32.214Z</time></trkpt><trkpt lat="41.4696729" lon="12.8163731"><ele>15.2</ele><time>2026-04-04T09:36:33.213Z</time></trkpt><trkpt lat="41.4697108" lon="12.8165114"><ele>14.6</ele><time>2026-04-04T09:36:34.213Z</time></trkpt><trkpt lat="41.4697706" lon="12.8166227"><ele>14.0</ele><time>2026-04-04T09:36:35.213Z</time></trkpt><trkpt lat="41.4698192" lon="12.8167484"><ele>14.333333333333334</ele><time>2026-04-04T09:36:36.213Z</time></trkpt><trkpt lat="41.4698475" lon="12.8168529"><ele>14.666666666666668</ele><time>2026-04-04T09:36:37.214Z</time></trkpt><trkpt lat="41.4698809" lon="12.816974"><ele>15.0</ele><time>2026-04-04T09:36:38.214Z</time></trkpt><trkpt lat="41.4699082" lon="12.8170681"><ele>15.333333333333332</ele><time>2026-04-04T09:36:39.213Z</time></trkpt><trkpt lat="41.4699399" lon="12.8171753"><ele>15.666666666666666</ele><time>2026-04-04T09:36:40.213Z</time></trkpt><trkpt lat="41.4699614" lon="12.8172846"><ele>16.0</ele><time>2026-04-04T09:36:41.213Z</time></trkpt><trkpt lat="41.4700047" lon="12.8173939"><ele>15.999999999999998</ele><time>2026-04-04T09:36:42.214Z</time></trkpt><trkpt lat="41.470048" lon="12.8175105"><ele>16.0</ele><time>2026-04-04T09:36:43.214Z</time></trkpt><trkpt lat="41.4700671" lon="12.817611"><ele>16.0</ele><time>2026-04-04T09:36:44.213Z</time></trkpt><trkpt lat="41.4701033" lon="12.8177078"><ele>16.0</ele><time>2026-04-04T09:36:45.214Z</time></trkpt><trkpt lat="41.4701506" lon="12.8178229"><ele>15.999999999999998</ele><time>2026-04-04T09:36:46.213Z</time></trkpt><trkpt lat="41.470175" lon="12.8179341"><ele>16.0</ele><time>2026-04-04T09:36:47.214Z</time></trkpt><trkpt lat="41.4702398" lon="12.8180444"><ele>15.999999999999998</ele><time>2026-04-04T09:36:48.213Z</time></trkpt><trkpt lat="41.4702733" lon="12.8181559"><ele>16.0</ele><time>2026-04-04T09:36:49.213Z</time></trkpt><trkpt lat="41.4703115" lon="12.8182325"><ele>16.0</ele><time>2026-04-04T09:36:50.213Z</time></trkpt><trkpt lat="41.4703463" lon="12.8183455"><ele>16.0</ele><time>2026-04-04T09:36:52.213Z</time></trkpt><trkpt lat="41.470385" lon="12.8184137"><ele>15.999999999999998</ele><time>2026-04-04T09:36:54.214Z</time></trkpt><trkpt lat="41.4704456" lon="12.8184563"><ele>16.0</ele><time>2026-04-04T09:36:57.213Z</time></trkpt><trkpt lat="41.4705077" lon="12.8184982"><ele>15.999999999999998</ele><time>2026-04-04T09:37:00.213Z</time></trkpt><trkpt lat="41.4705171" lon="12.8186079"><ele>16.0</ele><time>2026-04-04T09:37:03.213Z</time></trkpt><trkpt lat="41.4704653" lon="12.8186862"><ele>16.0</ele><time>2026-04-04T09:37:12.213Z</time></trkpt><trkpt lat="41.4704394" lon="12.8187661"><ele>16.0</ele><time>2026-04-04T09:37:14.213Z</time></trkpt><trkpt lat="41.4704532" lon="12.8188583"><ele>15.999999999999998</ele><time>2026-04-04T09:37:16.214Z</time></trkpt><trkpt lat="41.4704871" lon="12.8189449"><ele>16.0</ele><time>2026-04-04T09:37:18.213Z</time></trkpt><trkpt lat="41.4705232" lon="12.8191129"><ele>16.0</ele><time>2026-04-04T09:37:20.214Z</time></trkpt><trkpt lat="41.470569" lon="12.8192062"><ele>16.0</ele><time>2026-04-04T09:37:21.213Z</time></trkpt><trkpt lat="41.4706146" lon="12.8193608"><ele>16.0</ele><time>2026-04-04T09:37:22.213Z</time></trkpt><trkpt lat="41.4706809" lon="12.8194713"><ele>16.0</ele><time>2026-04-04T09:37:23.214Z</time></trkpt><trkpt lat="41.4707326" lon="12.8196007"><ele>16.0</ele><time>2026-04-04T09:37:24.213Z</time></trkpt><trkpt lat="41.4707721" lon="12.8197046"><ele>16.166666666666664</ele><time>2026-04-04T09:37:25.213Z</time></trkpt><trkpt lat="41.4708166" lon="12.8198077"><ele>16.333333333333332</ele><time>2026-04-04T09:37:26.213Z</time></trkpt><trkpt lat="41.4708251" lon="12.8199167"><ele>16.5</ele><time>2026-04-04T09:37:27.213Z</time></trkpt><trkpt lat="41.4708763" lon="12.8199992"><ele>16.666666666666668</ele><time>2026-04-04T09:37:28.213Z</time></trkpt><trkpt lat="41.4709203" lon="12.8200833"><ele>16.833333333333336</ele><time>2026-04-04T09:37:29.214Z</time></trkpt><trkpt lat="41.4709383" lon="12.820183"><ele>17.0</ele><time>2026-04-04T09:37:30.213Z</time></trkpt><trkpt lat="41.4709856" lon="12.8202816"><ele>17.0</ele><time>2026-04-04T09:37:31.213Z</time></trkpt><trkpt lat="41.4710246" lon="12.8204076"><ele>17.0</ele><time>2026-04-04T09:37:32.213Z</time></trkpt><trkpt lat="41.4710563" lon="12.8205312"><ele>17.0</ele><time>2026-04-04T09:37:33.214Z</time></trkpt><trkpt lat="41.4711092" lon="12.8206579"><ele>17.0</ele><time>2026-04-04T09:37:34.213Z</time></trkpt><trkpt lat="41.4711508" lon="12.8207702"><ele>17.0</ele><time>2026-04-04T09:37:35.213Z</time></trkpt><trkpt lat="41.4712222" lon="12.8208799"><ele>17.0</ele><time>2026-04-04T09:37:36.213Z</time></trkpt><trkpt lat="41.47129" lon="12.8209846"><ele>17.0</ele><time>2026-04-04T09:37:37.213Z</time></trkpt><trkpt lat="41.4713674" lon="12.8210764"><ele>17.0</ele><time>2026-04-04T09:37:38.214Z</time></trkpt><trkpt lat="41.4714478" lon="12.8211592"><ele>17.0</ele><time>2026-04-04T09:37:39.213Z</time></trkpt><trkpt lat="41.4715219" lon="12.8212442"><ele>17.0</ele><time>2026-04-04T09:37:40.213Z</time></trkpt><trkpt lat="41.4715985" lon="12.8213312"><ele>17.0</ele><time>2026-04-04T09:37:41.213Z</time></trkpt><trkpt lat="41.4716781" lon="12.8214114"><ele>17.0</ele><time>2026-04-04T09:37:42.214Z</time></trkpt><trkpt lat="41.4717664" lon="12.8214793"><ele>17.0</ele><time>2026-04-04T09:37:43.213Z</time></trkpt><trkpt lat="41.4718677" lon="12.8215486"><ele>17.0</ele><time>2026-04-04T09:37:44.213Z</time></trkpt><trkpt lat="41.4719768" lon="12.8216199"><ele>17.0</ele><time>2026-04-04T09:37:45.213Z</time></trkpt><trkpt lat="41.4720909" lon="12.8216482"><ele>16.75</ele><time>2026-04-04T09:37:46.213Z</time></trkpt><trkpt lat="41.4721946" lon="12.8216696"><ele>16.5</ele><time>2026-04-04T09:37:47.214Z</time></trkpt><trkpt lat="41.472302" lon="12.8216928"><ele>16.25</ele><time>2026-04-04T09:37:48.213Z</time></trkpt><trkpt lat="41.4724281" lon="12.8217029"><ele>16.0</ele><time>2026-04-04T09:37:49.213Z</time></trkpt><trkpt lat="41.4725715" lon="12.8216895"><ele>16.0</ele><time>2026-04-04T09:37:50.213Z</time></trkpt><trkpt lat="41.4727141" lon="12.8216821"><ele>16.0</ele><time>2026-04-04T09:37:51.213Z</time></trkpt><trkpt lat="41.4728855" lon="12.8216543"><ele>16.0</ele><time>2026-04-04T09:37:52.214Z</time></trkpt><trkpt lat="41.4730465" lon="12.8216404"><ele>16.25</ele><time>2026-04-04T09:37:53.214Z</time></trkpt><trkpt lat="41.4732005" lon="12.8216293"><ele>16.5</ele><time>2026-04-04T09:37:54.214Z</time></trkpt><trkpt lat="41.4733483" lon="12.821611"><ele>16.75</ele><time>2026-04-04T09:37:55.213Z</time></trkpt><trkpt lat="41.4734939" lon="12.8216007"><ele>17.0</ele><time>2026-04-04T09:37:56.213Z</time></trkpt><trkpt lat="41.4736277" lon="12.8215878"><ele>17.0</ele><time>2026-04-04T09:37:57.213Z</time></trkpt><trkpt lat="41.4737732" lon="12.8215883"><ele>17.0</ele><time>2026-04-04T09:37:58.213Z</time></trkpt><trkpt lat="41.4739054" lon="12.821578"><ele>17.0</ele><time>2026-04-04T09:37:59.213Z</time></trkpt><trkpt lat="41.4740379" lon="12.8215677"><ele>17.0</ele><time>2026-04-04T09:38:00.213Z</time></trkpt><trkpt lat="41.4741645" lon="12.821556"><ele>17.0</ele><time>2026-04-04T09:38:01.213Z</time></trkpt><trkpt lat="41.4742829" lon="12.8215441"><ele>17.0</ele><time>2026-04-04T09:38:02.214Z</time></trkpt><trkpt lat="41.4743955" lon="12.8215416"><ele>17.0</ele><time>2026-04-04T09:38:03.214Z</time></trkpt><trkpt lat="41.4745035" lon="12.8215434"><ele>17.0</ele><time>2026-04-04T09:38:04.213Z</time></trkpt><trkpt lat="41.4746087" lon="12.8215334"><ele>17.0</ele><time>2026-04-04T09:38:05.213Z</time></trkpt><trkpt lat="41.4747084" lon="12.821522"><ele>17.2</ele><time>2026-04-04T09:38:06.213Z</time></trkpt><trkpt lat="41.4748096" lon="12.821508"><ele>17.4</ele><time>2026-04-04T09:38:07.213Z</time></trkpt><trkpt lat="41.4749052" lon="12.8215029"><ele>17.6</ele><time>2026-04-04T09:38:08.213Z</time></trkpt><trkpt lat="41.4749998" lon="12.8215004"><ele>17.8</ele><time>2026-04-04T09:38:09.213Z</time></trkpt><trkpt lat="41.475091" lon="12.8215017"><ele>18.0</ele><time>2026-04-04T09:38:10.214Z</time></trkpt><trkpt lat="41.4751738" lon="12.8215166"><ele>18.0</ele><time>2026-04-04T09:38:11.213Z</time></trkpt><trkpt lat="41.4752623" lon="12.8215428"><ele>18.0</ele><time>2026-04-04T09:38:12.213Z</time></trkpt><trkpt lat="41.4753471" lon="12.8215846"><ele>18.0</ele><time>2026-04-04T09:38:13.213Z</time></trkpt><trkpt lat="41.4754169" lon="12.8216462"><ele>18.0</ele><time>2026-04-04T09:38:14.213Z</time></trkpt><trkpt lat="41.4754919" lon="12.8217"><ele>18.0</ele><time>2026-04-04T09:38:15.213Z</time></trkpt><trkpt lat="41.4755745" lon="12.821753"><ele>18.0</ele><time>2026-04-04T09:38:16.214Z</time></trkpt><trkpt lat="41.4756557" lon="12.8218096"><ele>18.0</ele><time>2026-04-04T09:38:17.213Z</time></trkpt><trkpt lat="41.4757421" lon="12.8218843"><ele>18.0</ele><time>2026-04-04T09:38:18.213Z</time></trkpt><trkpt lat="41.4758126" lon="12.8219682"><ele>18.0</ele><time>2026-04-04T09:38:19.213Z</time></trkpt><trkpt lat="41.4758889" lon="12.8220581"><ele>18.0</ele><time>2026-04-04T09:38:20.214Z</time></trkpt><trkpt lat="41.475957" lon="12.822167"><ele>18.0</ele><time>2026-04-04T09:38:21.213Z</time></trkpt><trkpt lat="41.4760303" lon="12.8222842"><ele>18.0</ele><time>2026-04-04T09:38:22.214Z</time></trkpt><trkpt lat="41.4760892" lon="12.8224153"><ele>18.0</ele><time>2026-04-04T09:38:23.213Z</time></trkpt><trkpt lat="41.4761483" lon="12.8225709"><ele>18.0</ele><time>2026-04-04T09:38:24.213Z</time></trkpt><trkpt lat="41.4761886" lon="12.822711"><ele>18.0</ele><time>2026-04-04T09:38:25.213Z</time></trkpt><trkpt lat="41.4762164" lon="12.8228683"><ele>18.0</ele><time>2026-04-04T09:38:26.213Z</time></trkpt><trkpt lat="41.4762442" lon="12.8230247"><ele>18.0</ele><time>2026-04-04T09:38:27.213Z</time></trkpt><trkpt lat="41.4762619" lon="12.8231883"><ele>18.0</ele><time>2026-04-04T09:38:28.213Z</time></trkpt><trkpt lat="41.4762784" lon="12.8233807"><ele>18.0</ele><time>2026-04-04T09:38:29.213Z</time></trkpt><trkpt lat="41.4762746" lon="12.8235725"><ele>17.75</ele><time>2026-04-04T09:38:30.213Z</time></trkpt><trkpt lat="41.4762609" lon="12.8237724"><ele>17.5</ele><time>2026-04-04T09:38:31.213Z</time></trkpt><trkpt lat="41.4762518" lon="12.8239529"><ele>17.25</ele><time>2026-04-04T09:38:32.213Z</time></trkpt><trkpt lat="41.4762424" lon="12.8241177"><ele>17.0</ele><time>2026-04-04T09:38:33.213Z</time></trkpt><trkpt lat="41.4762302" lon="12.8242799"><ele>17.4</ele><time>2026-04-04T09:38:34.213Z</time></trkpt><trkpt lat="41.4762218" lon="12.8244265"><ele>17.799999999999997</ele><time>2026-04-04T09:38:35.213Z</time></trkpt><trkpt lat="41.476216" lon="12.8245776"><ele>18.2</ele><time>2026-04-04T09:38:36.213Z</time></trkpt><trkpt lat="41.4762119" lon="12.8246811"><ele>18.599999999999998</ele><time>2026-04-04T09:38:37.213Z</time></trkpt><trkpt lat="41.4762196" lon="12.8247965"><ele>19.0</ele><time>2026-04-04T09:38:38.213Z</time></trkpt><trkpt lat="41.476228" lon="12.8249081"><ele>19.0</ele><time>2026-04-04T09:38:39.213Z</time></trkpt><trkpt lat="41.4762273" lon="12.8250208"><ele>19.0</ele><time>2026-04-04T09:38:40.213Z</time></trkpt><trkpt lat="41.4762315" lon="12.8251367"><ele>19.0</ele><time>2026-04-04T09:38:41.213Z</time></trkpt><trkpt lat="41.4762224" lon="12.8252311"><ele>19.0</ele><time>2026-04-04T09:38:42.213Z</time></trkpt><trkpt lat="41.4762225" lon="12.8253415"><ele>19.0</ele><time>2026-04-04T09:38:43.213Z</time></trkpt><trkpt lat="41.4762175" lon="12.8254563"><ele>19.0</ele><time>2026-04-04T09:38:44.213Z</time></trkpt><trkpt lat="41.4762081" lon="12.8255645"><ele>19.0</ele><time>2026-04-04T09:38:45.214Z</time></trkpt><trkpt lat="41.476201" lon="12.8256877"><ele>19.0</ele><time>2026-04-04T09:38:46.213Z</time></trkpt><trkpt lat="41.476193" lon="12.8257989"><ele>19.0</ele><time>2026-04-04T09:38:47.213Z</time></trkpt><trkpt lat="41.4761821" lon="12.82591"><ele>19.0</ele><time>2026-04-04T09:38:48.213Z</time></trkpt><trkpt lat="41.476172" lon="12.8260228"><ele>19.0</ele><time>2026-04-04T09:38:49.213Z</time></trkpt><trkpt lat="41.4761541" lon="12.8261491"><ele>19.0</ele><time>2026-04-04T09:38:50.213Z</time></trkpt><trkpt lat="41.4761368" lon="12.8262745"><ele>19.0</ele><time>2026-04-04T09:38:51.214Z</time></trkpt><trkpt lat="41.4761125" lon="12.826401"><ele>19.0</ele><time>2026-04-04T09:38:52.213Z</time></trkpt><trkpt lat="41.4760981" lon="12.8265086"><ele>19.0</ele><time>2026-04-04T09:38:53.213Z</time></trkpt><trkpt lat="41.4760918" lon="12.8266252"><ele>19.0</ele><time>2026-04-04T09:38:54.213Z</time></trkpt><trkpt lat="41.4760806" lon="12.8267368"><ele>19.0</ele><time>2026-04-04T09:38:55.213Z</time></trkpt><trkpt lat="41.4760549" lon="12.8268254"><ele>19.0</ele><time>2026-04-04T09:38:56.213Z</time></trkpt><trkpt lat="41.4760219" lon="12.8269331"><ele>19.0</ele><time>2026-04-04T09:38:57.213Z</time></trkpt><trkpt lat="41.4759891" lon="12.8270302"><ele>19.0</ele><time>2026-04-04T09:38:58.213Z</time></trkpt><trkpt lat="41.4759546" lon="12.8271417"><ele>19.0</ele><time>2026-04-04T09:38:59.213Z</time></trkpt><trkpt lat="41.4759195" lon="12.8272458"><ele>19.0</ele><time>2026-04-04T09:39:00.214Z</time></trkpt><trkpt lat="41.4758909" lon="12.8273543"><ele>19.0</ele><time>2026-04-04T09:39:01.213Z</time></trkpt><trkpt lat="41.4758617" lon="12.8274713"><ele>19.0</ele><time>2026-04-04T09:39:02.214Z</time></trkpt><trkpt lat="41.4758221" lon="12.8275954"><ele>19.0</ele><time>2026-04-04T09:39:03.213Z</time></trkpt><trkpt lat="41.475787" lon="12.8277121"><ele>19.0</ele><time>2026-04-04T09:39:04.213Z</time></trkpt><trkpt lat="41.4757621" lon="12.8278187"><ele>19.0</ele><time>2026-04-04T09:39:05.213Z</time></trkpt><trkpt lat="41.4757344" lon="12.8279283"><ele>19.0</ele><time>2026-04-04T09:39:06.213Z</time></trkpt><trkpt lat="41.4756974" lon="12.8280376"><ele>19.0</ele><time>2026-04-04T09:39:07.213Z</time></trkpt><trkpt lat="41.4756655" lon="12.8281385"><ele>19.0</ele><time>2026-04-04T09:39:08.214Z</time></trkpt><trkpt lat="41.4756239" lon="12.8282363"><ele>19.0</ele><time>2026-04-04T09:39:09.213Z</time></trkpt><trkpt lat="41.4755858" lon="12.8283393"><ele>19.0</ele><time>2026-04-04T09:39:10.213Z</time></trkpt><trkpt lat="41.47555" lon="12.828443"><ele>19.0</ele><time>2026-04-04T09:39:11.213Z</time></trkpt><trkpt lat="41.4755218" lon="12.8285509"><ele>19.0</ele><time>2026-04-04T09:39:12.214Z</time></trkpt><trkpt lat="41.4754911" lon="12.8286554"><ele>19.0</ele><time>2026-04-04T09:39:13.214Z</time></trkpt><trkpt lat="41.475445" lon="12.8287588"><ele>19.0</ele><time>2026-04-04T09:39:14.213Z</time></trkpt><trkpt lat="41.4753764" lon="12.8289602"><ele>19.0</ele><time>2026-04-04T09:39:16.213Z</time></trkpt><trkpt lat="41.4753038" lon="12.8291683"><ele>19.0</ele><time>2026-04-04T09:39:18.214Z</time></trkpt><trkpt lat="41.4752336" lon="12.8293525"><ele>19.0</ele><time>2026-04-04T09:39:20.214Z</time></trkpt><trkpt lat="41.475222" lon="12.8294437"><ele>19.0</ele><time>2026-04-04T09:39:21.213Z</time></trkpt><trkpt lat="41.4752271" lon="12.8295408"><ele>18.8</ele><time>2026-04-04T09:39:22.213Z</time></trkpt><trkpt lat="41.4752033" lon="12.8296216"><ele>18.599999999999998</ele><time>2026-04-04T09:39:23.213Z</time></trkpt><trkpt lat="41.4751547" lon="12.8298024"><ele>18.4</ele><time>2026-04-04T09:39:25.213Z</time></trkpt><trkpt lat="41.4751272" lon="12.8298966"><ele>18.2</ele><time>2026-04-04T09:39:26.213Z</time></trkpt><trkpt lat="41.4750319" lon="12.830063"><ele>18.0</ele><time>2026-04-04T09:39:29.213Z</time></trkpt><trkpt lat="41.4749485" lon="12.8301612"><ele>18.0</ele><time>2026-04-04T09:39:31.213Z</time></trkpt><trkpt lat="41.4748905" lon="12.8302708"><ele>18.0</ele><time>2026-04-04T09:39:33.213Z</time></trkpt><trkpt lat="41.4748612" lon="12.8303899"><ele>18.0</ele><time>2026-04-04T09:39:36.213Z</time></trkpt><trkpt lat="41.4749175" lon="12.8304764"><ele>18.0</ele><time>2026-04-04T09:39:38.214Z</time></trkpt><trkpt lat="41.4749223" lon="12.8305976"><ele>18.0</ele><time>2026-04-04T09:39:40.213Z</time></trkpt><trkpt lat="41.4748195" lon="12.8308422"><ele>18.0</ele><time>2026-04-04T09:39:42.213Z</time></trkpt><trkpt lat="41.4747723" lon="12.8309726"><ele>18.0</ele><time>2026-04-04T09:39:43.213Z</time></trkpt><trkpt lat="41.4746719" lon="12.8312414"><ele>18.0</ele><time>2026-04-04T09:39:45.213Z</time></trkpt><trkpt lat="41.4745854" lon="12.8315246"><ele>18.0</ele><time>2026-04-04T09:39:47.213Z</time></trkpt><trkpt lat="41.4744858" lon="12.831813"><ele>18.0</ele><time>2026-04-04T09:39:49.213Z</time></trkpt><trkpt lat="41.4743899" lon="12.8320942"><ele>18.0</ele><time>2026-04-04T09:39:51.213Z</time></trkpt><trkpt lat="41.4743449" lon="12.8322415"><ele>18.0</ele><time>2026-04-04T09:39:52.213Z</time></trkpt><trkpt lat="41.4742966" lon="12.8323917"><ele>18.0</ele><time>2026-04-04T09:39:53.213Z</time></trkpt><trkpt lat="41.4742535" lon="12.8325397"><ele>18.0</ele><time>2026-04-04T09:39:54.213Z</time></trkpt><trkpt lat="41.4742251" lon="12.8327026"><ele>18.0</ele><time>2026-04-04T09:39:55.214Z</time></trkpt><trkpt lat="41.4742126" lon="12.8329872"><ele>18.0</ele><time>2026-04-04T09:39:57.213Z</time></trkpt><trkpt lat="41.4742061" lon="12.8331218"><ele>18.0</ele><time>2026-04-04T09:39:58.213Z</time></trkpt><trkpt lat="41.4742112" lon="12.8333946"><ele>18.75</ele><time>2026-04-04T09:40:00.214Z</time></trkpt><trkpt lat="41.4742271" lon="12.8335292"><ele>19.5</ele><time>2026-04-04T09:40:01.213Z</time></trkpt><trkpt lat="41.4742596" lon="12.8337228"><ele>20.25</ele><time>2026-04-04T09:40:03.213Z</time></trkpt><trkpt lat="41.4743" lon="12.8338891"><ele>21.0</ele><time>2026-04-04T09:40:05.213Z</time></trkpt><trkpt lat="41.4743314" lon="12.8339847"><ele>21.0</ele><time>2026-04-04T09:40:06.214Z</time></trkpt><trkpt lat="41.4743591" lon="12.8340751"><ele>21.0</ele><time>2026-04-04T09:40:07.214Z</time></trkpt><trkpt lat="41.4744316" lon="12.8342142"><ele>21.0</ele><time>2026-04-04T09:40:08.213Z</time></trkpt><trkpt lat="41.4744965" lon="12.834343"><ele>21.0</ele><time>2026-04-04T09:40:09.213Z</time></trkpt><trkpt lat="41.4745623" lon="12.8344532"><ele>21.0</ele><time>2026-04-04T09:40:10.214Z</time></trkpt><trkpt lat="41.4746307" lon="12.8345536"><ele>21.0</ele><time>2026-04-04T09:40:11.213Z</time></trkpt><trkpt lat="41.4747796" lon="12.8347315"><ele>21.0</ele><time>2026-04-04T09:40:13.213Z</time></trkpt><trkpt lat="41.474865" lon="12.8348067"><ele>21.0</ele><time>2026-04-04T09:40:14.213Z</time></trkpt><trkpt lat="41.4749485" lon="12.8348769"><ele>21.0</ele><time>2026-04-04T09:40:15.213Z</time></trkpt><trkpt lat="41.4750938" lon="12.8349955"><ele>21.0</ele><time>2026-04-04T09:40:17.213Z</time></trkpt><trkpt lat="41.4752693" lon="12.8350877"><ele>21.0</ele><time>2026-04-04T09:40:19.213Z</time></trkpt><trkpt lat="41.4754799" lon="12.8351949"><ele>21.0</ele><time>2026-04-04T09:40:21.213Z</time></trkpt><trkpt lat="41.4755641" lon="12.8352334"><ele>21.25</ele><time>2026-04-04T09:40:22.214Z</time></trkpt><trkpt lat="41.4756629" lon="12.8352691"><ele>21.5</ele><time>2026-04-04T09:40:23.213Z</time></trkpt><trkpt lat="41.4757629" lon="12.8353096"><ele>21.75</ele><time>2026-04-04T09:40:24.213Z</time></trkpt><trkpt lat="41.4759505" lon="12.8353716"><ele>22.0</ele><time>2026-04-04T09:40:26.214Z</time></trkpt><trkpt lat="41.4760241" lon="12.8354112"><ele>22.0</ele><time>2026-04-04T09:40:27.213Z</time></trkpt><trkpt lat="41.4761479" lon="12.8354194"><ele>22.0</ele><time>2026-04-04T09:40:28.213Z</time></trkpt><trkpt lat="41.4762338" lon="12.8354659"><ele>22.0</ele><time>2026-04-04T09:40:29.213Z</time></trkpt><trkpt lat="41.4764141" lon="12.8355369"><ele>22.0</ele><time>2026-04-04T09:40:31.213Z</time></trkpt><trkpt lat="41.4764971" lon="12.8355613"><ele>22.200000000000003</ele><time>2026-04-04T09:40:32.213Z</time></trkpt><trkpt lat="41.4765917" lon="12.8355969"><ele>22.4</ele><time>2026-04-04T09:40:33.213Z</time></trkpt><trkpt lat="41.4766714" lon="12.8356324"><ele>22.6</ele><time>2026-04-04T09:40:34.214Z</time></trkpt><trkpt lat="41.4767633" lon="12.8356641"><ele>22.799999999999997</ele><time>2026-04-04T09:40:36.213Z</time></trkpt><trkpt lat="41.4769117" lon="12.8356973"><ele>23.0</ele><time>2026-04-04T09:40:38.213Z</time></trkpt><trkpt lat="41.4770561" lon="12.8357404"><ele>23.0</ele><time>2026-04-04T09:40:40.213Z</time></trkpt><trkpt lat="41.4771295" lon="12.8357789"><ele>23.0</ele><time>2026-04-04T09:40:41.213Z</time></trkpt><trkpt lat="41.4772056" lon="12.8357986"><ele>23.0</ele><time>2026-04-04T09:40:42.213Z</time></trkpt><trkpt lat="41.4772718" lon="12.8358259"><ele>23.0</ele><time>2026-04-04T09:40:43.213Z</time></trkpt><trkpt lat="41.4774299" lon="12.8358891"><ele>23.0</ele><time>2026-04-04T09:40:45.213Z</time></trkpt><trkpt lat="41.4775175" lon="12.8359129"><ele>22.75</ele><time>2026-04-04T09:40:46.214Z</time></trkpt><trkpt lat="41.4776935" lon="12.8359743"><ele>22.5</ele><time>2026-04-04T09:40:48.213Z</time></trkpt><trkpt lat="41.4777819" lon="12.8360217"><ele>22.25</ele><time>2026-04-04T09:40:49.213Z</time></trkpt><trkpt lat="41.4779305" lon="12.8360623"><ele>22.0</ele><time>2026-04-04T09:40:51.213Z</time></trkpt><trkpt lat="41.4780742" lon="12.8361165"><ele>21.75</ele><time>2026-04-04T09:40:53.213Z</time></trkpt><trkpt lat="41.4782234" lon="12.8361698"><ele>21.5</ele><time>2026-04-04T09:40:55.214Z</time></trkpt><trkpt lat="41.4782873" lon="12.8361831"><ele>21.25</ele><time>2026-04-04T09:40:56.213Z</time></trkpt><trkpt lat="41.4783763" lon="12.8362278"><ele>21.0</ele><time>2026-04-04T09:40:57.213Z</time></trkpt><trkpt lat="41.4785356" lon="12.8362637"><ele>21.0</ele><time>2026-04-04T09:40:59.213Z</time></trkpt><trkpt lat="41.4786159" lon="12.8362789"><ele>21.0</ele><time>2026-04-04T09:41:00.213Z</time></trkpt><trkpt lat="41.4787791" lon="12.8363224"><ele>21.0</ele><time>2026-04-04T09:41:02.213Z</time></trkpt><trkpt lat="41.4789341" lon="12.8363674"><ele>21.0</ele><time>2026-04-04T09:41:04.213Z</time></trkpt><trkpt lat="41.4791024" lon="12.8364038"><ele>21.25</ele><time>2026-04-04T09:41:06.213Z</time></trkpt><trkpt lat="41.4792766" lon="12.8364397"><ele>21.5</ele><time>2026-04-04T09:41:08.213Z</time></trkpt><trkpt lat="41.4794331" lon="12.8364834"><ele>21.75</ele><time>2026-04-04T09:41:10.213Z</time></trkpt><trkpt lat="41.4795083" lon="12.8365191"><ele>22.0</ele><time>2026-04-04T09:41:11.214Z</time></trkpt><trkpt lat="41.4796382" lon="12.8365633"><ele>22.0</ele><time>2026-04-04T09:41:13.213Z</time></trkpt><trkpt lat="41.4797828" lon="12.8365394"><ele>22.0</ele><time>2026-04-04T09:41:15.213Z</time></trkpt><trkpt lat="41.4798601" lon="12.8365304"><ele>22.0</ele><time>2026-04-04T09:41:16.213Z</time></trkpt><trkpt lat="41.4799471" lon="12.8365023"><ele>22.0</ele><time>2026-04-04T09:41:17.214Z</time></trkpt><trkpt lat="41.4800302" lon="12.8364856"><ele>22.0</ele><time>2026-04-04T09:41:18.213Z</time></trkpt><trkpt lat="41.4801892" lon="12.8364537"><ele>22.0</ele><time>2026-04-04T09:41:20.213Z</time></trkpt><trkpt lat="41.4803286" lon="12.8364239"><ele>22.0</ele><time>2026-04-04T09:41:22.213Z</time></trkpt><trkpt lat="41.480454" lon="12.8363854"><ele>22.0</ele><time>2026-04-04T09:41:24.214Z</time></trkpt><trkpt lat="41.4805644" lon="12.8363467"><ele>22.0</ele><time>2026-04-04T09:41:26.213Z</time></trkpt><trkpt lat="41.4806895" lon="12.8363139"><ele>21.5</ele><time>2026-04-04T09:41:28.214Z</time></trkpt><trkpt lat="41.4808278" lon="12.8362729"><ele>21.0</ele><time>2026-04-04T09:41:30.213Z</time></trkpt><trkpt lat="41.4809724" lon="12.8362226"><ele>20.5</ele><time>2026-04-04T09:41:32.213Z</time></trkpt><trkpt lat="41.4811217" lon="12.8361808"><ele>20.0</ele><time>2026-04-04T09:41:34.214Z</time></trkpt><trkpt lat="41.4812641" lon="12.8361353"><ele>20.25</ele><time>2026-04-04T09:41:36.213Z</time></trkpt><trkpt lat="41.4814029" lon="12.8360803"><ele>20.5</ele><time>2026-04-04T09:41:38.213Z</time></trkpt><trkpt lat="41.4815298" lon="12.8360393"><ele>20.75</ele><time>2026-04-04T09:41:40.213Z</time></trkpt><trkpt lat="41.4816424" lon="12.8359665"><ele>21.0</ele><time>2026-04-04T09:41:42.213Z</time></trkpt><trkpt lat="41.4817672" lon="12.8358866"><ele>21.0</ele><time>2026-04-04T09:41:44.213Z</time></trkpt><trkpt lat="41.4819124" lon="12.8357826"><ele>21.0</ele><time>2026-04-04T09:41:46.213Z</time></trkpt><trkpt lat="41.48207" lon="12.8356955"><ele>21.0</ele><time>2026-04-04T09:41:48.213Z</time></trkpt><trkpt lat="41.4821456" lon="12.8356529"><ele>21.0</ele><time>2026-04-04T09:41:49.213Z</time></trkpt><trkpt lat="41.4822244" lon="12.8356162"><ele>21.5</ele><time>2026-04-04T09:41:50.214Z</time></trkpt><trkpt lat="41.482302" lon="12.8355714"><ele>22.0</ele><time>2026-04-04T09:41:51.213Z</time></trkpt><trkpt lat="41.4823877" lon="12.8355282"><ele>22.5</ele><time>2026-04-04T09:41:52.214Z</time></trkpt><trkpt lat="41.4824688" lon="12.8354805"><ele>23.0</ele><time>2026-04-04T09:41:53.213Z</time></trkpt><trkpt lat="41.4825346" lon="12.8354389"><ele>23.5</ele><time>2026-04-04T09:41:54.213Z</time></trkpt><trkpt lat="41.4826044" lon="12.8353895"><ele>24.0</ele><time>2026-04-04T09:41:55.213Z</time></trkpt><trkpt lat="41.4827388" lon="12.8352995"><ele>24.0</ele><time>2026-04-04T09:41:57.213Z</time></trkpt><trkpt lat="41.4828648" lon="12.8352202"><ele>24.0</ele><time>2026-04-04T09:41:59.214Z</time></trkpt><trkpt lat="41.4829319" lon="12.8351772"><ele>24.0</ele><time>2026-04-04T09:42:00.214Z</time></trkpt><trkpt lat="41.4829973" lon="12.835138"><ele>24.0</ele><time>2026-04-04T09:42:01.214Z</time></trkpt><trkpt lat="41.4830641" lon="12.8351019"><ele>24.0</ele><time>2026-04-04T09:42:02.214Z</time></trkpt><trkpt lat="41.4832048" lon="12.8350214"><ele>23.6</ele><time>2026-04-04T09:42:04.213Z</time></trkpt><trkpt lat="41.4833405" lon="12.8349507"><ele>23.2</ele><time>2026-04-04T09:42:06.213Z</time></trkpt><trkpt lat="41.4834103" lon="12.8349119"><ele>22.8</ele><time>2026-04-04T09:42:07.213Z</time></trkpt><trkpt lat="41.4835459" lon="12.8348383"><ele>22.400000000000002</ele><time>2026-04-04T09:42:09.213Z</time></trkpt><trkpt lat="41.4836145" lon="12.8347961"><ele>22.0</ele><time>2026-04-04T09:42:10.213Z</time></trkpt><trkpt lat="41.4836791" lon="12.83475"><ele>22.0</ele><time>2026-04-04T09:42:11.213Z</time></trkpt><trkpt lat="41.4837493" lon="12.8347047"><ele>22.0</ele><time>2026-04-04T09:42:12.214Z</time></trkpt><trkpt lat="41.4838106" lon="12.8346646"><ele>22.0</ele><time>2026-04-04T09:42:13.213Z</time></trkpt><trkpt lat="41.4839379" lon="12.8345904"><ele>22.0</ele><time>2026-04-04T09:42:15.213Z</time></trkpt><trkpt lat="41.4840028" lon="12.8345566"><ele>22.0</ele><time>2026-04-04T09:42:16.213Z</time></trkpt><trkpt lat="41.4841275" lon="12.8344694"><ele>22.200000000000003</ele><time>2026-04-04T09:42:18.214Z</time></trkpt><trkpt lat="41.4842622" lon="12.8343893"><ele>22.4</ele><time>2026-04-04T09:42:20.213Z</time></trkpt><trkpt lat="41.4843229" lon="12.8343626"><ele>22.6</ele><time>2026-04-04T09:42:21.213Z</time></trkpt><trkpt lat="41.4844514" lon="12.83429"><ele>22.799999999999997</ele><time>2026-04-04T09:42:23.214Z</time></trkpt><trkpt lat="41.4845231" lon="12.8342536"><ele>23.0</ele><time>2026-04-04T09:42:24.213Z</time></trkpt><trkpt lat="41.4845982" lon="12.8342122"><ele>23.2</ele><time>2026-04-04T09:42:25.213Z</time></trkpt><trkpt lat="41.4846687" lon="12.8341806"><ele>23.4</ele><time>2026-04-04T09:42:26.213Z</time></trkpt><trkpt lat="41.4847416" lon="12.8341548"><ele>23.599999999999998</ele><time>2026-04-04T09:42:27.214Z</time></trkpt><trkpt lat="41.4848101" lon="12.8341265"><ele>23.799999999999997</ele><time>2026-04-04T09:42:28.213Z</time></trkpt><trkpt lat="41.4848886" lon="12.8340936"><ele>24.0</ele><time>2026-04-04T09:42:29.213Z</time></trkpt><trkpt lat="41.4850469" lon="12.8340287"><ele>24.0</ele><time>2026-04-04T09:42:31.213Z</time></trkpt><trkpt lat="41.4851943" lon="12.8339653"><ele>24.0</ele><time>2026-04-04T09:42:33.214Z</time></trkpt><trkpt lat="41.4853492" lon="12.8338522"><ele>24.0</ele><time>2026-04-04T09:42:35.214Z</time></trkpt><trkpt lat="41.4854242" lon="12.8338004"><ele>24.0</ele><time>2026-04-04T09:42:36.214Z</time></trkpt><trkpt lat="41.4855907" lon="12.8336938"><ele>24.5</ele><time>2026-04-04T09:42:38.213Z</time></trkpt><trkpt lat="41.4856628" lon="12.8336509"><ele>25.0</ele><time>2026-04-04T09:42:39.213Z</time></trkpt><trkpt lat="41.4858229" lon="12.8335457"><ele>25.5</ele><time>2026-04-04T09:42:41.214Z</time></trkpt><trkpt lat="41.4859828" lon="12.8334454"><ele>26.0</ele><time>2026-04-04T09:42:43.213Z</time></trkpt><trkpt lat="41.4860681" lon="12.8334086"><ele>26.0</ele><time>2026-04-04T09:42:44.213Z</time></trkpt><trkpt lat="41.4861573" lon="12.8333678"><ele>26.0</ele><time>2026-04-04T09:42:45.213Z</time></trkpt><trkpt lat="41.4862344" lon="12.8333303"><ele>26.0</ele><time>2026-04-04T09:42:46.213Z</time></trkpt><trkpt lat="41.4863118" lon="12.833302"><ele>26.0</ele><time>2026-04-04T09:42:47.214Z</time></trkpt><trkpt lat="41.486472" lon="12.8332328"><ele>26.0</ele><time>2026-04-04T09:42:49.213Z</time></trkpt><trkpt lat="41.4865534" lon="12.8331877"><ele>26.333333333333332</ele><time>2026-04-04T09:42:50.213Z</time></trkpt><trkpt lat="41.4867213" lon="12.8330951"><ele>26.666666666666664</ele><time>2026-04-04T09:42:52.213Z</time></trkpt><trkpt lat="41.4868833" lon="12.8330406"><ele>27.0</ele><time>2026-04-04T09:42:54.213Z</time></trkpt><trkpt lat="41.4870419" lon="12.8329974"><ele>26.5</ele><time>2026-04-04T09:42:56.213Z</time></trkpt><trkpt lat="41.4872053" lon="12.8329436"><ele>26.0</ele><time>2026-04-04T09:42:58.213Z</time></trkpt><trkpt lat="41.4872869" lon="12.8329212"><ele>25.5</ele><time>2026-04-04T09:42:59.214Z</time></trkpt><trkpt lat="41.4873699" lon="12.8328751"><ele>25.0</ele><time>2026-04-04T09:43:00.214Z</time></trkpt><trkpt lat="41.4875163" lon="12.8328119"><ele>25.0</ele><time>2026-04-04T09:43:02.214Z</time></trkpt><trkpt lat="41.4876808" lon="12.8327798"><ele>25.0</ele><time>2026-04-04T09:43:04.213Z</time></trkpt><trkpt lat="41.4878256" lon="12.8327604"><ele>25.0</ele><time>2026-04-04T09:43:06.213Z</time></trkpt><trkpt lat="41.4879087" lon="12.8327443"><ele>25.0</ele><time>2026-04-04T09:43:07.213Z</time></trkpt><trkpt lat="41.4880662" lon="12.8327218"><ele>24.833333333333336</ele><time>2026-04-04T09:43:09.214Z</time></trkpt><trkpt lat="41.488142" lon="12.8327087"><ele>24.666666666666668</ele><time>2026-04-04T09:43:10.213Z</time></trkpt><trkpt lat="41.4882164" lon="12.832697"><ele>24.5</ele><time>2026-04-04T09:43:11.213Z</time></trkpt><trkpt lat="41.4882976" lon="12.8326863"><ele>24.333333333333336</ele><time>2026-04-04T09:43:12.213Z</time></trkpt><trkpt lat="41.4883811" lon="12.8326652"><ele>24.166666666666668</ele><time>2026-04-04T09:43:13.213Z</time></trkpt><trkpt lat="41.4884529" lon="12.8326469"><ele>24.0</ele><time>2026-04-04T09:43:14.214Z</time></trkpt><trkpt lat="41.4885182" lon="12.8326368"><ele>24.0</ele><time>2026-04-04T09:43:15.213Z</time></trkpt><trkpt lat="41.4886017" lon="12.8326488"><ele>24.0</ele><time>2026-04-04T09:43:17.213Z</time></trkpt><trkpt lat="41.4886818" lon="12.8326398"><ele>24.0</ele><time>2026-04-04T09:46:44.213Z</time></trkpt><trkpt lat="41.4887663" lon="12.832644"><ele>24.0</ele><time>2026-04-04T09:46:59.213Z</time></trkpt><trkpt lat="41.4888403" lon="12.8326514"><ele>24.0</ele><time>2026-04-04T09:47:00.213Z</time></trkpt><trkpt lat="41.4889118" lon="12.8326499"><ele>24.0</ele><time>2026-04-04T09:47:01.214Z</time></trkpt><trkpt lat="41.4889899" lon="12.832651"><ele>24.0</ele><time>2026-04-04T09:47:02.213Z</time></trkpt><trkpt lat="41.4890801" lon="12.8326479"><ele>24.0</ele><time>2026-04-04T09:47:03.214Z</time></trkpt><trkpt lat="41.4891861" lon="12.8326548"><ele>24.0</ele><time>2026-04-04T09:47:04.213Z</time></trkpt><trkpt lat="41.4892862" lon="12.8326638"><ele>24.0</ele><time>2026-04-04T09:47:05.213Z</time></trkpt><trkpt lat="41.4893892" lon="12.8326685"><ele>24.0</ele><time>2026-04-04T09:47:06.213Z</time></trkpt><trkpt lat="41.4894885" lon="12.8326722"><ele>24.0</ele><time>2026-04-04T09:47:07.214Z</time></trkpt><trkpt lat="41.4895831" lon="12.8326844"><ele>24.0</ele><time>2026-04-04T09:47:08.213Z</time></trkpt><trkpt lat="41.4896745" lon="12.8326892"><ele>24.0</ele><time>2026-04-04T09:47:09.213Z</time></trkpt><trkpt lat="41.4898454" lon="12.8326982"><ele>24.0</ele><time>2026-04-04T09:47:11.213Z</time></trkpt><trkpt lat="41.4900014" lon="12.8327073"><ele>24.2</ele><time>2026-04-04T09:47:13.213Z</time></trkpt><trkpt lat="41.4901494" lon="12.8327092"><ele>24.4</ele><time>2026-04-04T09:47:15.213Z</time></trkpt><trkpt lat="41.4902212" lon="12.83272"><ele>24.6</ele><time>2026-04-04T09:47:16.214Z</time></trkpt><trkpt lat="41.4902967" lon="12.8327227"><ele>24.8</ele><time>2026-04-04T09:47:17.213Z</time></trkpt><trkpt lat="41.490439" lon="12.8327408"><ele>25.0</ele><time>2026-04-04T09:47:19.213Z</time></trkpt><trkpt lat="41.4905658" lon="12.8327586"><ele>25.500000000000004</ele><time>2026-04-04T09:47:21.214Z</time></trkpt><trkpt lat="41.4906355" lon="12.8327638"><ele>26.0</ele><time>2026-04-04T09:47:22.213Z</time></trkpt><trkpt lat="41.4907096" lon="12.8327785"><ele>26.5</ele><time>2026-04-04T09:47:23.214Z</time></trkpt><trkpt lat="41.4908592" lon="12.832792"><ele>27.0</ele><time>2026-04-04T09:47:25.213Z</time></trkpt><trkpt lat="41.4909316" lon="12.8327989"><ele>27.500000000000004</ele><time>2026-04-04T09:47:26.213Z</time></trkpt><trkpt lat="41.4909992" lon="12.8328043"><ele>28.0</ele><time>2026-04-04T09:47:27.213Z</time></trkpt><trkpt lat="41.491073" lon="12.832808"><ele>28.0</ele><time>2026-04-04T09:47:28.213Z</time></trkpt><trkpt lat="41.4912234" lon="12.8328228"><ele>28.0</ele><time>2026-04-04T09:47:30.213Z</time></trkpt><trkpt lat="41.491376" lon="12.8328144"><ele>28.0</ele><time>2026-04-04T09:47:32.213Z</time></trkpt><trkpt lat="41.4915164" lon="12.8328317"><ele>28.0</ele><time>2026-04-04T09:47:34.213Z</time></trkpt><trkpt lat="41.4916457" lon="12.8328403"><ele>28.0</ele><time>2026-04-04T09:47:36.213Z</time></trkpt><trkpt lat="41.4917745" lon="12.8328604"><ele>27.999999999999996</ele><time>2026-04-04T09:47:38.213Z</time></trkpt><trkpt lat="41.4918452" lon="12.8328756"><ele>27.999999999999996</ele><time>2026-04-04T09:47:39.213Z</time></trkpt><trkpt lat="41.4919203" lon="12.8328864"><ele>28.0</ele><time>2026-04-04T09:47:40.213Z</time></trkpt><trkpt lat="41.4920146" lon="12.8329026"><ele>28.0</ele><time>2026-04-04T09:47:41.213Z</time></trkpt><trkpt lat="41.4920998" lon="12.8329231"><ele>28.2</ele><time>2026-04-04T09:47:42.214Z</time></trkpt><trkpt lat="41.4921844" lon="12.8329357"><ele>28.4</ele><time>2026-04-04T09:47:43.213Z</time></trkpt><trkpt lat="41.4922693" lon="12.8329482"><ele>28.599999999999998</ele><time>2026-04-04T09:47:44.214Z</time></trkpt><trkpt lat="41.4923402" lon="12.8329482"><ele>28.799999999999997</ele><time>2026-04-04T09:47:45.213Z</time></trkpt><trkpt lat="41.4924641" lon="12.8329339"><ele>29.0</ele><time>2026-04-04T09:47:47.214Z</time></trkpt><trkpt lat="41.4925933" lon="12.8328925"><ele>29.0</ele><time>2026-04-04T09:47:49.214Z</time></trkpt><trkpt lat="41.4926983" lon="12.832828"><ele>29.0</ele><time>2026-04-04T09:47:51.213Z</time></trkpt><trkpt lat="41.4928059" lon="12.8327891"><ele>29.0</ele><time>2026-04-04T09:47:53.213Z</time></trkpt><trkpt lat="41.4929491" lon="12.8327861"><ele>29.0</ele><time>2026-04-04T09:47:55.214Z</time></trkpt><trkpt lat="41.4930599" lon="12.8327951"><ele>28.75</ele><time>2026-04-04T09:47:57.213Z</time></trkpt><trkpt lat="41.4931285" lon="12.8327895"><ele>28.5</ele><time>2026-04-04T09:47:58.213Z</time></trkpt><trkpt lat="41.4931919" lon="12.8327939"><ele>28.25</ele><time>2026-04-04T09:47:59.213Z</time></trkpt><trkpt lat="41.4934567" lon="12.8328742"><ele>28.0</ele><time>2026-04-04T09:48:03.213Z</time></trkpt><trkpt lat="41.4935519" lon="12.8329164"><ele>28.0</ele><time>2026-04-04T09:48:04.213Z</time></trkpt><trkpt lat="41.4937016" lon="12.8329507"><ele>27.999999999999996</ele><time>2026-04-04T09:48:06.213Z</time></trkpt><trkpt lat="41.4937748" lon="12.832967"><ele>27.999999999999996</ele><time>2026-04-04T09:48:07.213Z</time></trkpt><trkpt lat="41.4938495" lon="12.8329784"><ele>28.0</ele><time>2026-04-04T09:48:08.213Z</time></trkpt><trkpt lat="41.4939129" lon="12.8329918"><ele>28.0</ele><time>2026-04-04T09:48:09.213Z</time></trkpt><trkpt lat="41.4940434" lon="12.8330529"><ele>27.799999999999997</ele><time>2026-04-04T09:48:10.213Z</time></trkpt><trkpt lat="41.4942557" lon="12.8331311"><ele>27.599999999999998</ele><time>2026-04-04T09:48:12.214Z</time></trkpt><trkpt lat="41.4943157" lon="12.8331783"><ele>27.400000000000002</ele><time>2026-04-04T09:48:13.214Z</time></trkpt><trkpt lat="41.4943804" lon="12.8332386"><ele>27.200000000000003</ele><time>2026-04-04T09:48:14.213Z</time></trkpt><trkpt lat="41.4944483" lon="12.8332733"><ele>27.0</ele><time>2026-04-04T09:48:15.214Z</time></trkpt><trkpt lat="41.494577" lon="12.8332571"><ele>26.25</ele><time>2026-04-04T09:48:17.213Z</time></trkpt><trkpt lat="41.4947146" lon="12.8332453"><ele>25.5</ele><time>2026-04-04T09:48:19.213Z</time></trkpt><trkpt lat="41.494787" lon="12.8332653"><ele>24.75</ele><time>2026-04-04T09:48:20.213Z</time></trkpt><trkpt lat="41.4949394" lon="12.833304"><ele>24.0</ele><time>2026-04-04T09:48:22.213Z</time></trkpt><trkpt lat="41.4950883" lon="12.8333597"><ele>24.0</ele><time>2026-04-04T09:48:23.213Z</time></trkpt><trkpt lat="41.4951959" lon="12.8333794"><ele>24.0</ele><time>2026-04-04T09:48:24.213Z</time></trkpt><trkpt lat="41.4954363" lon="12.8334404"><ele>24.0</ele><time>2026-04-04T09:48:26.214Z</time></trkpt><trkpt lat="41.4956953" lon="12.8335113"><ele>25.5</ele><time>2026-04-04T09:48:28.213Z</time></trkpt><trkpt lat="41.4959384" lon="12.8335764"><ele>27.0</ele><time>2026-04-04T09:48:30.213Z</time></trkpt><trkpt lat="41.4961753" lon="12.8336328"><ele>27.0</ele><time>2026-04-04T09:48:32.213Z</time></trkpt><trkpt lat="41.4963857" lon="12.8336718"><ele>27.0</ele><time>2026-04-04T09:48:34.213Z</time></trkpt><trkpt lat="41.4964855" lon="12.8336971"><ele>27.0</ele><time>2026-04-04T09:48:35.213Z</time></trkpt><trkpt lat="41.4965794" lon="12.8337126"><ele>27.0</ele><time>2026-04-04T09:48:36.213Z</time></trkpt><trkpt lat="41.4967604" lon="12.8337509"><ele>27.0</ele><time>2026-04-04T09:48:38.213Z</time></trkpt><trkpt lat="41.496935" lon="12.8337869"><ele>27.0</ele><time>2026-04-04T09:48:40.213Z</time></trkpt><trkpt lat="41.4970467" lon="12.8338247"><ele>27.0</ele><time>2026-04-04T09:48:41.214Z</time></trkpt><trkpt lat="41.4971357" lon="12.8338621"><ele>27.0</ele><time>2026-04-04T09:48:42.213Z</time></trkpt><trkpt lat="41.4972142" lon="12.8338773"><ele>27.0</ele><time>2026-04-04T09:48:43.214Z</time></trkpt><trkpt lat="41.4972953" lon="12.8338972"><ele>27.0</ele><time>2026-04-04T09:48:44.214Z</time></trkpt><trkpt lat="41.4973684" lon="12.833901"><ele>27.0</ele><time>2026-04-04T09:48:45.213Z</time></trkpt><trkpt lat="41.4974512" lon="12.8339016"><ele>27.0</ele><time>2026-04-04T09:48:46.213Z</time></trkpt><trkpt lat="41.4975272" lon="12.8339244"><ele>27.0</ele><time>2026-04-04T09:48:47.213Z</time></trkpt><trkpt lat="41.4976076" lon="12.8339585"><ele>27.0</ele><time>2026-04-04T09:48:48.213Z</time></trkpt><trkpt lat="41.4977068" lon="12.8339811"><ele>27.0</ele><time>2026-04-04T09:48:49.213Z</time></trkpt><trkpt lat="41.4978082" lon="12.8339979"><ele>27.000000000000004</ele><time>2026-04-04T09:48:50.214Z</time></trkpt><trkpt lat="41.497892" lon="12.834013"><ele>27.000000000000004</ele><time>2026-04-04T09:48:51.214Z</time></trkpt><trkpt lat="41.4979739" lon="12.8340492"><ele>27.0</ele><time>2026-04-04T09:48:52.213Z</time></trkpt><trkpt lat="41.4980625" lon="12.8340918"><ele>27.0</ele><time>2026-04-04T09:48:53.214Z</time></trkpt><trkpt lat="41.4981479" lon="12.834123"><ele>26.0</ele><time>2026-04-04T09:48:54.213Z</time></trkpt><trkpt lat="41.4982382" lon="12.8341558"><ele>25.0</ele><time>2026-04-04T09:48:55.213Z</time></trkpt><trkpt lat="41.4984614" lon="12.8341907"><ele>24.0</ele><time>2026-04-04T09:48:57.214Z</time></trkpt><trkpt lat="41.4987009" lon="12.8342642"><ele>24.666666666666664</ele><time>2026-04-04T09:48:59.213Z</time></trkpt><trkpt lat="41.4988421" lon="12.8343084"><ele>25.333333333333332</ele><time>2026-04-04T09:49:00.213Z</time></trkpt><trkpt lat="41.4989563" lon="12.8343377"><ele>26.0</ele><time>2026-04-04T09:49:01.213Z</time></trkpt><trkpt lat="41.4991732" lon="12.8343798"><ele>26.0</ele><time>2026-04-04T09:49:03.213Z</time></trkpt><trkpt lat="41.499275" lon="12.834413"><ele>26.0</ele><time>2026-04-04T09:49:04.213Z</time></trkpt><trkpt lat="41.499373" lon="12.8344559"><ele>26.0</ele><time>2026-04-04T09:49:05.213Z</time></trkpt><trkpt lat="41.4995721" lon="12.8345042"><ele>26.0</ele><time>2026-04-04T09:49:07.213Z</time></trkpt><trkpt lat="41.499685" lon="12.8345274"><ele>25.666666666666664</ele><time>2026-04-04T09:49:08.213Z</time></trkpt><trkpt lat="41.4998048" lon="12.8345593"><ele>25.333333333333336</ele><time>2026-04-04T09:49:09.213Z</time></trkpt><trkpt lat="41.4999389" lon="12.8345956"><ele>25.0</ele><time>2026-04-04T09:49:10.213Z</time></trkpt><trkpt lat="41.5001673" lon="12.8346544"><ele>25.0</ele><time>2026-04-04T09:49:12.213Z</time></trkpt><trkpt lat="41.5004019" lon="12.8347096"><ele>25.0</ele><time>2026-04-04T09:49:14.214Z</time></trkpt><trkpt lat="41.5006258" lon="12.8347698"><ele>25.5</ele><time>2026-04-04T09:49:16.213Z</time></trkpt><trkpt lat="41.5008603" lon="12.8348325"><ele>26.0</ele><time>2026-04-04T09:49:18.213Z</time></trkpt><trkpt lat="41.501106" lon="12.8348991"><ele>26.0</ele><time>2026-04-04T09:49:20.213Z</time></trkpt><trkpt lat="41.5012268" lon="12.834927"><ele>26.0</ele><time>2026-04-04T09:49:21.213Z</time></trkpt><trkpt lat="41.5013502" lon="12.8349616"><ele>26.0</ele><time>2026-04-04T09:49:22.213Z</time></trkpt><trkpt lat="41.5014737" lon="12.8349964"><ele>26.0</ele><time>2026-04-04T09:49:23.214Z</time></trkpt><trkpt lat="41.5015957" lon="12.8350317"><ele>26.0</ele><time>2026-04-04T09:49:24.213Z</time></trkpt><trkpt lat="41.5018198" lon="12.8350968"><ele>26.0</ele><time>2026-04-04T09:49:26.213Z</time></trkpt><trkpt lat="41.502059" lon="12.8351594"><ele>26.0</ele><time>2026-04-04T09:49:28.213Z</time></trkpt><trkpt lat="41.5022939" lon="12.8352276"><ele>26.0</ele><time>2026-04-04T09:49:30.213Z</time></trkpt><trkpt lat="41.5024233" lon="12.8352604"><ele>26.0</ele><time>2026-04-04T09:49:31.213Z</time></trkpt><trkpt lat="41.5026847" lon="12.8353356"><ele>26.0</ele><time>2026-04-04T09:49:33.213Z</time></trkpt><trkpt lat="41.5029589" lon="12.8354061"><ele>26.0</ele><time>2026-04-04T09:49:35.213Z</time></trkpt><trkpt lat="41.5032373" lon="12.8354748"><ele>26.0</ele><time>2026-04-04T09:49:37.214Z</time></trkpt><trkpt lat="41.5033737" lon="12.8355253"><ele>26.0</ele><time>2026-04-04T09:49:38.213Z</time></trkpt><trkpt lat="41.5035194" lon="12.8355596"><ele>26.0</ele><time>2026-04-04T09:49:39.213Z</time></trkpt><trkpt lat="41.5036589" lon="12.8355983"><ele>26.0</ele><time>2026-04-04T09:49:40.213Z</time></trkpt><trkpt lat="41.5039345" lon="12.8356709"><ele>26.0</ele><time>2026-04-04T09:49:42.213Z</time></trkpt><trkpt lat="41.5040685" lon="12.8357108"><ele>26.0</ele><time>2026-04-04T09:49:43.213Z</time></trkpt><trkpt lat="41.5041982" lon="12.8357491"><ele>26.0</ele><time>2026-04-04T09:49:44.213Z</time></trkpt><trkpt lat="41.5043252" lon="12.8357823"><ele>26.0</ele><time>2026-04-04T09:49:45.213Z</time></trkpt><trkpt lat="41.5044411" lon="12.835816"><ele>25.666666666666664</ele><time>2026-04-04T09:49:46.213Z</time></trkpt><trkpt lat="41.5046585" lon="12.8358712"><ele>25.333333333333336</ele><time>2026-04-04T09:49:48.213Z</time></trkpt><trkpt lat="41.5048662" lon="12.8359261"><ele>25.0</ele><time>2026-04-04T09:49:50.214Z</time></trkpt><trkpt lat="41.5049673" lon="12.8359541"><ele>25.5</ele><time>2026-04-04T09:49:51.213Z</time></trkpt><trkpt lat="41.5051673" lon="12.8360102"><ele>26.0</ele><time>2026-04-04T09:49:53.213Z</time></trkpt><trkpt lat="41.5052742" lon="12.8360383"><ele>26.5</ele><time>2026-04-04T09:49:54.213Z</time></trkpt><trkpt lat="41.5053836" lon="12.8360713"><ele>27.0</ele><time>2026-04-04T09:49:55.213Z</time></trkpt><trkpt lat="41.5054873" lon="12.836101"><ele>27.0</ele><time>2026-04-04T09:49:56.213Z</time></trkpt><trkpt lat="41.5055967" lon="12.8361444"><ele>27.000000000000004</ele><time>2026-04-04T09:49:57.213Z</time></trkpt><trkpt lat="41.5056975" lon="12.8361721"><ele>27.000000000000004</ele><time>2026-04-04T09:49:58.213Z</time></trkpt><trkpt lat="41.5057911" lon="12.8361971"><ele>27.0</ele><time>2026-04-04T09:49:59.213Z</time></trkpt><trkpt lat="41.505882" lon="12.836211"><ele>27.0</ele><time>2026-04-04T09:50:00.213Z</time></trkpt><trkpt lat="41.5059673" lon="12.8362295"><ele>27.0</ele><time>2026-04-04T09:50:01.213Z</time></trkpt><trkpt lat="41.5060492" lon="12.8362479"><ele>27.0</ele><time>2026-04-04T09:50:02.213Z</time></trkpt><trkpt lat="41.5061237" lon="12.8362672"><ele>27.0</ele><time>2026-04-04T09:50:03.213Z</time></trkpt><trkpt lat="41.5062623" lon="12.8363118"><ele>27.0</ele><time>2026-04-04T09:50:05.213Z</time></trkpt><trkpt lat="41.5064236" lon="12.8363607"><ele>26.666666666666664</ele><time>2026-04-04T09:50:07.213Z</time></trkpt><trkpt lat="41.5065747" lon="12.8364081"><ele>26.333333333333332</ele><time>2026-04-04T09:50:09.213Z</time></trkpt><trkpt lat="41.5067201" lon="12.8364426"><ele>26.0</ele><time>2026-04-04T09:50:11.214Z</time></trkpt><trkpt lat="41.5068807" lon="12.8364778"><ele>26.0</ele><time>2026-04-04T09:50:13.213Z</time></trkpt><trkpt lat="41.506984" lon="12.8365052"><ele>26.0</ele><time>2026-04-04T09:50:14.214Z</time></trkpt><trkpt lat="41.5070749" lon="12.8365251"><ele>26.0</ele><time>2026-04-04T09:50:15.213Z</time></trkpt><trkpt lat="41.5071745" lon="12.8365548"><ele>26.0</ele><time>2026-04-04T09:50:16.213Z</time></trkpt><trkpt lat="41.5074672" lon="12.8366157"><ele>26.0</ele><time>2026-04-04T09:50:18.213Z</time></trkpt><trkpt lat="41.507602" lon="12.836647"><ele>26.0</ele><time>2026-04-04T09:50:19.213Z</time></trkpt><trkpt lat="41.5077305" lon="12.836686"><ele>26.0</ele><time>2026-04-04T09:50:20.214Z</time></trkpt><trkpt lat="41.507842" lon="12.8367182"><ele>26.0</ele><time>2026-04-04T09:50:21.213Z</time></trkpt><trkpt lat="41.5079536" lon="12.8367505"><ele>27.0</ele><time>2026-04-04T09:50:22.213Z</time></trkpt><trkpt lat="41.5081768" lon="12.8368113"><ele>28.0</ele><time>2026-04-04T09:50:24.213Z</time></trkpt><trkpt lat="41.508284" lon="12.8368463"><ele>29.0</ele><time>2026-04-04T09:50:25.213Z</time></trkpt><trkpt lat="41.5084958" lon="12.8369066"><ele>29.0</ele><time>2026-04-04T09:50:27.214Z</time></trkpt><trkpt lat="41.5085986" lon="12.8369338"><ele>29.0</ele><time>2026-04-04T09:50:28.214Z</time></trkpt><trkpt lat="41.5087178" lon="12.8369826"><ele>29.0</ele><time>2026-04-04T09:50:29.214Z</time></trkpt><trkpt lat="41.5088311" lon="12.8370302"><ele>29.0</ele><time>2026-04-04T09:50:30.213Z</time></trkpt><trkpt lat="41.5090654" lon="12.8371289"><ele>29.666666666666664</ele><time>2026-04-04T09:50:32.213Z</time></trkpt><trkpt lat="41.5093133" lon="12.8372106"><ele>30.333333333333336</ele><time>2026-04-04T09:50:34.213Z</time></trkpt><trkpt lat="41.5094459" lon="12.8372309"><ele>31.0</ele><time>2026-04-04T09:50:35.214Z</time></trkpt><trkpt lat="41.509563" lon="12.8372625"><ele>29.5</ele><time>2026-04-04T09:50:36.213Z</time></trkpt><trkpt lat="41.5097923" lon="12.8373409"><ele>28.0</ele><time>2026-04-04T09:50:38.213Z</time></trkpt><trkpt lat="41.5100041" lon="12.8374218"><ele>28.0</ele><time>2026-04-04T09:50:40.214Z</time></trkpt><trkpt lat="41.510119" lon="12.8374335"><ele>28.0</ele><time>2026-04-04T09:50:41.213Z</time></trkpt><trkpt lat="41.5103158" lon="12.8374964"><ele>28.0</ele><time>2026-04-04T09:50:43.214Z</time></trkpt><trkpt lat="41.5104948" lon="12.8375521"><ele>27.833333333333336</ele><time>2026-04-04T09:50:45.213Z</time></trkpt><trkpt lat="41.5105848" lon="12.8375909"><ele>27.666666666666668</ele><time>2026-04-04T09:50:46.214Z</time></trkpt><trkpt lat="41.5106562" lon="12.8376351"><ele>27.5</ele><time>2026-04-04T09:50:47.213Z</time></trkpt><trkpt lat="41.5107347" lon="12.8376776"><ele>27.333333333333336</ele><time>2026-04-04T09:50:48.213Z</time></trkpt><trkpt lat="41.5108102" lon="12.8377308"><ele>27.166666666666668</ele><time>2026-04-04T09:50:49.213Z</time></trkpt><trkpt lat="41.5108755" lon="12.8377696"><ele>27.0</ele><time>2026-04-04T09:50:50.213Z</time></trkpt><trkpt lat="41.5109308" lon="12.8378178"><ele>27.333333333333332</ele><time>2026-04-04T09:50:51.213Z</time></trkpt><trkpt lat="41.5110291" lon="12.8378532"><ele>27.666666666666664</ele><time>2026-04-04T09:50:53.213Z</time></trkpt><trkpt lat="41.5110868" lon="12.8378167"><ele>28.0</ele><time>2026-04-04T09:50:55.213Z</time></trkpt><trkpt lat="41.5111445" lon="12.8377392"><ele>28.333333333333332</ele><time>2026-04-04T09:50:58.213Z</time></trkpt><trkpt lat="41.5112105" lon="12.8377129"><ele>28.666666666666664</ele><time>2026-04-04T09:51:01.213Z</time></trkpt><trkpt lat="41.511289" lon="12.8377467"><ele>29.0</ele><time>2026-04-04T09:51:03.214Z</time></trkpt><trkpt lat="41.5113576" lon="12.8377922"><ele>29.0</ele><time>2026-04-04T09:51:04.213Z</time></trkpt><trkpt lat="41.5114581" lon="12.837842"><ele>29.0</ele><time>2026-04-04T09:51:06.213Z</time></trkpt><trkpt lat="41.5115784" lon="12.8379038"><ele>29.0</ele><time>2026-04-04T09:51:08.213Z</time></trkpt><trkpt lat="41.511639" lon="12.837937"><ele>29.0</ele><time>2026-04-04T09:51:09.213Z</time></trkpt><trkpt lat="41.5118036" lon="12.8380538"><ele>29.0</ele><time>2026-04-04T09:51:12.213Z</time></trkpt><trkpt lat="41.5119238" lon="12.8381387"><ele>29.0</ele><time>2026-04-04T09:51:14.213Z</time></trkpt><trkpt lat="41.5120089" lon="12.8382042"><ele>29.0</ele><time>2026-04-04T09:51:16.213Z</time></trkpt><trkpt lat="41.5120817" lon="12.8382685"><ele>29.0</ele><time>2026-04-04T09:51:18.214Z</time></trkpt><trkpt lat="41.5122081" lon="12.8383616"><ele>28.799999999999997</ele><time>2026-04-04T09:51:21.213Z</time></trkpt><trkpt lat="41.5122704" lon="12.8383769"><ele>28.599999999999998</ele><time>2026-04-04T09:51:30.213Z</time></trkpt><trkpt lat="41.5123635" lon="12.8383566"><ele>28.4</ele><time>2026-04-04T09:51:33.213Z</time></trkpt><trkpt lat="41.5124462" lon="12.8383814"><ele>28.2</ele><time>2026-04-04T09:51:35.213Z</time></trkpt><trkpt lat="41.5125691" lon="12.8384986"><ele>28.0</ele><time>2026-04-04T09:51:37.214Z</time></trkpt><trkpt lat="41.5126334" lon="12.8385584"><ele>28.000000000000004</ele><time>2026-04-04T09:51:38.213Z</time></trkpt><trkpt lat="41.5126818" lon="12.8386196"><ele>28.0</ele><time>2026-04-04T09:51:39.214Z</time></trkpt><trkpt lat="41.5127502" lon="12.8386905"><ele>28.0</ele><time>2026-04-04T09:51:40.214Z</time></trkpt><trkpt lat="41.5128207" lon="12.8387671"><ele>28.0</ele><time>2026-04-04T09:51:41.213Z</time></trkpt><trkpt lat="41.5128836" lon="12.8388374"><ele>28.000000000000004</ele><time>2026-04-04T09:51:42.213Z</time></trkpt><trkpt lat="41.5129379" lon="12.8388986"><ele>28.0</ele><time>2026-04-04T09:51:43.213Z</time></trkpt><trkpt lat="41.5130497" lon="12.8390349"><ele>28.0</ele><time>2026-04-04T09:51:45.213Z</time></trkpt><trkpt lat="41.5131359" lon="12.8391175"><ele>27.999999999999996</ele><time>2026-04-04T09:51:46.213Z</time></trkpt><trkpt lat="41.5132011" lon="12.8391953"><ele>27.999999999999996</ele><time>2026-04-04T09:51:47.213Z</time></trkpt><trkpt lat="41.5132783" lon="12.8392777"><ele>28.0</ele><time>2026-04-04T09:51:48.213Z</time></trkpt><trkpt lat="41.5133424" lon="12.8393483"><ele>28.0</ele><time>2026-04-04T09:51:49.214Z</time></trkpt><trkpt lat="41.5133923" lon="12.8394256"><ele>28.000000000000004</ele><time>2026-04-04T09:51:50.213Z</time></trkpt><trkpt lat="41.5134441" lon="12.8394871"><ele>28.0</ele><time>2026-04-04T09:51:51.213Z</time></trkpt><trkpt lat="41.5135061" lon="12.8395613"><ele>28.0</ele><time>2026-04-04T09:51:52.213Z</time></trkpt><trkpt lat="41.5135573" lon="12.8396234"><ele>28.0</ele><time>2026-04-04T09:51:53.213Z</time></trkpt><trkpt lat="41.5136145" lon="12.8397"><ele>28.000000000000004</ele><time>2026-04-04T09:51:54.214Z</time></trkpt><trkpt lat="41.513715" lon="12.8398233"><ele>28.0</ele><time>2026-04-04T09:51:56.213Z</time></trkpt><trkpt lat="41.5138068" lon="12.8399588"><ele>28.000000000000004</ele><time>2026-04-04T09:51:58.213Z</time></trkpt><trkpt lat="41.5138566" lon="12.8400353"><ele>28.0</ele><time>2026-04-04T09:51:59.214Z</time></trkpt><trkpt lat="41.5139276" lon="12.8401274"><ele>28.0</ele><time>2026-04-04T09:52:00.214Z</time></trkpt><trkpt lat="41.5139898" lon="12.8402141"><ele>28.0</ele><time>2026-04-04T09:52:01.213Z</time></trkpt><trkpt lat="41.5140549" lon="12.840299"><ele>28.000000000000004</ele><time>2026-04-04T09:52:02.213Z</time></trkpt><trkpt lat="41.5141129" lon="12.8403731"><ele>28.0</ele><time>2026-04-04T09:52:03.213Z</time></trkpt><trkpt lat="41.5141801" lon="12.840455"><ele>28.0</ele><time>2026-04-04T09:52:04.213Z</time></trkpt><trkpt lat="41.5142487" lon="12.8405395"><ele>27.999999999999996</ele><time>2026-04-04T09:52:05.213Z</time></trkpt><trkpt lat="41.5143024" lon="12.8406142"><ele>27.999999999999996</ele><time>2026-04-04T09:52:06.213Z</time></trkpt><trkpt lat="41.5143872" lon="12.8407249"><ele>28.0</ele><time>2026-04-04T09:52:07.213Z</time></trkpt><trkpt lat="41.5144701" lon="12.8408388"><ele>28.0</ele><time>2026-04-04T09:52:08.213Z</time></trkpt><trkpt lat="41.5146294" lon="12.841025"><ele>27.5</ele><time>2026-04-04T09:52:10.214Z</time></trkpt><trkpt lat="41.514769" lon="12.8412143"><ele>27.0</ele><time>2026-04-04T09:52:12.213Z</time></trkpt><trkpt lat="41.514823" lon="12.8412975"><ele>26.5</ele><time>2026-04-04T09:52:13.213Z</time></trkpt><trkpt lat="41.5148866" lon="12.8413919"><ele>26.0</ele><time>2026-04-04T09:52:14.213Z</time></trkpt><trkpt lat="41.5149471" lon="12.8414723"><ele>26.0</ele><time>2026-04-04T09:52:15.213Z</time></trkpt><trkpt lat="41.5150881" lon="12.8416221"><ele>26.0</ele><time>2026-04-04T09:52:17.213Z</time></trkpt><trkpt lat="41.5151466" lon="12.8417013"><ele>26.0</ele><time>2026-04-04T09:52:18.213Z</time></trkpt><trkpt lat="41.5152216" lon="12.8417882"><ele>26.0</ele><time>2026-04-04T09:52:19.214Z</time></trkpt><trkpt lat="41.5152961" lon="12.8418718"><ele>26.666666666666664</ele><time>2026-04-04T09:52:20.214Z</time></trkpt><trkpt lat="41.5154322" lon="12.8420574"><ele>27.333333333333336</ele><time>2026-04-04T09:52:22.213Z</time></trkpt><trkpt lat="41.515572" lon="12.8422355"><ele>28.0</ele><time>2026-04-04T09:52:24.213Z</time></trkpt><trkpt lat="41.5157087" lon="12.8424095"><ele>28.0</ele><time>2026-04-04T09:52:26.213Z</time></trkpt><trkpt lat="41.5157775" lon="12.8425026"><ele>28.0</ele><time>2026-04-04T09:52:27.213Z</time></trkpt><trkpt lat="41.5158501" lon="12.842602"><ele>28.0</ele><time>2026-04-04T09:52:28.213Z</time></trkpt><trkpt lat="41.5160093" lon="12.8427998"><ele>28.0</ele><time>2026-04-04T09:52:30.213Z</time></trkpt><trkpt lat="41.5160798" lon="12.8428868"><ele>28.25</ele><time>2026-04-04T09:52:31.213Z</time></trkpt><trkpt lat="41.5161504" lon="12.842978"><ele>28.5</ele><time>2026-04-04T09:52:32.214Z</time></trkpt><trkpt lat="41.5162939" lon="12.8431713"><ele>28.75</ele><time>2026-04-04T09:52:34.213Z</time></trkpt><trkpt lat="41.5163756" lon="12.8432665"><ele>29.0</ele><time>2026-04-04T09:52:35.213Z</time></trkpt><trkpt lat="41.5164531" lon="12.8433703"><ele>29.0</ele><time>2026-04-04T09:52:36.213Z</time></trkpt><trkpt lat="41.5166092" lon="12.8435649"><ele>29.0</ele><time>2026-04-04T09:52:38.213Z</time></trkpt><trkpt lat="41.5167652" lon="12.8437488"><ele>29.0</ele><time>2026-04-04T09:52:40.213Z</time></trkpt><trkpt lat="41.5168417" lon="12.8438445"><ele>29.0</ele><time>2026-04-04T09:52:41.214Z</time></trkpt><trkpt lat="41.5169174" lon="12.8439548"><ele>29.0</ele><time>2026-04-04T09:52:42.213Z</time></trkpt><trkpt lat="41.5170077" lon="12.8440694"><ele>29.0</ele><time>2026-04-04T09:52:43.213Z</time></trkpt><trkpt lat="41.5170918" lon="12.8441591"><ele>29.0</ele><time>2026-04-04T09:52:44.213Z</time></trkpt><trkpt lat="41.5171651" lon="12.8442584"><ele>29.0</ele><time>2026-04-04T09:52:45.214Z</time></trkpt><trkpt lat="41.5172388" lon="12.8443554"><ele>28.5</ele><time>2026-04-04T09:52:46.213Z</time></trkpt><trkpt lat="41.5173958" lon="12.8445719"><ele>28.0</ele><time>2026-04-04T09:52:48.213Z</time></trkpt><trkpt lat="41.5174609" lon="12.844662"><ele>27.5</ele><time>2026-04-04T09:52:49.213Z</time></trkpt><trkpt lat="41.517543" lon="12.844764"><ele>27.0</ele><time>2026-04-04T09:52:50.213Z</time></trkpt><trkpt lat="41.5176128" lon="12.8448615"><ele>27.0</ele><time>2026-04-04T09:52:51.213Z</time></trkpt><trkpt lat="41.5176899" lon="12.8449681"><ele>27.0</ele><time>2026-04-04T09:52:52.213Z</time></trkpt><trkpt lat="41.5177631" lon="12.8450647"><ele>27.0</ele><time>2026-04-04T09:52:53.213Z</time></trkpt><trkpt lat="41.5179089" lon="12.8452634"><ele>27.0</ele><time>2026-04-04T09:52:55.213Z</time></trkpt><trkpt lat="41.5179776" lon="12.8453515"><ele>27.333333333333336</ele><time>2026-04-04T09:52:56.213Z</time></trkpt><trkpt lat="41.5180659" lon="12.8454558"><ele>27.666666666666668</ele><time>2026-04-04T09:52:57.213Z</time></trkpt><trkpt lat="41.518223" lon="12.8456534"><ele>28.0</ele><time>2026-04-04T09:52:59.213Z</time></trkpt><trkpt lat="41.5183797" lon="12.8458673"><ele>28.75</ele><time>2026-04-04T09:53:01.213Z</time></trkpt><trkpt lat="41.5185016" lon="12.8460605"><ele>29.5</ele><time>2026-04-04T09:53:03.213Z</time></trkpt><trkpt lat="41.5185558" lon="12.8461541"><ele>30.25</ele><time>2026-04-04T09:53:04.213Z</time></trkpt><trkpt lat="41.5186171" lon="12.8462455"><ele>31.0</ele><time>2026-04-04T09:53:05.214Z</time></trkpt><trkpt lat="41.518681" lon="12.8463342"><ele>29.75</ele><time>2026-04-04T09:53:06.214Z</time></trkpt><trkpt lat="41.5187396" lon="12.8464292"><ele>28.5</ele><time>2026-04-04T09:53:07.213Z</time></trkpt><trkpt lat="41.5188104" lon="12.8465121"><ele>27.25</ele><time>2026-04-04T09:53:08.213Z</time></trkpt><trkpt lat="41.5189491" lon="12.8466872"><ele>26.0</ele><time>2026-04-04T09:53:10.213Z</time></trkpt><trkpt lat="41.5190256" lon="12.8467699"><ele>26.75</ele><time>2026-04-04T09:53:11.214Z</time></trkpt><trkpt lat="41.5190923" lon="12.8468591"><ele>27.5</ele><time>2026-04-04T09:53:12.213Z</time></trkpt><trkpt lat="41.5191591" lon="12.8469535"><ele>28.25</ele><time>2026-04-04T09:53:13.213Z</time></trkpt><trkpt lat="41.5192946" lon="12.8471325"><ele>29.0</ele><time>2026-04-04T09:53:15.213Z</time></trkpt><trkpt lat="41.5193653" lon="12.8472243"><ele>29.0</ele><time>2026-04-04T09:53:16.213Z</time></trkpt><trkpt lat="41.51943" lon="12.8473129"><ele>29.0</ele><time>2026-04-04T09:53:17.213Z</time></trkpt><trkpt lat="41.5194952" lon="12.8474006"><ele>29.0</ele><time>2026-04-04T09:53:18.213Z</time></trkpt><trkpt lat="41.5196327" lon="12.8475884"><ele>29.0</ele><time>2026-04-04T09:53:20.213Z</time></trkpt><trkpt lat="41.5197024" lon="12.8476791"><ele>28.6</ele><time>2026-04-04T09:53:21.213Z</time></trkpt><trkpt lat="41.519773" lon="12.8477672"><ele>28.2</ele><time>2026-04-04T09:53:22.213Z</time></trkpt><trkpt lat="41.5198294" lon="12.8478431"><ele>27.800000000000004</ele><time>2026-04-04T09:53:23.213Z</time></trkpt><trkpt lat="41.5198801" lon="12.8479069"><ele>27.400000000000002</ele><time>2026-04-04T09:53:24.213Z</time></trkpt><trkpt lat="41.5199979" lon="12.8480166"><ele>27.0</ele><time>2026-04-04T09:53:26.213Z</time></trkpt><trkpt lat="41.5200607" lon="12.8480616"><ele>27.0</ele><time>2026-04-04T09:53:27.213Z</time></trkpt><trkpt lat="41.520169" lon="12.8481726"><ele>27.000000000000004</ele><time>2026-04-04T09:53:29.213Z</time></trkpt><trkpt lat="41.5202176" lon="12.8482324"><ele>27.000000000000004</ele><time>2026-04-04T09:53:30.213Z</time></trkpt><trkpt lat="41.5202953" lon="12.8483571"><ele>27.0</ele><time>2026-04-04T09:53:32.213Z</time></trkpt><trkpt lat="41.5203632" lon="12.8484873"><ele>27.0</ele><time>2026-04-04T09:53:34.214Z</time></trkpt><trkpt lat="41.5204177" lon="12.848555"><ele>27.400000000000002</ele><time>2026-04-04T09:53:35.214Z</time></trkpt><trkpt lat="41.5204964" lon="12.848684"><ele>27.800000000000004</ele><time>2026-04-04T09:53:37.213Z</time></trkpt><trkpt lat="41.5205641" lon="12.8487981"><ele>28.2</ele><time>2026-04-04T09:53:39.214Z</time></trkpt><trkpt lat="41.5206268" lon="12.8488864"><ele>28.6</ele><time>2026-04-04T09:53:42.213Z</time></trkpt><trkpt lat="41.5206975" lon="12.8489938"><ele>29.0</ele><time>2026-04-04T09:53:44.213Z</time></trkpt><trkpt lat="41.5207775" lon="12.8490904"><ele>29.0</ele><time>2026-04-04T09:53:46.213Z</time></trkpt><trkpt lat="41.5208725" lon="12.849202"><ele>29.0</ele><time>2026-04-04T09:53:49.213Z</time></trkpt><trkpt lat="41.5209482" lon="12.8492984"><ele>29.0</ele><time>2026-04-04T09:53:51.213Z</time></trkpt><trkpt lat="41.5210055" lon="12.8493541"><ele>29.0</ele><time>2026-04-04T09:53:52.214Z</time></trkpt><trkpt lat="41.5210782" lon="12.8494451"><ele>29.0</ele><time>2026-04-04T09:53:54.213Z</time></trkpt><trkpt lat="41.5211958" lon="12.8496162"><ele>28.333333333333332</ele><time>2026-04-04T09:53:57.213Z</time></trkpt><trkpt lat="41.5212448" lon="12.8496696"><ele>27.666666666666664</ele><time>2026-04-04T09:53:58.213Z</time></trkpt><trkpt lat="41.5213062" lon="12.849745"><ele>27.0</ele><time>2026-04-04T09:53:59.213Z</time></trkpt><trkpt lat="41.521367" lon="12.84982"><ele>26.333333333333336</ele><time>2026-04-04T09:54:00.214Z</time></trkpt><trkpt lat="41.5214316" lon="12.8498881"><ele>25.666666666666668</ele><time>2026-04-04T09:54:01.213Z</time></trkpt><trkpt lat="41.5215301" lon="12.8499907"><ele>25.0</ele><time>2026-04-04T09:54:03.213Z</time></trkpt><trkpt lat="41.521618" lon="12.8500987"><ele>25.4</ele><time>2026-04-04T09:54:05.213Z</time></trkpt><trkpt lat="41.521702" lon="12.8502079"><ele>25.8</ele><time>2026-04-04T09:54:07.213Z</time></trkpt><trkpt lat="41.521749" lon="12.8502652"><ele>26.200000000000003</ele><time>2026-04-04T09:54:08.213Z</time></trkpt><trkpt lat="41.5218427" lon="12.8503846"><ele>26.6</ele><time>2026-04-04T09:54:10.213Z</time></trkpt><trkpt lat="41.5218903" lon="12.8504482"><ele>27.0</ele><time>2026-04-04T09:54:11.213Z</time></trkpt><trkpt lat="41.5219851" lon="12.8505884"><ele>27.25</ele><time>2026-04-04T09:54:13.213Z</time></trkpt><trkpt lat="41.5220695" lon="12.8507074"><ele>27.5</ele><time>2026-04-04T09:54:15.213Z</time></trkpt><trkpt lat="41.5221339" lon="12.8508278"><ele>27.75</ele><time>2026-04-04T09:54:17.213Z</time></trkpt><trkpt lat="41.522274" lon="12.8509902"><ele>28.0</ele><time>2026-04-04T09:54:20.213Z</time></trkpt><trkpt lat="41.522342" lon="12.8510702"><ele>28.599999999999998</ele><time>2026-04-04T09:54:21.213Z</time></trkpt><trkpt lat="41.5224215" lon="12.8511604"><ele>29.199999999999996</ele><time>2026-04-04T09:54:22.213Z</time></trkpt><trkpt lat="41.5224934" lon="12.851241"><ele>29.8</ele><time>2026-04-04T09:54:23.213Z</time></trkpt><trkpt lat="41.5225753" lon="12.8513199"><ele>30.4</ele><time>2026-04-04T09:54:24.213Z</time></trkpt><trkpt lat="41.5226442" lon="12.8514023"><ele>31.0</ele><time>2026-04-04T09:54:25.213Z</time></trkpt><trkpt lat="41.5227078" lon="12.8514875"><ele>31.0</ele><time>2026-04-04T09:54:26.213Z</time></trkpt><trkpt lat="41.5227829" lon="12.8515825"><ele>31.0</ele><time>2026-04-04T09:54:27.213Z</time></trkpt><trkpt lat="41.5229307" lon="12.8517666"><ele>31.0</ele><time>2026-04-04T09:54:29.214Z</time></trkpt><trkpt lat="41.5230003" lon="12.851861"><ele>31.0</ele><time>2026-04-04T09:54:30.213Z</time></trkpt><trkpt lat="41.5230656" lon="12.851945"><ele>30.0</ele><time>2026-04-04T09:54:31.213Z</time></trkpt><trkpt lat="41.5232128" lon="12.8521298"><ele>29.0</ele><time>2026-04-04T09:54:33.213Z</time></trkpt><trkpt lat="41.5233382" lon="12.8522994"><ele>28.0</ele><time>2026-04-04T09:54:35.213Z</time></trkpt><trkpt lat="41.5234468" lon="12.8524696"><ele>28.25</ele><time>2026-04-04T09:54:37.214Z</time></trkpt><trkpt lat="41.5235565" lon="12.852623"><ele>28.5</ele><time>2026-04-04T09:54:39.213Z</time></trkpt><trkpt lat="41.5236017" lon="12.8526833"><ele>28.75</ele><time>2026-04-04T09:54:40.213Z</time></trkpt><trkpt lat="41.5236846" lon="12.8528126"><ele>29.0</ele><time>2026-04-04T09:54:42.213Z</time></trkpt><trkpt lat="41.5237521" lon="12.8529808"><ele>29.0</ele><time>2026-04-04T09:54:44.213Z</time></trkpt><trkpt lat="41.5237789" lon="12.8530656"><ele>29.0</ele><time>2026-04-04T09:54:45.213Z</time></trkpt><trkpt lat="41.5238439" lon="12.8532801"><ele>29.0</ele><time>2026-04-04T09:54:47.213Z</time></trkpt><trkpt lat="41.5238651" lon="12.8533889"><ele>29.0</ele><time>2026-04-04T09:54:48.213Z</time></trkpt><trkpt lat="41.5239078" lon="12.8535117"><ele>29.0</ele><time>2026-04-04T09:54:49.213Z</time></trkpt><trkpt lat="41.5239941" lon="12.8537479"><ele>29.0</ele><time>2026-04-04T09:54:51.214Z</time></trkpt><trkpt lat="41.524052" lon="12.8538573"><ele>29.0</ele><time>2026-04-04T09:54:52.213Z</time></trkpt><trkpt lat="41.524191" lon="12.8540507"><ele>29.0</ele><time>2026-04-04T09:54:54.213Z</time></trkpt><trkpt lat="41.5243567" lon="12.8542233"><ele>29.0</ele><time>2026-04-04T09:54:56.213Z</time></trkpt><trkpt lat="41.5244443" lon="12.854321"><ele>29.0</ele><time>2026-04-04T09:54:57.213Z</time></trkpt><trkpt lat="41.5245279" lon="12.8544185"><ele>29.0</ele><time>2026-04-04T09:54:58.213Z</time></trkpt><trkpt lat="41.5245976" lon="12.8545146"><ele>29.0</ele><time>2026-04-04T09:54:59.213Z</time></trkpt><trkpt lat="41.5246787" lon="12.8546188"><ele>29.0</ele><time>2026-04-04T09:55:00.213Z</time></trkpt><trkpt lat="41.5247442" lon="12.8547175"><ele>29.25</ele><time>2026-04-04T09:55:01.214Z</time></trkpt><trkpt lat="41.5248138" lon="12.8548127"><ele>29.5</ele><time>2026-04-04T09:55:02.213Z</time></trkpt><trkpt lat="41.5248912" lon="12.8549123"><ele>29.75</ele><time>2026-04-04T09:55:03.213Z</time></trkpt><trkpt lat="41.5249536" lon="12.8550127"><ele>30.0</ele><time>2026-04-04T09:55:04.214Z</time></trkpt><trkpt lat="41.5250786" lon="12.855198"><ele>30.25</ele><time>2026-04-04T09:55:06.214Z</time></trkpt><trkpt lat="41.5251398" lon="12.8552839"><ele>30.5</ele><time>2026-04-04T09:55:07.213Z</time></trkpt><trkpt lat="41.5252635" lon="12.8554442"><ele>30.75</ele><time>2026-04-04T09:55:09.213Z</time></trkpt><trkpt lat="41.5253664" lon="12.8556013"><ele>31.0</ele><time>2026-04-04T09:55:11.213Z</time></trkpt><trkpt lat="41.5254851" lon="12.8557459"><ele>31.25</ele><time>2026-04-04T09:55:13.214Z</time></trkpt><trkpt lat="41.5256042" lon="12.855901"><ele>31.5</ele><time>2026-04-04T09:55:15.213Z</time></trkpt><trkpt lat="41.5257304" lon="12.8560613"><ele>31.75</ele><time>2026-04-04T09:55:17.213Z</time></trkpt><trkpt lat="41.5257972" lon="12.8561564"><ele>32.0</ele><time>2026-04-04T09:55:18.213Z</time></trkpt><trkpt lat="41.5258686" lon="12.8562541"><ele>32.0</ele><time>2026-04-04T09:55:19.213Z</time></trkpt><trkpt lat="41.5259344" lon="12.856352"><ele>32.0</ele><time>2026-04-04T09:55:20.213Z</time></trkpt><trkpt lat="41.5260046" lon="12.856449"><ele>32.0</ele><time>2026-04-04T09:55:21.213Z</time></trkpt><trkpt lat="41.5260822" lon="12.8565543"><ele>32.0</ele><time>2026-04-04T09:55:22.214Z</time></trkpt><trkpt lat="41.5262407" lon="12.8567661"><ele>32.75</ele><time>2026-04-04T09:55:24.213Z</time></trkpt><trkpt lat="41.5263894" lon="12.8569426"><ele>33.5</ele><time>2026-04-04T09:55:26.213Z</time></trkpt><trkpt lat="41.5264651" lon="12.8570278"><ele>34.25</ele><time>2026-04-04T09:55:27.213Z</time></trkpt><trkpt lat="41.5265452" lon="12.8570996"><ele>35.0</ele><time>2026-04-04T09:55:28.213Z</time></trkpt><trkpt lat="41.5267165" lon="12.8572514"><ele>35.0</ele><time>2026-04-04T09:55:30.213Z</time></trkpt><trkpt lat="41.5267992" lon="12.8573248"><ele>35.0</ele><time>2026-04-04T09:55:31.213Z</time></trkpt><trkpt lat="41.5268865" lon="12.8573993"><ele>35.0</ele><time>2026-04-04T09:55:32.213Z</time></trkpt><trkpt lat="41.5270535" lon="12.8575106"><ele>35.0</ele><time>2026-04-04T09:55:34.213Z</time></trkpt><trkpt lat="41.5271426" lon="12.8575619"><ele>35.0</ele><time>2026-04-04T09:55:35.213Z</time></trkpt><trkpt lat="41.5272241" lon="12.8576021"><ele>35.0</ele><time>2026-04-04T09:55:36.213Z</time></trkpt><trkpt lat="41.5273893" lon="12.8576778"><ele>35.0</ele><time>2026-04-04T09:55:38.213Z</time></trkpt><trkpt lat="41.5275432" lon="12.8577627"><ele>35.0</ele><time>2026-04-04T09:55:40.213Z</time></trkpt><trkpt lat="41.5276212" lon="12.8577961"><ele>35.0</ele><time>2026-04-04T09:55:41.213Z</time></trkpt><trkpt lat="41.5277039" lon="12.8578428"><ele>35.0</ele><time>2026-04-04T09:55:42.213Z</time></trkpt><trkpt lat="41.5277919" lon="12.8578974"><ele>35.0</ele><time>2026-04-04T09:55:43.213Z</time></trkpt><trkpt lat="41.5278851" lon="12.8579503"><ele>35.0</ele><time>2026-04-04T09:55:44.214Z</time></trkpt><trkpt lat="41.5279729" lon="12.8579981"><ele>35.0</ele><time>2026-04-04T09:55:45.214Z</time></trkpt><trkpt lat="41.5281678" lon="12.8580966"><ele>34.75</ele><time>2026-04-04T09:55:47.213Z</time></trkpt><trkpt lat="41.528266" lon="12.8581456"><ele>34.5</ele><time>2026-04-04T09:55:48.213Z</time></trkpt><trkpt lat="41.5283655" lon="12.8581926"><ele>34.25</ele><time>2026-04-04T09:55:49.213Z</time></trkpt><trkpt lat="41.5285607" lon="12.858279"><ele>34.0</ele><time>2026-04-04T09:55:51.213Z</time></trkpt><trkpt lat="41.5287343" lon="12.8583628"><ele>33.66666666666667</ele><time>2026-04-04T09:55:53.213Z</time></trkpt><trkpt lat="41.5288217" lon="12.8584013"><ele>33.333333333333336</ele><time>2026-04-04T09:55:54.213Z</time></trkpt><trkpt lat="41.5288981" lon="12.8584401"><ele>33.0</ele><time>2026-04-04T09:55:55.213Z</time></trkpt><trkpt lat="41.5289649" lon="12.8584725"><ele>32.666666666666664</ele><time>2026-04-04T09:55:56.214Z</time></trkpt><trkpt lat="41.529063" lon="12.8585132"><ele>32.33333333333333</ele><time>2026-04-04T09:55:58.213Z</time></trkpt><trkpt lat="41.529145" lon="12.8585001"><ele>32.0</ele><time>2026-04-04T09:56:01.213Z</time></trkpt><trkpt lat="41.529177" lon="12.8583933"><ele>31.666666666666664</ele><time>2026-04-04T09:56:05.214Z</time></trkpt><trkpt lat="41.5291446" lon="12.858295"><ele>31.333333333333332</ele><time>2026-04-04T09:56:08.213Z</time></trkpt><trkpt lat="41.5291033" lon="12.8582168"><ele>31.0</ele><time>2026-04-04T09:56:11.213Z</time></trkpt><trkpt lat="41.5291927" lon="12.8581823"><ele>30.666666666666664</ele><time>2026-04-04T09:56:16.214Z</time></trkpt><trkpt lat="41.5292886" lon="12.8582347"><ele>30.333333333333332</ele><time>2026-04-04T09:56:18.213Z</time></trkpt><trkpt lat="41.5293625" lon="12.8582712"><ele>30.0</ele><time>2026-04-04T09:56:19.214Z</time></trkpt><trkpt lat="41.5294236" lon="12.8583013"><ele>29.8</ele><time>2026-04-04T09:56:20.213Z</time></trkpt><trkpt lat="41.5295986" lon="12.8583962"><ele>29.6</ele><time>2026-04-04T09:56:23.214Z</time></trkpt><trkpt lat="41.5296628" lon="12.8584306"><ele>29.4</ele><time>2026-04-04T09:56:24.213Z</time></trkpt><trkpt lat="41.5297329" lon="12.8584673"><ele>29.2</ele><time>2026-04-04T09:56:25.213Z</time></trkpt><trkpt lat="41.5298091" lon="12.8585067"><ele>29.0</ele><time>2026-04-04T09:56:26.213Z</time></trkpt><trkpt lat="41.5298858" lon="12.8585482"><ele>29.666666666666664</ele><time>2026-04-04T09:56:27.213Z</time></trkpt><trkpt lat="41.5299822" lon="12.8586075"><ele>30.333333333333332</ele><time>2026-04-04T09:56:28.213Z</time></trkpt><trkpt lat="41.5300414" lon="12.8586385"><ele>31.0</ele><time>2026-04-04T09:56:29.213Z</time></trkpt><trkpt lat="41.5301036" lon="12.858667"><ele>31.666666666666664</ele><time>2026-04-04T09:56:30.213Z</time></trkpt><trkpt lat="41.5301728" lon="12.8587043"><ele>32.333333333333336</ele><time>2026-04-04T09:56:31.213Z</time></trkpt><trkpt lat="41.5302441" lon="12.8587388"><ele>33.0</ele><time>2026-04-04T09:56:32.213Z</time></trkpt><trkpt lat="41.5303173" lon="12.8587756"><ele>33.0</ele><time>2026-04-04T09:56:33.213Z</time></trkpt><trkpt lat="41.5303821" lon="12.8588114"><ele>33.0</ele><time>2026-04-04T09:56:34.214Z</time></trkpt><trkpt lat="41.5305179" lon="12.8588753"><ele>33.0</ele><time>2026-04-04T09:56:36.213Z</time></trkpt><trkpt lat="41.5306472" lon="12.8589488"><ele>33.0</ele><time>2026-04-04T09:56:38.214Z</time></trkpt><trkpt lat="41.5307137" lon="12.8589832"><ele>33.0</ele><time>2026-04-04T09:56:39.213Z</time></trkpt><trkpt lat="41.530774" lon="12.8590137"><ele>32.666666666666664</ele><time>2026-04-04T09:56:40.214Z</time></trkpt><trkpt lat="41.5308722" lon="12.8590588"><ele>32.333333333333336</ele><time>2026-04-04T09:56:42.213Z</time></trkpt><trkpt lat="41.5309301" lon="12.8590924"><ele>32.0</ele><time>2026-04-04T09:56:43.213Z</time></trkpt><trkpt lat="41.5310301" lon="12.8591541"><ele>31.666666666666668</ele><time>2026-04-04T09:56:45.213Z</time></trkpt><trkpt lat="41.531113" lon="12.8591924"><ele>31.333333333333336</ele><time>2026-04-04T09:56:47.214Z</time></trkpt><trkpt lat="41.5311807" lon="12.8591864"><ele>31.0</ele><time>2026-04-04T09:56:54.214Z</time></trkpt><trkpt lat="41.5312347" lon="12.8591015"><ele>31.0</ele><time>2026-04-04T09:56:58.212Z</time></trkpt><trkpt lat="41.5312751" lon="12.8590291"><ele>31.0</ele><time>2026-04-04T09:57:01.213Z</time></trkpt><trkpt lat="41.5313551" lon="12.859075"><ele>31.0</ele><time>2026-04-04T09:57:03.214Z</time></trkpt><trkpt lat="41.5314503" lon="12.8591148"><ele>31.0</ele><time>2026-04-04T09:57:05.213Z</time></trkpt><trkpt lat="41.5315502" lon="12.8591669"><ele>31.0</ele><time>2026-04-04T09:57:07.213Z</time></trkpt><trkpt lat="41.5317243" lon="12.8592444"><ele>31.000000000000004</ele><time>2026-04-04T09:57:10.214Z</time></trkpt><trkpt lat="41.5318104" lon="12.8593075"><ele>31.0</ele><time>2026-04-04T09:57:12.214Z</time></trkpt><trkpt lat="41.531868" lon="12.8593485"><ele>31.0</ele><time>2026-04-04T09:57:14.213Z</time></trkpt><trkpt lat="41.5319474" lon="12.8593451"><ele>31.0</ele><time>2026-04-04T09:57:25.214Z</time></trkpt><trkpt lat="41.5320294" lon="12.859399"><ele>31.000000000000004</ele><time>2026-04-04T09:57:27.213Z</time></trkpt><trkpt lat="41.5321265" lon="12.8594458"><ele>31.0</ele><time>2026-04-04T09:57:29.213Z</time></trkpt><trkpt lat="41.5322137" lon="12.859483"><ele>31.000000000000004</ele><time>2026-04-04T09:57:31.213Z</time></trkpt><trkpt lat="41.5323106" lon="12.8595328"><ele>31.0</ele><time>2026-04-04T09:57:33.213Z</time></trkpt><trkpt lat="41.5323918" lon="12.859575"><ele>31.0</ele><time>2026-04-04T09:57:35.213Z</time></trkpt><trkpt lat="41.5324589" lon="12.8595999"><ele>31.0</ele><time>2026-04-04T09:57:37.213Z</time></trkpt><trkpt lat="41.5325223" lon="12.859631"><ele>31.000000000000004</ele><time>2026-04-04T09:57:39.213Z</time></trkpt><trkpt lat="41.5326214" lon="12.8596587"><ele>31.0</ele><time>2026-04-04T09:57:43.213Z</time></trkpt><trkpt lat="41.5326774" lon="12.8597232"><ele>31.000000000000004</ele><time>2026-04-04T09:57:47.213Z</time></trkpt><trkpt lat="41.5327568" lon="12.8597243"><ele>31.0</ele><time>2026-04-04T09:57:55.214Z</time></trkpt><trkpt lat="41.5328599" lon="12.8596867"><ele>31.0</ele><time>2026-04-04T09:57:58.213Z</time></trkpt><trkpt lat="41.5329292" lon="12.8596717"><ele>31.0</ele><time>2026-04-04T09:58:02.213Z</time></trkpt><trkpt lat="41.5330113" lon="12.8596506"><ele>31.000000000000004</ele><time>2026-04-04T09:58:06.214Z</time></trkpt><trkpt lat="41.5329276" lon="12.8596249"><ele>31.0</ele><time>2026-04-04T09:58:12.213Z</time></trkpt><trkpt lat="41.5328758" lon="12.8595742"><ele>31.000000000000004</ele><time>2026-04-04T09:58:14.214Z</time></trkpt><trkpt lat="41.5328144" lon="12.8595288"><ele>31.0</ele><time>2026-04-04T09:58:16.213Z</time></trkpt><trkpt lat="41.5327444" lon="12.8595041"><ele>31.0</ele><time>2026-04-04T09:58:18.214Z</time></trkpt><trkpt lat="41.5326563" lon="12.8594534"><ele>31.0</ele><time>2026-04-04T09:58:21.213Z</time></trkpt><trkpt lat="41.5325959" lon="12.8594253"><ele>31.000000000000004</ele><time>2026-04-04T09:58:24.213Z</time></trkpt><trkpt lat="41.5325602" lon="12.8593501"><ele>31.0</ele><time>2026-04-04T09:58:29.213Z</time></trkpt><trkpt lat="41.5324983" lon="12.8594448"><ele>31.0</ele><time>2026-04-04T09:58:33.213Z</time></trkpt><trkpt lat="41.5324564" lon="12.85956"><ele>31.0</ele><time>2026-04-04T09:58:35.213Z</time></trkpt><trkpt lat="41.5324184" lon="12.8596852"><ele>31.0</ele><time>2026-04-04T09:58:37.213Z</time></trkpt><trkpt lat="41.5323855" lon="12.8598036"><ele>31.0</ele><time>2026-04-04T09:58:39.214Z</time></trkpt><trkpt lat="41.5323483" lon="12.8599181"><ele>31.0</ele><time>2026-04-04T09:58:41.213Z</time></trkpt><trkpt lat="41.5323151" lon="12.8600305"><ele>31.200000000000003</ele><time>2026-04-04T09:58:43.213Z</time></trkpt><trkpt lat="41.5323998" lon="12.8601506"><ele>31.400000000000002</ele><time>2026-04-04T09:58:47.213Z</time></trkpt><trkpt lat="41.5325045" lon="12.8601909"><ele>31.6</ele><time>2026-04-04T09:58:49.213Z</time></trkpt><trkpt lat="41.5326195" lon="12.8602558"><ele>31.8</ele><time>2026-04-04T09:58:51.213Z</time></trkpt><trkpt lat="41.5326811" lon="12.8602968"><ele>32.0</ele><time>2026-04-04T09:58:52.214Z</time></trkpt><trkpt lat="41.5327545" lon="12.8603345"><ele>31.999999999999996</ele><time>2026-04-04T09:58:53.213Z</time></trkpt><trkpt lat="41.5328332" lon="12.8603627"><ele>32.0</ele><time>2026-04-04T09:58:54.214Z</time></trkpt><trkpt lat="41.5329121" lon="12.8604009"><ele>32.0</ele><time>2026-04-04T09:58:55.213Z</time></trkpt><trkpt lat="41.5329891" lon="12.8604328"><ele>32.0</ele><time>2026-04-04T09:58:56.213Z</time></trkpt><trkpt lat="41.5330729" lon="12.8604741"><ele>31.999999999999996</ele><time>2026-04-04T09:58:57.214Z</time></trkpt><trkpt lat="41.5331506" lon="12.8605233"><ele>32.0</ele><time>2026-04-04T09:58:58.213Z</time></trkpt><trkpt lat="41.533295" lon="12.8605782"><ele>32.0</ele><time>2026-04-04T09:59:00.214Z</time></trkpt><trkpt lat="41.5333506" lon="12.860622"><ele>32.0</ele><time>2026-04-04T09:59:01.213Z</time></trkpt><trkpt lat="41.533412" lon="12.8606553"><ele>32.0</ele><time>2026-04-04T09:59:02.213Z</time></trkpt><trkpt lat="41.5335396" lon="12.8607264"><ele>32.0</ele><time>2026-04-04T09:59:04.213Z</time></trkpt><trkpt lat="41.533645" lon="12.8607771"><ele>32.0</ele><time>2026-04-04T09:59:06.213Z</time></trkpt><trkpt lat="41.5337514" lon="12.8608223"><ele>32.0</ele><time>2026-04-04T09:59:08.213Z</time></trkpt><trkpt lat="41.5338508" lon="12.8608606"><ele>32.0</ele><time>2026-04-04T09:59:10.213Z</time></trkpt><trkpt lat="41.5339718" lon="12.8609246"><ele>32.0</ele><time>2026-04-04T09:59:12.213Z</time></trkpt><trkpt lat="41.5340637" lon="12.8609566"><ele>32.0</ele><time>2026-04-04T09:59:14.213Z</time></trkpt><trkpt lat="41.5342044" lon="12.8610015"><ele>32.0</ele><time>2026-04-04T09:59:17.213Z</time></trkpt><trkpt lat="41.5343085" lon="12.8610479"><ele>32.0</ele><time>2026-04-04T09:59:20.214Z</time></trkpt><trkpt lat="41.5343741" lon="12.861025"><ele>32.0</ele><time>2026-04-04T09:59:22.213Z</time></trkpt><trkpt lat="41.5344641" lon="12.861071"><ele>32.0</ele><time>2026-04-04T09:59:25.213Z</time></trkpt><trkpt lat="41.5345603" lon="12.861099"><ele>32.0</ele><time>2026-04-04T09:59:27.213Z</time></trkpt><trkpt lat="41.5346552" lon="12.8611589"><ele>32.4</ele><time>2026-04-04T09:59:29.214Z</time></trkpt><trkpt lat="41.5347549" lon="12.8612216"><ele>32.800000000000004</ele><time>2026-04-04T09:59:31.214Z</time></trkpt><trkpt lat="41.5348599" lon="12.861261"><ele>33.2</ele><time>2026-04-04T09:59:33.213Z</time></trkpt><trkpt lat="41.5349218" lon="12.8612979"><ele>33.6</ele><time>2026-04-04T09:59:34.213Z</time></trkpt><trkpt lat="41.5350182" lon="12.8613444"><ele>34.0</ele><time>2026-04-04T09:59:36.214Z</time></trkpt><trkpt lat="41.5351196" lon="12.861372"><ele>34.0</ele><time>2026-04-04T09:59:38.213Z</time></trkpt><trkpt lat="41.5352195" lon="12.861416"><ele>34.0</ele><time>2026-04-04T09:59:40.213Z</time></trkpt><trkpt lat="41.535286" lon="12.8614488"><ele>34.0</ele><time>2026-04-04T09:59:41.213Z</time></trkpt><trkpt lat="41.5353441" lon="12.861487"><ele>34.0</ele><time>2026-04-04T09:59:42.213Z</time></trkpt><trkpt lat="41.5354086" lon="12.8615168"><ele>34.0</ele><time>2026-04-04T09:59:43.213Z</time></trkpt><trkpt lat="41.5355175" lon="12.8615654"><ele>34.0</ele><time>2026-04-04T09:59:45.214Z</time></trkpt><trkpt lat="41.5356295" lon="12.8616309"><ele>33.66666666666667</ele><time>2026-04-04T09:59:47.213Z</time></trkpt><trkpt lat="41.5357436" lon="12.8616678"><ele>33.333333333333336</ele><time>2026-04-04T09:59:49.214Z</time></trkpt><trkpt lat="41.5358043" lon="12.8616968"><ele>33.0</ele><time>2026-04-04T09:59:50.213Z</time></trkpt><trkpt lat="41.5359177" lon="12.8617518"><ele>32.666666666666664</ele><time>2026-04-04T09:59:52.213Z</time></trkpt><trkpt lat="41.5359821" lon="12.8617735"><ele>32.33333333333333</ele><time>2026-04-04T09:59:53.213Z</time></trkpt><trkpt lat="41.5360495" lon="12.8618134"><ele>32.0</ele><time>2026-04-04T09:59:54.213Z</time></trkpt><trkpt lat="41.5361445" lon="12.8618712"><ele>32.0</ele><time>2026-04-04T09:59:56.213Z</time></trkpt><trkpt lat="41.5362076" lon="12.8619161"><ele>32.0</ele><time>2026-04-04T09:59:57.214Z</time></trkpt><trkpt lat="41.5362748" lon="12.8619541"><ele>32.0</ele><time>2026-04-04T09:59:58.213Z</time></trkpt><trkpt lat="41.5363734" lon="12.8620159"><ele>32.0</ele><time>2026-04-04T10:00:00.214Z</time></trkpt><trkpt lat="41.5364884" lon="12.8620761"><ele>32.0</ele><time>2026-04-04T10:00:02.214Z</time></trkpt><trkpt lat="41.5366052" lon="12.8621373"><ele>32.0</ele><time>2026-04-04T10:00:04.213Z</time></trkpt><trkpt lat="41.5367174" lon="12.8621936"><ele>32.0</ele><time>2026-04-04T10:00:06.213Z</time></trkpt><trkpt lat="41.5368779" lon="12.8622738"><ele>32.0</ele><time>2026-04-04T10:00:09.213Z</time></trkpt><trkpt lat="41.5369848" lon="12.8623227"><ele>32.0</ele><time>2026-04-04T10:00:11.213Z</time></trkpt><trkpt lat="41.5370929" lon="12.8623844"><ele>32.0</ele><time>2026-04-04T10:00:13.213Z</time></trkpt><trkpt lat="41.5371989" lon="12.8624352"><ele>32.0</ele><time>2026-04-04T10:00:15.213Z</time></trkpt><trkpt lat="41.537291" lon="12.8624859"><ele>32.0</ele><time>2026-04-04T10:00:17.214Z</time></trkpt><trkpt lat="41.5374404" lon="12.8625669"><ele>32.0</ele><time>2026-04-04T10:00:20.213Z</time></trkpt><trkpt lat="41.5375775" lon="12.8626327"><ele>32.5</ele><time>2026-04-04T10:00:23.213Z</time></trkpt><trkpt lat="41.537702" lon="12.8627028"><ele>33.0</ele><time>2026-04-04T10:00:26.213Z</time></trkpt><trkpt lat="41.5378213" lon="12.8627596"><ele>33.5</ele><time>2026-04-04T10:00:28.214Z</time></trkpt><trkpt lat="41.5379306" lon="12.8628121"><ele>34.0</ele><time>2026-04-04T10:00:30.214Z</time></trkpt><trkpt lat="41.538055" lon="12.8628857"><ele>34.0</ele><time>2026-04-04T10:00:32.213Z</time></trkpt><trkpt lat="41.5381191" lon="12.8629173"><ele>34.0</ele><time>2026-04-04T10:00:33.213Z</time></trkpt><trkpt lat="41.5381814" lon="12.8629474"><ele>34.0</ele><time>2026-04-04T10:00:34.213Z</time></trkpt><trkpt lat="41.5383023" lon="12.863005"><ele>34.0</ele><time>2026-04-04T10:00:36.213Z</time></trkpt><trkpt lat="41.5383677" lon="12.8630339"><ele>34.0</ele><time>2026-04-04T10:00:37.213Z</time></trkpt><trkpt lat="41.5384858" lon="12.8630807"><ele>34.0</ele><time>2026-04-04T10:00:39.214Z</time></trkpt><trkpt lat="41.5385464" lon="12.8631146"><ele>34.0</ele><time>2026-04-04T10:00:40.214Z</time></trkpt><trkpt lat="41.5386699" lon="12.8631919"><ele>34.0</ele><time>2026-04-04T10:00:42.214Z</time></trkpt><trkpt lat="41.5387319" lon="12.8632167"><ele>34.0</ele><time>2026-04-04T10:00:43.213Z</time></trkpt><trkpt lat="41.5387921" lon="12.863247"><ele>34.0</ele><time>2026-04-04T10:00:44.213Z</time></trkpt><trkpt lat="41.5389183" lon="12.8633168"><ele>33.75</ele><time>2026-04-04T10:00:46.213Z</time></trkpt><trkpt lat="41.5390374" lon="12.8633815"><ele>33.5</ele><time>2026-04-04T10:00:48.213Z</time></trkpt><trkpt lat="41.539164" lon="12.8634429"><ele>33.25</ele><time>2026-04-04T10:00:50.213Z</time></trkpt><trkpt lat="41.5392294" lon="12.8634784"><ele>33.0</ele><time>2026-04-04T10:00:51.214Z</time></trkpt><trkpt lat="41.5393895" lon="12.8635806"><ele>33.0</ele><time>2026-04-04T10:00:54.213Z</time></trkpt><trkpt lat="41.5394473" lon="12.8636172"><ele>33.0</ele><time>2026-04-04T10:00:55.213Z</time></trkpt><trkpt lat="41.5395093" lon="12.8636525"><ele>33.0</ele><time>2026-04-04T10:00:56.213Z</time></trkpt><trkpt lat="41.5395727" lon="12.8636786"><ele>33.0</ele><time>2026-04-04T10:00:57.213Z</time></trkpt><trkpt lat="41.539733" lon="12.8637646"><ele>33.0</ele><time>2026-04-04T10:01:00.214Z</time></trkpt><trkpt lat="41.5398399" lon="12.8638213"><ele>32.8</ele><time>2026-04-04T10:01:02.213Z</time></trkpt><trkpt lat="41.5399485" lon="12.863888"><ele>32.599999999999994</ele><time>2026-04-04T10:01:04.213Z</time></trkpt><trkpt lat="41.540058" lon="12.8639541"><ele>32.400000000000006</ele><time>2026-04-04T10:01:06.214Z</time></trkpt><trkpt lat="41.5401226" lon="12.8639912"><ele>32.2</ele><time>2026-04-04T10:01:07.213Z</time></trkpt><trkpt lat="41.5402399" lon="12.8640788"><ele>32.0</ele><time>2026-04-04T10:01:09.213Z</time></trkpt><trkpt lat="41.5403866" lon="12.8641609"><ele>32.0</ele><time>2026-04-04T10:01:12.213Z</time></trkpt><trkpt lat="41.5404902" lon="12.8642448"><ele>32.0</ele><time>2026-04-04T10:01:14.213Z</time></trkpt><trkpt lat="41.540596" lon="12.8643198"><ele>32.0</ele><time>2026-04-04T10:01:16.213Z</time></trkpt><trkpt lat="41.5406511" lon="12.8643673"><ele>32.0</ele><time>2026-04-04T10:01:17.213Z</time></trkpt><trkpt lat="41.5407074" lon="12.8644151"><ele>32.0</ele><time>2026-04-04T10:01:18.214Z</time></trkpt><trkpt lat="41.5408111" lon="12.8644861"><ele>31.8</ele><time>2026-04-04T10:01:20.214Z</time></trkpt><trkpt lat="41.5408907" lon="12.8645605"><ele>31.6</ele><time>2026-04-04T10:01:22.213Z</time></trkpt><trkpt lat="41.5409947" lon="12.8646441"><ele>31.400000000000002</ele><time>2026-04-04T10:01:24.213Z</time></trkpt><trkpt lat="41.5410828" lon="12.8647218"><ele>31.200000000000003</ele><time>2026-04-04T10:01:26.213Z</time></trkpt><trkpt lat="41.5411434" lon="12.8647763"><ele>31.0</ele><time>2026-04-04T10:01:28.213Z</time></trkpt><trkpt lat="41.5412526" lon="12.8648951"><ele>31.0</ele><time>2026-04-04T10:01:31.213Z</time></trkpt><trkpt lat="41.541294" lon="12.8649701"><ele>31.000000000000004</ele><time>2026-04-04T10:01:33.213Z</time></trkpt><trkpt lat="41.5413563" lon="12.8650066"><ele>31.0</ele><time>2026-04-04T10:01:35.213Z</time></trkpt><trkpt lat="41.5414341" lon="12.8650801"><ele>31.0</ele><time>2026-04-04T10:01:38.213Z</time></trkpt><trkpt lat="41.5414845" lon="12.8651378"><ele>31.000000000000004</ele><time>2026-04-04T10:01:40.214Z</time></trkpt><trkpt lat="41.5415347" lon="12.8651984"><ele>31.0</ele><time>2026-04-04T10:01:42.213Z</time></trkpt><trkpt lat="41.541584" lon="12.8652686"><ele>31.0</ele><time>2026-04-04T10:01:43.214Z</time></trkpt><trkpt lat="41.5416858" lon="12.8653559"><ele>31.200000000000003</ele><time>2026-04-04T10:01:45.213Z</time></trkpt><trkpt lat="41.5417751" lon="12.8654081"><ele>31.400000000000002</ele><time>2026-04-04T10:01:47.213Z</time></trkpt><trkpt lat="41.5418783" lon="12.8655462"><ele>31.6</ele><time>2026-04-04T10:01:50.213Z</time></trkpt><trkpt lat="41.5419617" lon="12.8656154"><ele>31.8</ele><time>2026-04-04T10:01:52.213Z</time></trkpt><trkpt lat="41.5420444" lon="12.8657053"><ele>32.0</ele><time>2026-04-04T10:01:54.213Z</time></trkpt><trkpt lat="41.5421459" lon="12.865853"><ele>32.0</ele><time>2026-04-04T10:01:57.213Z</time></trkpt><trkpt lat="41.5422345" lon="12.8659308"><ele>32.0</ele><time>2026-04-04T10:01:59.213Z</time></trkpt><trkpt lat="41.5422876" lon="12.8660191"><ele>32.0</ele><time>2026-04-04T10:02:01.213Z</time></trkpt><trkpt lat="41.5423505" lon="12.8661032"><ele>32.0</ele><time>2026-04-04T10:02:03.213Z</time></trkpt><trkpt lat="41.5424425" lon="12.86617"><ele>32.0</ele><time>2026-04-04T10:02:05.214Z</time></trkpt><trkpt lat="41.5425024" lon="12.8662238"><ele>32.6</ele><time>2026-04-04T10:02:07.213Z</time></trkpt><trkpt lat="41.5425666" lon="12.866296"><ele>33.2</ele><time>2026-04-04T10:02:09.214Z</time></trkpt><trkpt lat="41.5426351" lon="12.8663906"><ele>33.8</ele><time>2026-04-04T10:02:11.214Z</time></trkpt><trkpt lat="41.5427013" lon="12.8664913"><ele>34.4</ele><time>2026-04-04T10:02:13.214Z</time></trkpt><trkpt lat="41.5427564" lon="12.8665873"><ele>35.0</ele><time>2026-04-04T10:02:15.213Z</time></trkpt><trkpt lat="41.5428324" lon="12.8666783"><ele>34.8</ele><time>2026-04-04T10:02:17.213Z</time></trkpt><trkpt lat="41.5429052" lon="12.8667722"><ele>34.6</ele><time>2026-04-04T10:02:19.213Z</time></trkpt><trkpt lat="41.542995" lon="12.8668596"><ele>34.4</ele><time>2026-04-04T10:02:21.213Z</time></trkpt><trkpt lat="41.543043" lon="12.8669164"><ele>34.2</ele><time>2026-04-04T10:02:22.214Z</time></trkpt><trkpt lat="41.543139" lon="12.8670446"><ele>34.0</ele><time>2026-04-04T10:02:24.213Z</time></trkpt><trkpt lat="41.543188" lon="12.867115"><ele>34.0</ele><time>2026-04-04T10:02:25.214Z</time></trkpt><trkpt lat="41.5432494" lon="12.8671884"><ele>34.0</ele><time>2026-04-04T10:02:26.214Z</time></trkpt><trkpt lat="41.543321" lon="12.867268"><ele>34.0</ele><time>2026-04-04T10:02:27.213Z</time></trkpt><trkpt lat="41.5433822" lon="12.8673536"><ele>34.0</ele><time>2026-04-04T10:02:28.214Z</time></trkpt><trkpt lat="41.5434533" lon="12.8674467"><ele>34.0</ele><time>2026-04-04T10:02:29.213Z</time></trkpt><trkpt lat="41.5435903" lon="12.8676306"><ele>33.6</ele><time>2026-04-04T10:02:31.213Z</time></trkpt><trkpt lat="41.543658" lon="12.8677207"><ele>33.2</ele><time>2026-04-04T10:02:32.213Z</time></trkpt><trkpt lat="41.5437321" lon="12.8678209"><ele>32.800000000000004</ele><time>2026-04-04T10:02:33.213Z</time></trkpt><trkpt lat="41.5438045" lon="12.867916"><ele>32.4</ele><time>2026-04-04T10:02:34.214Z</time></trkpt><trkpt lat="41.5438905" lon="12.8680172"><ele>32.0</ele><time>2026-04-04T10:02:35.213Z</time></trkpt><trkpt lat="41.5439787" lon="12.8681122"><ele>32.0</ele><time>2026-04-04T10:02:36.213Z</time></trkpt><trkpt lat="41.5440565" lon="12.8682066"><ele>32.0</ele><time>2026-04-04T10:02:37.214Z</time></trkpt><trkpt lat="41.5441297" lon="12.8683023"><ele>32.0</ele><time>2026-04-04T10:02:38.214Z</time></trkpt><trkpt lat="41.5442147" lon="12.8684009"><ele>32.0</ele><time>2026-04-04T10:02:39.213Z</time></trkpt><trkpt lat="41.5442897" lon="12.8684984"><ele>32.0</ele><time>2026-04-04T10:02:40.213Z</time></trkpt><trkpt lat="41.5443711" lon="12.8685982"><ele>32.2</ele><time>2026-04-04T10:02:41.213Z</time></trkpt><trkpt lat="41.5444499" lon="12.8686983"><ele>32.400000000000006</ele><time>2026-04-04T10:02:42.213Z</time></trkpt><trkpt lat="41.5445268" lon="12.8687991"><ele>32.599999999999994</ele><time>2026-04-04T10:02:43.213Z</time></trkpt><trkpt lat="41.5446109" lon="12.8689045"><ele>32.8</ele><time>2026-04-04T10:02:44.214Z</time></trkpt><trkpt lat="41.544691" lon="12.8689977"><ele>33.0</ele><time>2026-04-04T10:02:45.214Z</time></trkpt><trkpt lat="41.5447704" lon="12.8690975"><ele>33.0</ele><time>2026-04-04T10:02:46.213Z</time></trkpt><trkpt lat="41.5448515" lon="12.8691982"><ele>33.0</ele><time>2026-04-04T10:02:47.213Z</time></trkpt><trkpt lat="41.5449249" lon="12.8692952"><ele>33.0</ele><time>2026-04-04T10:02:48.213Z</time></trkpt><trkpt lat="41.5450585" lon="12.8694774"><ele>33.0</ele><time>2026-04-04T10:02:50.213Z</time></trkpt><trkpt lat="41.5451225" lon="12.869566"><ele>33.0</ele><time>2026-04-04T10:02:51.214Z</time></trkpt><trkpt lat="41.5451921" lon="12.869655"><ele>33.0</ele><time>2026-04-04T10:02:52.213Z</time></trkpt><trkpt lat="41.5453289" lon="12.869825"><ele>33.0</ele><time>2026-04-04T10:02:54.213Z</time></trkpt><trkpt lat="41.5454046" lon="12.8699172"><ele>33.0</ele><time>2026-04-04T10:02:55.213Z</time></trkpt><trkpt lat="41.5455475" lon="12.8701051"><ele>33.333333333333336</ele><time>2026-04-04T10:02:57.213Z</time></trkpt><trkpt lat="41.5456924" lon="12.8702821"><ele>33.66666666666667</ele><time>2026-04-04T10:02:59.213Z</time></trkpt><trkpt lat="41.5458448" lon="12.8704757"><ele>34.0</ele><time>2026-04-04T10:03:01.213Z</time></trkpt><trkpt lat="41.5459897" lon="12.8706735"><ele>34.0</ele><time>2026-04-04T10:03:03.213Z</time></trkpt><trkpt lat="41.5460657" lon="12.8707699"><ele>34.0</ele><time>2026-04-04T10:03:04.214Z</time></trkpt><trkpt lat="41.5461466" lon="12.8708608"><ele>34.0</ele><time>2026-04-04T10:03:05.213Z</time></trkpt><trkpt lat="41.5462217" lon="12.8709595"><ele>34.0</ele><time>2026-04-04T10:03:06.213Z</time></trkpt><trkpt lat="41.5462999" lon="12.8710596"><ele>34.0</ele><time>2026-04-04T10:03:07.213Z</time></trkpt><trkpt lat="41.5464694" lon="12.8712611"><ele>33.8</ele><time>2026-04-04T10:03:09.213Z</time></trkpt><trkpt lat="41.5465543" lon="12.8713603"><ele>33.599999999999994</ele><time>2026-04-04T10:03:10.213Z</time></trkpt><trkpt lat="41.5466336" lon="12.8714605"><ele>33.4</ele><time>2026-04-04T10:03:11.213Z</time></trkpt><trkpt lat="41.5467089" lon="12.8715616"><ele>33.199999999999996</ele><time>2026-04-04T10:03:12.214Z</time></trkpt><trkpt lat="41.5467842" lon="12.8716639"><ele>33.0</ele><time>2026-04-04T10:03:13.213Z</time></trkpt><trkpt lat="41.5468534" lon="12.8717577"><ele>33.333333333333336</ele><time>2026-04-04T10:03:14.213Z</time></trkpt><trkpt lat="41.5469308" lon="12.8718503"><ele>33.66666666666667</ele><time>2026-04-04T10:03:15.213Z</time></trkpt><trkpt lat="41.5470721" lon="12.8720371"><ele>34.0</ele><time>2026-04-04T10:03:17.213Z</time></trkpt><trkpt lat="41.5472023" lon="12.8722146"><ele>34.0</ele><time>2026-04-04T10:03:19.213Z</time></trkpt><trkpt lat="41.5473043" lon="12.8723985"><ele>34.0</ele><time>2026-04-04T10:03:21.214Z</time></trkpt><trkpt lat="41.5473846" lon="12.8725443"><ele>34.0</ele><time>2026-04-04T10:03:23.213Z</time></trkpt><trkpt lat="41.5475169" lon="12.872672"><ele>34.333333333333336</ele><time>2026-04-04T10:03:25.214Z</time></trkpt><trkpt lat="41.5475824" lon="12.8727391"><ele>34.66666666666667</ele><time>2026-04-04T10:03:26.213Z</time></trkpt><trkpt lat="41.5476521" lon="12.8728246"><ele>35.0</ele><time>2026-04-04T10:03:27.213Z</time></trkpt><trkpt lat="41.5477168" lon="12.8729012"><ele>35.333333333333336</ele><time>2026-04-04T10:03:28.214Z</time></trkpt><trkpt lat="41.5477725" lon="12.87298"><ele>35.666666666666664</ele><time>2026-04-04T10:03:29.213Z</time></trkpt><trkpt lat="41.5478382" lon="12.8730704"><ele>36.0</ele><time>2026-04-04T10:03:30.214Z</time></trkpt><trkpt lat="41.5479672" lon="12.87325"><ele>35.75</ele><time>2026-04-04T10:03:32.213Z</time></trkpt><trkpt lat="41.5480463" lon="12.8733438"><ele>35.5</ele><time>2026-04-04T10:03:33.213Z</time></trkpt><trkpt lat="41.5481117" lon="12.8734331"><ele>35.25</ele><time>2026-04-04T10:03:34.213Z</time></trkpt><trkpt lat="41.5482381" lon="12.8736117"><ele>35.0</ele><time>2026-04-04T10:03:36.214Z</time></trkpt><trkpt lat="41.5482899" lon="12.8736945"><ele>35.0</ele><time>2026-04-04T10:03:37.213Z</time></trkpt><trkpt lat="41.5483362" lon="12.873767"><ele>35.0</ele><time>2026-04-04T10:03:38.213Z</time></trkpt><trkpt lat="41.548379" lon="12.8738415"><ele>35.0</ele><time>2026-04-04T10:03:39.213Z</time></trkpt><trkpt lat="41.5484481" lon="12.8739452"><ele>35.0</ele><time>2026-04-04T10:03:41.213Z</time></trkpt><trkpt lat="41.5484968" lon="12.8740361"><ele>35.0</ele><time>2026-04-04T10:03:43.213Z</time></trkpt><trkpt lat="41.5485484" lon="12.8741058"><ele>35.0</ele><time>2026-04-04T10:03:47.214Z</time></trkpt><trkpt lat="41.5485899" lon="12.8742077"><ele>35.2</ele><time>2026-04-04T10:03:50.213Z</time></trkpt><trkpt lat="41.5486265" lon="12.8742987"><ele>35.4</ele><time>2026-04-04T10:04:15.213Z</time></trkpt><trkpt lat="41.548692" lon="12.8744112"><ele>35.6</ele><time>2026-04-04T10:04:17.213Z</time></trkpt><trkpt lat="41.5487609" lon="12.8745447"><ele>35.8</ele><time>2026-04-04T10:04:19.213Z</time></trkpt><trkpt lat="41.5488201" lon="12.8746833"><ele>36.0</ele><time>2026-04-04T10:04:21.213Z</time></trkpt><trkpt lat="41.548876" lon="12.87482"><ele>35.833333333333336</ele><time>2026-04-04T10:04:23.213Z</time></trkpt><trkpt lat="41.5489339" lon="12.8749832"><ele>35.666666666666664</ele><time>2026-04-04T10:04:25.213Z</time></trkpt><trkpt lat="41.5489644" lon="12.8750645"><ele>35.5</ele><time>2026-04-04T10:04:26.213Z</time></trkpt><trkpt lat="41.5489987" lon="12.8751508"><ele>35.33333333333333</ele><time>2026-04-04T10:04:27.213Z</time></trkpt><trkpt lat="41.549035" lon="12.8752374"><ele>35.166666666666664</ele><time>2026-04-04T10:04:28.214Z</time></trkpt><trkpt lat="41.5490786" lon="12.8753308"><ele>35.0</ele><time>2026-04-04T10:04:29.213Z</time></trkpt><trkpt lat="41.5491035" lon="12.8754102"><ele>35.0</ele><time>2026-04-04T10:04:30.213Z</time></trkpt><trkpt lat="41.5491331" lon="12.8754979"><ele>35.0</ele><time>2026-04-04T10:04:31.213Z</time></trkpt><trkpt lat="41.5491672" lon="12.875583"><ele>35.0</ele><time>2026-04-04T10:04:32.213Z</time></trkpt><trkpt lat="41.5492123" lon="12.8757464"><ele>35.0</ele><time>2026-04-04T10:04:34.213Z</time></trkpt><trkpt lat="41.5492429" lon="12.8758402"><ele>35.0</ele><time>2026-04-04T10:04:35.214Z</time></trkpt><trkpt lat="41.5492752" lon="12.8759287"><ele>35.0</ele><time>2026-04-04T10:04:36.213Z</time></trkpt><trkpt lat="41.5493308" lon="12.8761034"><ele>35.25</ele><time>2026-04-04T10:04:38.213Z</time></trkpt><trkpt lat="41.5493569" lon="12.8761884"><ele>35.5</ele><time>2026-04-04T10:04:39.213Z</time></trkpt><trkpt lat="41.5494202" lon="12.8764392"><ele>35.75</ele><time>2026-04-04T10:04:42.213Z</time></trkpt><trkpt lat="41.5494422" lon="12.8765701"><ele>36.0</ele><time>2026-04-04T10:04:44.214Z</time></trkpt><trkpt lat="41.5494829" lon="12.8766926"><ele>35.666666666666664</ele><time>2026-04-04T10:04:46.213Z</time></trkpt><trkpt lat="41.5495469" lon="12.8767636"><ele>35.333333333333336</ele><time>2026-04-04T10:04:49.213Z</time></trkpt><trkpt lat="41.5495649" lon="12.8766709"><ele>35.0</ele><time>2026-04-04T10:04:54.213Z</time></trkpt><trkpt lat="41.5496306" lon="12.8766231"><ele>34.66666666666667</ele><time>2026-04-04T10:04:58.214Z</time></trkpt><trkpt lat="41.5496812" lon="12.8766828"><ele>34.333333333333336</ele><time>2026-04-04T10:05:00.213Z</time></trkpt><trkpt lat="41.5497021" lon="12.8767976"><ele>34.0</ele><time>2026-04-04T10:05:02.213Z</time></trkpt><trkpt lat="41.5497295" lon="12.876888"><ele>34.0</ele><time>2026-04-04T10:05:04.213Z</time></trkpt><trkpt lat="41.549763" lon="12.8769919"><ele>34.0</ele><time>2026-04-04T10:05:06.214Z</time></trkpt><trkpt lat="41.5497919" lon="12.8770904"><ele>34.0</ele><time>2026-04-04T10:05:08.213Z</time></trkpt><trkpt lat="41.5498282" lon="12.8772291"><ele>34.0</ele><time>2026-04-04T10:05:10.214Z</time></trkpt><trkpt lat="41.5498572" lon="12.8773677"><ele>34.0</ele><time>2026-04-04T10:05:12.213Z</time></trkpt><trkpt lat="41.5498917" lon="12.877504"><ele>34.0</ele><time>2026-04-04T10:05:14.214Z</time></trkpt><trkpt lat="41.5499526" lon="12.8777051"><ele>34.0</ele><time>2026-04-04T10:05:17.213Z</time></trkpt><trkpt lat="41.5499868" lon="12.8778336"><ele>34.0</ele><time>2026-04-04T10:05:19.213Z</time></trkpt><trkpt lat="41.5500233" lon="12.8779593"><ele>34.0</ele><time>2026-04-04T10:05:21.213Z</time></trkpt><trkpt lat="41.5500677" lon="12.8780745"><ele>34.0</ele><time>2026-04-04T10:05:23.213Z</time></trkpt><trkpt lat="41.5501334" lon="12.8781903"><ele>34.0</ele><time>2026-04-04T10:05:25.213Z</time></trkpt><trkpt lat="41.5501719" lon="12.878296"><ele>34.0</ele><time>2026-04-04T10:05:27.213Z</time></trkpt><trkpt lat="41.5502405" lon="12.8784549"><ele>34.0</ele><time>2026-04-04T10:05:30.213Z</time></trkpt><trkpt lat="41.5502878" lon="12.8785556"><ele>34.0</ele><time>2026-04-04T10:05:32.213Z</time></trkpt><trkpt lat="41.5503674" lon="12.878688"><ele>34.0</ele><time>2026-04-04T10:05:35.213Z</time></trkpt><trkpt lat="41.5504279" lon="12.8787844"><ele>34.0</ele><time>2026-04-04T10:05:37.213Z</time></trkpt><trkpt lat="41.5504897" lon="12.8788678"><ele>34.0</ele><time>2026-04-04T10:05:39.214Z</time></trkpt><trkpt lat="41.5505578" lon="12.8789637"><ele>34.0</ele><time>2026-04-04T10:05:41.213Z</time></trkpt><trkpt lat="41.5506193" lon="12.8790672"><ele>34.0</ele><time>2026-04-04T10:05:43.213Z</time></trkpt><trkpt lat="41.5506797" lon="12.8791602"><ele>34.5</ele><time>2026-04-04T10:05:45.214Z</time></trkpt><trkpt lat="41.550773" lon="12.8793111"><ele>35.0</ele><time>2026-04-04T10:05:48.214Z</time></trkpt><trkpt lat="41.5508822" lon="12.8794673"><ele>35.5</ele><time>2026-04-04T10:05:51.214Z</time></trkpt><trkpt lat="41.5509444" lon="12.8795604"><ele>36.0</ele><time>2026-04-04T10:05:53.213Z</time></trkpt><trkpt lat="41.5510126" lon="12.8796433"><ele>36.0</ele><time>2026-04-04T10:05:55.214Z</time></trkpt><trkpt lat="41.5510774" lon="12.879729"><ele>36.0</ele><time>2026-04-04T10:05:57.213Z</time></trkpt><trkpt lat="41.5511343" lon="12.8798117"><ele>36.0</ele><time>2026-04-04T10:05:59.213Z</time></trkpt><trkpt lat="41.5511932" lon="12.8799194"><ele>36.0</ele><time>2026-04-04T10:06:01.213Z</time></trkpt><trkpt lat="41.5512977" lon="12.8800594"><ele>36.0</ele><time>2026-04-04T10:06:04.213Z</time></trkpt><trkpt lat="41.5513411" lon="12.8801277"><ele>35.4</ele><time>2026-04-04T10:06:06.213Z</time></trkpt><trkpt lat="41.5514037" lon="12.8802093"><ele>34.8</ele><time>2026-04-04T10:06:08.213Z</time></trkpt><trkpt lat="41.5514731" lon="12.880293"><ele>34.199999999999996</ele><time>2026-04-04T10:06:10.213Z</time></trkpt><trkpt lat="41.5515378" lon="12.880378"><ele>33.6</ele><time>2026-04-04T10:06:12.214Z</time></trkpt><trkpt lat="41.5515972" lon="12.8804537"><ele>33.0</ele><time>2026-04-04T10:06:14.213Z</time></trkpt><trkpt lat="41.551669" lon="12.8805425"><ele>33.0</ele><time>2026-04-04T10:06:16.213Z</time></trkpt><trkpt lat="41.5517225" lon="12.8806378"><ele>33.0</ele><time>2026-04-04T10:06:19.213Z</time></trkpt><trkpt lat="41.551774" lon="12.8807009"><ele>33.0</ele><time>2026-04-04T10:06:21.213Z</time></trkpt><trkpt lat="41.5518426" lon="12.8807995"><ele>33.0</ele><time>2026-04-04T10:06:24.213Z</time></trkpt><trkpt lat="41.5519034" lon="12.8808667"><ele>33.0</ele><time>2026-04-04T10:06:26.213Z</time></trkpt><trkpt lat="41.5519751" lon="12.8809329"><ele>33.0</ele><time>2026-04-04T10:06:29.26Z</time></trkpt><trkpt lat="41.552044" lon="12.8810496"><ele>33.333333333333336</ele><time>2026-04-04T10:06:32.213Z</time></trkpt><trkpt lat="41.5520822" lon="12.8811174"><ele>33.666666666666664</ele><time>2026-04-04T10:06:33.213Z</time></trkpt><trkpt lat="41.5521678" lon="12.881225"><ele>34.0</ele><time>2026-04-04T10:06:36.213Z</time></trkpt><trkpt lat="41.5522082" lon="12.8812901"><ele>34.33333333333333</ele><time>2026-04-04T10:06:38.213Z</time></trkpt><trkpt lat="41.5522684" lon="12.8813822"><ele>34.666666666666664</ele><time>2026-04-04T10:06:41.213Z</time></trkpt><trkpt lat="41.5523169" lon="12.8814407"><ele>35.0</ele><time>2026-04-04T10:06:43.213Z</time></trkpt><trkpt lat="41.5523733" lon="12.8815101"><ele>35.0</ele><time>2026-04-04T10:06:45.213Z</time></trkpt><trkpt lat="41.552439" lon="12.8815872"><ele>35.0</ele><time>2026-04-04T10:06:47.214Z</time></trkpt><trkpt lat="41.5524976" lon="12.8816734"><ele>35.0</ele><time>2026-04-04T10:06:49.213Z</time></trkpt><trkpt lat="41.5525464" lon="12.8817526"><ele>35.0</ele><time>2026-04-04T10:06:51.213Z</time></trkpt><trkpt lat="41.5525959" lon="12.8818244"><ele>35.0</ele><time>2026-04-04T10:06:53.213Z</time></trkpt><trkpt lat="41.5526474" lon="12.8818968"><ele>35.0</ele><time>2026-04-04T10:06:55.213Z</time></trkpt><trkpt lat="41.5526977" lon="12.8819751"><ele>35.2</ele><time>2026-04-04T10:06:57.213Z</time></trkpt><trkpt lat="41.5527606" lon="12.8820554"><ele>35.4</ele><time>2026-04-04T10:06:59.213Z</time></trkpt><trkpt lat="41.552827" lon="12.8821303"><ele>35.6</ele><time>2026-04-04T10:07:01.213Z</time></trkpt><trkpt lat="41.5529492" lon="12.8822667"><ele>35.8</ele><time>2026-04-04T10:07:04.213Z</time></trkpt><trkpt lat="41.5530135" lon="12.8823512"><ele>36.0</ele><time>2026-04-04T10:07:06.213Z</time></trkpt><trkpt lat="41.5530574" lon="12.882421"><ele>36.0</ele><time>2026-04-04T10:07:08.214Z</time></trkpt><trkpt lat="41.5531085" lon="12.882506"><ele>36.0</ele><time>2026-04-04T10:07:10.213Z</time></trkpt><trkpt lat="41.5531533" lon="12.8825783"><ele>36.0</ele><time>2026-04-04T10:07:12.213Z</time></trkpt><trkpt lat="41.5532178" lon="12.8826584"><ele>36.0</ele><time>2026-04-04T10:07:14.213Z</time></trkpt><trkpt lat="41.5532931" lon="12.8827664"><ele>36.0</ele><time>2026-04-04T10:07:16.213Z</time></trkpt><trkpt lat="41.5533616" lon="12.8828515"><ele>36.0</ele><time>2026-04-04T10:07:18.213Z</time></trkpt><trkpt lat="41.5534363" lon="12.8829442"><ele>36.166666666666664</ele><time>2026-04-04T10:07:20.213Z</time></trkpt><trkpt lat="41.5535028" lon="12.88303"><ele>36.333333333333336</ele><time>2026-04-04T10:07:22.213Z</time></trkpt><trkpt lat="41.5535387" lon="12.883101"><ele>36.5</ele><time>2026-04-04T10:07:24.213Z</time></trkpt><trkpt lat="41.5535777" lon="12.8831914"><ele>36.66666666666667</ele><time>2026-04-04T10:07:43.213Z</time></trkpt><trkpt lat="41.5536168" lon="12.8832763"><ele>36.833333333333336</ele><time>2026-04-04T10:07:46.214Z</time></trkpt><trkpt lat="41.5536739" lon="12.883344"><ele>37.0</ele><time>2026-04-04T10:07:49.214Z</time></trkpt><trkpt lat="41.5537257" lon="12.8833995"><ele>36.833333333333336</ele><time>2026-04-04T10:07:51.213Z</time></trkpt><trkpt lat="41.553793" lon="12.8834941"><ele>36.66666666666667</ele><time>2026-04-04T10:07:54.214Z</time></trkpt><trkpt lat="41.5538459" lon="12.8835604"><ele>36.5</ele><time>2026-04-04T10:07:56.213Z</time></trkpt><trkpt lat="41.553895" lon="12.883634"><ele>36.333333333333336</ele><time>2026-04-04T10:07:58.213Z</time></trkpt><trkpt lat="41.5539442" lon="12.8837103"><ele>36.166666666666664</ele><time>2026-04-04T10:08:00.213Z</time></trkpt><trkpt lat="41.554002" lon="12.8837759"><ele>36.0</ele><time>2026-04-04T10:08:02.213Z</time></trkpt><trkpt lat="41.5540565" lon="12.8838558"><ele>36.0</ele><time>2026-04-04T10:08:04.213Z</time></trkpt><trkpt lat="41.5541064" lon="12.8839316"><ele>36.0</ele><time>2026-04-04T10:08:06.213Z</time></trkpt><trkpt lat="41.5541695" lon="12.8840107"><ele>36.0</ele><time>2026-04-04T10:08:08.213Z</time></trkpt><trkpt lat="41.5542339" lon="12.8840876"><ele>36.0</ele><time>2026-04-04T10:08:10.213Z</time></trkpt><trkpt lat="41.5543089" lon="12.8841916"><ele>36.0</ele><time>2026-04-04T10:08:12.213Z</time></trkpt><trkpt lat="41.5543694" lon="12.8842649"><ele>36.0</ele><time>2026-04-04T10:08:14.213Z</time></trkpt><trkpt lat="41.5544303" lon="12.88436"><ele>35.8</ele><time>2026-04-04T10:08:16.213Z</time></trkpt><trkpt lat="41.5545118" lon="12.8844272"><ele>35.6</ele><time>2026-04-04T10:08:18.213Z</time></trkpt><trkpt lat="41.5545901" lon="12.8845848"><ele>35.4</ele><time>2026-04-04T10:08:23.213Z</time></trkpt><trkpt lat="41.5546295" lon="12.8846704"><ele>35.2</ele><time>2026-04-04T10:08:25.213Z</time></trkpt><trkpt lat="41.554675" lon="12.8847557"><ele>35.0</ele><time>2026-04-04T10:08:27.213Z</time></trkpt><trkpt lat="41.5547199" lon="12.8848186"><ele>35.0</ele><time>2026-04-04T10:08:29.213Z</time></trkpt><trkpt lat="41.5547625" lon="12.8848969"><ele>35.0</ele><time>2026-04-04T10:08:31.213Z</time></trkpt><trkpt lat="41.5548115" lon="12.8849854"><ele>35.0</ele><time>2026-04-04T10:08:33.213Z</time></trkpt><trkpt lat="41.5548647" lon="12.8850505"><ele>35.0</ele><time>2026-04-04T10:08:35.213Z</time></trkpt><trkpt lat="41.5549486" lon="12.8851265"><ele>35.0</ele><time>2026-04-04T10:08:38.213Z</time></trkpt><trkpt lat="41.5550181" lon="12.8851423"><ele>35.0</ele><time>2026-04-04T10:08:41.213Z</time></trkpt><trkpt lat="41.5550857" lon="12.885191"><ele>34.8</ele><time>2026-04-04T10:08:43.213Z</time></trkpt><trkpt lat="41.5551546" lon="12.8853232"><ele>34.6</ele><time>2026-04-04T10:08:45.213Z</time></trkpt><trkpt lat="41.5552084" lon="12.8854019"><ele>34.4</ele><time>2026-04-04T10:08:47.213Z</time></trkpt><trkpt lat="41.5552698" lon="12.8854632"><ele>34.2</ele><time>2026-04-04T10:08:49.213Z</time></trkpt><trkpt lat="41.555358" lon="12.8855824"><ele>34.0</ele><time>2026-04-04T10:08:53.213Z</time></trkpt><trkpt lat="41.5554388" lon="12.8856537"><ele>34.4</ele><time>2026-04-04T10:08:55.213Z</time></trkpt><trkpt lat="41.5555348" lon="12.8857354"><ele>34.8</ele><time>2026-04-04T10:08:57.213Z</time></trkpt><trkpt lat="41.5556146" lon="12.8857889"><ele>35.2</ele><time>2026-04-04T10:08:59.214Z</time></trkpt><trkpt lat="41.5557047" lon="12.8858682"><ele>35.6</ele><time>2026-04-04T10:09:01.213Z</time></trkpt><trkpt lat="41.5558066" lon="12.8859424"><ele>36.0</ele><time>2026-04-04T10:09:03.213Z</time></trkpt><trkpt lat="41.555885" lon="12.886007"><ele>36.4</ele><time>2026-04-04T10:09:05.213Z</time></trkpt><trkpt lat="41.5559771" lon="12.8860666"><ele>36.8</ele><time>2026-04-04T10:09:07.213Z</time></trkpt><trkpt lat="41.5560807" lon="12.8860851"><ele>37.199999999999996</ele><time>2026-04-04T10:09:09.213Z</time></trkpt><trkpt lat="41.5561949" lon="12.8861899"><ele>37.6</ele><time>2026-04-04T10:09:12.214Z</time></trkpt><trkpt lat="41.5562608" lon="12.8862482"><ele>38.0</ele><time>2026-04-04T10:09:14.213Z</time></trkpt><trkpt lat="41.5564001" lon="12.8862388"><ele>38.0</ele><time>2026-04-04T10:09:21.213Z</time></trkpt><trkpt lat="41.5564905" lon="12.8862667"><ele>38.0</ele><time>2026-04-04T10:09:25.213Z</time></trkpt><trkpt lat="41.5565759" lon="12.8863445"><ele>38.0</ele><time>2026-04-04T10:09:28.213Z</time></trkpt><trkpt lat="41.5566307" lon="12.8864552"><ele>38.0</ele><time>2026-04-04T10:09:31.213Z</time></trkpt><trkpt lat="41.5566903" lon="12.8865133"><ele>38.0</ele><time>2026-04-04T10:09:33.213Z</time></trkpt><trkpt lat="41.5567653" lon="12.8865166"><ele>38.0</ele><time>2026-04-04T10:10:08.214Z</time></trkpt><trkpt lat="41.5566987" lon="12.8865237"><ele>38.0</ele><time>2026-04-04T10:11:07.213Z</time></trkpt><trkpt lat="41.5566551" lon="12.8864533"><ele>38.0</ele><time>2026-04-04T10:11:25.213Z</time></trkpt><trkpt lat="41.5566513" lon="12.8863592"><ele>38.0</ele><time>2026-04-04T10:11:33.213Z</time></trkpt><trkpt lat="41.5565723" lon="12.8863358"><ele>38.0</ele><time>2026-04-04T10:11:51.213Z</time></trkpt><trkpt lat="41.55655" lon="12.8862535"><ele>38.0</ele><time>2026-04-04T10:11:56.237Z</time></trkpt><trkpt lat="41.5565986" lon="12.8861994"><ele>38.0</ele><time>2026-04-04T10:12:06.134Z</time></trkpt><trkpt lat="41.5565749" lon="12.8862802"><ele>38.0</ele><time>2026-04-04T10:14:02.213Z</time></trkpt><trkpt lat="41.5566334" lon="12.8862154"><ele>38.0</ele><time>2026-04-04T10:15:57.213Z</time></trkpt><trkpt lat="41.5566981" lon="12.886229"><ele>38.0</ele><time>2026-04-04T10:16:57.213Z</time></trkpt><trkpt lat="41.5567673" lon="12.8862385"><ele>38.0</ele><time>2026-04-04T10:17:05.213Z</time></trkpt><trkpt lat="41.5568174" lon="12.8862933"><ele>38.0</ele><time>2026-04-04T10:17:14.213Z</time></trkpt><trkpt lat="41.5568521" lon="12.8863786"><ele>38.0</ele><time>2026-04-04T10:17:25.213Z</time></trkpt><trkpt lat="41.5569409" lon="12.8862852"><ele>38.0</ele><time>2026-04-04T10:18:24.138Z</time></trkpt><trkpt lat="41.5570017" lon="12.8863141"><ele>38.0</ele><time>2026-04-04T10:18:38.213Z</time></trkpt><trkpt lat="41.5570607" lon="12.8863494"><ele>38.0</ele><time>2026-04-04T10:18:50.213Z</time></trkpt><trkpt lat="41.5571206" lon="12.8863789"><ele>38.0</ele><time>2026-04-04T10:18:59.213Z</time></trkpt><trkpt lat="41.5570468" lon="12.8862991"><ele>38.0</ele><time>2026-04-04T10:19:18.213Z</time></trkpt><trkpt lat="41.5569839" lon="12.8862561"><ele>38.0</ele><time>2026-04-04T10:19:28.246Z</time></trkpt><trkpt lat="41.5569114" lon="12.886259"><ele>38.0</ele><time>2026-04-04T10:19:37.213Z</time></trkpt><trkpt lat="41.5568345" lon="12.8862469"><ele>38.0</ele><time>2026-04-04T10:19:41.213Z</time></trkpt><trkpt lat="41.5567493" lon="12.8862538"><ele>38.0</ele><time>2026-04-04T10:19:46.254Z</time></trkpt><trkpt lat="41.5567554" lon="12.886344"><ele>38.0</ele><time>2026-04-04T10:21:43.213Z</time></trkpt><trkpt lat="41.5567736" lon="12.8864282"><ele>38.0</ele><time>2026-04-04T10:21:58.213Z</time></trkpt><trkpt lat="41.5567082" lon="12.8864426"><ele>38.0</ele><time>2026-04-04T10:22:14.213Z</time></trkpt><trkpt lat="41.556654" lon="12.8863898"><ele>38.0</ele><time>2026-04-04T10:22:26.213Z</time></trkpt><trkpt lat="41.5566799" lon="12.8863092"><ele>38.0</ele><time>2026-04-04T10:22:32.214Z</time></trkpt><trkpt lat="41.556714" lon="12.8862275"><ele>38.0</ele><time>2026-04-04T10:22:43.213Z</time></trkpt><trkpt lat="41.5566788" lon="12.8863037"><ele>38.0</ele><time>2026-04-04T10:23:09.214Z</time></trkpt><trkpt lat="41.5566876" lon="12.8862184"><ele>38.0</ele><time>2026-04-04T10:23:50.279Z</time></trkpt><trkpt lat="41.5566373" lon="12.8862726"><ele>38.0</ele><time>2026-04-04T10:25:15.222Z</time></trkpt><trkpt lat="41.5565978" lon="12.8863662"><ele>38.0</ele><time>2026-04-04T10:25:21.213Z</time></trkpt><trkpt lat="41.5566072" lon="12.8864652"><ele>38.0</ele><time>2026-04-04T10:25:30.22Z</time></trkpt><trkpt lat="41.5566476" lon="12.8865337"><ele>38.0</ele><time>2026-04-04T10:25:41.13Z</time></trkpt><trkpt lat="41.556719" lon="12.8865462"><ele>38.0</ele><time>2026-04-04T10:25:49.211Z</time></trkpt><trkpt lat="41.5567836" lon="12.8865301"><ele>38.0</ele><time>2026-04-04T10:25:58.213Z</time></trkpt><trkpt lat="41.556847" lon="12.8865783"><ele>38.0</ele><time>2026-04-04T10:26:45.213Z</time></trkpt><trkpt lat="41.556778" lon="12.8865627"><ele>38.0</ele><time>2026-04-04T10:27:27.152Z</time></trkpt><trkpt lat="41.5567016" lon="12.886619"><ele>38.0</ele><time>2026-04-04T10:27:30.213Z</time></trkpt><trkpt lat="41.5567458" lon="12.8865569"><ele>38.0</ele><time>2026-04-04T10:27:43.214Z</time></trkpt><trkpt lat="41.5568139" lon="12.8865334"><ele>38.0</ele><time>2026-04-04T10:29:18.213Z</time></trkpt><trkpt lat="41.5567681" lon="12.8865988"><ele>38.0</ele><time>2026-04-04T10:32:10.213Z</time></trkpt><trkpt lat="41.5567945" lon="12.8864948"><ele>38.0</ele><time>2026-04-04T10:33:01.213Z</time></trkpt><trkpt lat="41.5566862" lon="12.8864221"><ele>38.0</ele><time>2026-04-04T10:33:05.213Z</time></trkpt><trkpt lat="41.5567039" lon="12.8862963"><ele>38.0</ele><time>2026-04-04T10:33:09.214Z</time></trkpt><trkpt lat="41.5567125" lon="12.8861983"><ele>38.0</ele><time>2026-04-04T10:33:12.213Z</time></trkpt><trkpt lat="41.55671" lon="12.8861046"><ele>38.0</ele><time>2026-04-04T10:33:16.213Z</time></trkpt><trkpt lat="41.5567809" lon="12.8860645"><ele>38.0</ele><time>2026-04-04T10:33:37.213Z</time></trkpt><trkpt lat="41.556826" lon="12.886127"><ele>38.0</ele><time>2026-04-04T10:33:41.243Z</time></trkpt><trkpt lat="41.556885" lon="12.8861846"><ele>38.0</ele><time>2026-04-04T10:33:44.213Z</time></trkpt><trkpt lat="41.556935" lon="12.8862563"><ele>38.0</ele><time>2026-04-04T10:33:49.213Z</time></trkpt><trkpt lat="41.5569705" lon="12.886336"><ele>38.0</ele><time>2026-04-04T10:33:59.214Z</time></trkpt><trkpt lat="41.5569058" lon="12.8863233"><ele>38.0</ele><time>2026-04-04T10:34:19.213Z</time></trkpt><trkpt lat="41.5568418" lon="12.8863467"><ele>38.0</ele><time>2026-04-04T10:34:24.213Z</time></trkpt><trkpt lat="41.5567649" lon="12.8863154"><ele>38.0</ele><time>2026-04-04T10:35:16.213Z</time></trkpt><trkpt lat="41.5567005" lon="12.886334"><ele>38.0</ele><time>2026-04-04T10:35:43.213Z</time></trkpt><trkpt lat="41.5567206" lon="12.8862507"><ele>38.0</ele><time>2026-04-04T10:36:37.213Z</time></trkpt><trkpt lat="41.5567252" lon="12.8863424"><ele>38.0</ele><time>2026-04-04T10:36:46.213Z</time></trkpt><trkpt lat="41.5567039" lon="12.8862506"><ele>38.0</ele><time>2026-04-04T10:37:02.213Z</time></trkpt><trkpt lat="41.5567589" lon="12.8863065"><ele>38.0</ele><time>2026-04-04T10:37:08.213Z</time></trkpt><trkpt lat="41.5567882" lon="12.8864084"><ele>38.0</ele><time>2026-04-04T10:37:10.213Z</time></trkpt><trkpt lat="41.5568372" lon="12.886464"><ele>38.0</ele><time>2026-04-04T10:37:13.214Z</time></trkpt><trkpt lat="41.5568214" lon="12.8863697"><ele>38.0</ele><time>2026-04-04T10:37:14.213Z</time></trkpt><trkpt lat="41.5567884" lon="12.8862957"><ele>38.0</ele><time>2026-04-04T10:38:01.213Z</time></trkpt><trkpt lat="41.5567552" lon="12.8863897"><ele>38.0</ele><time>2026-04-04T10:39:08.214Z</time></trkpt><trkpt lat="41.5567091" lon="12.8864577"><ele>38.0</ele><time>2026-04-04T10:39:12.213Z</time></trkpt><trkpt lat="41.5567204" lon="12.8863322"><ele>38.0</ele><time>2026-04-04T10:39:23.213Z</time></trkpt><trkpt lat="41.5567629" lon="12.886253"><ele>38.0</ele><time>2026-04-04T10:39:26.232Z</time></trkpt><trkpt lat="41.5566951" lon="12.8862198"><ele>38.0</ele><time>2026-04-04T10:40:17.213Z</time></trkpt><trkpt lat="41.556773" lon="12.8862229"><ele>38.0</ele><time>2026-04-04T10:40:35.213Z</time></trkpt><trkpt lat="41.556845" lon="12.8862471"><ele>38.0</ele><time>2026-04-04T10:40:38.213Z</time></trkpt><trkpt lat="41.5569373" lon="12.8862799"><ele>38.0</ele><time>2026-04-04T10:40:41.214Z</time></trkpt><trkpt lat="41.5570247" lon="12.8863133"><ele>38.0</ele><time>2026-04-04T10:40:44.213Z</time></trkpt><trkpt lat="41.5571117" lon="12.8863364"><ele>38.0</ele><time>2026-04-04T10:40:47.213Z</time></trkpt><trkpt lat="41.5571877" lon="12.8863653"><ele>38.14285714285714</ele><time>2026-04-04T10:40:50.213Z</time></trkpt><trkpt lat="41.557272" lon="12.8863879"><ele>38.28571428571429</ele><time>2026-04-04T10:40:54.213Z</time></trkpt><trkpt lat="41.5573485" lon="12.8864017"><ele>38.42857142857143</ele><time>2026-04-04T10:40:57.213Z</time></trkpt><trkpt lat="41.5574156" lon="12.8864238"><ele>38.57142857142857</ele><time>2026-04-04T10:40:59.213Z</time></trkpt><trkpt lat="41.5574803" lon="12.886435"><ele>38.71428571428571</ele><time>2026-04-04T10:41:02.213Z</time></trkpt><trkpt lat="41.5575556" lon="12.8864511"><ele>38.85714285714286</ele><time>2026-04-04T10:41:06.214Z</time></trkpt><trkpt lat="41.5575272" lon="12.886533"><ele>39.0</ele><time>2026-04-04T10:41:49.167Z</time></trkpt><trkpt lat="41.5574665" lon="12.8865681"><ele>39.0</ele><time>2026-04-04T10:41:51.213Z</time></trkpt><trkpt lat="41.5573804" lon="12.8865172"><ele>39.0</ele><time>2026-04-04T10:41:53.271Z</time></trkpt><trkpt lat="41.5572386" lon="12.8863676"><ele>39.0</ele><time>2026-04-04T10:41:55.214Z</time></trkpt><trkpt lat="41.5571623" lon="12.88634"><ele>39.0</ele><time>2026-04-04T10:41:57.213Z</time></trkpt><trkpt lat="41.5570766" lon="12.8863148"><ele>39.0</ele><time>2026-04-04T10:42:00.213Z</time></trkpt><trkpt lat="41.5570068" lon="12.886303"><ele>38.85714285714286</ele><time>2026-04-04T10:42:02.213Z</time></trkpt><trkpt lat="41.5569407" lon="12.8862927"><ele>38.71428571428571</ele><time>2026-04-04T10:42:04.297Z</time></trkpt><trkpt lat="41.5568505" lon="12.8862608"><ele>38.57142857142857</ele><time>2026-04-04T10:42:07.266Z</time></trkpt><trkpt lat="41.5567817" lon="12.8862461"><ele>38.42857142857143</ele><time>2026-04-04T10:42:11.213Z</time></trkpt><trkpt lat="41.5567186" lon="12.8863167"><ele>38.28571428571429</ele><time>2026-04-04T10:45:39.213Z</time></trkpt><trkpt lat="41.5566557" lon="12.8863576"><ele>38.14285714285714</ele><time>2026-04-04T10:45:42.213Z</time></trkpt><trkpt lat="41.5565918" lon="12.8863343"><ele>38.0</ele><time>2026-04-04T10:45:47.213Z</time></trkpt><trkpt lat="41.5565139" lon="12.8862777"><ele>38.0</ele><time>2026-04-04T10:48:53.213Z</time></trkpt><trkpt lat="41.5564403" lon="12.8862797"><ele>38.0</ele><time>2026-04-04T10:49:00.214Z</time></trkpt><trkpt lat="41.5563786" lon="12.8862382"><ele>38.0</ele><time>2026-04-04T10:49:03.214Z</time></trkpt><trkpt lat="41.5562972" lon="12.8861757"><ele>38.0</ele><time>2026-04-04T10:49:05.214Z</time></trkpt><trkpt lat="41.5562029" lon="12.8861181"><ele>38.0</ele><time>2026-04-04T10:49:07.213Z</time></trkpt><trkpt lat="41.5561296" lon="12.8861"><ele>38.0</ele><time>2026-04-04T10:49:09.213Z</time></trkpt><trkpt lat="41.5560603" lon="12.8860808"><ele>38.0</ele><time>2026-04-04T10:49:11.213Z</time></trkpt><trkpt lat="41.5559922" lon="12.8860309"><ele>38.0</ele><time>2026-04-04T10:49:13.213Z</time></trkpt><trkpt lat="41.5559065" lon="12.8859582"><ele>38.0</ele><time>2026-04-04T10:49:15.213Z</time></trkpt><trkpt lat="41.5558286" lon="12.8859095"><ele>38.0</ele><time>2026-04-04T10:49:17.213Z</time></trkpt><trkpt lat="41.555745" lon="12.8858623"><ele>38.0</ele><time>2026-04-04T10:49:19.214Z</time></trkpt><trkpt lat="41.5556754" lon="12.8858177"><ele>38.0</ele><time>2026-04-04T10:49:21.213Z</time></trkpt><trkpt lat="41.5556145" lon="12.8857716"><ele>37.666666666666664</ele><time>2026-04-04T10:49:23.214Z</time></trkpt><trkpt lat="41.5555465" lon="12.8857156"><ele>37.33333333333333</ele><time>2026-04-04T10:49:25.213Z</time></trkpt><trkpt lat="41.555476" lon="12.8856638"><ele>37.0</ele><time>2026-04-04T10:49:27.213Z</time></trkpt><trkpt lat="41.5553961" lon="12.8855827"><ele>36.666666666666664</ele><time>2026-04-04T10:49:31.213Z</time></trkpt><trkpt lat="41.5553426" lon="12.8855142"><ele>36.333333333333336</ele><time>2026-04-04T10:49:33.213Z</time></trkpt><trkpt lat="41.5552959" lon="12.8854421"><ele>36.0</ele><time>2026-04-04T10:49:35.213Z</time></trkpt><trkpt lat="41.5552419" lon="12.8853655"><ele>35.833333333333336</ele><time>2026-04-04T10:49:37.213Z</time></trkpt><trkpt lat="41.5551873" lon="12.8852857"><ele>35.666666666666664</ele><time>2026-04-04T10:49:39.213Z</time></trkpt><trkpt lat="41.5551396" lon="12.885226"><ele>35.5</ele><time>2026-04-04T10:49:41.213Z</time></trkpt><trkpt lat="41.5550748" lon="12.8851678"><ele>35.33333333333333</ele><time>2026-04-04T10:49:43.213Z</time></trkpt><trkpt lat="41.5550123" lon="12.8851027"><ele>35.166666666666664</ele><time>2026-04-04T10:49:45.213Z</time></trkpt><trkpt lat="41.5549482" lon="12.885037"><ele>35.0</ele><time>2026-04-04T10:49:47.213Z</time></trkpt><trkpt lat="41.5548741" lon="12.8849619"><ele>35.0</ele><time>2026-04-04T10:49:50.213Z</time></trkpt><trkpt lat="41.5548218" lon="12.8848748"><ele>35.0</ele><time>2026-04-04T10:49:52.213Z</time></trkpt><trkpt lat="41.55477" lon="12.8847905"><ele>35.0</ele><time>2026-04-04T10:49:54.214Z</time></trkpt><trkpt lat="41.5546829" lon="12.8846956"><ele>35.0</ele><time>2026-04-04T10:49:56.213Z</time></trkpt><trkpt lat="41.5546262" lon="12.8845984"><ele>35.0</ele><time>2026-04-04T10:49:58.214Z</time></trkpt><trkpt lat="41.554573" lon="12.8845273"><ele>35.0</ele><time>2026-04-04T10:50:00.213Z</time></trkpt><trkpt lat="41.5545319" lon="12.8844633"><ele>35.25</ele><time>2026-04-04T10:50:02.213Z</time></trkpt><trkpt lat="41.5543979" lon="12.8842588"><ele>35.5</ele><time>2026-04-04T10:50:34.213Z</time></trkpt><trkpt lat="41.55431" lon="12.884161"><ele>35.75</ele><time>2026-04-04T10:50:36.214Z</time></trkpt><trkpt lat="41.5542439" lon="12.8840667"><ele>36.0</ele><time>2026-04-04T10:50:38.214Z</time></trkpt><trkpt lat="41.5541807" lon="12.8839842"><ele>36.0</ele><time>2026-04-04T10:50:40.213Z</time></trkpt><trkpt lat="41.5541039" lon="12.883884"><ele>36.0</ele><time>2026-04-04T10:50:42.213Z</time></trkpt><trkpt lat="41.5540304" lon="12.8837556"><ele>36.0</ele><time>2026-04-04T10:50:44.213Z</time></trkpt><trkpt lat="41.5539558" lon="12.8836628"><ele>36.0</ele><time>2026-04-04T10:50:46.213Z</time></trkpt><trkpt lat="41.5538896" lon="12.883565"><ele>36.0</ele><time>2026-04-04T10:50:48.214Z</time></trkpt><trkpt lat="41.5538091" lon="12.8834595"><ele>36.2</ele><time>2026-04-04T10:50:50.213Z</time></trkpt><trkpt lat="41.5537312" lon="12.883345"><ele>36.400000000000006</ele><time>2026-04-04T10:50:52.213Z</time></trkpt><trkpt lat="41.5536525" lon="12.8832649"><ele>36.6</ele><time>2026-04-04T10:50:54.213Z</time></trkpt><trkpt lat="41.5535916" lon="12.8831673"><ele>36.800000000000004</ele><time>2026-04-04T10:50:56.213Z</time></trkpt><trkpt lat="41.5535384" lon="12.883069"><ele>37.0</ele><time>2026-04-04T10:50:58.213Z</time></trkpt><trkpt lat="41.5534758" lon="12.882974"><ele>37.0</ele><time>2026-04-04T10:51:00.214Z</time></trkpt><trkpt lat="41.5534127" lon="12.8828837"><ele>37.0</ele><time>2026-04-04T10:51:02.213Z</time></trkpt><trkpt lat="41.5533442" lon="12.8828018"><ele>37.0</ele><time>2026-04-04T10:51:04.213Z</time></trkpt><trkpt lat="41.5532745" lon="12.882717"><ele>37.0</ele><time>2026-04-04T10:51:06.213Z</time></trkpt><trkpt lat="41.5532083" lon="12.8826294"><ele>37.0</ele><time>2026-04-04T10:51:08.213Z</time></trkpt><trkpt lat="41.5531521" lon="12.8825716"><ele>37.0</ele><time>2026-04-04T10:51:10.213Z</time></trkpt><trkpt lat="41.5530904" lon="12.88248"><ele>36.833333333333336</ele><time>2026-04-04T10:51:12.213Z</time></trkpt><trkpt lat="41.5530229" lon="12.882394"><ele>36.66666666666667</ele><time>2026-04-04T10:51:14.213Z</time></trkpt><trkpt lat="41.552972" lon="12.8823275"><ele>36.5</ele><time>2026-04-04T10:51:16.214Z</time></trkpt><trkpt lat="41.5529203" lon="12.882225"><ele>36.333333333333336</ele><time>2026-04-04T10:51:18.213Z</time></trkpt><trkpt lat="41.5528542" lon="12.8821433"><ele>36.166666666666664</ele><time>2026-04-04T10:51:20.213Z</time></trkpt><trkpt lat="41.5527981" lon="12.8820616"><ele>36.0</ele><time>2026-04-04T10:51:22.214Z</time></trkpt><trkpt lat="41.5527293" lon="12.8819713"><ele>35.833333333333336</ele><time>2026-04-04T10:51:25.213Z</time></trkpt><trkpt lat="41.5526773" lon="12.8818777"><ele>35.666666666666664</ele><time>2026-04-04T10:51:28.214Z</time></trkpt><trkpt lat="41.5526228" lon="12.8818056"><ele>35.5</ele><time>2026-04-04T10:51:30.213Z</time></trkpt><trkpt lat="41.5525588" lon="12.8817241"><ele>35.33333333333333</ele><time>2026-04-04T10:51:32.213Z</time></trkpt><trkpt lat="41.5525004" lon="12.8816378"><ele>35.166666666666664</ele><time>2026-04-04T10:51:34.213Z</time></trkpt><trkpt lat="41.5524403" lon="12.8815628"><ele>35.0</ele><time>2026-04-04T10:51:36.214Z</time></trkpt><trkpt lat="41.5523705" lon="12.8814695"><ele>35.0</ele><time>2026-04-04T10:51:38.213Z</time></trkpt><trkpt lat="41.5523066" lon="12.8813956"><ele>35.0</ele><time>2026-04-04T10:51:40.214Z</time></trkpt><trkpt lat="41.5522512" lon="12.8813301"><ele>35.0</ele><time>2026-04-04T10:51:43.214Z</time></trkpt><trkpt lat="41.552192" lon="12.8812364"><ele>35.0</ele><time>2026-04-04T10:51:47.213Z</time></trkpt><trkpt lat="41.5521378" lon="12.8811687"><ele>35.0</ele><time>2026-04-04T10:51:49.213Z</time></trkpt><trkpt lat="41.5520851" lon="12.8810883"><ele>35.0</ele><time>2026-04-04T10:51:51.213Z</time></trkpt><trkpt lat="41.5520342" lon="12.8810026"><ele>34.666666666666664</ele><time>2026-04-04T10:51:53.213Z</time></trkpt><trkpt lat="41.5519828" lon="12.8809198"><ele>34.33333333333333</ele><time>2026-04-04T10:51:55.214Z</time></trkpt><trkpt lat="41.5519386" lon="12.8808405"><ele>34.0</ele><time>2026-04-04T10:51:57.213Z</time></trkpt><trkpt lat="41.5518686" lon="12.8807519"><ele>33.666666666666664</ele><time>2026-04-04T10:51:59.213Z</time></trkpt><trkpt lat="41.5518035" lon="12.8806794"><ele>33.333333333333336</ele><time>2026-04-04T10:52:01.213Z</time></trkpt><trkpt lat="41.5517451" lon="12.8805974"><ele>33.0</ele><time>2026-04-04T10:52:03.213Z</time></trkpt><trkpt lat="41.5516886" lon="12.8805196"><ele>33.0</ele><time>2026-04-04T10:52:05.213Z</time></trkpt><trkpt lat="41.5516298" lon="12.880443"><ele>33.0</ele><time>2026-04-04T10:52:07.213Z</time></trkpt><trkpt lat="41.5515689" lon="12.8803605"><ele>33.0</ele><time>2026-04-04T10:52:09.213Z</time></trkpt><trkpt lat="41.5515097" lon="12.8802763"><ele>33.0</ele><time>2026-04-04T10:52:11.214Z</time></trkpt><trkpt lat="41.5514431" lon="12.8801946"><ele>33.0</ele><time>2026-04-04T10:52:13.213Z</time></trkpt><trkpt lat="41.5513841" lon="12.8801356"><ele>33.0</ele><time>2026-04-04T10:52:15.213Z</time></trkpt><trkpt lat="41.5513124" lon="12.8800394"><ele>33.0</ele><time>2026-04-04T10:52:17.213Z</time></trkpt><trkpt lat="41.5512319" lon="12.8799371"><ele>33.0</ele><time>2026-04-04T10:52:19.213Z</time></trkpt><trkpt lat="41.5511719" lon="12.8798447"><ele>33.0</ele><time>2026-04-04T10:52:21.213Z</time></trkpt><trkpt lat="41.5511103" lon="12.8797305"><ele>33.0</ele><time>2026-04-04T10:52:23.214Z</time></trkpt><trkpt lat="41.5510373" lon="12.8796386"><ele>33.0</ele><time>2026-04-04T10:52:25.214Z</time></trkpt><trkpt lat="41.5509581" lon="12.87954"><ele>33.199999999999996</ele><time>2026-04-04T10:52:27.213Z</time></trkpt><trkpt lat="41.5508845" lon="12.8794396"><ele>33.4</ele><time>2026-04-04T10:52:29.214Z</time></trkpt><trkpt lat="41.5508074" lon="12.8793419"><ele>33.599999999999994</ele><time>2026-04-04T10:52:31.213Z</time></trkpt><trkpt lat="41.5507382" lon="12.8792425"><ele>33.8</ele><time>2026-04-04T10:52:33.213Z</time></trkpt><trkpt lat="41.5506635" lon="12.8791373"><ele>34.0</ele><time>2026-04-04T10:52:35.213Z</time></trkpt><trkpt lat="41.5506013" lon="12.8790385"><ele>34.0</ele><time>2026-04-04T10:52:37.213Z</time></trkpt><trkpt lat="41.5505438" lon="12.878948"><ele>34.0</ele><time>2026-04-04T10:52:39.213Z</time></trkpt><trkpt lat="41.550485" lon="12.878853"><ele>34.0</ele><time>2026-04-04T10:52:41.213Z</time></trkpt><trkpt lat="41.5504234" lon="12.8787593"><ele>34.0</ele><time>2026-04-04T10:52:43.213Z</time></trkpt><trkpt lat="41.5503742" lon="12.878648"><ele>34.0</ele><time>2026-04-04T10:52:45.213Z</time></trkpt><trkpt lat="41.5503174" lon="12.8785397"><ele>34.0</ele><time>2026-04-04T10:52:47.213Z</time></trkpt><trkpt lat="41.550257" lon="12.8784117"><ele>34.0</ele><time>2026-04-04T10:52:49.213Z</time></trkpt><trkpt lat="41.5502017" lon="12.8782853"><ele>34.0</ele><time>2026-04-04T10:52:51.214Z</time></trkpt><trkpt lat="41.550137" lon="12.878159"><ele>34.0</ele><time>2026-04-04T10:52:53.213Z</time></trkpt><trkpt lat="41.5500829" lon="12.8780345"><ele>34.0</ele><time>2026-04-04T10:52:55.213Z</time></trkpt><trkpt lat="41.55003" lon="12.8779002"><ele>34.0</ele><time>2026-04-04T10:52:57.214Z</time></trkpt><trkpt lat="41.5499903" lon="12.8777583"><ele>34.0</ele><time>2026-04-04T10:52:59.213Z</time></trkpt><trkpt lat="41.5499442" lon="12.8776357"><ele>34.0</ele><time>2026-04-04T10:53:01.213Z</time></trkpt><trkpt lat="41.5499025" lon="12.8774754"><ele>34.0</ele><time>2026-04-04T10:53:03.213Z</time></trkpt><trkpt lat="41.5498779" lon="12.8773925"><ele>34.0</ele><time>2026-04-04T10:53:04.213Z</time></trkpt><trkpt lat="41.5498598" lon="12.8772983"><ele>34.0</ele><time>2026-04-04T10:53:05.213Z</time></trkpt><trkpt lat="41.5498377" lon="12.8772143"><ele>34.0</ele><time>2026-04-04T10:53:06.214Z</time></trkpt><trkpt lat="41.5498112" lon="12.8771326"><ele>34.0</ele><time>2026-04-04T10:53:07.213Z</time></trkpt><trkpt lat="41.5497881" lon="12.8770451"><ele>34.0</ele><time>2026-04-04T10:53:08.214Z</time></trkpt><trkpt lat="41.5497617" lon="12.8769653"><ele>34.0</ele><time>2026-04-04T10:53:09.213Z</time></trkpt><trkpt lat="41.5497307" lon="12.8768167"><ele>34.0</ele><time>2026-04-04T10:53:11.213Z</time></trkpt><trkpt lat="41.5496973" lon="12.876687"><ele>33.833333333333336</ele><time>2026-04-04T10:53:13.213Z</time></trkpt><trkpt lat="41.5496768" lon="12.8765829"><ele>33.66666666666667</ele><time>2026-04-04T10:53:15.213Z</time></trkpt><trkpt lat="41.5496175" lon="12.8765441"><ele>33.5</ele><time>2026-04-04T10:53:46.213Z</time></trkpt><trkpt lat="41.5495769" lon="12.8766292"><ele>33.333333333333336</ele><time>2026-04-04T10:53:49.213Z</time></trkpt><trkpt lat="41.5495143" lon="12.8765692"><ele>33.166666666666664</ele><time>2026-04-04T10:53:54.213Z</time></trkpt><trkpt lat="41.5494895" lon="12.876468"><ele>33.0</ele><time>2026-04-04T10:53:56.213Z</time></trkpt><trkpt lat="41.5494728" lon="12.876373"><ele>33.333333333333336</ele><time>2026-04-04T10:53:58.213Z</time></trkpt><trkpt lat="41.5494539" lon="12.8762925"><ele>33.666666666666664</ele><time>2026-04-04T10:53:59.213Z</time></trkpt><trkpt lat="41.5494106" lon="12.876156"><ele>34.0</ele><time>2026-04-04T10:54:01.214Z</time></trkpt><trkpt lat="41.5493704" lon="12.875998"><ele>34.33333333333333</ele><time>2026-04-04T10:54:03.213Z</time></trkpt><trkpt lat="41.5493407" lon="12.8759101"><ele>34.666666666666664</ele><time>2026-04-04T10:54:04.213Z</time></trkpt><trkpt lat="41.5493128" lon="12.8758325"><ele>35.0</ele><time>2026-04-04T10:54:05.213Z</time></trkpt><trkpt lat="41.5492749" lon="12.8757002"><ele>35.0</ele><time>2026-04-04T10:54:07.214Z</time></trkpt><trkpt lat="41.5492224" lon="12.8755817"><ele>35.0</ele><time>2026-04-04T10:54:09.213Z</time></trkpt><trkpt lat="41.5491771" lon="12.8754239"><ele>35.0</ele><time>2026-04-04T10:54:11.213Z</time></trkpt><trkpt lat="41.5491514" lon="12.8753408"><ele>35.0</ele><time>2026-04-04T10:54:12.213Z</time></trkpt><trkpt lat="41.5491318" lon="12.8752449"><ele>35.0</ele><time>2026-04-04T10:54:13.214Z</time></trkpt><trkpt lat="41.5490961" lon="12.8751494"><ele>34.83333333333333</ele><time>2026-04-04T10:54:14.213Z</time></trkpt><trkpt lat="41.5490611" lon="12.8750581"><ele>34.666666666666664</ele><time>2026-04-04T10:54:15.213Z</time></trkpt><trkpt lat="41.5490195" lon="12.8749751"><ele>34.5</ele><time>2026-04-04T10:54:16.213Z</time></trkpt><trkpt lat="41.5489749" lon="12.8748862"><ele>34.333333333333336</ele><time>2026-04-04T10:54:17.213Z</time></trkpt><trkpt lat="41.5489264" lon="12.8747944"><ele>34.16666666666667</ele><time>2026-04-04T10:54:18.214Z</time></trkpt><trkpt lat="41.5488855" lon="12.8746791"><ele>34.0</ele><time>2026-04-04T10:54:19.213Z</time></trkpt><trkpt lat="41.5488416" lon="12.8745791"><ele>34.0</ele><time>2026-04-04T10:54:20.213Z</time></trkpt><trkpt lat="41.5487912" lon="12.8744752"><ele>34.0</ele><time>2026-04-04T10:54:21.213Z</time></trkpt><trkpt lat="41.5487428" lon="12.8743768"><ele>34.0</ele><time>2026-04-04T10:54:22.214Z</time></trkpt><trkpt lat="41.5486893" lon="12.8742717"><ele>34.0</ele><time>2026-04-04T10:54:23.213Z</time></trkpt><trkpt lat="41.548635" lon="12.874169"><ele>34.0</ele><time>2026-04-04T10:54:24.213Z</time></trkpt><trkpt lat="41.5485792" lon="12.8740576"><ele>34.2</ele><time>2026-04-04T10:54:25.214Z</time></trkpt><trkpt lat="41.5485205" lon="12.8739656"><ele>34.4</ele><time>2026-04-04T10:54:26.213Z</time></trkpt><trkpt lat="41.5484604" lon="12.8738807"><ele>34.6</ele><time>2026-04-04T10:54:27.213Z</time></trkpt><trkpt lat="41.548403" lon="12.8737919"><ele>34.8</ele><time>2026-04-04T10:54:28.214Z</time></trkpt><trkpt lat="41.5483375" lon="12.8737003"><ele>35.0</ele><time>2026-04-04T10:54:29.213Z</time></trkpt><trkpt lat="41.5482698" lon="12.8736047"><ele>35.0</ele><time>2026-04-04T10:54:30.213Z</time></trkpt><trkpt lat="41.5482008" lon="12.8735127"><ele>35.0</ele><time>2026-04-04T10:54:31.213Z</time></trkpt><trkpt lat="41.5481283" lon="12.8734157"><ele>35.0</ele><time>2026-04-04T10:54:32.213Z</time></trkpt><trkpt lat="41.548052" lon="12.8733126"><ele>35.0</ele><time>2026-04-04T10:54:33.213Z</time></trkpt><trkpt lat="41.5479794" lon="12.873216"><ele>35.0</ele><time>2026-04-04T10:54:34.214Z</time></trkpt><trkpt lat="41.5479063" lon="12.8731177"><ele>35.166666666666664</ele><time>2026-04-04T10:54:35.214Z</time></trkpt><trkpt lat="41.547844" lon="12.8730271"><ele>35.33333333333333</ele><time>2026-04-04T10:54:36.213Z</time></trkpt><trkpt lat="41.54778" lon="12.8729533"><ele>35.5</ele><time>2026-04-04T10:54:37.213Z</time></trkpt><trkpt lat="41.5477124" lon="12.8728693"><ele>35.666666666666664</ele><time>2026-04-04T10:54:38.213Z</time></trkpt><trkpt lat="41.5476492" lon="12.8727982"><ele>35.833333333333336</ele><time>2026-04-04T10:54:39.214Z</time></trkpt><trkpt lat="41.5475873" lon="12.8727382"><ele>36.0</ele><time>2026-04-04T10:54:40.213Z</time></trkpt><trkpt lat="41.5475176" lon="12.8726754"><ele>35.666666666666664</ele><time>2026-04-04T10:54:41.213Z</time></trkpt><trkpt lat="41.5474503" lon="12.8726041"><ele>35.333333333333336</ele><time>2026-04-04T10:54:42.213Z</time></trkpt><trkpt lat="41.5473922" lon="12.8725245"><ele>35.0</ele><time>2026-04-04T10:54:43.213Z</time></trkpt><trkpt lat="41.5473332" lon="12.8724207"><ele>34.66666666666667</ele><time>2026-04-04T10:54:44.213Z</time></trkpt><trkpt lat="41.5472762" lon="12.8723282"><ele>34.333333333333336</ele><time>2026-04-04T10:54:45.213Z</time></trkpt><trkpt lat="41.5472121" lon="12.8722389"><ele>34.0</ele><time>2026-04-04T10:54:46.213Z</time></trkpt><trkpt lat="41.5471528" lon="12.8721371"><ele>34.0</ele><time>2026-04-04T10:54:47.213Z</time></trkpt><trkpt lat="41.5470886" lon="12.8720461"><ele>34.0</ele><time>2026-04-04T10:54:48.213Z</time></trkpt><trkpt lat="41.5470223" lon="12.8719686"><ele>34.0</ele><time>2026-04-04T10:54:49.213Z</time></trkpt><trkpt lat="41.5469531" lon="12.8718851"><ele>34.0</ele><time>2026-04-04T10:54:50.213Z</time></trkpt><trkpt lat="41.5468841" lon="12.8717924"><ele>34.0</ele><time>2026-04-04T10:54:51.214Z</time></trkpt><trkpt lat="41.5468161" lon="12.8717115"><ele>33.8</ele><time>2026-04-04T10:54:52.213Z</time></trkpt><trkpt lat="41.5467506" lon="12.8716293"><ele>33.599999999999994</ele><time>2026-04-04T10:54:53.213Z</time></trkpt><trkpt lat="41.5466781" lon="12.871539"><ele>33.4</ele><time>2026-04-04T10:54:54.214Z</time></trkpt><trkpt lat="41.5466121" lon="12.8714527"><ele>33.199999999999996</ele><time>2026-04-04T10:54:55.213Z</time></trkpt><trkpt lat="41.5465429" lon="12.871362"><ele>33.0</ele><time>2026-04-04T10:54:56.213Z</time></trkpt><trkpt lat="41.5464729" lon="12.8712739"><ele>33.0</ele><time>2026-04-04T10:54:57.214Z</time></trkpt><trkpt lat="41.5464018" lon="12.8711842"><ele>33.0</ele><time>2026-04-04T10:54:58.213Z</time></trkpt><trkpt lat="41.5463402" lon="12.8710939"><ele>33.0</ele><time>2026-04-04T10:54:59.214Z</time></trkpt><trkpt lat="41.546266" lon="12.8709941"><ele>33.0</ele><time>2026-04-04T10:55:00.213Z</time></trkpt><trkpt lat="41.5461954" lon="12.8709028"><ele>33.0</ele><time>2026-04-04T10:55:01.213Z</time></trkpt><trkpt lat="41.5461257" lon="12.8708198"><ele>33.199999999999996</ele><time>2026-04-04T10:55:02.213Z</time></trkpt><trkpt lat="41.5460535" lon="12.8707299"><ele>33.4</ele><time>2026-04-04T10:55:03.213Z</time></trkpt><trkpt lat="41.5459869" lon="12.8706516"><ele>33.599999999999994</ele><time>2026-04-04T10:55:04.213Z</time></trkpt><trkpt lat="41.5459173" lon="12.8705708"><ele>33.8</ele><time>2026-04-04T10:55:05.213Z</time></trkpt><trkpt lat="41.5458535" lon="12.8704773"><ele>34.0</ele><time>2026-04-04T10:55:06.213Z</time></trkpt><trkpt lat="41.5457815" lon="12.8703954"><ele>34.0</ele><time>2026-04-04T10:55:07.214Z</time></trkpt><trkpt lat="41.5457149" lon="12.8703086"><ele>34.0</ele><time>2026-04-04T10:55:08.213Z</time></trkpt><trkpt lat="41.5456578" lon="12.8702261"><ele>34.0</ele><time>2026-04-04T10:55:09.214Z</time></trkpt><trkpt lat="41.5455984" lon="12.8701445"><ele>34.0</ele><time>2026-04-04T10:55:10.213Z</time></trkpt><trkpt lat="41.545543" lon="12.8700631"><ele>34.0</ele><time>2026-04-04T10:55:11.214Z</time></trkpt><trkpt lat="41.5454846" lon="12.8699816"><ele>34.0</ele><time>2026-04-04T10:55:12.213Z</time></trkpt><trkpt lat="41.5454227" lon="12.8699106"><ele>34.25</ele><time>2026-04-04T10:55:13.213Z</time></trkpt><trkpt lat="41.5452972" lon="12.8697664"><ele>34.5</ele><time>2026-04-04T10:55:15.213Z</time></trkpt><trkpt lat="41.5451642" lon="12.8696026"><ele>34.75</ele><time>2026-04-04T10:55:17.213Z</time></trkpt><trkpt lat="41.5450977" lon="12.8695248"><ele>35.0</ele><time>2026-04-04T10:55:18.213Z</time></trkpt><trkpt lat="41.5450317" lon="12.8694397"><ele>35.0</ele><time>2026-04-04T10:55:19.214Z</time></trkpt><trkpt lat="41.5449688" lon="12.8693532"><ele>35.0</ele><time>2026-04-04T10:55:20.213Z</time></trkpt><trkpt lat="41.544906" lon="12.8692644"><ele>35.0</ele><time>2026-04-04T10:55:21.213Z</time></trkpt><trkpt lat="41.5447948" lon="12.8691045"><ele>35.0</ele><time>2026-04-04T10:55:23.213Z</time></trkpt><trkpt lat="41.5446802" lon="12.868951"><ele>35.0</ele><time>2026-04-04T10:55:25.213Z</time></trkpt><trkpt lat="41.5446245" lon="12.8688829"><ele>35.0</ele><time>2026-04-04T10:55:26.213Z</time></trkpt><trkpt lat="41.5445731" lon="12.8688193"><ele>35.0</ele><time>2026-04-04T10:55:27.213Z</time></trkpt><trkpt lat="41.5444543" lon="12.8686707"><ele>35.0</ele><time>2026-04-04T10:55:30.214Z</time></trkpt><trkpt lat="41.5443491" lon="12.8685398"><ele>33.5</ele><time>2026-04-04T10:55:32.213Z</time></trkpt><trkpt lat="41.5442284" lon="12.8683771"><ele>32.0</ele><time>2026-04-04T10:55:34.213Z</time></trkpt><trkpt lat="41.5440135" lon="12.8681203"><ele>32.0</ele><time>2026-04-04T10:55:37.213Z</time></trkpt><trkpt lat="41.5439338" lon="12.868022"><ele>32.0</ele><time>2026-04-04T10:55:38.213Z</time></trkpt><trkpt lat="41.5437231" lon="12.8677442"><ele>32.0</ele><time>2026-04-04T10:55:41.214Z</time></trkpt><trkpt lat="41.5436393" lon="12.8676471"><ele>32.666666666666664</ele><time>2026-04-04T10:55:42.213Z</time></trkpt><trkpt lat="41.5435635" lon="12.8675533"><ele>33.333333333333336</ele><time>2026-04-04T10:55:43.213Z</time></trkpt><trkpt lat="41.5434125" lon="12.8673523"><ele>34.0</ele><time>2026-04-04T10:55:45.213Z</time></trkpt><trkpt lat="41.5432618" lon="12.8671637"><ele>34.0</ele><time>2026-04-04T10:55:47.213Z</time></trkpt><trkpt lat="41.5431911" lon="12.8670742"><ele>34.0</ele><time>2026-04-04T10:55:48.213Z</time></trkpt><trkpt lat="41.5431257" lon="12.8669759"><ele>34.0</ele><time>2026-04-04T10:55:49.213Z</time></trkpt><trkpt lat="41.5430781" lon="12.8669207"><ele>34.0</ele><time>2026-04-04T10:55:50.213Z</time></trkpt><trkpt lat="41.5429888" lon="12.8668371"><ele>34.0</ele><time>2026-04-04T10:55:52.214Z</time></trkpt><trkpt lat="41.542912" lon="12.8667614"><ele>34.25</ele><time>2026-04-04T10:55:54.214Z</time></trkpt><trkpt lat="41.5428086" lon="12.8666238"><ele>34.5</ele><time>2026-04-04T10:55:57.213Z</time></trkpt><trkpt lat="41.5427352" lon="12.8665102"><ele>34.75</ele><time>2026-04-04T10:55:59.213Z</time></trkpt><trkpt lat="41.5426576" lon="12.8663864"><ele>35.0</ele><time>2026-04-04T10:56:01.213Z</time></trkpt><trkpt lat="41.5426034" lon="12.8663103"><ele>35.0</ele><time>2026-04-04T10:56:03.213Z</time></trkpt><trkpt lat="41.542508" lon="12.8662225"><ele>35.0</ele><time>2026-04-04T10:56:05.214Z</time></trkpt><trkpt lat="41.5424226" lon="12.866133"><ele>35.0</ele><time>2026-04-04T10:56:07.213Z</time></trkpt><trkpt lat="41.5423414" lon="12.8660444"><ele>35.0</ele><time>2026-04-04T10:56:09.214Z</time></trkpt><trkpt lat="41.5422609" lon="12.865927"><ele>35.0</ele><time>2026-04-04T10:56:11.213Z</time></trkpt><trkpt lat="41.5421763" lon="12.8658389"><ele>34.5</ele><time>2026-04-04T10:56:13.213Z</time></trkpt><trkpt lat="41.5420825" lon="12.8657033"><ele>34.0</ele><time>2026-04-04T10:56:15.213Z</time></trkpt><trkpt lat="41.5419883" lon="12.8655882"><ele>33.5</ele><time>2026-04-04T10:56:17.213Z</time></trkpt><trkpt lat="41.5418795" lon="12.8655069"><ele>33.0</ele><time>2026-04-04T10:56:19.213Z</time></trkpt><trkpt lat="41.541773" lon="12.8653959"><ele>33.0</ele><time>2026-04-04T10:56:21.213Z</time></trkpt><trkpt lat="41.5416997" lon="12.8653437"><ele>33.0</ele><time>2026-04-04T10:56:22.214Z</time></trkpt><trkpt lat="41.541608" lon="12.8652647"><ele>33.0</ele><time>2026-04-04T10:56:24.213Z</time></trkpt><trkpt lat="41.541548" lon="12.8651729"><ele>33.0</ele><time>2026-04-04T10:56:26.213Z</time></trkpt><trkpt lat="41.5414834" lon="12.8650957"><ele>33.0</ele><time>2026-04-04T10:56:28.213Z</time></trkpt><trkpt lat="41.541423" lon="12.8650298"><ele>33.0</ele><time>2026-04-04T10:56:30.213Z</time></trkpt><trkpt lat="41.5413603" lon="12.8649754"><ele>33.199999999999996</ele><time>2026-04-04T10:56:32.213Z</time></trkpt><trkpt lat="41.54131" lon="12.8648913"><ele>33.4</ele><time>2026-04-04T10:56:34.214Z</time></trkpt><trkpt lat="41.5412262" lon="12.8648123"><ele>33.599999999999994</ele><time>2026-04-04T10:56:36.213Z</time></trkpt><trkpt lat="41.5411449" lon="12.8647318"><ele>33.8</ele><time>2026-04-04T10:56:38.214Z</time></trkpt><trkpt lat="41.5410419" lon="12.864653"><ele>34.0</ele><time>2026-04-04T10:56:40.213Z</time></trkpt><trkpt lat="41.5409457" lon="12.8645954"><ele>34.0</ele><time>2026-04-04T10:56:42.213Z</time></trkpt><trkpt lat="41.5408555" lon="12.8645169"><ele>34.0</ele><time>2026-04-04T10:56:44.213Z</time></trkpt><trkpt lat="41.5407554" lon="12.8644459"><ele>34.0</ele><time>2026-04-04T10:56:46.213Z</time></trkpt><trkpt lat="41.5406502" lon="12.8643643"><ele>34.0</ele><time>2026-04-04T10:56:48.213Z</time></trkpt><trkpt lat="41.5405636" lon="12.8642949"><ele>34.0</ele><time>2026-04-04T10:56:50.214Z</time></trkpt><trkpt lat="41.5404214" lon="12.8641917"><ele>33.25</ele><time>2026-04-04T10:56:53.213Z</time></trkpt><trkpt lat="41.5403198" lon="12.8641189"><ele>32.5</ele><time>2026-04-04T10:56:55.213Z</time></trkpt><trkpt lat="41.5402037" lon="12.864031"><ele>31.75</ele><time>2026-04-04T10:56:57.213Z</time></trkpt><trkpt lat="41.5400833" lon="12.8639629"><ele>31.0</ele><time>2026-04-04T10:56:59.214Z</time></trkpt><trkpt lat="41.5400166" lon="12.8639138"><ele>31.000000000000004</ele><time>2026-04-04T10:57:00.213Z</time></trkpt><trkpt lat="41.5399555" lon="12.8638782"><ele>31.0</ele><time>2026-04-04T10:57:01.213Z</time></trkpt><trkpt lat="41.5399042" lon="12.8638287"><ele>31.0</ele><time>2026-04-04T10:57:02.213Z</time></trkpt><trkpt lat="41.5398397" lon="12.8637967"><ele>31.0</ele><time>2026-04-04T10:57:03.214Z</time></trkpt><trkpt lat="41.5397405" lon="12.8637556"><ele>31.000000000000004</ele><time>2026-04-04T10:57:05.213Z</time></trkpt><trkpt lat="41.5396382" lon="12.8637108"><ele>31.0</ele><time>2026-04-04T10:57:07.213Z</time></trkpt><trkpt lat="41.539533" lon="12.8636483"><ele>31.0</ele><time>2026-04-04T10:57:09.213Z</time></trkpt><trkpt lat="41.5394342" lon="12.8635953"><ele>31.0</ele><time>2026-04-04T10:57:11.213Z</time></trkpt><trkpt lat="41.5393371" lon="12.8635389"><ele>31.0</ele><time>2026-04-04T10:57:13.214Z</time></trkpt><trkpt lat="41.5392296" lon="12.8634859"><ele>31.0</ele><time>2026-04-04T10:57:15.214Z</time></trkpt><trkpt lat="41.539128" lon="12.8634499"><ele>31.0</ele><time>2026-04-04T10:57:17.213Z</time></trkpt><trkpt lat="41.5390312" lon="12.8633948"><ele>31.0</ele><time>2026-04-04T10:57:19.213Z</time></trkpt><trkpt lat="41.538966" lon="12.8633677"><ele>31.0</ele><time>2026-04-04T10:57:20.213Z</time></trkpt><trkpt lat="41.5388719" lon="12.8632946"><ele>31.0</ele><time>2026-04-04T10:57:22.213Z</time></trkpt><trkpt lat="41.5387644" lon="12.8632415"><ele>31.0</ele><time>2026-04-04T10:57:24.213Z</time></trkpt><trkpt lat="41.5386693" lon="12.8631939"><ele>31.0</ele><time>2026-04-04T10:57:26.213Z</time></trkpt><trkpt lat="41.5385732" lon="12.8631529"><ele>31.75</ele><time>2026-04-04T10:57:28.213Z</time></trkpt><trkpt lat="41.5384664" lon="12.8630912"><ele>32.5</ele><time>2026-04-04T10:57:30.214Z</time></trkpt><trkpt lat="41.5383998" lon="12.8630556"><ele>33.25</ele><time>2026-04-04T10:57:31.214Z</time></trkpt><trkpt lat="41.5382252" lon="12.8629775"><ele>34.0</ele><time>2026-04-04T10:57:34.213Z</time></trkpt><trkpt lat="41.5380689" lon="12.8628989"><ele>34.0</ele><time>2026-04-04T10:57:37.213Z</time></trkpt><trkpt lat="41.5379655" lon="12.8628462"><ele>34.0</ele><time>2026-04-04T10:57:39.213Z</time></trkpt><trkpt lat="41.5378537" lon="12.8628011"><ele>34.0</ele><time>2026-04-04T10:57:41.213Z</time></trkpt><trkpt lat="41.5377883" lon="12.8627737"><ele>34.0</ele><time>2026-04-04T10:57:42.213Z</time></trkpt><trkpt lat="41.5376763" lon="12.862715"><ele>34.0</ele><time>2026-04-04T10:57:44.213Z</time></trkpt><trkpt lat="41.5375858" lon="12.8626644"><ele>34.2</ele><time>2026-04-04T10:57:46.213Z</time></trkpt><trkpt lat="41.5374997" lon="12.8626236"><ele>34.4</ele><time>2026-04-04T10:57:48.213Z</time></trkpt><trkpt lat="41.5374095" lon="12.8625871"><ele>34.6</ele><time>2026-04-04T10:57:50.213Z</time></trkpt><trkpt lat="41.5373239" lon="12.8625396"><ele>34.8</ele><time>2026-04-04T10:57:52.213Z</time></trkpt><trkpt lat="41.5372351" lon="12.8624934"><ele>35.0</ele><time>2026-04-04T10:57:54.214Z</time></trkpt><trkpt lat="41.5371205" lon="12.8624376"><ele>34.0</ele><time>2026-04-04T10:57:56.214Z</time></trkpt><trkpt lat="41.5370011" lon="12.8623775"><ele>33.0</ele><time>2026-04-04T10:57:58.213Z</time></trkpt><trkpt lat="41.5368912" lon="12.8623269"><ele>32.0</ele><time>2026-04-04T10:58:00.213Z</time></trkpt><trkpt lat="41.5367322" lon="12.8622369"><ele>31.0</ele><time>2026-04-04T10:58:03.213Z</time></trkpt><trkpt lat="41.536626" lon="12.8621839"><ele>31.0</ele><time>2026-04-04T10:58:05.213Z</time></trkpt><trkpt lat="41.5365105" lon="12.8621127"><ele>31.0</ele><time>2026-04-04T10:58:07.213Z</time></trkpt><trkpt lat="41.5364497" lon="12.8620819"><ele>31.0</ele><time>2026-04-04T10:58:08.213Z</time></trkpt><trkpt lat="41.5363892" lon="12.862038"><ele>31.0</ele><time>2026-04-04T10:58:09.213Z</time></trkpt><trkpt lat="41.5362842" lon="12.8619882"><ele>31.0</ele><time>2026-04-04T10:58:11.214Z</time></trkpt><trkpt lat="41.5361646" lon="12.8619234"><ele>31.25</ele><time>2026-04-04T10:58:13.213Z</time></trkpt><trkpt lat="41.5360596" lon="12.8618663"><ele>31.5</ele><time>2026-04-04T10:58:15.213Z</time></trkpt><trkpt lat="41.5359021" lon="12.8617993"><ele>31.75</ele><time>2026-04-04T10:58:18.213Z</time></trkpt><trkpt lat="41.5358398" lon="12.8617665"><ele>32.0</ele><time>2026-04-04T10:58:19.213Z</time></trkpt><trkpt lat="41.5357285" lon="12.861715"><ele>31.5</ele><time>2026-04-04T10:58:21.213Z</time></trkpt><trkpt lat="41.5356678" lon="12.8616833"><ele>31.0</ele><time>2026-04-04T10:58:22.213Z</time></trkpt><trkpt lat="41.5355524" lon="12.8616228"><ele>30.5</ele><time>2026-04-04T10:58:24.214Z</time></trkpt><trkpt lat="41.5354443" lon="12.86157"><ele>30.0</ele><time>2026-04-04T10:58:26.213Z</time></trkpt><trkpt lat="41.5352718" lon="12.8614749"><ele>31.0</ele><time>2026-04-04T10:58:29.214Z</time></trkpt><trkpt lat="41.5351571" lon="12.8614165"><ele>32.0</ele><time>2026-04-04T10:58:31.214Z</time></trkpt><trkpt lat="41.53498" lon="12.8613486"><ele>33.0</ele><time>2026-04-04T10:58:34.213Z</time></trkpt><trkpt lat="41.5348654" lon="12.8612916"><ele>34.0</ele><time>2026-04-04T10:58:36.213Z</time></trkpt><trkpt lat="41.5347649" lon="12.861253"><ele>34.0</ele><time>2026-04-04T10:58:38.213Z</time></trkpt><trkpt lat="41.5346803" lon="12.8611986"><ele>34.0</ele><time>2026-04-04T10:58:40.213Z</time></trkpt><trkpt lat="41.534592" lon="12.8611338"><ele>34.0</ele><time>2026-04-04T10:58:42.213Z</time></trkpt><trkpt lat="41.5345034" lon="12.8610982"><ele>34.0</ele><time>2026-04-04T10:58:44.214Z</time></trkpt><trkpt lat="41.5344261" lon="12.861066"><ele>34.0</ele><time>2026-04-04T10:58:46.213Z</time></trkpt><trkpt lat="41.5343639" lon="12.8610353"><ele>34.0</ele><time>2026-04-04T10:58:48.213Z</time></trkpt><trkpt lat="41.5342952" lon="12.8610177"><ele>33.6</ele><time>2026-04-04T10:58:50.213Z</time></trkpt><trkpt lat="41.5342228" lon="12.8610048"><ele>33.2</ele><time>2026-04-04T10:58:52.213Z</time></trkpt><trkpt lat="41.5341206" lon="12.8609741"><ele>32.800000000000004</ele><time>2026-04-04T10:58:54.213Z</time></trkpt><trkpt lat="41.5339874" lon="12.8609525"><ele>32.4</ele><time>2026-04-04T10:58:56.213Z</time></trkpt><trkpt lat="41.5338751" lon="12.860894"><ele>32.0</ele><time>2026-04-04T10:58:58.213Z</time></trkpt><trkpt lat="41.5338078" lon="12.8608587"><ele>32.0</ele><time>2026-04-04T10:58:59.213Z</time></trkpt><trkpt lat="41.5337456" lon="12.8608257"><ele>32.0</ele><time>2026-04-04T10:59:00.213Z</time></trkpt><trkpt lat="41.5336056" lon="12.8607628"><ele>32.0</ele><time>2026-04-04T10:59:02.214Z</time></trkpt><trkpt lat="41.533539" lon="12.8607215"><ele>32.0</ele><time>2026-04-04T10:59:03.213Z</time></trkpt><trkpt lat="41.533475" lon="12.8606983"><ele>32.0</ele><time>2026-04-04T10:59:04.213Z</time></trkpt><trkpt lat="41.5333608" lon="12.8606284"><ele>31.999999999999996</ele><time>2026-04-04T10:59:06.213Z</time></trkpt><trkpt lat="41.5332836" lon="12.8606227"><ele>32.0</ele><time>2026-04-04T10:59:07.214Z</time></trkpt><trkpt lat="41.5332123" lon="12.8605973"><ele>32.0</ele><time>2026-04-04T10:59:08.213Z</time></trkpt><trkpt lat="41.5330874" lon="12.8605194"><ele>32.0</ele><time>2026-04-04T10:59:10.213Z</time></trkpt><trkpt lat="41.5330197" lon="12.8604815"><ele>31.999999999999996</ele><time>2026-04-04T10:59:11.213Z</time></trkpt><trkpt lat="41.5329557" lon="12.8604347"><ele>32.0</ele><time>2026-04-04T10:59:12.214Z</time></trkpt><trkpt lat="41.5328139" lon="12.8603801"><ele>32.0</ele><time>2026-04-04T10:59:14.213Z</time></trkpt><trkpt lat="41.5326825" lon="12.8602957"><ele>32.0</ele><time>2026-04-04T10:59:16.213Z</time></trkpt><trkpt lat="41.5326165" lon="12.8602708"><ele>32.0</ele><time>2026-04-04T10:59:17.214Z</time></trkpt><trkpt lat="41.5325045" lon="12.8602215"><ele>32.0</ele><time>2026-04-04T10:59:19.213Z</time></trkpt><trkpt lat="41.5324124" lon="12.8601762"><ele>32.0</ele><time>2026-04-04T10:59:21.213Z</time></trkpt><trkpt lat="41.5323455" lon="12.860141"><ele>31.75</ele><time>2026-04-04T10:59:24.214Z</time></trkpt><trkpt lat="41.5323816" lon="12.8599265"><ele>31.5</ele><time>2026-04-04T10:59:33.214Z</time></trkpt><trkpt lat="41.5324263" lon="12.8598226"><ele>31.25</ele><time>2026-04-04T10:59:34.213Z</time></trkpt><trkpt lat="41.5324475" lon="12.8596601"><ele>31.0</ele><time>2026-04-04T10:59:35.213Z</time></trkpt><trkpt lat="41.5325092" lon="12.859445"><ele>31.0</ele><time>2026-04-04T10:59:37.213Z</time></trkpt><trkpt lat="41.5325345" lon="12.8593535"><ele>31.0</ele><time>2026-04-04T10:59:38.213Z</time></trkpt><trkpt lat="41.5325888" lon="12.8594071"><ele>31.0</ele><time>2026-04-04T10:59:43.213Z</time></trkpt><trkpt lat="41.5326958" lon="12.8594685"><ele>31.0</ele><time>2026-04-04T10:59:47.213Z</time></trkpt><trkpt lat="41.5327887" lon="12.8595072"><ele>31.0</ele><time>2026-04-04T10:59:49.213Z</time></trkpt><trkpt lat="41.5329047" lon="12.8595511"><ele>31.0</ele><time>2026-04-04T10:59:51.213Z</time></trkpt><trkpt lat="41.5329693" lon="12.8595792"><ele>31.000000000000004</ele><time>2026-04-04T10:59:55.213Z</time></trkpt><trkpt lat="41.5330545" lon="12.8596003"><ele>31.0</ele><time>2026-04-04T11:00:02.213Z</time></trkpt><trkpt lat="41.5331267" lon="12.8596365"><ele>31.0</ele><time>2026-04-04T11:00:04.213Z</time></trkpt><trkpt lat="41.5331873" lon="12.8596819"><ele>31.000000000000004</ele><time>2026-04-04T11:00:06.213Z</time></trkpt><trkpt lat="41.5332541" lon="12.8596623"><ele>31.0</ele><time>2026-04-04T11:00:12.213Z</time></trkpt><trkpt lat="41.5332269" lon="12.8597477"><ele>31.0</ele><time>2026-04-04T11:00:47.213Z</time></trkpt><trkpt lat="41.5332551" lon="12.8598302"><ele>31.000000000000004</ele><time>2026-04-04T11:00:51.213Z</time></trkpt><trkpt lat="41.5333359" lon="12.8598451"><ele>31.0</ele><time>2026-04-04T11:00:56.213Z</time></trkpt><trkpt lat="41.5333974" lon="12.8598865"><ele>31.0</ele><time>2026-04-04T11:00:58.213Z</time></trkpt><trkpt lat="41.5334669" lon="12.859956"><ele>31.0</ele><time>2026-04-04T11:01:01.213Z</time></trkpt><trkpt lat="41.5335476" lon="12.8599917"><ele>31.000000000000004</ele><time>2026-04-04T11:01:03.213Z</time></trkpt><trkpt lat="41.53365" lon="12.8600376"><ele>31.0</ele><time>2026-04-04T11:01:05.213Z</time></trkpt><trkpt lat="41.5337346" lon="12.8600913"><ele>31.200000000000003</ele><time>2026-04-04T11:01:07.213Z</time></trkpt><trkpt lat="41.533876" lon="12.8601629"><ele>31.400000000000002</ele><time>2026-04-04T11:01:10.213Z</time></trkpt><trkpt lat="41.5339518" lon="12.8602037"><ele>31.6</ele><time>2026-04-04T11:01:12.213Z</time></trkpt><trkpt lat="41.5340369" lon="12.8602392"><ele>31.8</ele><time>2026-04-04T11:01:14.213Z</time></trkpt><trkpt lat="41.5341462" lon="12.8602923"><ele>32.0</ele><time>2026-04-04T11:01:17.213Z</time></trkpt><trkpt lat="41.5342079" lon="12.8603211"><ele>32.0</ele><time>2026-04-04T11:01:19.213Z</time></trkpt><trkpt lat="41.5342291" lon="12.8604063"><ele>31.999999999999996</ele><time>2026-04-04T11:01:28.213Z</time></trkpt><trkpt lat="41.5341581" lon="12.8604127"><ele>32.0</ele><time>2026-04-04T11:01:41.213Z</time></trkpt><trkpt lat="41.5340915" lon="12.8604322"><ele>32.0</ele><time>2026-04-04T11:02:04.213Z</time></trkpt><trkpt lat="41.5341269" lon="12.8605055"><ele>31.999999999999996</ele><time>2026-04-04T11:04:08.213Z</time></trkpt><trkpt lat="41.5340585" lon="12.8604976"><ele>32.0</ele><time>2026-04-04T11:05:24.213Z</time></trkpt><trkpt lat="41.5340555" lon="12.8606126"><ele>32.0</ele><time>2026-04-04T11:06:31.213Z</time></trkpt><trkpt lat="41.5340591" lon="12.8604884"><ele>32.0</ele><time>2026-04-04T11:07:00.234Z</time></trkpt><trkpt lat="41.534128" lon="12.8605265"><ele>31.999999999999996</ele><time>2026-04-04T11:07:14.233Z</time></trkpt><trkpt lat="41.5342116" lon="12.8605186"><ele>32.0</ele><time>2026-04-04T11:07:36.213Z</time></trkpt><trkpt lat="41.5342746" lon="12.8604926"><ele>32.0</ele><time>2026-04-04T11:07:46.214Z</time></trkpt><trkpt lat="41.5342095" lon="12.8605349"><ele>31.999999999999996</ele><time>2026-04-04T11:08:38.213Z</time></trkpt><trkpt lat="41.5341563" lon="12.8604781"><ele>32.0</ele><time>2026-04-04T11:10:35.213Z</time></trkpt><trkpt lat="41.5340946" lon="12.8604482"><ele>32.0</ele><time>2026-04-04T11:10:44.213Z</time></trkpt><trkpt lat="41.5340541" lon="12.8603795"><ele>32.0</ele><time>2026-04-04T11:12:19.213Z</time></trkpt><trkpt lat="41.5339631" lon="12.8603395"><ele>32.0</ele><time>2026-04-04T11:12:21.213Z</time></trkpt><trkpt lat="41.5338508" lon="12.8602896"><ele>32.0</ele><time>2026-04-04T11:12:23.213Z</time></trkpt><trkpt lat="41.5337869" lon="12.8602617"><ele>32.0</ele><time>2026-04-04T11:12:24.213Z</time></trkpt><trkpt lat="41.5337279" lon="12.8602287"><ele>32.0</ele><time>2026-04-04T11:12:25.213Z</time></trkpt><trkpt lat="41.5336161" lon="12.860188"><ele>31.75</ele><time>2026-04-04T11:12:27.214Z</time></trkpt><trkpt lat="41.5335054" lon="12.8601301"><ele>31.5</ele><time>2026-04-04T11:12:29.213Z</time></trkpt><trkpt lat="41.5334099" lon="12.8600818"><ele>31.25</ele><time>2026-04-04T11:12:31.213Z</time></trkpt><trkpt lat="41.5332656" lon="12.8599962"><ele>31.0</ele><time>2026-04-04T11:12:34.213Z</time></trkpt><trkpt lat="41.5331466" lon="12.8599331"><ele>31.0</ele><time>2026-04-04T11:12:36.213Z</time></trkpt><trkpt lat="41.5330283" lon="12.8598653"><ele>31.0</ele><time>2026-04-04T11:12:38.213Z</time></trkpt><trkpt lat="41.5329632" lon="12.85984"><ele>31.0</ele><time>2026-04-04T11:12:39.214Z</time></trkpt><trkpt lat="41.5328585" lon="12.8597917"><ele>31.0</ele><time>2026-04-04T11:12:41.213Z</time></trkpt><trkpt lat="41.5327814" lon="12.8597479"><ele>31.0</ele><time>2026-04-04T11:12:43.213Z</time></trkpt><trkpt lat="41.5327093" lon="12.8597273"><ele>31.0</ele><time>2026-04-04T11:12:45.214Z</time></trkpt><trkpt lat="41.5326046" lon="12.8596751"><ele>31.0</ele><time>2026-04-04T11:12:47.213Z</time></trkpt><trkpt lat="41.5325449" lon="12.8596357"><ele>31.0</ele><time>2026-04-04T11:12:48.213Z</time></trkpt><trkpt lat="41.5323354" lon="12.8595503"><ele>31.0</ele><time>2026-04-04T11:12:51.213Z</time></trkpt><trkpt lat="41.5322605" lon="12.8595106"><ele>31.0</ele><time>2026-04-04T11:12:52.214Z</time></trkpt><trkpt lat="41.5321261" lon="12.8594443"><ele>31.0</ele><time>2026-04-04T11:12:53.213Z</time></trkpt><trkpt lat="41.5320394" lon="12.8593932"><ele>31.0</ele><time>2026-04-04T11:12:54.213Z</time></trkpt><trkpt lat="41.5319485" lon="12.8593448"><ele>31.0</ele><time>2026-04-04T11:12:55.213Z</time></trkpt><trkpt lat="41.5318627" lon="12.8593019"><ele>31.0</ele><time>2026-04-04T11:12:56.213Z</time></trkpt><trkpt lat="41.5317969" lon="12.8592677"><ele>31.0</ele><time>2026-04-04T11:12:57.214Z</time></trkpt><trkpt lat="41.5317238" lon="12.8592265"><ele>31.000000000000004</ele><time>2026-04-04T11:12:58.213Z</time></trkpt><trkpt lat="41.531649" lon="12.859187"><ele>31.0</ele><time>2026-04-04T11:12:59.213Z</time></trkpt><trkpt lat="41.5315789" lon="12.8591456"><ele>31.0</ele><time>2026-04-04T11:13:00.213Z</time></trkpt><trkpt lat="41.5315096" lon="12.85911"><ele>31.000000000000004</ele><time>2026-04-04T11:13:01.214Z</time></trkpt><trkpt lat="41.5314438" lon="12.8590748"><ele>31.0</ele><time>2026-04-04T11:13:02.213Z</time></trkpt><trkpt lat="41.5313827" lon="12.8590477"><ele>31.0</ele><time>2026-04-04T11:13:03.214Z</time></trkpt><trkpt lat="41.5313059" lon="12.8589905"><ele>31.000000000000004</ele><time>2026-04-04T11:13:05.214Z</time></trkpt><trkpt lat="41.5312447" lon="12.8589536"><ele>31.0</ele><time>2026-04-04T11:13:08.213Z</time></trkpt><trkpt lat="41.5312167" lon="12.8590746"><ele>31.0</ele><time>2026-04-04T11:13:15.214Z</time></trkpt><trkpt lat="41.5311907" lon="12.8591616"><ele>31.0</ele><time>2026-04-04T11:13:17.214Z</time></trkpt><trkpt lat="41.5311789" lon="12.8592733"><ele>31.000000000000004</ele><time>2026-04-04T11:13:19.213Z</time></trkpt><trkpt lat="41.5312091" lon="12.8594151"><ele>31.0</ele><time>2026-04-04T11:13:21.213Z</time></trkpt><trkpt lat="41.5312158" lon="12.8595294"><ele>31.333333333333336</ele><time>2026-04-04T11:13:23.213Z</time></trkpt><trkpt lat="41.5311951" lon="12.8596266"><ele>31.666666666666668</ele><time>2026-04-04T11:13:25.213Z</time></trkpt><trkpt lat="41.5311239" lon="12.8595696"><ele>32.0</ele><time>2026-04-04T11:13:28.213Z</time></trkpt><trkpt lat="41.5310547" lon="12.8594961"><ele>32.333333333333336</ele><time>2026-04-04T11:13:31.214Z</time></trkpt><trkpt lat="41.5309845" lon="12.8594638"><ele>32.666666666666664</ele><time>2026-04-04T11:13:33.213Z</time></trkpt><trkpt lat="41.530919" lon="12.8594345"><ele>33.0</ele><time>2026-04-04T11:13:35.213Z</time></trkpt><trkpt lat="41.5308461" lon="12.859393"><ele>33.0</ele><time>2026-04-04T11:13:54.213Z</time></trkpt><trkpt lat="41.5306782" lon="12.8593054"><ele>33.0</ele><time>2026-04-04T11:13:57.214Z</time></trkpt><trkpt lat="41.5306183" lon="12.8592751"><ele>33.0</ele><time>2026-04-04T11:13:58.213Z</time></trkpt><trkpt lat="41.5304993" lon="12.8592258"><ele>33.0</ele><time>2026-04-04T11:14:00.213Z</time></trkpt><trkpt lat="41.5304268" lon="12.8591991"><ele>33.0</ele><time>2026-04-04T11:14:01.213Z</time></trkpt><trkpt lat="41.5303548" lon="12.8591618"><ele>33.0</ele><time>2026-04-04T11:14:02.214Z</time></trkpt><trkpt lat="41.5302836" lon="12.8591318"><ele>33.0</ele><time>2026-04-04T11:14:03.214Z</time></trkpt><trkpt lat="41.5302163" lon="12.8590966"><ele>33.0</ele><time>2026-04-04T11:14:04.213Z</time></trkpt><trkpt lat="41.5301504" lon="12.85907"><ele>33.0</ele><time>2026-04-04T11:14:05.213Z</time></trkpt><trkpt lat="41.5300474" lon="12.8590209"><ele>33.0</ele><time>2026-04-04T11:14:07.213Z</time></trkpt><trkpt lat="41.5299868" lon="12.8589913"><ele>33.0</ele><time>2026-04-04T11:14:08.213Z</time></trkpt><trkpt lat="41.529856" lon="12.8589259"><ele>33.0</ele><time>2026-04-04T11:14:10.213Z</time></trkpt><trkpt lat="41.5297862" lon="12.858888"><ele>33.0</ele><time>2026-04-04T11:14:11.213Z</time></trkpt><trkpt lat="41.5297083" lon="12.858857"><ele>33.0</ele><time>2026-04-04T11:14:12.213Z</time></trkpt><trkpt lat="41.5296387" lon="12.8588118"><ele>33.0</ele><time>2026-04-04T11:14:13.213Z</time></trkpt><trkpt lat="41.5295629" lon="12.8587622"><ele>33.0</ele><time>2026-04-04T11:14:14.214Z</time></trkpt><trkpt lat="41.5294909" lon="12.8587195"><ele>33.0</ele><time>2026-04-04T11:14:15.213Z</time></trkpt><trkpt lat="41.5294193" lon="12.8586855"><ele>32.8</ele><time>2026-04-04T11:14:16.213Z</time></trkpt><trkpt lat="41.5293483" lon="12.8586464"><ele>32.599999999999994</ele><time>2026-04-04T11:14:17.214Z</time></trkpt><trkpt lat="41.5292861" lon="12.8586126"><ele>32.400000000000006</ele><time>2026-04-04T11:14:18.213Z</time></trkpt><trkpt lat="41.5291699" lon="12.8585517"><ele>32.2</ele><time>2026-04-04T11:14:20.214Z</time></trkpt><trkpt lat="41.5290598" lon="12.8584863"><ele>32.0</ele><time>2026-04-04T11:14:22.214Z</time></trkpt><trkpt lat="41.5289677" lon="12.8584428"><ele>31.6</ele><time>2026-04-04T11:14:23.213Z</time></trkpt><trkpt lat="41.5288915" lon="12.8584048"><ele>31.200000000000003</ele><time>2026-04-04T11:14:24.213Z</time></trkpt><trkpt lat="41.5288056" lon="12.8583571"><ele>30.8</ele><time>2026-04-04T11:14:25.213Z</time></trkpt><trkpt lat="41.5287094" lon="12.8583202"><ele>30.4</ele><time>2026-04-04T11:14:26.214Z</time></trkpt><trkpt lat="41.5286119" lon="12.8582819"><ele>30.0</ele><time>2026-04-04T11:14:27.213Z</time></trkpt><trkpt lat="41.5285125" lon="12.8582281"><ele>30.8</ele><time>2026-04-04T11:14:28.214Z</time></trkpt><trkpt lat="41.5284156" lon="12.8581742"><ele>31.6</ele><time>2026-04-04T11:14:29.213Z</time></trkpt><trkpt lat="41.5282974" lon="12.8581206"><ele>32.4</ele><time>2026-04-04T11:14:30.213Z</time></trkpt><trkpt lat="41.5281991" lon="12.8580787"><ele>33.2</ele><time>2026-04-04T11:14:31.213Z</time></trkpt><trkpt lat="41.5281092" lon="12.8580369"><ele>34.0</ele><time>2026-04-04T11:14:32.213Z</time></trkpt><trkpt lat="41.5280161" lon="12.857995"><ele>34.0</ele><time>2026-04-04T11:14:33.214Z</time></trkpt><trkpt lat="41.5279294" lon="12.8579514"><ele>34.0</ele><time>2026-04-04T11:14:34.213Z</time></trkpt><trkpt lat="41.527842" lon="12.8579007"><ele>34.0</ele><time>2026-04-04T11:14:35.213Z</time></trkpt><trkpt lat="41.5277592" lon="12.8578522"><ele>34.0</ele><time>2026-04-04T11:14:36.213Z</time></trkpt><trkpt lat="41.527668" lon="12.8577964"><ele>34.0</ele><time>2026-04-04T11:14:37.213Z</time></trkpt><trkpt lat="41.5275792" lon="12.8577455"><ele>34.0</ele><time>2026-04-04T11:14:38.213Z</time></trkpt><trkpt lat="41.5274874" lon="12.8577038"><ele>34.0</ele><time>2026-04-04T11:14:39.213Z</time></trkpt><trkpt lat="41.5273932" lon="12.8576647"><ele>34.0</ele><time>2026-04-04T11:14:40.213Z</time></trkpt><trkpt lat="41.5273023" lon="12.8576183"><ele>34.0</ele><time>2026-04-04T11:14:41.214Z</time></trkpt><trkpt lat="41.5272092" lon="12.8575718"><ele>34.0</ele><time>2026-04-04T11:14:42.213Z</time></trkpt><trkpt lat="41.5271154" lon="12.85752"><ele>34.2</ele><time>2026-04-04T11:14:43.213Z</time></trkpt><trkpt lat="41.5270248" lon="12.8574676"><ele>34.4</ele><time>2026-04-04T11:14:44.213Z</time></trkpt><trkpt lat="41.526936" lon="12.8573999"><ele>34.6</ele><time>2026-04-04T11:14:45.213Z</time></trkpt><trkpt lat="41.5268396" lon="12.8573335"><ele>34.8</ele><time>2026-04-04T11:14:46.213Z</time></trkpt><trkpt lat="41.5267643" lon="12.8572683"><ele>35.0</ele><time>2026-04-04T11:14:47.213Z</time></trkpt><trkpt lat="41.5266891" lon="12.857204"><ele>35.0</ele><time>2026-04-04T11:14:48.214Z</time></trkpt><trkpt lat="41.526606" lon="12.8571236"><ele>35.0</ele><time>2026-04-04T11:14:49.213Z</time></trkpt><trkpt lat="41.5265098" lon="12.8570363"><ele>35.0</ele><time>2026-04-04T11:14:50.213Z</time></trkpt><trkpt lat="41.5264263" lon="12.8569645"><ele>35.0</ele><time>2026-04-04T11:14:51.214Z</time></trkpt><trkpt lat="41.5263482" lon="12.8568836"><ele>35.0</ele><time>2026-04-04T11:14:52.213Z</time></trkpt><trkpt lat="41.5262656" lon="12.8567981"><ele>34.4</ele><time>2026-04-04T11:14:53.213Z</time></trkpt><trkpt lat="41.5261971" lon="12.8567151"><ele>33.8</ele><time>2026-04-04T11:14:54.213Z</time></trkpt><trkpt lat="41.526117" lon="12.8566142"><ele>33.2</ele><time>2026-04-04T11:14:55.213Z</time></trkpt><trkpt lat="41.5260319" lon="12.8564946"><ele>32.6</ele><time>2026-04-04T11:14:56.213Z</time></trkpt><trkpt lat="41.5259572" lon="12.8563798"><ele>32.0</ele><time>2026-04-04T11:14:57.213Z</time></trkpt><trkpt lat="41.525884" lon="12.8562682"><ele>32.0</ele><time>2026-04-04T11:14:58.213Z</time></trkpt><trkpt lat="41.5258113" lon="12.8561683"><ele>32.0</ele><time>2026-04-04T11:14:59.213Z</time></trkpt><trkpt lat="41.5257398" lon="12.8560672"><ele>32.0</ele><time>2026-04-04T11:15:00.213Z</time></trkpt><trkpt lat="41.5256636" lon="12.8559713"><ele>32.0</ele><time>2026-04-04T11:15:01.214Z</time></trkpt><trkpt lat="41.5255888" lon="12.8558866"><ele>32.0</ele><time>2026-04-04T11:15:02.213Z</time></trkpt><trkpt lat="41.5255203" lon="12.8558036"><ele>31.8</ele><time>2026-04-04T11:15:03.214Z</time></trkpt><trkpt lat="41.5254506" lon="12.8557095"><ele>31.6</ele><time>2026-04-04T11:15:04.213Z</time></trkpt><trkpt lat="41.5253778" lon="12.8556139"><ele>31.400000000000002</ele><time>2026-04-04T11:15:05.213Z</time></trkpt><trkpt lat="41.5252993" lon="12.8555055"><ele>31.200000000000003</ele><time>2026-04-04T11:15:06.213Z</time></trkpt><trkpt lat="41.525215" lon="12.8553846"><ele>31.0</ele><time>2026-04-04T11:15:07.213Z</time></trkpt><trkpt lat="41.5251343" lon="12.8552768"><ele>31.0</ele><time>2026-04-04T11:15:08.213Z</time></trkpt><trkpt lat="41.5250553" lon="12.8551604"><ele>31.0</ele><time>2026-04-04T11:15:09.214Z</time></trkpt><trkpt lat="41.5249877" lon="12.8550515"><ele>31.0</ele><time>2026-04-04T11:15:10.213Z</time></trkpt><trkpt lat="41.5249209" lon="12.8549391"><ele>31.0</ele><time>2026-04-04T11:15:11.213Z</time></trkpt><trkpt lat="41.524846" lon="12.8548299"><ele>31.0</ele><time>2026-04-04T11:15:12.213Z</time></trkpt><trkpt lat="41.5247615" lon="12.8547201"><ele>30.8</ele><time>2026-04-04T11:15:13.213Z</time></trkpt><trkpt lat="41.5246813" lon="12.8546092"><ele>30.6</ele><time>2026-04-04T11:15:14.213Z</time></trkpt><trkpt lat="41.5246" lon="12.8545037"><ele>30.4</ele><time>2026-04-04T11:15:15.214Z</time></trkpt><trkpt lat="41.5245246" lon="12.8544034"><ele>30.2</ele><time>2026-04-04T11:15:16.213Z</time></trkpt><trkpt lat="41.5244435" lon="12.8543036"><ele>30.0</ele><time>2026-04-04T11:15:17.213Z</time></trkpt><trkpt lat="41.5243674" lon="12.8542064"><ele>29.8</ele><time>2026-04-04T11:15:18.213Z</time></trkpt><trkpt lat="41.5242917" lon="12.8541287"><ele>29.6</ele><time>2026-04-04T11:15:19.213Z</time></trkpt><trkpt lat="41.5242142" lon="12.8540368"><ele>29.4</ele><time>2026-04-04T11:15:20.213Z</time></trkpt><trkpt lat="41.5241364" lon="12.8539685"><ele>29.2</ele><time>2026-04-04T11:15:21.214Z</time></trkpt><trkpt lat="41.524055" lon="12.8538333"><ele>29.0</ele><time>2026-04-04T11:15:23.214Z</time></trkpt><trkpt lat="41.5240103" lon="12.8537637"><ele>29.0</ele><time>2026-04-04T11:15:24.213Z</time></trkpt><trkpt lat="41.5239553" lon="12.8537058"><ele>29.0</ele><time>2026-04-04T11:15:25.213Z</time></trkpt><trkpt lat="41.523899" lon="12.8535797"><ele>29.0</ele><time>2026-04-04T11:15:27.213Z</time></trkpt><trkpt lat="41.5238713" lon="12.8535015"><ele>29.0</ele><time>2026-04-04T11:15:28.213Z</time></trkpt><trkpt lat="41.5238459" lon="12.853365"><ele>29.0</ele><time>2026-04-04T11:15:30.213Z</time></trkpt><trkpt lat="41.5238248" lon="12.8532193"><ele>29.0</ele><time>2026-04-04T11:15:32.213Z</time></trkpt><trkpt lat="41.5237798" lon="12.8530466"><ele>29.0</ele><time>2026-04-04T11:15:34.213Z</time></trkpt><trkpt lat="41.5237534" lon="12.8529542"><ele>29.0</ele><time>2026-04-04T11:15:35.213Z</time></trkpt><trkpt lat="41.5237139" lon="12.8528403"><ele>29.0</ele><time>2026-04-04T11:15:36.213Z</time></trkpt><trkpt lat="41.5236743" lon="12.8527434"><ele>29.0</ele><time>2026-04-04T11:15:37.213Z</time></trkpt><trkpt lat="41.5236073" lon="12.8526572"><ele>28.799999999999997</ele><time>2026-04-04T11:15:38.213Z</time></trkpt><trkpt lat="41.5235325" lon="12.8525645"><ele>28.599999999999998</ele><time>2026-04-04T11:15:39.213Z</time></trkpt><trkpt lat="41.5234616" lon="12.8524708"><ele>28.4</ele><time>2026-04-04T11:15:40.213Z</time></trkpt><trkpt lat="41.5233962" lon="12.8523842"><ele>28.2</ele><time>2026-04-04T11:15:41.214Z</time></trkpt><trkpt lat="41.5233295" lon="12.8522945"><ele>28.0</ele><time>2026-04-04T11:15:42.213Z</time></trkpt><trkpt lat="41.5232683" lon="12.8522089"><ele>28.0</ele><time>2026-04-04T11:15:43.214Z</time></trkpt><trkpt lat="41.5232015" lon="12.8521221"><ele>27.999999999999996</ele><time>2026-04-04T11:15:44.213Z</time></trkpt><trkpt lat="41.5230944" lon="12.8519551"><ele>27.999999999999996</ele><time>2026-04-04T11:15:46.214Z</time></trkpt><trkpt lat="41.5230337" lon="12.8518972"><ele>28.0</ele><time>2026-04-04T11:15:47.213Z</time></trkpt><trkpt lat="41.5229847" lon="12.851813"><ele>28.0</ele><time>2026-04-04T11:15:48.213Z</time></trkpt><trkpt lat="41.522926" lon="12.8517388"><ele>28.599999999999998</ele><time>2026-04-04T11:15:49.213Z</time></trkpt><trkpt lat="41.5228514" lon="12.8516585"><ele>29.199999999999996</ele><time>2026-04-04T11:15:50.214Z</time></trkpt><trkpt lat="41.5227788" lon="12.8515716"><ele>29.8</ele><time>2026-04-04T11:15:51.213Z</time></trkpt><trkpt lat="41.5227122" lon="12.8514909"><ele>30.4</ele><time>2026-04-04T11:15:52.213Z</time></trkpt><trkpt lat="41.5226516" lon="12.8514149"><ele>31.0</ele><time>2026-04-04T11:15:53.213Z</time></trkpt><trkpt lat="41.5225838" lon="12.8513382"><ele>31.000000000000004</ele><time>2026-04-04T11:15:54.213Z</time></trkpt><trkpt lat="41.5225164" lon="12.851259"><ele>31.0</ele><time>2026-04-04T11:15:55.213Z</time></trkpt><trkpt lat="41.5224562" lon="12.8511915"><ele>31.0</ele><time>2026-04-04T11:15:56.213Z</time></trkpt><trkpt lat="41.5224142" lon="12.8511278"><ele>31.0</ele><time>2026-04-04T11:15:57.213Z</time></trkpt><trkpt lat="41.5223468" lon="12.8510544"><ele>31.000000000000004</ele><time>2026-04-04T11:15:58.213Z</time></trkpt><trkpt lat="41.5222517" lon="12.8509477"><ele>31.0</ele><time>2026-04-04T11:16:00.213Z</time></trkpt><trkpt lat="41.5221772" lon="12.8508475"><ele>30.4</ele><time>2026-04-04T11:16:02.213Z</time></trkpt><trkpt lat="41.5220969" lon="12.850705"><ele>29.8</ele><time>2026-04-04T11:16:04.213Z</time></trkpt><trkpt lat="41.5220451" lon="12.8506257"><ele>29.199999999999996</ele><time>2026-04-04T11:16:05.214Z</time></trkpt><trkpt lat="41.5219985" lon="12.8505505"><ele>28.599999999999998</ele><time>2026-04-04T11:16:06.214Z</time></trkpt><trkpt lat="41.5219459" lon="12.8504772"><ele>28.0</ele><time>2026-04-04T11:16:07.213Z</time></trkpt><trkpt lat="41.5218714" lon="12.8503575"><ele>27.833333333333336</ele><time>2026-04-04T11:16:09.213Z</time></trkpt><trkpt lat="41.5218303" lon="12.8502559"><ele>27.666666666666668</ele><time>2026-04-04T11:16:11.213Z</time></trkpt><trkpt lat="41.5217292" lon="12.8502876"><ele>27.5</ele><time>2026-04-04T11:16:14.213Z</time></trkpt><trkpt lat="41.5216451" lon="12.850323"><ele>27.333333333333336</ele><time>2026-04-04T11:16:16.213Z</time></trkpt><trkpt lat="41.5215653" lon="12.8502555"><ele>27.166666666666668</ele><time>2026-04-04T11:16:18.213Z</time></trkpt><trkpt lat="41.5215265" lon="12.8501752"><ele>27.0</ele><time>2026-04-04T11:16:19.213Z</time></trkpt><trkpt lat="41.521436" lon="12.8500488"><ele>26.666666666666668</ele><time>2026-04-04T11:16:21.213Z</time></trkpt><trkpt lat="41.521352" lon="12.8499239"><ele>26.333333333333336</ele><time>2026-04-04T11:16:23.214Z</time></trkpt><trkpt lat="41.5213035" lon="12.8498692"><ele>26.0</ele><time>2026-04-04T11:16:24.213Z</time></trkpt><trkpt lat="41.5212583" lon="12.8498083"><ele>25.666666666666668</ele><time>2026-04-04T11:16:25.213Z</time></trkpt><trkpt lat="41.5212039" lon="12.8497451"><ele>25.333333333333336</ele><time>2026-04-04T11:16:26.213Z</time></trkpt><trkpt lat="41.5211439" lon="12.8496918"><ele>25.0</ele><time>2026-04-04T11:16:27.214Z</time></trkpt><trkpt lat="41.5210927" lon="12.8496349"><ele>25.8</ele><time>2026-04-04T11:16:28.214Z</time></trkpt><trkpt lat="41.5210441" lon="12.8495634"><ele>26.6</ele><time>2026-04-04T11:16:29.213Z</time></trkpt><trkpt lat="41.5209934" lon="12.8494944"><ele>27.4</ele><time>2026-04-04T11:16:30.213Z</time></trkpt><trkpt lat="41.5209431" lon="12.8494337"><ele>28.2</ele><time>2026-04-04T11:16:31.213Z</time></trkpt><trkpt lat="41.5208531" lon="12.8493243"><ele>29.0</ele><time>2026-04-04T11:16:33.213Z</time></trkpt><trkpt lat="41.5207725" lon="12.849202"><ele>29.0</ele><time>2026-04-04T11:16:35.213Z</time></trkpt><trkpt lat="41.5206829" lon="12.8490886"><ele>29.0</ele><time>2026-04-04T11:16:37.213Z</time></trkpt><trkpt lat="41.5206332" lon="12.8490241"><ele>29.0</ele><time>2026-04-04T11:16:38.213Z</time></trkpt><trkpt lat="41.5205796" lon="12.8489609"><ele>29.0</ele><time>2026-04-04T11:16:39.213Z</time></trkpt><trkpt lat="41.5204969" lon="12.8488377"><ele>29.0</ele><time>2026-04-04T11:16:41.213Z</time></trkpt><trkpt lat="41.5204133" lon="12.8487315"><ele>29.0</ele><time>2026-04-04T11:16:43.213Z</time></trkpt><trkpt lat="41.520325" lon="12.8486125"><ele>29.0</ele><time>2026-04-04T11:16:45.213Z</time></trkpt><trkpt lat="41.5202212" lon="12.8485118"><ele>29.0</ele><time>2026-04-04T11:16:47.213Z</time></trkpt><trkpt lat="41.5201339" lon="12.8483936"><ele>29.0</ele><time>2026-04-04T11:16:49.213Z</time></trkpt><trkpt lat="41.5200929" lon="12.8483287"><ele>29.0</ele><time>2026-04-04T11:16:50.213Z</time></trkpt><trkpt lat="41.5200134" lon="12.8482118"><ele>28.71428571428572</ele><time>2026-04-04T11:16:52.213Z</time></trkpt><trkpt lat="41.5199747" lon="12.8481449"><ele>28.42857142857143</ele><time>2026-04-04T11:16:53.214Z</time></trkpt><trkpt lat="41.5199292" lon="12.8480811"><ele>28.142857142857146</ele><time>2026-04-04T11:16:54.213Z</time></trkpt><trkpt lat="41.5198746" lon="12.8480079"><ele>27.85714285714286</ele><time>2026-04-04T11:16:55.213Z</time></trkpt><trkpt lat="41.5198223" lon="12.8479342"><ele>27.57142857142857</ele><time>2026-04-04T11:16:56.213Z</time></trkpt><trkpt lat="41.5197674" lon="12.8478601"><ele>27.285714285714285</ele><time>2026-04-04T11:16:57.214Z</time></trkpt><trkpt lat="41.5197126" lon="12.8477815"><ele>27.0</ele><time>2026-04-04T11:16:58.213Z</time></trkpt><trkpt lat="41.5196538" lon="12.8477085"><ele>27.333333333333332</ele><time>2026-04-04T11:16:59.214Z</time></trkpt><trkpt lat="41.5195545" lon="12.8476019"><ele>27.666666666666664</ele><time>2026-04-04T11:17:01.213Z</time></trkpt><trkpt lat="41.5195025" lon="12.8475511"><ele>28.0</ele><time>2026-04-04T11:17:02.213Z</time></trkpt><trkpt lat="41.519454" lon="12.8474788"><ele>28.333333333333332</ele><time>2026-04-04T11:17:03.214Z</time></trkpt><trkpt lat="41.5193904" lon="12.8474033"><ele>28.666666666666664</ele><time>2026-04-04T11:17:04.213Z</time></trkpt><trkpt lat="41.5193269" lon="12.8473314"><ele>29.0</ele><time>2026-04-04T11:17:05.213Z</time></trkpt><trkpt lat="41.5192719" lon="12.8472587"><ele>28.999999999999996</ele><time>2026-04-04T11:17:06.213Z</time></trkpt><trkpt lat="41.5192156" lon="12.8471949"><ele>29.0</ele><time>2026-04-04T11:17:07.213Z</time></trkpt><trkpt lat="41.5191288" lon="12.8470732"><ele>29.0</ele><time>2026-04-04T11:17:09.213Z</time></trkpt><trkpt lat="41.5190796" lon="12.847018"><ele>29.0</ele><time>2026-04-04T11:17:10.214Z</time></trkpt><trkpt lat="41.5190342" lon="12.846954"><ele>28.999999999999996</ele><time>2026-04-04T11:17:11.214Z</time></trkpt><trkpt lat="41.5189854" lon="12.8468864"><ele>29.0</ele><time>2026-04-04T11:17:12.214Z</time></trkpt><trkpt lat="41.5189258" lon="12.8468169"><ele>29.333333333333332</ele><time>2026-04-04T11:17:13.213Z</time></trkpt><trkpt lat="41.5188694" lon="12.8467462"><ele>29.666666666666664</ele><time>2026-04-04T11:17:14.213Z</time></trkpt><trkpt lat="41.518813" lon="12.8466739"><ele>30.0</ele><time>2026-04-04T11:17:15.214Z</time></trkpt><trkpt lat="41.5187533" lon="12.8466092"><ele>30.333333333333336</ele><time>2026-04-04T11:17:16.213Z</time></trkpt><trkpt lat="41.5186972" lon="12.8465263"><ele>30.666666666666668</ele><time>2026-04-04T11:17:17.213Z</time></trkpt><trkpt lat="41.5186479" lon="12.846452"><ele>31.0</ele><time>2026-04-04T11:17:18.214Z</time></trkpt><trkpt lat="41.5185867" lon="12.8463706"><ele>31.000000000000004</ele><time>2026-04-04T11:17:19.213Z</time></trkpt><trkpt lat="41.5185257" lon="12.8462987"><ele>31.0</ele><time>2026-04-04T11:17:20.214Z</time></trkpt><trkpt lat="41.5184729" lon="12.8462371"><ele>31.0</ele><time>2026-04-04T11:17:21.213Z</time></trkpt><trkpt lat="41.5184077" lon="12.8461558"><ele>31.0</ele><time>2026-04-04T11:17:22.213Z</time></trkpt><trkpt lat="41.5183375" lon="12.8460688"><ele>31.000000000000004</ele><time>2026-04-04T11:17:23.213Z</time></trkpt><trkpt lat="41.5182748" lon="12.8459902"><ele>31.0</ele><time>2026-04-04T11:17:24.214Z</time></trkpt><trkpt lat="41.5182194" lon="12.8459097"><ele>30.4</ele><time>2026-04-04T11:17:25.213Z</time></trkpt><trkpt lat="41.518115" lon="12.8457552"><ele>29.8</ele><time>2026-04-04T11:17:27.213Z</time></trkpt><trkpt lat="41.5180639" lon="12.8456794"><ele>29.199999999999996</ele><time>2026-04-04T11:17:28.214Z</time></trkpt><trkpt lat="41.5180185" lon="12.8456184"><ele>28.599999999999998</ele><time>2026-04-04T11:17:29.213Z</time></trkpt><trkpt lat="41.5179654" lon="12.8455529"><ele>28.0</ele><time>2026-04-04T11:17:30.213Z</time></trkpt><trkpt lat="41.5179069" lon="12.8454742"><ele>27.833333333333336</ele><time>2026-04-04T11:17:31.213Z</time></trkpt><trkpt lat="41.5178568" lon="12.8454053"><ele>27.666666666666668</ele><time>2026-04-04T11:17:32.213Z</time></trkpt><trkpt lat="41.5177738" lon="12.845279"><ele>27.5</ele><time>2026-04-04T11:17:34.213Z</time></trkpt><trkpt lat="41.51773" lon="12.8452124"><ele>27.333333333333336</ele><time>2026-04-04T11:17:35.213Z</time></trkpt><trkpt lat="41.5176761" lon="12.8451401"><ele>27.166666666666668</ele><time>2026-04-04T11:17:36.213Z</time></trkpt><trkpt lat="41.5176233" lon="12.8450805"><ele>27.0</ele><time>2026-04-04T11:17:37.213Z</time></trkpt><trkpt lat="41.5175276" lon="12.8449681"><ele>27.0</ele><time>2026-04-04T11:17:39.213Z</time></trkpt><trkpt lat="41.5174579" lon="12.8448913"><ele>27.000000000000004</ele><time>2026-04-04T11:17:40.213Z</time></trkpt><trkpt lat="41.5173961" lon="12.8448045"><ele>27.000000000000004</ele><time>2026-04-04T11:17:41.213Z</time></trkpt><trkpt lat="41.5173209" lon="12.8447049"><ele>27.0</ele><time>2026-04-04T11:17:42.213Z</time></trkpt><trkpt lat="41.5172426" lon="12.8446028"><ele>27.0</ele><time>2026-04-04T11:17:43.213Z</time></trkpt><trkpt lat="41.5171728" lon="12.8445112"><ele>27.0</ele><time>2026-04-04T11:17:44.214Z</time></trkpt><trkpt lat="41.5171045" lon="12.8444242"><ele>27.0</ele><time>2026-04-04T11:17:45.214Z</time></trkpt><trkpt lat="41.5170235" lon="12.844305"><ele>27.0</ele><time>2026-04-04T11:17:46.213Z</time></trkpt><trkpt lat="41.5169689" lon="12.8442484"><ele>27.0</ele><time>2026-04-04T11:17:47.213Z</time></trkpt><trkpt lat="41.5169083" lon="12.8441814"><ele>27.0</ele><time>2026-04-04T11:17:48.213Z</time></trkpt><trkpt lat="41.516854" lon="12.8441081"><ele>27.0</ele><time>2026-04-04T11:17:49.213Z</time></trkpt><trkpt lat="41.5167926" lon="12.8440219"><ele>27.333333333333332</ele><time>2026-04-04T11:17:50.214Z</time></trkpt><trkpt lat="41.516731" lon="12.843939"><ele>27.666666666666664</ele><time>2026-04-04T11:17:51.213Z</time></trkpt><trkpt lat="41.5166743" lon="12.8438718"><ele>28.0</ele><time>2026-04-04T11:17:52.214Z</time></trkpt><trkpt lat="41.5166296" lon="12.8438036"><ele>28.333333333333332</ele><time>2026-04-04T11:17:53.214Z</time></trkpt><trkpt lat="41.5165623" lon="12.8437266"><ele>28.666666666666664</ele><time>2026-04-04T11:17:54.213Z</time></trkpt><trkpt lat="41.5165028" lon="12.8436447"><ele>29.0</ele><time>2026-04-04T11:17:55.213Z</time></trkpt><trkpt lat="41.5164433" lon="12.8435676"><ele>28.999999999999996</ele><time>2026-04-04T11:17:56.213Z</time></trkpt><trkpt lat="41.5163979" lon="12.843501"><ele>29.0</ele><time>2026-04-04T11:17:57.213Z</time></trkpt><trkpt lat="41.5163237" lon="12.8433883"><ele>29.0</ele><time>2026-04-04T11:17:59.213Z</time></trkpt><trkpt lat="41.5162765" lon="12.8433179"><ele>29.0</ele><time>2026-04-04T11:18:00.213Z</time></trkpt><trkpt lat="41.516219" lon="12.8432457"><ele>28.999999999999996</ele><time>2026-04-04T11:18:01.214Z</time></trkpt><trkpt lat="41.5161648" lon="12.8431657"><ele>29.0</ele><time>2026-04-04T11:18:02.213Z</time></trkpt><trkpt lat="41.516101" lon="12.8430907"><ele>29.0</ele><time>2026-04-04T11:18:03.213Z</time></trkpt><trkpt lat="41.5160312" lon="12.8430047"><ele>29.0</ele><time>2026-04-04T11:18:04.214Z</time></trkpt><trkpt lat="41.515959" lon="12.8429197"><ele>29.0</ele><time>2026-04-04T11:18:05.213Z</time></trkpt><trkpt lat="41.5158997" lon="12.8428403"><ele>29.0</ele><time>2026-04-04T11:18:06.213Z</time></trkpt><trkpt lat="41.5158395" lon="12.8427573"><ele>29.0</ele><time>2026-04-04T11:18:07.213Z</time></trkpt><trkpt lat="41.5157736" lon="12.8426782"><ele>28.799999999999997</ele><time>2026-04-04T11:18:08.213Z</time></trkpt><trkpt lat="41.5157067" lon="12.8425911"><ele>28.599999999999998</ele><time>2026-04-04T11:18:09.213Z</time></trkpt><trkpt lat="41.5156467" lon="12.8425137"><ele>28.4</ele><time>2026-04-04T11:18:10.213Z</time></trkpt><trkpt lat="41.5155867" lon="12.8424435"><ele>28.2</ele><time>2026-04-04T11:18:11.213Z</time></trkpt><trkpt lat="41.5154636" lon="12.8422853"><ele>28.0</ele><time>2026-04-04T11:18:13.213Z</time></trkpt><trkpt lat="41.5154017" lon="12.8422079"><ele>27.5</ele><time>2026-04-04T11:18:14.213Z</time></trkpt><trkpt lat="41.5153339" lon="12.8421282"><ele>27.0</ele><time>2026-04-04T11:18:15.213Z</time></trkpt><trkpt lat="41.5152729" lon="12.842043"><ele>26.5</ele><time>2026-04-04T11:18:16.214Z</time></trkpt><trkpt lat="41.515151" lon="12.8418737"><ele>26.0</ele><time>2026-04-04T11:18:18.214Z</time></trkpt><trkpt lat="41.5150565" lon="12.8417505"><ele>26.0</ele><time>2026-04-04T11:18:20.214Z</time></trkpt><trkpt lat="41.5149485" lon="12.841602"><ele>26.0</ele><time>2026-04-04T11:18:22.213Z</time></trkpt><trkpt lat="41.5148663" lon="12.8414996"><ele>26.0</ele><time>2026-04-04T11:18:24.213Z</time></trkpt><trkpt lat="41.5148403" lon="12.8413969"><ele>26.0</ele><time>2026-04-04T11:18:27.214Z</time></trkpt><trkpt lat="41.5148224" lon="12.8411946"><ele>26.0</ele><time>2026-04-04T11:18:30.213Z</time></trkpt><trkpt lat="41.5146884" lon="12.841007"><ele>26.0</ele><time>2026-04-04T11:18:32.213Z</time></trkpt><trkpt lat="41.5145278" lon="12.8407888"><ele>26.0</ele><time>2026-04-04T11:18:34.213Z</time></trkpt><trkpt lat="41.5143592" lon="12.8405604"><ele>26.25</ele><time>2026-04-04T11:18:36.213Z</time></trkpt><trkpt lat="41.5142764" lon="12.8404627"><ele>26.5</ele><time>2026-04-04T11:18:37.213Z</time></trkpt><trkpt lat="41.5142003" lon="12.840377"><ele>26.75</ele><time>2026-04-04T11:18:38.213Z</time></trkpt><trkpt lat="41.5140805" lon="12.8402212"><ele>27.0</ele><time>2026-04-04T11:18:40.213Z</time></trkpt><trkpt lat="41.5139712" lon="12.840082"><ele>27.0</ele><time>2026-04-04T11:18:42.213Z</time></trkpt><trkpt lat="41.513874" lon="12.8399561"><ele>27.000000000000004</ele><time>2026-04-04T11:18:44.213Z</time></trkpt><trkpt lat="41.5138285" lon="12.8398966"><ele>27.000000000000004</ele><time>2026-04-04T11:18:45.213Z</time></trkpt><trkpt lat="41.5137589" lon="12.8397943"><ele>27.0</ele><time>2026-04-04T11:18:47.213Z</time></trkpt><trkpt lat="41.5136916" lon="12.8396363"><ele>27.0</ele><time>2026-04-04T11:18:50.213Z</time></trkpt><trkpt lat="41.5136252" lon="12.8395995"><ele>27.0</ele><time>2026-04-04T11:18:55.213Z</time></trkpt><trkpt lat="41.5135391" lon="12.8395891"><ele>27.0</ele><time>2026-04-04T11:18:57.213Z</time></trkpt><trkpt lat="41.5134245" lon="12.8395876"><ele>27.0</ele><time>2026-04-04T11:18:59.213Z</time></trkpt><trkpt lat="41.5133434" lon="12.8394883"><ele>27.0</ele><time>2026-04-04T11:19:00.213Z</time></trkpt><trkpt lat="41.5131676" lon="12.8392941"><ele>27.0</ele><time>2026-04-04T11:19:02.213Z</time></trkpt><trkpt lat="41.5130916" lon="12.8392127"><ele>27.0</ele><time>2026-04-04T11:19:03.213Z</time></trkpt><trkpt lat="41.5130258" lon="12.8391433"><ele>27.0</ele><time>2026-04-04T11:19:04.213Z</time></trkpt><trkpt lat="41.5129627" lon="12.8390741"><ele>27.0</ele><time>2026-04-04T11:19:05.213Z</time></trkpt><trkpt lat="41.5128874" lon="12.8389942"><ele>27.0</ele><time>2026-04-04T11:19:06.213Z</time></trkpt><trkpt lat="41.5128211" lon="12.8389199"><ele>27.0</ele><time>2026-04-04T11:19:07.214Z</time></trkpt><trkpt lat="41.5127523" lon="12.8388472"><ele>27.0</ele><time>2026-04-04T11:19:08.213Z</time></trkpt><trkpt lat="41.5126783" lon="12.8387811"><ele>27.000000000000004</ele><time>2026-04-04T11:19:09.214Z</time></trkpt><trkpt lat="41.5125405" lon="12.8386455"><ele>27.000000000000004</ele><time>2026-04-04T11:19:11.214Z</time></trkpt><trkpt lat="41.5124655" lon="12.8385713"><ele>27.0</ele><time>2026-04-04T11:19:12.214Z</time></trkpt><trkpt lat="41.5123879" lon="12.8385093"><ele>27.0</ele><time>2026-04-04T11:19:13.213Z</time></trkpt><trkpt lat="41.5123105" lon="12.8384389"><ele>27.0</ele><time>2026-04-04T11:19:14.213Z</time></trkpt><trkpt lat="41.5122395" lon="12.8383787"><ele>27.000000000000004</ele><time>2026-04-04T11:19:15.213Z</time></trkpt><trkpt lat="41.5121754" lon="12.8383297"><ele>27.000000000000004</ele><time>2026-04-04T11:19:16.213Z</time></trkpt><trkpt lat="41.5121117" lon="12.838265"><ele>27.0</ele><time>2026-04-04T11:19:17.213Z</time></trkpt><trkpt lat="41.5119839" lon="12.8381523"><ele>27.0</ele><time>2026-04-04T11:19:19.213Z</time></trkpt><trkpt lat="41.5118758" lon="12.83807"><ele>27.400000000000002</ele><time>2026-04-04T11:19:21.213Z</time></trkpt><trkpt lat="41.5117777" lon="12.837999"><ele>27.800000000000004</ele><time>2026-04-04T11:19:23.213Z</time></trkpt><trkpt lat="41.511677" lon="12.8379296"><ele>28.2</ele><time>2026-04-04T11:19:25.214Z</time></trkpt><trkpt lat="41.511566" lon="12.837865"><ele>28.6</ele><time>2026-04-04T11:19:27.214Z</time></trkpt><trkpt lat="41.5115074" lon="12.8378299"><ele>29.0</ele><time>2026-04-04T11:19:28.213Z</time></trkpt><trkpt lat="41.5113596" lon="12.8377428"><ele>28.999999999999996</ele><time>2026-04-04T11:19:31.213Z</time></trkpt><trkpt lat="41.5112912" lon="12.8376995"><ele>29.0</ele><time>2026-04-04T11:19:33.213Z</time></trkpt><trkpt lat="41.5112149" lon="12.8376297"><ele>29.0</ele><time>2026-04-04T11:19:36.214Z</time></trkpt><trkpt lat="41.5111459" lon="12.8376204"><ele>29.0</ele><time>2026-04-04T11:19:38.214Z</time></trkpt><trkpt lat="41.5110802" lon="12.8376538"><ele>28.999999999999996</ele><time>2026-04-04T11:19:40.213Z</time></trkpt><trkpt lat="41.5109988" lon="12.8376893"><ele>29.0</ele><time>2026-04-04T11:19:42.213Z</time></trkpt><trkpt lat="41.5109171" lon="12.8377123"><ele>29.0</ele><time>2026-04-04T11:19:44.214Z</time></trkpt><trkpt lat="41.510827" lon="12.8377018"><ele>29.0</ele><time>2026-04-04T11:19:46.213Z</time></trkpt><trkpt lat="41.5107018" lon="12.8376422"><ele>29.0</ele><time>2026-04-04T11:19:48.213Z</time></trkpt><trkpt lat="41.5106195" lon="12.8375936"><ele>29.0</ele><time>2026-04-04T11:19:49.213Z</time></trkpt><trkpt lat="41.5105382" lon="12.8375497"><ele>29.0</ele><time>2026-04-04T11:19:50.213Z</time></trkpt><trkpt lat="41.5104531" lon="12.8374915"><ele>28.799999999999997</ele><time>2026-04-04T11:19:51.213Z</time></trkpt><trkpt lat="41.5103352" lon="12.8374757"><ele>28.599999999999998</ele><time>2026-04-04T11:19:52.213Z</time></trkpt><trkpt lat="41.5102265" lon="12.8374567"><ele>28.4</ele><time>2026-04-04T11:19:53.213Z</time></trkpt><trkpt lat="41.5101228" lon="12.8374406"><ele>28.2</ele><time>2026-04-04T11:19:54.213Z</time></trkpt><trkpt lat="41.5100324" lon="12.8374242"><ele>28.0</ele><time>2026-04-04T11:19:55.213Z</time></trkpt><trkpt lat="41.509942" lon="12.8374081"><ele>28.0</ele><time>2026-04-04T11:19:56.213Z</time></trkpt><trkpt lat="41.5098566" lon="12.8373715"><ele>27.999999999999996</ele><time>2026-04-04T11:19:57.213Z</time></trkpt><trkpt lat="41.5097566" lon="12.8373424"><ele>27.999999999999996</ele><time>2026-04-04T11:19:58.213Z</time></trkpt><trkpt lat="41.5096458" lon="12.8373121"><ele>28.0</ele><time>2026-04-04T11:19:59.214Z</time></trkpt><trkpt lat="41.5095191" lon="12.8373068"><ele>28.0</ele><time>2026-04-04T11:20:00.214Z</time></trkpt><trkpt lat="41.5093532" lon="12.8372313"><ele>28.75</ele><time>2026-04-04T11:20:01.213Z</time></trkpt><trkpt lat="41.5092243" lon="12.8371806"><ele>29.5</ele><time>2026-04-04T11:20:02.213Z</time></trkpt><trkpt lat="41.5090796" lon="12.8371207"><ele>30.25</ele><time>2026-04-04T11:20:03.213Z</time></trkpt><trkpt lat="41.5089372" lon="12.8370573"><ele>31.0</ele><time>2026-04-04T11:20:04.213Z</time></trkpt><trkpt lat="41.5087991" lon="12.8369849"><ele>30.5</ele><time>2026-04-04T11:20:05.213Z</time></trkpt><trkpt lat="41.5086482" lon="12.8369348"><ele>30.0</ele><time>2026-04-04T11:20:06.214Z</time></trkpt><trkpt lat="41.5084967" lon="12.8368845"><ele>29.5</ele><time>2026-04-04T11:20:07.214Z</time></trkpt><trkpt lat="41.5083638" lon="12.8368391"><ele>29.0</ele><time>2026-04-04T11:20:08.213Z</time></trkpt><trkpt lat="41.5082365" lon="12.8368167"><ele>28.4</ele><time>2026-04-04T11:20:09.213Z</time></trkpt><trkpt lat="41.5081181" lon="12.8367904"><ele>27.799999999999997</ele><time>2026-04-04T11:20:10.213Z</time></trkpt><trkpt lat="41.5080095" lon="12.8367677"><ele>27.200000000000003</ele><time>2026-04-04T11:20:11.213Z</time></trkpt><trkpt lat="41.5079161" lon="12.836744"><ele>26.6</ele><time>2026-04-04T11:20:12.213Z</time></trkpt><trkpt lat="41.5078251" lon="12.8367123"><ele>26.0</ele><time>2026-04-04T11:20:13.213Z</time></trkpt><trkpt lat="41.5077283" lon="12.8366818"><ele>25.8</ele><time>2026-04-04T11:20:14.213Z</time></trkpt><trkpt lat="41.5076294" lon="12.8366542"><ele>25.6</ele><time>2026-04-04T11:20:15.213Z</time></trkpt><trkpt lat="41.507525" lon="12.836629"><ele>25.4</ele><time>2026-04-04T11:20:16.213Z</time></trkpt><trkpt lat="41.5074276" lon="12.8365986"><ele>25.2</ele><time>2026-04-04T11:20:17.213Z</time></trkpt><trkpt lat="41.5073325" lon="12.836573"><ele>25.0</ele><time>2026-04-04T11:20:18.213Z</time></trkpt><trkpt lat="41.5072385" lon="12.8365489"><ele>25.0</ele><time>2026-04-04T11:20:19.213Z</time></trkpt><trkpt lat="41.5071301" lon="12.8365339"><ele>25.0</ele><time>2026-04-04T11:20:20.214Z</time></trkpt><trkpt lat="41.5070267" lon="12.8365103"><ele>25.0</ele><time>2026-04-04T11:20:21.214Z</time></trkpt><trkpt lat="41.50692" lon="12.8364779"><ele>25.0</ele><time>2026-04-04T11:20:22.213Z</time></trkpt><trkpt lat="41.5067777" lon="12.8364421"><ele>25.25</ele><time>2026-04-04T11:20:23.213Z</time></trkpt><trkpt lat="41.5066448" lon="12.8364159"><ele>25.5</ele><time>2026-04-04T11:20:24.213Z</time></trkpt><trkpt lat="41.5065219" lon="12.8363821"><ele>25.75</ele><time>2026-04-04T11:20:25.213Z</time></trkpt><trkpt lat="41.5064006" lon="12.8363387"><ele>26.0</ele><time>2026-04-04T11:20:26.213Z</time></trkpt><trkpt lat="41.5061748" lon="12.8362764"><ele>26.200000000000003</ele><time>2026-04-04T11:20:28.213Z</time></trkpt><trkpt lat="41.506069" lon="12.8362404"><ele>26.400000000000002</ele><time>2026-04-04T11:20:29.213Z</time></trkpt><trkpt lat="41.5059656" lon="12.8362148"><ele>26.6</ele><time>2026-04-04T11:20:30.213Z</time></trkpt><trkpt lat="41.5058623" lon="12.8361916"><ele>26.8</ele><time>2026-04-04T11:20:31.213Z</time></trkpt><trkpt lat="41.5057515" lon="12.8361616"><ele>27.0</ele><time>2026-04-04T11:20:32.213Z</time></trkpt><trkpt lat="41.5056406" lon="12.836131"><ele>27.0</ele><time>2026-04-04T11:20:33.213Z</time></trkpt><trkpt lat="41.5055335" lon="12.8360988"><ele>27.0</ele><time>2026-04-04T11:20:34.213Z</time></trkpt><trkpt lat="41.5054284" lon="12.8360655"><ele>27.0</ele><time>2026-04-04T11:20:35.214Z</time></trkpt><trkpt lat="41.5052323" lon="12.8360132"><ele>27.0</ele><time>2026-04-04T11:20:37.213Z</time></trkpt><trkpt lat="41.505047" lon="12.8359711"><ele>26.666666666666664</ele><time>2026-04-04T11:20:39.214Z</time></trkpt><trkpt lat="41.5048552" lon="12.8359181"><ele>26.333333333333332</ele><time>2026-04-04T11:20:41.214Z</time></trkpt><trkpt lat="41.5046356" lon="12.8358545"><ele>26.0</ele><time>2026-04-04T11:20:43.213Z</time></trkpt><trkpt lat="41.5045077" lon="12.8358214"><ele>26.0</ele><time>2026-04-04T11:20:44.213Z</time></trkpt><trkpt lat="41.5042388" lon="12.8357508"><ele>26.0</ele><time>2026-04-04T11:20:46.213Z</time></trkpt><trkpt lat="41.5041099" lon="12.835718"><ele>26.0</ele><time>2026-04-04T11:20:47.214Z</time></trkpt><trkpt lat="41.5039766" lon="12.835675"><ele>26.0</ele><time>2026-04-04T11:20:48.213Z</time></trkpt><trkpt lat="41.5036952" lon="12.8355929"><ele>26.0</ele><time>2026-04-04T11:20:50.214Z</time></trkpt><trkpt lat="41.5034422" lon="12.8355174"><ele>26.0</ele><time>2026-04-04T11:20:52.213Z</time></trkpt><trkpt lat="41.503193" lon="12.8354433"><ele>26.0</ele><time>2026-04-04T11:20:54.213Z</time></trkpt><trkpt lat="41.5030739" lon="12.8354167"><ele>26.0</ele><time>2026-04-04T11:20:55.213Z</time></trkpt><trkpt lat="41.5028252" lon="12.8353534"><ele>26.0</ele><time>2026-04-04T11:20:57.214Z</time></trkpt><trkpt lat="41.5025903" lon="12.8352978"><ele>26.0</ele><time>2026-04-04T11:20:59.213Z</time></trkpt><trkpt lat="41.5024842" lon="12.8352638"><ele>26.0</ele><time>2026-04-04T11:21:00.213Z</time></trkpt><trkpt lat="41.502375" lon="12.835232"><ele>26.0</ele><time>2026-04-04T11:21:01.213Z</time></trkpt><trkpt lat="41.5021603" lon="12.8351731"><ele>26.0</ele><time>2026-04-04T11:21:03.213Z</time></trkpt><trkpt lat="41.5020522" lon="12.8351373"><ele>26.0</ele><time>2026-04-04T11:21:04.214Z</time></trkpt><trkpt lat="41.5019474" lon="12.8351114"><ele>26.0</ele><time>2026-04-04T11:21:05.214Z</time></trkpt><trkpt lat="41.5018378" lon="12.8350806"><ele>26.0</ele><time>2026-04-04T11:21:06.213Z</time></trkpt><trkpt lat="41.5017253" lon="12.8350514"><ele>26.0</ele><time>2026-04-04T11:21:07.213Z</time></trkpt><trkpt lat="41.5016171" lon="12.8350237"><ele>26.0</ele><time>2026-04-04T11:21:08.214Z</time></trkpt><trkpt lat="41.5015031" lon="12.8349867"><ele>26.0</ele><time>2026-04-04T11:21:09.214Z</time></trkpt><trkpt lat="41.5013832" lon="12.8349553"><ele>26.0</ele><time>2026-04-04T11:21:10.213Z</time></trkpt><trkpt lat="41.5011482" lon="12.83489"><ele>26.0</ele><time>2026-04-04T11:21:12.213Z</time></trkpt><trkpt lat="41.5010127" lon="12.8348513"><ele>26.0</ele><time>2026-04-04T11:21:13.214Z</time></trkpt><trkpt lat="41.500767" lon="12.8347923"><ele>26.0</ele><time>2026-04-04T11:21:15.213Z</time></trkpt><trkpt lat="41.500523" lon="12.8347324"><ele>26.0</ele><time>2026-04-04T11:21:17.213Z</time></trkpt><trkpt lat="41.5004007" lon="12.8347029"><ele>26.0</ele><time>2026-04-04T11:21:18.213Z</time></trkpt><trkpt lat="41.5000287" lon="12.8346007"><ele>26.0</ele><time>2026-04-04T11:21:21.214Z</time></trkpt><trkpt lat="41.499907" lon="12.8345678"><ele>26.0</ele><time>2026-04-04T11:21:22.213Z</time></trkpt><trkpt lat="41.4997908" lon="12.8345431"><ele>26.0</ele><time>2026-04-04T11:21:23.213Z</time></trkpt><trkpt lat="41.4995787" lon="12.8345004"><ele>26.0</ele><time>2026-04-04T11:21:25.214Z</time></trkpt><trkpt lat="41.4993802" lon="12.8344344"><ele>26.0</ele><time>2026-04-04T11:21:27.213Z</time></trkpt><trkpt lat="41.4991565" lon="12.8343449"><ele>26.0</ele><time>2026-04-04T11:21:29.214Z</time></trkpt><trkpt lat="41.4989324" lon="12.8342912"><ele>25.5</ele><time>2026-04-04T11:21:31.213Z</time></trkpt><trkpt lat="41.4988016" lon="12.8342717"><ele>25.0</ele><time>2026-04-04T11:21:32.213Z</time></trkpt><trkpt lat="41.4986985" lon="12.8342429"><ele>24.5</ele><time>2026-04-04T11:21:33.213Z</time></trkpt><trkpt lat="41.4985803" lon="12.8342192"><ele>24.0</ele><time>2026-04-04T11:21:34.213Z</time></trkpt><trkpt lat="41.4984618" lon="12.8341942"><ele>24.0</ele><time>2026-04-04T11:21:35.213Z</time></trkpt><trkpt lat="41.4982208" lon="12.8341429"><ele>24.0</ele><time>2026-04-04T11:21:37.213Z</time></trkpt><trkpt lat="41.4979974" lon="12.8340502"><ele>25.0</ele><time>2026-04-04T11:21:39.214Z</time></trkpt><trkpt lat="41.4977815" lon="12.8339703"><ele>26.0</ele><time>2026-04-04T11:21:41.213Z</time></trkpt><trkpt lat="41.4976713" lon="12.8339824"><ele>27.0</ele><time>2026-04-04T11:21:42.213Z</time></trkpt><trkpt lat="41.4974502" lon="12.8338985"><ele>27.0</ele><time>2026-04-04T11:21:44.213Z</time></trkpt><trkpt lat="41.4973313" lon="12.833888"><ele>27.0</ele><time>2026-04-04T11:21:45.213Z</time></trkpt><trkpt lat="41.4972188" lon="12.8338726"><ele>27.0</ele><time>2026-04-04T11:21:46.213Z</time></trkpt><trkpt lat="41.4971121" lon="12.8338541"><ele>27.0</ele><time>2026-04-04T11:21:47.213Z</time></trkpt><trkpt lat="41.4968564" lon="12.8337935"><ele>27.0</ele><time>2026-04-04T11:21:49.213Z</time></trkpt><trkpt lat="41.4967101" lon="12.8337757"><ele>27.0</ele><time>2026-04-04T11:21:50.213Z</time></trkpt><trkpt lat="41.4964306" lon="12.8337014"><ele>27.0</ele><time>2026-04-04T11:21:52.213Z</time></trkpt><trkpt lat="41.4961674" lon="12.8336399"><ele>27.0</ele><time>2026-04-04T11:21:54.213Z</time></trkpt><trkpt lat="41.4960312" lon="12.8336025"><ele>27.0</ele><time>2026-04-04T11:21:55.213Z</time></trkpt><trkpt lat="41.4959128" lon="12.8335849"><ele>27.0</ele><time>2026-04-04T11:21:56.213Z</time></trkpt><trkpt lat="41.4956755" lon="12.8335229"><ele>27.0</ele><time>2026-04-04T11:21:58.213Z</time></trkpt><trkpt lat="41.495552" lon="12.8334821"><ele>27.0</ele><time>2026-04-04T11:21:59.213Z</time></trkpt><trkpt lat="41.49544" lon="12.8334533"><ele>27.0</ele><time>2026-04-04T11:22:00.213Z</time></trkpt><trkpt lat="41.4953319" lon="12.8334263"><ele>27.0</ele><time>2026-04-04T11:22:01.213Z</time></trkpt><trkpt lat="41.4952223" lon="12.8333979"><ele>26.0</ele><time>2026-04-04T11:22:02.213Z</time></trkpt><trkpt lat="41.4951207" lon="12.8333733"><ele>25.0</ele><time>2026-04-04T11:22:03.213Z</time></trkpt><trkpt lat="41.4949101" lon="12.8333048"><ele>24.0</ele><time>2026-04-04T11:22:05.213Z</time></trkpt><trkpt lat="41.4947255" lon="12.8332394"><ele>24.0</ele><time>2026-04-04T11:22:07.213Z</time></trkpt><trkpt lat="41.494637" lon="12.8332231"><ele>24.0</ele><time>2026-04-04T11:22:08.214Z</time></trkpt><trkpt lat="41.4945569" lon="12.8332296"><ele>24.0</ele><time>2026-04-04T11:22:09.213Z</time></trkpt><trkpt lat="41.4944755" lon="12.8332464"><ele>24.0</ele><time>2026-04-04T11:22:10.213Z</time></trkpt><trkpt lat="41.4943412" lon="12.8332148"><ele>24.0</ele><time>2026-04-04T11:22:12.213Z</time></trkpt><trkpt lat="41.4941965" lon="12.8330962"><ele>24.75</ele><time>2026-04-04T11:22:14.214Z</time></trkpt><trkpt lat="41.4941027" lon="12.8330579"><ele>25.5</ele><time>2026-04-04T11:22:15.213Z</time></trkpt><trkpt lat="41.4939884" lon="12.8330259"><ele>26.25</ele><time>2026-04-04T11:22:16.213Z</time></trkpt><trkpt lat="41.4937946" lon="12.832967"><ele>27.0</ele><time>2026-04-04T11:22:18.214Z</time></trkpt><trkpt lat="41.4936313" lon="12.8329271"><ele>27.200000000000003</ele><time>2026-04-04T11:22:20.213Z</time></trkpt><trkpt lat="41.4935003" lon="12.8328945"><ele>27.400000000000002</ele><time>2026-04-04T11:22:22.213Z</time></trkpt><trkpt lat="41.4934124" lon="12.8328468"><ele>27.599999999999998</ele><time>2026-04-04T11:22:24.213Z</time></trkpt><trkpt lat="41.4933345" lon="12.8328171"><ele>27.799999999999997</ele><time>2026-04-04T11:22:26.213Z</time></trkpt><trkpt lat="41.4932419" lon="12.8327986"><ele>28.0</ele><time>2026-04-04T11:22:28.213Z</time></trkpt><trkpt lat="41.4930326" lon="12.8327983"><ele>28.0</ele><time>2026-04-04T11:22:30.213Z</time></trkpt><trkpt lat="41.4929314" lon="12.8327828"><ele>27.999999999999996</ele><time>2026-04-04T11:22:31.213Z</time></trkpt><trkpt lat="41.4928668" lon="12.8327821"><ele>27.999999999999996</ele><time>2026-04-04T11:22:32.213Z</time></trkpt><trkpt lat="41.4927712" lon="12.8327881"><ele>28.0</ele><time>2026-04-04T11:22:33.213Z</time></trkpt><trkpt lat="41.4926956" lon="12.8328286"><ele>28.0</ele><time>2026-04-04T11:22:34.213Z</time></trkpt><trkpt lat="41.4925519" lon="12.8328868"><ele>28.333333333333336</ele><time>2026-04-04T11:22:36.213Z</time></trkpt><trkpt lat="41.4924074" lon="12.8329443"><ele>28.666666666666664</ele><time>2026-04-04T11:22:38.213Z</time></trkpt><trkpt lat="41.4922575" lon="12.8329408"><ele>29.0</ele><time>2026-04-04T11:22:40.213Z</time></trkpt><trkpt lat="41.4920903" lon="12.832908"><ele>28.75</ele><time>2026-04-04T11:22:42.214Z</time></trkpt><trkpt lat="41.491938" lon="12.8328746"><ele>28.5</ele><time>2026-04-04T11:22:44.213Z</time></trkpt><trkpt lat="41.4917741" lon="12.8328428"><ele>28.25</ele><time>2026-04-04T11:22:46.213Z</time></trkpt><trkpt lat="41.4916954" lon="12.8328389"><ele>28.0</ele><time>2026-04-04T11:22:47.213Z</time></trkpt><trkpt lat="41.4916239" lon="12.8328335"><ele>28.0</ele><time>2026-04-04T11:22:48.214Z</time></trkpt><trkpt lat="41.4915625" lon="12.832808"><ele>27.999999999999996</ele><time>2026-04-04T11:22:49.213Z</time></trkpt><trkpt lat="41.4914966" lon="12.8328085"><ele>27.999999999999996</ele><time>2026-04-04T11:22:50.213Z</time></trkpt><trkpt lat="41.4913653" lon="12.8328129"><ele>28.0</ele><time>2026-04-04T11:22:52.214Z</time></trkpt><trkpt lat="41.4912545" lon="12.832807"><ele>28.0</ele><time>2026-04-04T11:22:54.214Z</time></trkpt><trkpt lat="41.4911352" lon="12.8327854"><ele>28.0</ele><time>2026-04-04T11:22:56.213Z</time></trkpt><trkpt lat="41.4910119" lon="12.8327698"><ele>28.0</ele><time>2026-04-04T11:22:58.213Z</time></trkpt><trkpt lat="41.4909022" lon="12.8327659"><ele>28.0</ele><time>2026-04-04T11:23:00.213Z</time></trkpt><trkpt lat="41.490753" lon="12.832773"><ele>28.0</ele><time>2026-04-04T11:23:02.213Z</time></trkpt><trkpt lat="41.4906093" lon="12.8327455"><ele>28.0</ele><time>2026-04-04T11:23:04.213Z</time></trkpt><trkpt lat="41.4904668" lon="12.8327338"><ele>28.0</ele><time>2026-04-04T11:23:06.213Z</time></trkpt><trkpt lat="41.4903291" lon="12.83273"><ele>28.0</ele><time>2026-04-04T11:23:08.213Z</time></trkpt><trkpt lat="41.4902167" lon="12.8326985"><ele>28.0</ele><time>2026-04-04T11:23:09.213Z</time></trkpt><trkpt lat="41.4901327" lon="12.832691"><ele>27.4</ele><time>2026-04-04T11:23:10.213Z</time></trkpt><trkpt lat="41.4899729" lon="12.8326785"><ele>26.799999999999997</ele><time>2026-04-04T11:23:12.213Z</time></trkpt><trkpt lat="41.4898989" lon="12.8326719"><ele>26.2</ele><time>2026-04-04T11:23:13.213Z</time></trkpt><trkpt lat="41.4898335" lon="12.8326718"><ele>25.6</ele><time>2026-04-04T11:23:14.213Z</time></trkpt><trkpt lat="41.4897531" lon="12.8326642"><ele>25.0</ele><time>2026-04-04T11:23:15.213Z</time></trkpt><trkpt lat="41.4896814" lon="12.8326492"><ele>24.6</ele><time>2026-04-04T11:23:16.213Z</time></trkpt><trkpt lat="41.4895116" lon="12.8326261"><ele>24.2</ele><time>2026-04-04T11:23:18.214Z</time></trkpt><trkpt lat="41.4894445" lon="12.8326136"><ele>23.799999999999997</ele><time>2026-04-04T11:23:19.213Z</time></trkpt><trkpt lat="41.4893596" lon="12.8326226"><ele>23.4</ele><time>2026-04-04T11:23:20.213Z</time></trkpt><trkpt lat="41.4892754" lon="12.8326257"><ele>23.0</ele><time>2026-04-04T11:23:21.213Z</time></trkpt><trkpt lat="41.4890824" lon="12.8326183"><ele>23.0</ele><time>2026-04-04T11:23:23.213Z</time></trkpt><trkpt lat="41.4889217" lon="12.8326183"><ele>23.0</ele><time>2026-04-04T11:23:25.213Z</time></trkpt><trkpt lat="41.4887743" lon="12.8326032"><ele>23.0</ele><time>2026-04-04T11:23:27.213Z</time></trkpt><trkpt lat="41.4887076" lon="12.8326045"><ele>23.0</ele><time>2026-04-04T11:23:28.213Z</time></trkpt><trkpt lat="41.4886336" lon="12.8326163"><ele>23.2</ele><time>2026-04-04T11:23:29.213Z</time></trkpt><trkpt lat="41.4884741" lon="12.8326091"><ele>23.4</ele><time>2026-04-04T11:23:31.213Z</time></trkpt><trkpt lat="41.4884055" lon="12.832622"><ele>23.599999999999998</ele><time>2026-04-04T11:23:32.214Z</time></trkpt><trkpt lat="41.4883346" lon="12.8326441"><ele>23.799999999999997</ele><time>2026-04-04T11:23:33.214Z</time></trkpt><trkpt lat="41.4882645" lon="12.8326561"><ele>24.0</ele><time>2026-04-04T11:23:34.213Z</time></trkpt><trkpt lat="41.4881708" lon="12.8326659"><ele>24.0</ele><time>2026-04-04T11:23:35.213Z</time></trkpt><trkpt lat="41.4880258" lon="12.8327072"><ele>24.0</ele><time>2026-04-04T11:23:37.213Z</time></trkpt><trkpt lat="41.4879396" lon="12.8327181"><ele>24.0</ele><time>2026-04-04T11:23:38.213Z</time></trkpt><trkpt lat="41.4878653" lon="12.8327225"><ele>24.0</ele><time>2026-04-04T11:23:39.213Z</time></trkpt><trkpt lat="41.4876942" lon="12.8327436"><ele>24.25</ele><time>2026-04-04T11:23:41.213Z</time></trkpt><trkpt lat="41.4876138" lon="12.8327597"><ele>24.5</ele><time>2026-04-04T11:23:42.213Z</time></trkpt><trkpt lat="41.4874518" lon="12.8327975"><ele>24.75</ele><time>2026-04-04T11:23:44.213Z</time></trkpt><trkpt lat="41.4873038" lon="12.8328822"><ele>25.0</ele><time>2026-04-04T11:23:46.213Z</time></trkpt><trkpt lat="41.487148" lon="12.8329388"><ele>25.4</ele><time>2026-04-04T11:23:48.213Z</time></trkpt><trkpt lat="41.4869763" lon="12.8329778"><ele>25.8</ele><time>2026-04-04T11:23:50.213Z</time></trkpt><trkpt lat="41.4868893" lon="12.8330027"><ele>26.200000000000003</ele><time>2026-04-04T11:23:51.214Z</time></trkpt><trkpt lat="41.4868103" lon="12.8330341"><ele>26.6</ele><time>2026-04-04T11:23:52.213Z</time></trkpt><trkpt lat="41.4867326" lon="12.8330695"><ele>27.0</ele><time>2026-04-04T11:23:53.213Z</time></trkpt><trkpt lat="41.4866574" lon="12.8330899"><ele>27.0</ele><time>2026-04-04T11:23:55.213Z</time></trkpt><trkpt lat="41.4865961" lon="12.8331687"><ele>27.0</ele><time>2026-04-04T11:25:56.213Z</time></trkpt><trkpt lat="41.4863963" lon="12.8332458"><ele>27.0</ele><time>2026-04-04T11:25:59.213Z</time></trkpt><trkpt lat="41.486317" lon="12.833282"><ele>27.0</ele><time>2026-04-04T11:26:00.213Z</time></trkpt><trkpt lat="41.4861304" lon="12.8333749"><ele>26.75</ele><time>2026-04-04T11:26:03.213Z</time></trkpt><trkpt lat="41.4860462" lon="12.833411"><ele>26.5</ele><time>2026-04-04T11:26:04.213Z</time></trkpt><trkpt lat="41.4859707" lon="12.8334554"><ele>26.25</ele><time>2026-04-04T11:26:05.213Z</time></trkpt><trkpt lat="41.4858074" lon="12.8335342"><ele>26.0</ele><time>2026-04-04T11:26:07.213Z</time></trkpt><trkpt lat="41.4856769" lon="12.8336339"><ele>26.0</ele><time>2026-04-04T11:26:09.213Z</time></trkpt><trkpt lat="41.4855405" lon="12.8337181"><ele>26.0</ele><time>2026-04-04T11:26:11.213Z</time></trkpt><trkpt lat="41.4853951" lon="12.8338064"><ele>26.0</ele><time>2026-04-04T11:26:13.214Z</time></trkpt><trkpt lat="41.4852646" lon="12.8339047"><ele>25.333333333333332</ele><time>2026-04-04T11:26:15.213Z</time></trkpt><trkpt lat="41.485137" lon="12.833983"><ele>24.666666666666664</ele><time>2026-04-04T11:26:17.213Z</time></trkpt><trkpt lat="41.4849845" lon="12.8340415"><ele>24.0</ele><time>2026-04-04T11:26:19.213Z</time></trkpt><trkpt lat="41.4848324" lon="12.8341105"><ele>24.0</ele><time>2026-04-04T11:26:21.213Z</time></trkpt><trkpt lat="41.4847509" lon="12.8341393"><ele>24.0</ele><time>2026-04-04T11:26:22.213Z</time></trkpt><trkpt lat="41.4846809" lon="12.8341701"><ele>24.0</ele><time>2026-04-04T11:26:23.213Z</time></trkpt><trkpt lat="41.4845416" lon="12.8342637"><ele>24.0</ele><time>2026-04-04T11:26:25.213Z</time></trkpt><trkpt lat="41.4844769" lon="12.8342885"><ele>24.0</ele><time>2026-04-04T11:26:26.213Z</time></trkpt><trkpt lat="41.4844106" lon="12.8343281"><ele>24.4</ele><time>2026-04-04T11:26:27.213Z</time></trkpt><trkpt lat="41.4843409" lon="12.8343751"><ele>24.799999999999997</ele><time>2026-04-04T11:26:28.213Z</time></trkpt><trkpt lat="41.4842742" lon="12.8343978"><ele>25.200000000000003</ele><time>2026-04-04T11:26:29.213Z</time></trkpt><trkpt lat="41.4841997" lon="12.8344328"><ele>25.6</ele><time>2026-04-04T11:26:30.213Z</time></trkpt><trkpt lat="41.4840625" lon="12.834523"><ele>26.0</ele><time>2026-04-04T11:26:32.213Z</time></trkpt><trkpt lat="41.4839879" lon="12.8345667"><ele>26.0</ele><time>2026-04-04T11:26:33.214Z</time></trkpt><trkpt lat="41.4839167" lon="12.8346004"><ele>26.0</ele><time>2026-04-04T11:26:34.213Z</time></trkpt><trkpt lat="41.4838482" lon="12.8346408"><ele>26.0</ele><time>2026-04-04T11:26:35.213Z</time></trkpt><trkpt lat="41.4837077" lon="12.8347103"><ele>26.0</ele><time>2026-04-04T11:26:37.213Z</time></trkpt><trkpt lat="41.4836371" lon="12.8347498"><ele>26.0</ele><time>2026-04-04T11:26:38.213Z</time></trkpt><trkpt lat="41.4835023" lon="12.834832"><ele>25.0</ele><time>2026-04-04T11:26:40.214Z</time></trkpt><trkpt lat="41.4834331" lon="12.8348709"><ele>24.0</ele><time>2026-04-04T11:26:41.213Z</time></trkpt><trkpt lat="41.4833516" lon="12.8349159"><ele>23.0</ele><time>2026-04-04T11:26:42.213Z</time></trkpt><trkpt lat="41.4832155" lon="12.8350038"><ele>22.0</ele><time>2026-04-04T11:26:44.213Z</time></trkpt><trkpt lat="41.4830719" lon="12.8350997"><ele>22.25</ele><time>2026-04-04T11:26:46.213Z</time></trkpt><trkpt lat="41.4829853" lon="12.8351466"><ele>22.5</ele><time>2026-04-04T11:26:47.213Z</time></trkpt><trkpt lat="41.4828314" lon="12.8352201"><ele>22.75</ele><time>2026-04-04T11:26:49.214Z</time></trkpt><trkpt lat="41.4826729" lon="12.8353129"><ele>23.0</ele><time>2026-04-04T11:26:51.213Z</time></trkpt><trkpt lat="41.4825281" lon="12.8354333"><ele>23.25</ele><time>2026-04-04T11:26:53.213Z</time></trkpt><trkpt lat="41.482383" lon="12.8355179"><ele>23.5</ele><time>2026-04-04T11:26:55.214Z</time></trkpt><trkpt lat="41.4821954" lon="12.8355945"><ele>23.75</ele><time>2026-04-04T11:26:57.213Z</time></trkpt><trkpt lat="41.4821066" lon="12.8356323"><ele>24.0</ele><time>2026-04-04T11:26:58.213Z</time></trkpt><trkpt lat="41.4819438" lon="12.8357356"><ele>23.4</ele><time>2026-04-04T11:27:00.213Z</time></trkpt><trkpt lat="41.4818653" lon="12.8357812"><ele>22.799999999999997</ele><time>2026-04-04T11:27:01.213Z</time></trkpt><trkpt lat="41.4818009" lon="12.8358229"><ele>22.200000000000003</ele><time>2026-04-04T11:27:02.213Z</time></trkpt><trkpt lat="41.481665" lon="12.8359245"><ele>21.6</ele><time>2026-04-04T11:27:04.214Z</time></trkpt><trkpt lat="41.4815535" lon="12.8360066"><ele>21.0</ele><time>2026-04-04T11:27:06.213Z</time></trkpt><trkpt lat="41.4814352" lon="12.8360535"><ele>21.0</ele><time>2026-04-04T11:27:08.213Z</time></trkpt><trkpt lat="41.48137" lon="12.8360735"><ele>21.0</ele><time>2026-04-04T11:27:09.213Z</time></trkpt><trkpt lat="41.4812098" lon="12.8361205"><ele>21.0</ele><time>2026-04-04T11:27:11.213Z</time></trkpt><trkpt lat="41.4810657" lon="12.8361855"><ele>21.0</ele><time>2026-04-04T11:27:13.213Z</time></trkpt><trkpt lat="41.4809193" lon="12.8362177"><ele>20.666666666666668</ele><time>2026-04-04T11:27:15.213Z</time></trkpt><trkpt lat="41.4807712" lon="12.8362525"><ele>20.333333333333336</ele><time>2026-04-04T11:27:17.213Z</time></trkpt><trkpt lat="41.4804853" lon="12.8363343"><ele>20.0</ele><time>2026-04-04T11:27:21.214Z</time></trkpt><trkpt lat="41.4803395" lon="12.8363781"><ele>20.666666666666668</ele><time>2026-04-04T11:27:23.214Z</time></trkpt><trkpt lat="41.4801781" lon="12.8364139"><ele>21.333333333333332</ele><time>2026-04-04T11:27:25.213Z</time></trkpt><trkpt lat="41.4800302" lon="12.8364513"><ele>22.0</ele><time>2026-04-04T11:27:27.213Z</time></trkpt><trkpt lat="41.479887" lon="12.8364701"><ele>22.0</ele><time>2026-04-04T11:27:29.213Z</time></trkpt><trkpt lat="41.4797435" lon="12.8365176"><ele>22.0</ele><time>2026-04-04T11:27:31.214Z</time></trkpt><trkpt lat="41.4796144" lon="12.8365248"><ele>22.0</ele><time>2026-04-04T11:27:33.214Z</time></trkpt><trkpt lat="41.4795058" lon="12.8364768"><ele>22.0</ele><time>2026-04-04T11:27:35.213Z</time></trkpt><trkpt lat="41.4793914" lon="12.836431"><ele>22.0</ele><time>2026-04-04T11:27:37.213Z</time></trkpt><trkpt lat="41.4793235" lon="12.836406"><ele>22.0</ele><time>2026-04-04T11:27:38.213Z</time></trkpt><trkpt lat="41.4792317" lon="12.8363888"><ele>22.0</ele><time>2026-04-04T11:27:39.214Z</time></trkpt><trkpt lat="41.4791014" lon="12.8363484"><ele>22.0</ele><time>2026-04-04T11:27:41.213Z</time></trkpt><trkpt lat="41.4790301" lon="12.836336"><ele>22.0</ele><time>2026-04-04T11:27:42.214Z</time></trkpt><trkpt lat="41.4789635" lon="12.836329"><ele>22.0</ele><time>2026-04-04T11:27:43.213Z</time></trkpt><trkpt lat="41.4788295" lon="12.8362734"><ele>21.75</ele><time>2026-04-04T11:27:45.213Z</time></trkpt><trkpt lat="41.4786992" lon="12.8362366"><ele>21.5</ele><time>2026-04-04T11:27:47.213Z</time></trkpt><trkpt lat="41.4786304" lon="12.8362199"><ele>21.25</ele><time>2026-04-04T11:27:48.214Z</time></trkpt><trkpt lat="41.4784744" lon="12.8361817"><ele>21.0</ele><time>2026-04-04T11:27:51.214Z</time></trkpt><trkpt lat="41.4783481" lon="12.8361616"><ele>21.0</ele><time>2026-04-04T11:27:53.213Z</time></trkpt><trkpt lat="41.4781735" lon="12.8360983"><ele>21.0</ele><time>2026-04-04T11:27:56.214Z</time></trkpt><trkpt lat="41.4781003" lon="12.836074"><ele>21.0</ele><time>2026-04-04T11:27:57.213Z</time></trkpt><trkpt lat="41.4780305" lon="12.8360465"><ele>21.0</ele><time>2026-04-04T11:27:58.214Z</time></trkpt><trkpt lat="41.4778986" lon="12.8359916"><ele>21.5</ele><time>2026-04-04T11:28:00.213Z</time></trkpt><trkpt lat="41.4777565" lon="12.8359357"><ele>22.0</ele><time>2026-04-04T11:28:02.214Z</time></trkpt><trkpt lat="41.4776546" lon="12.8358919"><ele>22.5</ele><time>2026-04-04T11:28:04.213Z</time></trkpt><trkpt lat="41.4775924" lon="12.8358745"><ele>23.0</ele><time>2026-04-04T11:28:05.213Z</time></trkpt><trkpt lat="41.4774459" lon="12.8358379"><ele>23.0</ele><time>2026-04-04T11:28:07.213Z</time></trkpt><trkpt lat="41.4773159" lon="12.8357852"><ele>23.0</ele><time>2026-04-04T11:28:09.214Z</time></trkpt><trkpt lat="41.4771814" lon="12.8357464"><ele>23.0</ele><time>2026-04-04T11:28:11.213Z</time></trkpt><trkpt lat="41.477112" lon="12.83572"><ele>23.0</ele><time>2026-04-04T11:28:12.213Z</time></trkpt><trkpt lat="41.4770383" lon="12.8356969"><ele>23.0</ele><time>2026-04-04T11:28:13.214Z</time></trkpt><trkpt lat="41.4769309" lon="12.8356596"><ele>23.0</ele><time>2026-04-04T11:28:15.213Z</time></trkpt><trkpt lat="41.476833" lon="12.8356482"><ele>23.0</ele><time>2026-04-04T11:28:17.213Z</time></trkpt><trkpt lat="41.4767591" lon="12.8356365"><ele>23.0</ele><time>2026-04-04T11:28:19.214Z</time></trkpt><trkpt lat="41.4766809" lon="12.835591"><ele>23.0</ele><time>2026-04-04T11:28:21.213Z</time></trkpt><trkpt lat="41.4766204" lon="12.8355624"><ele>23.0</ele><time>2026-04-04T11:28:23.213Z</time></trkpt><trkpt lat="41.4765318" lon="12.8355302"><ele>23.0</ele><time>2026-04-04T11:28:26.213Z</time></trkpt><trkpt lat="41.4763659" lon="12.8354379"><ele>23.0</ele><time>2026-04-04T11:30:01.213Z</time></trkpt><trkpt lat="41.4762979" lon="12.8354101"><ele>23.0</ele><time>2026-04-04T11:30:02.213Z</time></trkpt><trkpt lat="41.4762216" lon="12.8353896"><ele>23.0</ele><time>2026-04-04T11:30:03.213Z</time></trkpt><trkpt lat="41.4761385" lon="12.8353561"><ele>23.0</ele><time>2026-04-04T11:30:04.214Z</time></trkpt><trkpt lat="41.4760708" lon="12.8353359"><ele>23.0</ele><time>2026-04-04T11:30:05.213Z</time></trkpt><trkpt lat="41.4759091" lon="12.8352995"><ele>22.799999999999997</ele><time>2026-04-04T11:30:07.213Z</time></trkpt><trkpt lat="41.4758381" lon="12.8352733"><ele>22.6</ele><time>2026-04-04T11:30:08.214Z</time></trkpt><trkpt lat="41.4756609" lon="12.8352018"><ele>22.4</ele><time>2026-04-04T11:30:10.214Z</time></trkpt><trkpt lat="41.4755793" lon="12.8351758"><ele>22.200000000000003</ele><time>2026-04-04T11:30:11.213Z</time></trkpt><trkpt lat="41.4754908" lon="12.8351564"><ele>22.0</ele><time>2026-04-04T11:30:12.213Z</time></trkpt><trkpt lat="41.4754132" lon="12.8351415"><ele>21.75</ele><time>2026-04-04T11:30:13.213Z</time></trkpt><trkpt lat="41.4752931" lon="12.83506"><ele>21.5</ele><time>2026-04-04T11:30:14.214Z</time></trkpt><trkpt lat="41.4751211" lon="12.8349829"><ele>21.25</ele><time>2026-04-04T11:30:16.213Z</time></trkpt><trkpt lat="41.475024" lon="12.8348916"><ele>21.0</ele><time>2026-04-04T11:30:17.213Z</time></trkpt><trkpt lat="41.4749116" lon="12.8348083"><ele>21.0</ele><time>2026-04-04T11:30:18.213Z</time></trkpt><trkpt lat="41.4747111" lon="12.8346039"><ele>21.0</ele><time>2026-04-04T11:30:20.213Z</time></trkpt><trkpt lat="41.4745665" lon="12.834372"><ele>21.0</ele><time>2026-04-04T11:30:22.214Z</time></trkpt><trkpt lat="41.4744588" lon="12.8341522"><ele>21.0</ele><time>2026-04-04T11:30:24.213Z</time></trkpt><trkpt lat="41.4744143" lon="12.8340553"><ele>21.0</ele><time>2026-04-04T11:30:25.214Z</time></trkpt><trkpt lat="41.4743737" lon="12.8339557"><ele>21.0</ele><time>2026-04-04T11:30:26.213Z</time></trkpt><trkpt lat="41.4743414" lon="12.8338474"><ele>21.0</ele><time>2026-04-04T11:30:27.214Z</time></trkpt><trkpt lat="41.4743044" lon="12.8337399"><ele>21.0</ele><time>2026-04-04T11:30:28.213Z</time></trkpt><trkpt lat="41.4742802" lon="12.8335716"><ele>21.0</ele><time>2026-04-04T11:30:29.213Z</time></trkpt><trkpt lat="41.4742402" lon="12.8332176"><ele>20.0</ele><time>2026-04-04T11:30:31.214Z</time></trkpt><trkpt lat="41.4742397" lon="12.832888"><ele>19.0</ele><time>2026-04-04T11:30:33.213Z</time></trkpt><trkpt lat="41.4742559" lon="12.8327207"><ele>18.0</ele><time>2026-04-04T11:30:34.213Z</time></trkpt><trkpt lat="41.4742812" lon="12.8325664"><ele>18.0</ele><time>2026-04-04T11:30:35.213Z</time></trkpt><trkpt lat="41.4743681" lon="12.8322664"><ele>18.0</ele><time>2026-04-04T11:30:37.213Z</time></trkpt><trkpt lat="41.4744153" lon="12.8321114"><ele>18.0</ele><time>2026-04-04T11:30:38.213Z</time></trkpt><trkpt lat="41.4744646" lon="12.8319705"><ele>18.0</ele><time>2026-04-04T11:30:39.214Z</time></trkpt><trkpt lat="41.4745182" lon="12.8318146"><ele>18.0</ele><time>2026-04-04T11:30:40.213Z</time></trkpt><trkpt lat="41.4745699" lon="12.8316581"><ele>18.0</ele><time>2026-04-04T11:30:41.214Z</time></trkpt><trkpt lat="41.4746182" lon="12.8315161"><ele>18.0</ele><time>2026-04-04T11:30:42.213Z</time></trkpt><trkpt lat="41.4746683" lon="12.8313727"><ele>18.0</ele><time>2026-04-04T11:30:43.213Z</time></trkpt><trkpt lat="41.4747158" lon="12.8312364"><ele>18.0</ele><time>2026-04-04T11:30:44.214Z</time></trkpt><trkpt lat="41.4747629" lon="12.8311056"><ele>18.0</ele><time>2026-04-04T11:30:45.213Z</time></trkpt><trkpt lat="41.4748373" lon="12.8308711"><ele>18.0</ele><time>2026-04-04T11:30:47.213Z</time></trkpt><trkpt lat="41.4749032" lon="12.830682"><ele>18.0</ele><time>2026-04-04T11:30:49.213Z</time></trkpt><trkpt lat="41.4749461" lon="12.8305271"><ele>18.0</ele><time>2026-04-04T11:30:51.214Z</time></trkpt><trkpt lat="41.4749399" lon="12.830411"><ele>18.0</ele><time>2026-04-04T11:30:53.213Z</time></trkpt><trkpt lat="41.4749067" lon="12.8303155"><ele>18.0</ele><time>2026-04-04T11:30:55.213Z</time></trkpt><trkpt lat="41.4749118" lon="12.8301993"><ele>18.0</ele><time>2026-04-04T11:30:57.213Z</time></trkpt><trkpt lat="41.4749761" lon="12.830054"><ele>17.8</ele><time>2026-04-04T11:30:59.213Z</time></trkpt><trkpt lat="41.4750134" lon="12.8299812"><ele>17.6</ele><time>2026-04-04T11:31:00.214Z</time></trkpt><trkpt lat="41.4750691" lon="12.8298375"><ele>17.4</ele><time>2026-04-04T11:31:02.213Z</time></trkpt><trkpt lat="41.4751237" lon="12.8296975"><ele>17.2</ele><time>2026-04-04T11:31:04.213Z</time></trkpt><trkpt lat="41.4751533" lon="12.8296201"><ele>17.0</ele><time>2026-04-04T11:31:05.213Z</time></trkpt><trkpt lat="41.4751928" lon="12.8295286"><ele>17.0</ele><time>2026-04-04T11:31:06.213Z</time></trkpt><trkpt lat="41.475232" lon="12.829443"><ele>17.0</ele><time>2026-04-04T11:31:07.214Z</time></trkpt><trkpt lat="41.4753147" lon="12.8292259"><ele>17.0</ele><time>2026-04-04T11:31:09.214Z</time></trkpt><trkpt lat="41.4753556" lon="12.8291199"><ele>17.0</ele><time>2026-04-04T11:31:10.213Z</time></trkpt><trkpt lat="41.4753927" lon="12.8290011"><ele>17.0</ele><time>2026-04-04T11:31:11.213Z</time></trkpt><trkpt lat="41.4754702" lon="12.8287572"><ele>17.2</ele><time>2026-04-04T11:31:13.213Z</time></trkpt><trkpt lat="41.4755071" lon="12.8286309"><ele>17.4</ele><time>2026-04-04T11:31:14.213Z</time></trkpt><trkpt lat="41.4755472" lon="12.8285134"><ele>17.6</ele><time>2026-04-04T11:31:15.213Z</time></trkpt><trkpt lat="41.4755875" lon="12.8283973"><ele>17.8</ele><time>2026-04-04T11:31:16.213Z</time></trkpt><trkpt lat="41.4756222" lon="12.8282827"><ele>18.0</ele><time>2026-04-04T11:31:17.213Z</time></trkpt><trkpt lat="41.4756532" lon="12.828182"><ele>18.25</ele><time>2026-04-04T11:31:18.213Z</time></trkpt><trkpt lat="41.4757175" lon="12.8279933"><ele>18.5</ele><time>2026-04-04T11:31:20.214Z</time></trkpt><trkpt lat="41.4757496" lon="12.8278952"><ele>18.75</ele><time>2026-04-04T11:31:21.214Z</time></trkpt><trkpt lat="41.4758119" lon="12.8276904"><ele>19.0</ele><time>2026-04-04T11:31:23.213Z</time></trkpt><trkpt lat="41.4758669" lon="12.827482"><ele>19.0</ele><time>2026-04-04T11:31:25.213Z</time></trkpt><trkpt lat="41.4758887" lon="12.8273724"><ele>19.0</ele><time>2026-04-04T11:31:26.213Z</time></trkpt><trkpt lat="41.4759143" lon="12.8272681"><ele>19.0</ele><time>2026-04-04T11:31:27.213Z</time></trkpt><trkpt lat="41.4759665" lon="12.8271141"><ele>19.0</ele><time>2026-04-04T11:31:29.213Z</time></trkpt><trkpt lat="41.47603" lon="12.8269545"><ele>19.0</ele><time>2026-04-04T11:31:32.213Z</time></trkpt><trkpt lat="41.4760402" lon="12.8268492"><ele>19.0</ele><time>2026-04-04T11:31:34.213Z</time></trkpt><trkpt lat="41.4760852" lon="12.8267055"><ele>19.0</ele><time>2026-04-04T11:31:36.214Z</time></trkpt><trkpt lat="41.4761265" lon="12.8264823"><ele>19.0</ele><time>2026-04-04T11:31:39.213Z</time></trkpt><trkpt lat="41.4761367" lon="12.8263983"><ele>19.0</ele><time>2026-04-04T11:31:40.214Z</time></trkpt><trkpt lat="41.4761488" lon="12.8263132"><ele>19.0</ele><time>2026-04-04T11:31:41.213Z</time></trkpt><trkpt lat="41.4761645" lon="12.8262133"><ele>19.0</ele><time>2026-04-04T11:31:42.213Z</time></trkpt><trkpt lat="41.4761799" lon="12.8260914"><ele>19.0</ele><time>2026-04-04T11:31:43.213Z</time></trkpt><trkpt lat="41.4761931" lon="12.8259799"><ele>19.0</ele><time>2026-04-04T11:31:44.213Z</time></trkpt><trkpt lat="41.4762009" lon="12.8258592"><ele>19.0</ele><time>2026-04-04T11:31:45.214Z</time></trkpt><trkpt lat="41.4762103" lon="12.8257439"><ele>19.0</ele><time>2026-04-04T11:31:46.213Z</time></trkpt><trkpt lat="41.4762214" lon="12.8256301"><ele>19.0</ele><time>2026-04-04T11:31:47.213Z</time></trkpt><trkpt lat="41.4762288" lon="12.8255309"><ele>19.0</ele><time>2026-04-04T11:31:48.213Z</time></trkpt><trkpt lat="41.4762332" lon="12.8254328"><ele>19.0</ele><time>2026-04-04T11:31:49.213Z</time></trkpt><trkpt lat="41.4762427" lon="12.8253256"><ele>19.0</ele><time>2026-04-04T11:31:50.213Z</time></trkpt><trkpt lat="41.4762507" lon="12.8251342"><ele>19.0</ele><time>2026-04-04T11:31:52.213Z</time></trkpt><trkpt lat="41.476256" lon="12.8250322"><ele>19.0</ele><time>2026-04-04T11:31:53.213Z</time></trkpt><trkpt lat="41.4762614" lon="12.8249348"><ele>19.0</ele><time>2026-04-04T11:31:54.213Z</time></trkpt><trkpt lat="41.4762517" lon="12.8247482"><ele>19.0</ele><time>2026-04-04T11:31:56.213Z</time></trkpt><trkpt lat="41.4762368" lon="12.8246662"><ele>19.0</ele><time>2026-04-04T11:31:57.214Z</time></trkpt><trkpt lat="41.4762466" lon="12.8245547"><ele>19.0</ele><time>2026-04-04T11:31:58.214Z</time></trkpt><trkpt lat="41.476256" lon="12.8244238"><ele>19.0</ele><time>2026-04-04T11:31:59.213Z</time></trkpt><trkpt lat="41.4762645" lon="12.8242924"><ele>19.0</ele><time>2026-04-04T11:32:00.213Z</time></trkpt><trkpt lat="41.476268" lon="12.824135"><ele>18.5</ele><time>2026-04-04T11:32:01.213Z</time></trkpt><trkpt lat="41.4762758" lon="12.8237789"><ele>18.0</ele><time>2026-04-04T11:32:03.214Z</time></trkpt><trkpt lat="41.4762845" lon="12.8234268"><ele>18.0</ele><time>2026-04-04T11:32:05.213Z</time></trkpt><trkpt lat="41.4762823" lon="12.8232675"><ele>18.0</ele><time>2026-04-04T11:32:06.213Z</time></trkpt><trkpt lat="41.4762626" lon="12.8231118"><ele>18.0</ele><time>2026-04-04T11:32:07.214Z</time></trkpt><trkpt lat="41.476232" lon="12.8229431"><ele>18.0</ele><time>2026-04-04T11:32:08.214Z</time></trkpt><trkpt lat="41.4761935" lon="12.8227777"><ele>18.0</ele><time>2026-04-04T11:32:09.213Z</time></trkpt><trkpt lat="41.4761513" lon="12.8226181"><ele>18.0</ele><time>2026-04-04T11:32:10.213Z</time></trkpt><trkpt lat="41.476107" lon="12.8224714"><ele>18.0</ele><time>2026-04-04T11:32:11.213Z</time></trkpt><trkpt lat="41.4760441" lon="12.822329"><ele>18.0</ele><time>2026-04-04T11:32:12.213Z</time></trkpt><trkpt lat="41.4759075" lon="12.8220828"><ele>18.0</ele><time>2026-04-04T11:32:14.213Z</time></trkpt><trkpt lat="41.4757452" lon="12.8218841"><ele>18.0</ele><time>2026-04-04T11:32:16.213Z</time></trkpt><trkpt lat="41.4755464" lon="12.8217372"><ele>18.0</ele><time>2026-04-04T11:32:18.213Z</time></trkpt><trkpt lat="41.4753498" lon="12.8216058"><ele>18.0</ele><time>2026-04-04T11:32:20.214Z</time></trkpt><trkpt lat="41.4751224" lon="12.8215207"><ele>18.0</ele><time>2026-04-04T11:32:22.214Z</time></trkpt><trkpt lat="41.474849" lon="12.8215073"><ele>18.0</ele><time>2026-04-04T11:32:24.213Z</time></trkpt><trkpt lat="41.4747164" lon="12.8215073"><ele>18.0</ele><time>2026-04-04T11:32:25.214Z</time></trkpt><trkpt lat="41.4745609" lon="12.8215527"><ele>18.0</ele><time>2026-04-04T11:32:26.213Z</time></trkpt><trkpt lat="41.4744168" lon="12.8215774"><ele>18.0</ele><time>2026-04-04T11:32:27.214Z</time></trkpt><trkpt lat="41.4741318" lon="12.8216213"><ele>17.666666666666668</ele><time>2026-04-04T11:32:29.213Z</time></trkpt><trkpt lat="41.4738515" lon="12.8216361"><ele>17.333333333333336</ele><time>2026-04-04T11:32:31.213Z</time></trkpt><trkpt lat="41.4737005" lon="12.8216361"><ele>17.0</ele><time>2026-04-04T11:32:32.213Z</time></trkpt><trkpt lat="41.4735642" lon="12.8216463"><ele>17.0</ele><time>2026-04-04T11:32:33.214Z</time></trkpt><trkpt lat="41.4734329" lon="12.8216751"><ele>17.0</ele><time>2026-04-04T11:32:34.213Z</time></trkpt><trkpt lat="41.4731478" lon="12.821719"><ele>17.0</ele><time>2026-04-04T11:32:36.214Z</time></trkpt><trkpt lat="41.473009" lon="12.8217445"><ele>16.666666666666668</ele><time>2026-04-04T11:32:37.213Z</time></trkpt><trkpt lat="41.472712" lon="12.8217622"><ele>16.333333333333332</ele><time>2026-04-04T11:32:39.213Z</time></trkpt><trkpt lat="41.4725789" lon="12.8217366"><ele>16.0</ele><time>2026-04-04T11:32:40.213Z</time></trkpt><trkpt lat="41.4724729" lon="12.8217097"><ele>16.0</ele><time>2026-04-04T11:32:41.213Z</time></trkpt><trkpt lat="41.4723559" lon="12.8217067"><ele>16.0</ele><time>2026-04-04T11:32:42.214Z</time></trkpt><trkpt lat="41.4722332" lon="12.8216919"><ele>16.0</ele><time>2026-04-04T11:32:43.213Z</time></trkpt><trkpt lat="41.4721178" lon="12.8216515"><ele>16.0</ele><time>2026-04-04T11:32:44.213Z</time></trkpt><trkpt lat="41.4720029" lon="12.8216046"><ele>16.5</ele><time>2026-04-04T11:32:45.213Z</time></trkpt><trkpt lat="41.4717726" lon="12.8214813"><ele>17.0</ele><time>2026-04-04T11:32:47.213Z</time></trkpt><trkpt lat="41.47158" lon="12.8213022"><ele>17.0</ele><time>2026-04-04T11:32:49.214Z</time></trkpt><trkpt lat="41.4714072" lon="12.8211115"><ele>17.0</ele><time>2026-04-04T11:32:51.213Z</time></trkpt><trkpt lat="41.4713239" lon="12.8210264"><ele>17.0</ele><time>2026-04-04T11:32:52.213Z</time></trkpt><trkpt lat="41.4712584" lon="12.8209357"><ele>17.0</ele><time>2026-04-04T11:32:53.213Z</time></trkpt><trkpt lat="41.4711663" lon="12.820786"><ele>17.0</ele><time>2026-04-04T11:32:55.213Z</time></trkpt><trkpt lat="41.471106" lon="12.8206102"><ele>17.0</ele><time>2026-04-04T11:32:57.213Z</time></trkpt><trkpt lat="41.4710748" lon="12.820496"><ele>17.0</ele><time>2026-04-04T11:32:58.213Z</time></trkpt><trkpt lat="41.4710446" lon="12.8203925"><ele>17.0</ele><time>2026-04-04T11:32:59.214Z</time></trkpt><trkpt lat="41.4710115" lon="12.8202866"><ele>17.0</ele><time>2026-04-04T11:33:00.213Z</time></trkpt><trkpt lat="41.4709634" lon="12.8201007"><ele>17.0</ele><time>2026-04-04T11:33:02.213Z</time></trkpt><trkpt lat="41.4709179" lon="12.8200192"><ele>17.0</ele><time>2026-04-04T11:33:03.214Z</time></trkpt><trkpt lat="41.4708819" lon="12.8199473"><ele>17.0</ele><time>2026-04-04T11:33:04.213Z</time></trkpt><trkpt lat="41.4708567" lon="12.8198421"><ele>17.0</ele><time>2026-04-04T11:33:05.214Z</time></trkpt><trkpt lat="41.4708177" lon="12.8197362"><ele>17.0</ele><time>2026-04-04T11:33:06.214Z</time></trkpt><trkpt lat="41.4707649" lon="12.819632"><ele>17.0</ele><time>2026-04-04T11:33:07.214Z</time></trkpt><trkpt lat="41.4707225" lon="12.8195246"><ele>17.0</ele><time>2026-04-04T11:33:08.213Z</time></trkpt><trkpt lat="41.4706766" lon="12.8194152"><ele>17.0</ele><time>2026-04-04T11:33:09.213Z</time></trkpt><trkpt lat="41.4706362" lon="12.8193025"><ele>17.0</ele><time>2026-04-04T11:33:10.213Z</time></trkpt><trkpt lat="41.4706022" lon="12.8191922"><ele>17.0</ele><time>2026-04-04T11:33:11.213Z</time></trkpt><trkpt lat="41.470572" lon="12.819078"><ele>17.0</ele><time>2026-04-04T11:33:12.213Z</time></trkpt><trkpt lat="41.4705317" lon="12.8189191"><ele>16.857142857142854</ele><time>2026-04-04T11:33:14.214Z</time></trkpt><trkpt lat="41.4705054" lon="12.8188292"><ele>16.714285714285715</ele><time>2026-04-04T11:33:16.214Z</time></trkpt><trkpt lat="41.4704831" lon="12.8187395"><ele>16.57142857142857</ele><time>2026-04-04T11:33:18.214Z</time></trkpt><trkpt lat="41.4705122" lon="12.8186589"><ele>16.428571428571427</ele><time>2026-04-04T11:33:20.213Z</time></trkpt><trkpt lat="41.4705762" lon="12.8186117"><ele>16.285714285714285</ele><time>2026-04-04T11:33:23.213Z</time></trkpt><trkpt lat="41.4705725" lon="12.8185222"><ele>16.142857142857142</ele><time>2026-04-04T11:33:27.213Z</time></trkpt><trkpt lat="41.4705148" lon="12.8184434"><ele>16.0</ele><time>2026-04-04T11:33:30.213Z</time></trkpt><trkpt lat="41.4704383" lon="12.8183939"><ele>16.5</ele><time>2026-04-04T11:33:32.213Z</time></trkpt><trkpt lat="41.4703813" lon="12.8182298"><ele>17.0</ele><time>2026-04-04T11:33:34.213Z</time></trkpt><trkpt lat="41.4703069" lon="12.81804"><ele>17.5</ele><time>2026-04-04T11:33:36.213Z</time></trkpt><trkpt lat="41.470276" lon="12.8179505"><ele>18.0</ele><time>2026-04-04T11:33:37.213Z</time></trkpt><trkpt lat="41.470246" lon="12.8178404"><ele>18.0</ele><time>2026-04-04T11:33:38.214Z</time></trkpt><trkpt lat="41.4702004" lon="12.8177336"><ele>18.0</ele><time>2026-04-04T11:33:39.213Z</time></trkpt><trkpt lat="41.4701676" lon="12.8176232"><ele>18.0</ele><time>2026-04-04T11:33:40.213Z</time></trkpt><trkpt lat="41.4701226" lon="12.8174961"><ele>18.0</ele><time>2026-04-04T11:33:41.213Z</time></trkpt><trkpt lat="41.4700065" lon="12.8171841"><ele>17.5</ele><time>2026-04-04T11:33:44.213Z</time></trkpt><trkpt lat="41.469974" lon="12.8170935"><ele>17.0</ele><time>2026-04-04T11:33:45.213Z</time></trkpt><trkpt lat="41.469906" lon="12.8168893"><ele>16.5</ele><time>2026-04-04T11:33:47.213Z</time></trkpt><trkpt lat="41.4698238" lon="12.8166643"><ele>16.0</ele><time>2026-04-04T11:33:49.214Z</time></trkpt><trkpt lat="41.4697895" lon="12.8165633"><ele>16.2</ele><time>2026-04-04T11:33:50.213Z</time></trkpt><trkpt lat="41.4697574" lon="12.8164419"><ele>16.400000000000002</ele><time>2026-04-04T11:33:51.213Z</time></trkpt><trkpt lat="41.4697157" lon="12.8163308"><ele>16.6</ele><time>2026-04-04T11:33:52.213Z</time></trkpt><trkpt lat="41.4696769" lon="12.8162108"><ele>16.8</ele><time>2026-04-04T11:33:53.213Z</time></trkpt><trkpt lat="41.4696416" lon="12.8160924"><ele>17.0</ele><time>2026-04-04T11:33:54.213Z</time></trkpt><trkpt lat="41.4696" lon="12.8159903"><ele>17.0</ele><time>2026-04-04T11:33:55.214Z</time></trkpt><trkpt lat="41.4695144" lon="12.8157415"><ele>17.0</ele><time>2026-04-04T11:33:57.213Z</time></trkpt><trkpt lat="41.4694291" lon="12.8155226"><ele>17.0</ele><time>2026-04-04T11:33:59.213Z</time></trkpt><trkpt lat="41.4693841" lon="12.8154138"><ele>17.0</ele><time>2026-04-04T11:34:00.213Z</time></trkpt><trkpt lat="41.4693376" lon="12.8152892"><ele>17.0</ele><time>2026-04-04T11:34:01.213Z</time></trkpt><trkpt lat="41.4692912" lon="12.8151758"><ele>17.0</ele><time>2026-04-04T11:34:02.213Z</time></trkpt><trkpt lat="41.4692526" lon="12.8150586"><ele>17.0</ele><time>2026-04-04T11:34:03.214Z</time></trkpt><trkpt lat="41.469165" lon="12.8148046"><ele>16.5</ele><time>2026-04-04T11:34:05.214Z</time></trkpt><trkpt lat="41.4691164" lon="12.8146778"><ele>16.0</ele><time>2026-04-04T11:34:06.213Z</time></trkpt><trkpt lat="41.4690697" lon="12.8145613"><ele>15.5</ele><time>2026-04-04T11:34:07.213Z</time></trkpt><trkpt lat="41.4690238" lon="12.8144511"><ele>15.0</ele><time>2026-04-04T11:34:08.213Z</time></trkpt><trkpt lat="41.468965" lon="12.8142611"><ele>15.0</ele><time>2026-04-04T11:34:10.213Z</time></trkpt><trkpt lat="41.4689376" lon="12.8141675"><ele>15.0</ele><time>2026-04-04T11:34:11.214Z</time></trkpt><trkpt lat="41.4689035" lon="12.8140723"><ele>15.0</ele><time>2026-04-04T11:34:12.213Z</time></trkpt><trkpt lat="41.4688173" lon="12.8138752"><ele>15.0</ele><time>2026-04-04T11:34:14.213Z</time></trkpt><trkpt lat="41.468747" lon="12.8136661"><ele>15.0</ele><time>2026-04-04T11:34:16.213Z</time></trkpt><trkpt lat="41.4686963" lon="12.8135649"><ele>15.0</ele><time>2026-04-04T11:34:17.213Z</time></trkpt><trkpt lat="41.4685966" lon="12.813354"><ele>15.0</ele><time>2026-04-04T11:34:19.213Z</time></trkpt><trkpt lat="41.4685356" lon="12.81326"><ele>15.0</ele><time>2026-04-04T11:34:20.213Z</time></trkpt><trkpt lat="41.4684516" lon="12.8131707"><ele>15.0</ele><time>2026-04-04T11:34:21.213Z</time></trkpt><trkpt lat="41.4683164" lon="12.8130381"><ele>15.0</ele><time>2026-04-04T11:34:23.213Z</time></trkpt><trkpt lat="41.4682284" lon="12.8130318"><ele>15.0</ele><time>2026-04-04T11:34:25.213Z</time></trkpt><trkpt lat="41.4681655" lon="12.8131702"><ele>15.0</ele><time>2026-04-04T11:34:27.214Z</time></trkpt><trkpt lat="41.468052" lon="12.813297"><ele>15.0</ele><time>2026-04-04T11:34:30.213Z</time></trkpt><trkpt lat="41.4679594" lon="12.8133018"><ele>15.0</ele><time>2026-04-04T11:34:32.214Z</time></trkpt><trkpt lat="41.4678728" lon="12.813313"><ele>15.0</ele><time>2026-04-04T11:34:33.213Z</time></trkpt><trkpt lat="41.4676463" lon="12.8133652"><ele>15.0</ele><time>2026-04-04T11:34:35.213Z</time></trkpt><trkpt lat="41.4674641" lon="12.8133856"><ele>15.25</ele><time>2026-04-04T11:34:37.213Z</time></trkpt><trkpt lat="41.4672782" lon="12.8134019"><ele>15.5</ele><time>2026-04-04T11:34:39.214Z</time></trkpt><trkpt lat="41.4671521" lon="12.8134046"><ele>15.75</ele><time>2026-04-04T11:34:41.213Z</time></trkpt><trkpt lat="41.4670456" lon="12.8133859"><ele>16.0</ele><time>2026-04-04T11:34:43.213Z</time></trkpt><trkpt lat="41.4669934" lon="12.8133244"><ele>16.0</ele><time>2026-04-04T11:34:44.213Z</time></trkpt><trkpt lat="41.4668422" lon="12.8133059"><ele>16.0</ele><time>2026-04-04T11:34:46.213Z</time></trkpt><trkpt lat="41.4667281" lon="12.813308"><ele>16.0</ele><time>2026-04-04T11:34:47.213Z</time></trkpt><trkpt lat="41.4666273" lon="12.8133213"><ele>16.0</ele><time>2026-04-04T11:34:48.213Z</time></trkpt><trkpt lat="41.4665131" lon="12.8132911"><ele>16.0</ele><time>2026-04-04T11:34:49.213Z</time></trkpt><trkpt lat="41.4662878" lon="12.8132095"><ele>16.0</ele><time>2026-04-04T11:34:51.213Z</time></trkpt><trkpt lat="41.4658345" lon="12.8130328"><ele>15.5</ele><time>2026-04-04T11:34:53.213Z</time></trkpt><trkpt lat="41.4655445" lon="12.8128613"><ele>15.0</ele><time>2026-04-04T11:34:55.213Z</time></trkpt><trkpt lat="41.4652742" lon="12.8125912"><ele>14.666666666666668</ele><time>2026-04-04T11:34:57.213Z</time></trkpt><trkpt lat="41.4651462" lon="12.8124279"><ele>14.333333333333334</ele><time>2026-04-04T11:34:58.213Z</time></trkpt><trkpt lat="41.4650201" lon="12.8122777"><ele>14.0</ele><time>2026-04-04T11:34:59.213Z</time></trkpt><trkpt lat="41.4648712" lon="12.8121384"><ele>14.0</ele><time>2026-04-04T11:35:00.213Z</time></trkpt><trkpt lat="41.4647451" lon="12.8120195"><ele>14.0</ele><time>2026-04-04T11:35:01.213Z</time></trkpt><trkpt lat="41.4646304" lon="12.8118961"><ele>14.0</ele><time>2026-04-04T11:35:02.213Z</time></trkpt><trkpt lat="41.4644841" lon="12.811696"><ele>14.0</ele><time>2026-04-04T11:35:04.213Z</time></trkpt><trkpt lat="41.4644279" lon="12.811589"><ele>13.999999999999998</ele><time>2026-04-04T11:35:06.213Z</time></trkpt><trkpt lat="41.4643364" lon="12.8115014"><ele>13.999999999999998</ele><time>2026-04-04T11:35:09.213Z</time></trkpt><trkpt lat="41.4642453" lon="12.8114701"><ele>14.0</ele><time>2026-04-04T11:35:10.213Z</time></trkpt><trkpt lat="41.4641626" lon="12.8114489"><ele>14.0</ele><time>2026-04-04T11:35:11.213Z</time></trkpt><trkpt lat="41.4639887" lon="12.8114202"><ele>14.0</ele><time>2026-04-04T11:35:13.213Z</time></trkpt><trkpt lat="41.4639107" lon="12.8114081"><ele>14.0</ele><time>2026-04-04T11:35:14.213Z</time></trkpt><trkpt lat="41.463717" lon="12.8114213"><ele>14.0</ele><time>2026-04-04T11:35:16.213Z</time></trkpt><trkpt lat="41.4635621" lon="12.8114401"><ele>14.0</ele><time>2026-04-04T11:35:18.213Z</time></trkpt><trkpt lat="41.4634914" lon="12.8114556"><ele>14.2</ele><time>2026-04-04T11:35:19.214Z</time></trkpt><trkpt lat="41.4633458" lon="12.8114868"><ele>14.399999999999999</ele><time>2026-04-04T11:35:21.213Z</time></trkpt><trkpt lat="41.4632267" lon="12.8114844"><ele>14.6</ele><time>2026-04-04T11:35:23.213Z</time></trkpt><trkpt lat="41.4631565" lon="12.8115098"><ele>14.8</ele><time>2026-04-04T11:35:25.213Z</time></trkpt><trkpt lat="41.4631176" lon="12.811381"><ele>15.0</ele><time>2026-04-04T11:35:43.213Z</time></trkpt><trkpt lat="41.463093" lon="12.8112021"><ele>15.0</ele><time>2026-04-04T11:35:45.213Z</time></trkpt><trkpt lat="41.4630835" lon="12.811026"><ele>15.0</ele><time>2026-04-04T11:35:46.213Z</time></trkpt><trkpt lat="41.4630741" lon="12.8108891"><ele>15.0</ele><time>2026-04-04T11:35:47.213Z</time></trkpt><trkpt lat="41.4630561" lon="12.8106801"><ele>15.0</ele><time>2026-04-04T11:35:49.213Z</time></trkpt><trkpt lat="41.4630425" lon="12.8105707"><ele>14.75</ele><time>2026-04-04T11:35:51.213Z</time></trkpt><trkpt lat="41.4629724" lon="12.8105818"><ele>14.5</ele><time>2026-04-04T11:35:53.214Z</time></trkpt><trkpt lat="41.4627938" lon="12.8106195"><ele>14.25</ele><time>2026-04-04T11:35:55.213Z</time></trkpt><trkpt lat="41.4626969" lon="12.8106407"><ele>14.0</ele><time>2026-04-04T11:35:56.214Z</time></trkpt><trkpt lat="41.4624785" lon="12.8107136"><ele>14.666666666666668</ele><time>2026-04-04T11:35:58.213Z</time></trkpt><trkpt lat="41.46224" lon="12.8107505"><ele>15.333333333333332</ele><time>2026-04-04T11:36:00.213Z</time></trkpt><trkpt lat="41.4621168" lon="12.8107707"><ele>16.0</ele><time>2026-04-04T11:36:01.214Z</time></trkpt><trkpt lat="41.4620214" lon="12.8108081"><ele>16.333333333333332</ele><time>2026-04-04T11:36:02.214Z</time></trkpt><trkpt lat="41.4618391" lon="12.81088"><ele>16.666666666666668</ele><time>2026-04-04T11:36:04.213Z</time></trkpt><trkpt lat="41.4617498" lon="12.8109073"><ele>17.0</ele><time>2026-04-04T11:36:05.213Z</time></trkpt><trkpt lat="41.4615742" lon="12.8109682"><ele>16.0</ele><time>2026-04-04T11:36:07.213Z</time></trkpt><trkpt lat="41.4614942" lon="12.8109948"><ele>15.0</ele><time>2026-04-04T11:36:08.213Z</time></trkpt><trkpt lat="41.4614114" lon="12.8110338"><ele>14.0</ele><time>2026-04-04T11:36:09.214Z</time></trkpt><trkpt lat="41.4612011" lon="12.8111795"><ele>13.0</ele><time>2026-04-04T11:36:11.214Z</time></trkpt><trkpt lat="41.4611106" lon="12.811223"><ele>13.0</ele><time>2026-04-04T11:36:12.213Z</time></trkpt><trkpt lat="41.4610215" lon="12.8112872"><ele>13.0</ele><time>2026-04-04T11:36:13.213Z</time></trkpt><trkpt lat="41.4609359" lon="12.8113381"><ele>13.0</ele><time>2026-04-04T11:36:14.214Z</time></trkpt><trkpt lat="41.4608633" lon="12.811399"><ele>13.0</ele><time>2026-04-04T11:36:15.213Z</time></trkpt><trkpt lat="41.4607487" lon="12.8114611"><ele>13.0</ele><time>2026-04-04T11:36:17.213Z</time></trkpt><trkpt lat="41.4606184" lon="12.8114444"><ele>13.0</ele><time>2026-04-04T11:36:20.213Z</time></trkpt><trkpt lat="41.4604903" lon="12.8114615"><ele>13.0</ele><time>2026-04-04T11:36:22.213Z</time></trkpt><trkpt lat="41.4604019" lon="12.8114823"><ele>13.0</ele><time>2026-04-04T11:36:23.213Z</time></trkpt><trkpt lat="41.4602189" lon="12.8117587"><ele>12.75</ele><time>2026-04-04T11:36:25.213Z</time></trkpt><trkpt lat="41.4601207" lon="12.8118504"><ele>12.5</ele><time>2026-04-04T11:36:26.213Z</time></trkpt><trkpt lat="41.4600256" lon="12.8119368"><ele>12.25</ele><time>2026-04-04T11:36:27.213Z</time></trkpt><trkpt lat="41.4599288" lon="12.8120041"><ele>12.0</ele><time>2026-04-04T11:36:28.213Z</time></trkpt><trkpt lat="41.459696" lon="12.8121996"><ele>11.5</ele><time>2026-04-04T11:36:30.213Z</time></trkpt><trkpt lat="41.4594124" lon="12.8124124"><ele>11.0</ele><time>2026-04-04T11:36:32.213Z</time></trkpt><trkpt lat="41.4591147" lon="12.8126751"><ele>11.0</ele><time>2026-04-04T11:36:34.213Z</time></trkpt><trkpt lat="41.4589741" lon="12.8127955"><ele>11.0</ele><time>2026-04-04T11:36:35.213Z</time></trkpt><trkpt lat="41.4588436" lon="12.8129386"><ele>11.0</ele><time>2026-04-04T11:36:36.213Z</time></trkpt><trkpt lat="41.4587355" lon="12.813048"><ele>12.0</ele><time>2026-04-04T11:36:37.213Z</time></trkpt><trkpt lat="41.4586048" lon="12.8131687"><ele>13.0</ele><time>2026-04-04T11:36:38.213Z</time></trkpt><trkpt lat="41.4583694" lon="12.8133159"><ele>14.0</ele><time>2026-04-04T11:36:40.214Z</time></trkpt><trkpt lat="41.4581473" lon="12.8134795"><ele>14.0</ele><time>2026-04-04T11:36:42.213Z</time></trkpt><trkpt lat="41.457945" lon="12.8136274"><ele>14.0</ele><time>2026-04-04T11:36:44.213Z</time></trkpt><trkpt lat="41.4577346" lon="12.8138056"><ele>14.0</ele><time>2026-04-04T11:36:46.214Z</time></trkpt><trkpt lat="41.4575293" lon="12.8139713"><ele>14.0</ele><time>2026-04-04T11:36:48.213Z</time></trkpt><trkpt lat="41.4574309" lon="12.8140365"><ele>14.0</ele><time>2026-04-04T11:36:49.213Z</time></trkpt><trkpt lat="41.4572477" lon="12.8141938"><ele>14.000000000000002</ele><time>2026-04-04T11:36:51.213Z</time></trkpt><trkpt lat="41.4571598" lon="12.8142635"><ele>14.0</ele><time>2026-04-04T11:36:52.213Z</time></trkpt><trkpt lat="41.4570824" lon="12.8143187"><ele>14.0</ele><time>2026-04-04T11:36:53.213Z</time></trkpt><trkpt lat="41.4570176" lon="12.8143709"><ele>14.0</ele><time>2026-04-04T11:36:54.213Z</time></trkpt><trkpt lat="41.4569462" lon="12.8144005"><ele>14.000000000000002</ele><time>2026-04-04T11:36:55.213Z</time></trkpt><trkpt lat="41.4568671" lon="12.8144637"><ele>14.0</ele><time>2026-04-04T11:36:58.213Z</time></trkpt><trkpt lat="41.4568162" lon="12.8145136"><ele>13.399999999999999</ele><time>2026-04-04T11:37:01.213Z</time></trkpt><trkpt lat="41.456788" lon="12.8146315"><ele>12.799999999999999</ele><time>2026-04-04T11:37:03.213Z</time></trkpt><trkpt lat="41.4567336" lon="12.8148016"><ele>12.2</ele><time>2026-04-04T11:37:06.214Z</time></trkpt><trkpt lat="41.4566571" lon="12.814855"><ele>11.600000000000001</ele><time>2026-04-04T11:37:08.213Z</time></trkpt><trkpt lat="41.4565895" lon="12.8149276"><ele>11.0</ele><time>2026-04-04T11:37:10.213Z</time></trkpt><trkpt lat="41.4564855" lon="12.8149741"><ele>11.0</ele><time>2026-04-04T11:37:12.214Z</time></trkpt><trkpt lat="41.4564257" lon="12.8150304"><ele>11.0</ele><time>2026-04-04T11:37:13.213Z</time></trkpt><trkpt lat="41.456361" lon="12.8150744"><ele>11.0</ele><time>2026-04-04T11:37:14.213Z</time></trkpt><trkpt lat="41.4562181" lon="12.8151878"><ele>11.0</ele><time>2026-04-04T11:37:16.213Z</time></trkpt><trkpt lat="41.4560614" lon="12.8152424"><ele>10.5</ele><time>2026-04-04T11:37:18.214Z</time></trkpt><trkpt lat="41.4558825" lon="12.8152744"><ele>10.0</ele><time>2026-04-04T11:37:20.213Z</time></trkpt><trkpt lat="41.4557932" lon="12.8153196"><ele>9.5</ele><time>2026-04-04T11:37:21.213Z</time></trkpt><trkpt lat="41.4557246" lon="12.8153005"><ele>9.0</ele><time>2026-04-04T11:37:22.213Z</time></trkpt><trkpt lat="41.4555623" lon="12.815349"><ele>9.0</ele><time>2026-04-04T11:37:24.214Z</time></trkpt><trkpt lat="41.4554693" lon="12.8153671"><ele>9.0</ele><time>2026-04-04T11:37:25.214Z</time></trkpt><trkpt lat="41.4553169" lon="12.8153484"><ele>9.0</ele><time>2026-04-04T11:37:27.213Z</time></trkpt><trkpt lat="41.4551454" lon="12.815348"><ele>9.0</ele><time>2026-04-04T11:37:29.213Z</time></trkpt><trkpt lat="41.4550314" lon="12.8153062"><ele>8.75</ele><time>2026-04-04T11:37:31.213Z</time></trkpt><trkpt lat="41.454921" lon="12.8152469"><ele>8.5</ele><time>2026-04-04T11:37:33.213Z</time></trkpt><trkpt lat="41.4547959" lon="12.8152183"><ele>8.25</ele><time>2026-04-04T11:37:35.213Z</time></trkpt><trkpt lat="41.4546658" lon="12.8151618"><ele>8.0</ele><time>2026-04-04T11:37:37.213Z</time></trkpt><trkpt lat="41.4546043" lon="12.8151201"><ele>8.600000000000001</ele><time>2026-04-04T11:37:38.213Z</time></trkpt><trkpt lat="41.4545303" lon="12.8150762"><ele>9.200000000000001</ele><time>2026-04-04T11:37:39.214Z</time></trkpt><trkpt lat="41.4543872" lon="12.8149607"><ele>9.8</ele><time>2026-04-04T11:37:41.214Z</time></trkpt><trkpt lat="41.4543227" lon="12.814913"><ele>10.4</ele><time>2026-04-04T11:37:42.214Z</time></trkpt><trkpt lat="41.4542524" lon="12.8148532"><ele>11.0</ele><time>2026-04-04T11:37:43.213Z</time></trkpt><trkpt lat="41.4541392" lon="12.8147378"><ele>11.0</ele><time>2026-04-04T11:37:46.213Z</time></trkpt><trkpt lat="41.4541511" lon="12.8145512"><ele>11.0</ele><time>2026-04-04T11:37:50.214Z</time></trkpt><trkpt lat="41.4541584" lon="12.8144572"><ele>11.0</ele><time>2026-04-04T11:37:52.213Z</time></trkpt><trkpt lat="41.4540734" lon="12.814357"><ele>11.0</ele><time>2026-04-04T11:37:54.213Z</time></trkpt><trkpt lat="41.453993" lon="12.814319"><ele>11.0</ele><time>2026-04-04T11:37:55.213Z</time></trkpt><trkpt lat="41.4539145" lon="12.814297"><ele>11.4</ele><time>2026-04-04T11:37:56.213Z</time></trkpt><trkpt lat="41.4537935" lon="12.8141987"><ele>11.8</ele><time>2026-04-04T11:37:58.213Z</time></trkpt><trkpt lat="41.4537143" lon="12.8141454"><ele>12.200000000000001</ele><time>2026-04-04T11:37:59.213Z</time></trkpt><trkpt lat="41.4536432" lon="12.8141078"><ele>12.600000000000001</ele><time>2026-04-04T11:38:00.213Z</time></trkpt><trkpt lat="41.4535661" lon="12.8140633"><ele>13.0</ele><time>2026-04-04T11:38:01.214Z</time></trkpt><trkpt lat="41.4534692" lon="12.8139882"><ele>12.0</ele><time>2026-04-04T11:38:02.213Z</time></trkpt><trkpt lat="41.4533759" lon="12.8138896"><ele>11.0</ele><time>2026-04-04T11:38:03.213Z</time></trkpt><trkpt lat="41.4532794" lon="12.8138023"><ele>10.0</ele><time>2026-04-04T11:38:04.213Z</time></trkpt><trkpt lat="41.4531932" lon="12.8137144"><ele>9.0</ele><time>2026-04-04T11:38:05.214Z</time></trkpt><trkpt lat="41.4530027" lon="12.8135183"><ele>8.8</ele><time>2026-04-04T11:38:07.213Z</time></trkpt><trkpt lat="41.4529129" lon="12.8134253"><ele>8.600000000000001</ele><time>2026-04-04T11:38:08.214Z</time></trkpt><trkpt lat="41.4528289" lon="12.8133399"><ele>8.4</ele><time>2026-04-04T11:38:09.213Z</time></trkpt><trkpt lat="41.4527578" lon="12.8132612"><ele>8.200000000000001</ele><time>2026-04-04T11:38:10.213Z</time></trkpt><trkpt lat="41.4526922" lon="12.8131906"><ele>8.0</ele><time>2026-04-04T11:38:11.214Z</time></trkpt><trkpt lat="41.4526365" lon="12.813059"><ele>8.0</ele><time>2026-04-04T11:38:13.213Z</time></trkpt><trkpt lat="41.4526545" lon="12.812948"><ele>8.0</ele><time>2026-04-04T11:38:14.214Z</time></trkpt><trkpt lat="41.4526804" lon="12.8127073"><ele>8.0</ele><time>2026-04-04T11:38:16.213Z</time></trkpt><trkpt lat="41.4527136" lon="12.8124059"><ele>8.0</ele><time>2026-04-04T11:38:18.213Z</time></trkpt><trkpt lat="41.4527472" lon="12.8121272"><ele>8.0</ele><time>2026-04-04T11:38:20.213Z</time></trkpt><trkpt lat="41.4527728" lon="12.8118527"><ele>8.0</ele><time>2026-04-04T11:38:22.214Z</time></trkpt><trkpt lat="41.4527832" lon="12.8117325"><ele>8.4</ele><time>2026-04-04T11:38:23.214Z</time></trkpt><trkpt lat="41.4528015" lon="12.8115927"><ele>8.8</ele><time>2026-04-04T11:38:24.214Z</time></trkpt><trkpt lat="41.4528149" lon="12.8114318"><ele>9.2</ele><time>2026-04-04T11:38:26.213Z</time></trkpt><trkpt lat="41.4528304" lon="12.8113395"><ele>9.6</ele><time>2026-04-04T11:38:27.213Z</time></trkpt><trkpt lat="41.4528347" lon="12.8112051"><ele>10.0</ele><time>2026-04-04T11:38:29.213Z</time></trkpt><trkpt lat="41.4527773" lon="12.8111067"><ele>10.0</ele><time>2026-04-04T11:38:31.213Z</time></trkpt><trkpt lat="41.4527001" lon="12.8110756"><ele>10.0</ele><time>2026-04-04T11:38:32.213Z</time></trkpt><trkpt lat="41.4525448" lon="12.8110793"><ele>10.0</ele><time>2026-04-04T11:38:34.213Z</time></trkpt><trkpt lat="41.4523359" lon="12.8110249"><ele>10.0</ele><time>2026-04-04T11:38:36.213Z</time></trkpt><trkpt lat="41.4521975" lon="12.8109915"><ele>10.333333333333334</ele><time>2026-04-04T11:38:37.213Z</time></trkpt><trkpt lat="41.4520674" lon="12.8109458"><ele>10.666666666666666</ele><time>2026-04-04T11:38:38.213Z</time></trkpt><trkpt lat="41.4519613" lon="12.8109196"><ele>11.0</ele><time>2026-04-04T11:38:39.214Z</time></trkpt><trkpt lat="41.4517472" lon="12.8108758"><ele>11.0</ele><time>2026-04-04T11:38:41.214Z</time></trkpt><trkpt lat="41.4516485" lon="12.8108466"><ele>11.0</ele><time>2026-04-04T11:38:42.213Z</time></trkpt><trkpt lat="41.451566" lon="12.8108247"><ele>11.0</ele><time>2026-04-04T11:38:43.213Z</time></trkpt><trkpt lat="41.4514885" lon="12.8107976"><ele>11.0</ele><time>2026-04-04T11:38:44.213Z</time></trkpt><trkpt lat="41.4512918" lon="12.8107471"><ele>10.5</ele><time>2026-04-04T11:38:46.214Z</time></trkpt><trkpt lat="41.4510979" lon="12.8106923"><ele>10.0</ele><time>2026-04-04T11:38:48.213Z</time></trkpt><trkpt lat="41.4510137" lon="12.810677"><ele>9.5</ele><time>2026-04-04T11:38:49.213Z</time></trkpt><trkpt lat="41.4508679" lon="12.8106575"><ele>9.0</ele><time>2026-04-04T11:38:51.214Z</time></trkpt><trkpt lat="41.4507642" lon="12.8106056"><ele>9.0</ele><time>2026-04-04T11:38:53.213Z</time></trkpt><trkpt lat="41.4506889" lon="12.8104954"><ele>9.0</ele><time>2026-04-04T11:38:56.213Z</time></trkpt><trkpt lat="41.4505962" lon="12.8104456"><ele>9.0</ele><time>2026-04-04T11:38:58.213Z</time></trkpt><trkpt lat="41.4504418" lon="12.8104684"><ele>9.0</ele><time>2026-04-04T11:39:00.213Z</time></trkpt><trkpt lat="41.4503588" lon="12.8104369"><ele>9.0</ele><time>2026-04-04T11:39:01.213Z</time></trkpt><trkpt lat="41.4502898" lon="12.8104053"><ele>9.0</ele><time>2026-04-04T11:39:02.214Z</time></trkpt><trkpt lat="41.4502267" lon="12.8103595"><ele>9.0</ele><time>2026-04-04T11:39:03.214Z</time></trkpt><trkpt lat="41.4501545" lon="12.8102991"><ele>9.0</ele><time>2026-04-04T11:39:04.213Z</time></trkpt><trkpt lat="41.4500898" lon="12.8102348"><ele>9.0</ele><time>2026-04-04T11:39:05.213Z</time></trkpt><trkpt lat="41.4500046" lon="12.8101666"><ele>9.0</ele><time>2026-04-04T11:39:06.213Z</time></trkpt><trkpt lat="41.4499407" lon="12.8101006"><ele>9.25</ele><time>2026-04-04T11:39:07.213Z</time></trkpt><trkpt lat="41.4498707" lon="12.8100317"><ele>9.5</ele><time>2026-04-04T11:39:08.214Z</time></trkpt><trkpt lat="41.4497931" lon="12.8099679"><ele>9.75</ele><time>2026-04-04T11:39:09.213Z</time></trkpt><trkpt lat="41.4497201" lon="12.8099125"><ele>10.0</ele><time>2026-04-04T11:39:10.214Z</time></trkpt><trkpt lat="41.4495459" lon="12.8097646"><ele>9.0</ele><time>2026-04-04T11:39:12.213Z</time></trkpt><trkpt lat="41.449453" lon="12.8096931"><ele>8.0</ele><time>2026-04-04T11:39:13.213Z</time></trkpt><trkpt lat="41.449316" lon="12.8096142"><ele>7.0</ele><time>2026-04-04T11:39:14.213Z</time></trkpt><trkpt lat="41.4491152" lon="12.8094754"><ele>7.0</ele><time>2026-04-04T11:39:16.213Z</time></trkpt><trkpt lat="41.4489226" lon="12.8093353"><ele>7.0</ele><time>2026-04-04T11:39:18.213Z</time></trkpt><trkpt lat="41.4487549" lon="12.8091814"><ele>7.0</ele><time>2026-04-04T11:39:20.213Z</time></trkpt><trkpt lat="41.4485741" lon="12.8090396"><ele>7.0</ele><time>2026-04-04T11:39:22.213Z</time></trkpt><trkpt lat="41.4484137" lon="12.8089185"><ele>7.0</ele><time>2026-04-04T11:39:24.213Z</time></trkpt><trkpt lat="41.4482487" lon="12.8088105"><ele>7.0</ele><time>2026-04-04T11:39:26.213Z</time></trkpt><trkpt lat="41.4481923" lon="12.8087646"><ele>7.0</ele><time>2026-04-04T11:39:27.213Z</time></trkpt><trkpt lat="41.4481325" lon="12.8087231"><ele>7.000000000000001</ele><time>2026-04-04T11:39:28.213Z</time></trkpt><trkpt lat="41.4480729" lon="12.8086537"><ele>7.0</ele><time>2026-04-04T11:39:30.213Z</time></trkpt><trkpt lat="41.4480627" lon="12.8085487"><ele>7.0</ele><time>2026-04-04T11:39:33.213Z</time></trkpt><trkpt lat="41.4479883" lon="12.8085138"><ele>7.0</ele><time>2026-04-04T11:39:35.214Z</time></trkpt><trkpt lat="41.447892" lon="12.8084993"><ele>7.000000000000001</ele><time>2026-04-04T11:39:37.213Z</time></trkpt><trkpt lat="41.4478301" lon="12.8084836"><ele>7.0</ele><time>2026-04-04T11:39:39.214Z</time></trkpt><trkpt lat="41.4476864" lon="12.8083948"><ele>7.0</ele><time>2026-04-04T11:39:42.214Z</time></trkpt><trkpt lat="41.4475646" lon="12.808335"><ele>6.999999999999999</ele><time>2026-04-04T11:39:44.213Z</time></trkpt><trkpt lat="41.4474616" lon="12.8082836"><ele>6.999999999999999</ele><time>2026-04-04T11:39:46.213Z</time></trkpt><trkpt lat="41.4473661" lon="12.8082379"><ele>7.0</ele><time>2026-04-04T11:39:47.213Z</time></trkpt><trkpt lat="41.4472792" lon="12.8081911"><ele>7.0</ele><time>2026-04-04T11:39:48.213Z</time></trkpt><trkpt lat="41.4471129" lon="12.8080999"><ele>7.0</ele><time>2026-04-04T11:39:50.213Z</time></trkpt><trkpt lat="41.4469764" lon="12.8080235"><ele>7.0</ele><time>2026-04-04T11:39:52.213Z</time></trkpt><trkpt lat="41.4469102" lon="12.8079879"><ele>7.0</ele><time>2026-04-04T11:39:53.213Z</time></trkpt><trkpt lat="41.4467471" lon="12.8079544"><ele>7.0</ele><time>2026-04-04T11:39:56.213Z</time></trkpt><trkpt lat="41.4466745" lon="12.8079232"><ele>7.0</ele><time>2026-04-04T11:39:57.213Z</time></trkpt><trkpt lat="41.4465327" lon="12.8078487"><ele>7.0</ele><time>2026-04-04T11:39:59.214Z</time></trkpt><trkpt lat="41.4463941" lon="12.8077536"><ele>7.0</ele><time>2026-04-04T11:40:01.213Z</time></trkpt><trkpt lat="41.4463148" lon="12.8077058"><ele>7.0</ele><time>2026-04-04T11:40:02.214Z</time></trkpt><trkpt lat="41.4462326" lon="12.8076494"><ele>6.666666666666667</ele><time>2026-04-04T11:40:03.213Z</time></trkpt><trkpt lat="41.4460614" lon="12.8075433"><ele>6.333333333333334</ele><time>2026-04-04T11:40:05.213Z</time></trkpt><trkpt lat="41.445899" lon="12.8074358"><ele>6.0</ele><time>2026-04-04T11:40:07.213Z</time></trkpt><trkpt lat="41.4458128" lon="12.8073842"><ele>6.0</ele><time>2026-04-04T11:40:08.213Z</time></trkpt><trkpt lat="41.4457325" lon="12.8073309"><ele>6.0</ele><time>2026-04-04T11:40:09.213Z</time></trkpt><trkpt lat="41.4456559" lon="12.807285"><ele>6.0</ele><time>2026-04-04T11:40:10.213Z</time></trkpt><trkpt lat="41.4454965" lon="12.8071785"><ele>6.0</ele><time>2026-04-04T11:40:12.214Z</time></trkpt><trkpt lat="41.4453226" lon="12.8070549"><ele>6.0</ele><time>2026-04-04T11:40:14.213Z</time></trkpt><trkpt lat="41.4451464" lon="12.8069556"><ele>6.0</ele><time>2026-04-04T11:40:16.214Z</time></trkpt><trkpt lat="41.4450692" lon="12.8068948"><ele>6.0</ele><time>2026-04-04T11:40:17.213Z</time></trkpt><trkpt lat="41.4449783" lon="12.8068387"><ele>6.0</ele><time>2026-04-04T11:40:18.214Z</time></trkpt><trkpt lat="41.4448293" lon="12.8067536"><ele>6.5</ele><time>2026-04-04T11:40:20.214Z</time></trkpt><trkpt lat="41.4447361" lon="12.8066779"><ele>7.0</ele><time>2026-04-04T11:40:22.213Z</time></trkpt><trkpt lat="41.4446381" lon="12.8066185"><ele>7.5</ele><time>2026-04-04T11:40:24.213Z</time></trkpt><trkpt lat="41.4445402" lon="12.8065763"><ele>8.0</ele><time>2026-04-04T11:40:25.214Z</time></trkpt><trkpt lat="41.4443054" lon="12.806444"><ele>7.0</ele><time>2026-04-04T11:40:28.213Z</time></trkpt><trkpt lat="41.4441692" lon="12.8063499"><ele>6.0</ele><time>2026-04-04T11:40:30.213Z</time></trkpt><trkpt lat="41.4440432" lon="12.8062601"><ele>5.0</ele><time>2026-04-04T11:40:32.213Z</time></trkpt><trkpt lat="41.4439681" lon="12.8061625"><ele>4.0</ele><time>2026-04-04T11:40:34.213Z</time></trkpt><trkpt lat="41.4439212" lon="12.8060638"><ele>4.0</ele><time>2026-04-04T11:40:36.213Z</time></trkpt><trkpt lat="41.4437691" lon="12.8060476"><ele>4.0</ele><time>2026-04-04T11:40:39.213Z</time></trkpt><trkpt lat="41.4436108" lon="12.8059517"><ele>4.0</ele><time>2026-04-04T11:40:41.213Z</time></trkpt><trkpt lat="41.4433899" lon="12.8058041"><ele>4.0</ele><time>2026-04-04T11:40:43.214Z</time></trkpt><trkpt lat="41.4432909" lon="12.8057409"><ele>4.0</ele><time>2026-04-04T11:40:44.213Z</time></trkpt><trkpt lat="41.4431825" lon="12.8056728"><ele>4.0</ele><time>2026-04-04T11:40:45.213Z</time></trkpt><trkpt lat="41.4431112" lon="12.805616"><ele>4.0</ele><time>2026-04-04T11:40:46.214Z</time></trkpt><trkpt lat="41.4430338" lon="12.8055703"><ele>4.0</ele><time>2026-04-04T11:40:47.213Z</time></trkpt><trkpt lat="41.4429558" lon="12.8055211"><ele>4.0</ele><time>2026-04-04T11:40:48.213Z</time></trkpt><trkpt lat="41.4428415" lon="12.8054655"><ele>4.0</ele><time>2026-04-04T11:40:50.213Z</time></trkpt><trkpt lat="41.4427736" lon="12.8055081"><ele>4.0</ele><time>2026-04-04T11:40:52.213Z</time></trkpt><trkpt lat="41.4426883" lon="12.8055664"><ele>4.0</ele><time>2026-04-04T11:40:54.213Z</time></trkpt><trkpt lat="41.4426082" lon="12.8055457"><ele>4.0</ele><time>2026-04-04T11:40:56.213Z</time></trkpt><trkpt lat="41.4425323" lon="12.8055107"><ele>4.0</ele><time>2026-04-04T11:41:00.213Z</time></trkpt><trkpt lat="41.4424481" lon="12.8054513"><ele>4.0</ele><time>2026-04-04T11:41:02.213Z</time></trkpt><trkpt lat="41.4423787" lon="12.8053578"><ele>4.0</ele><time>2026-04-04T11:41:04.214Z</time></trkpt><trkpt lat="41.442323" lon="12.8052862"><ele>4.0</ele><time>2026-04-04T11:41:06.213Z</time></trkpt><trkpt lat="41.4422605" lon="12.8052205"><ele>4.0</ele><time>2026-04-04T11:41:08.213Z</time></trkpt><trkpt lat="41.4421636" lon="12.8051817"><ele>4.0</ele><time>2026-04-04T11:41:10.213Z</time></trkpt><trkpt lat="41.4420885" lon="12.805172"><ele>4.0</ele><time>2026-04-04T11:41:11.213Z</time></trkpt><trkpt lat="41.4419509" lon="12.8051385"><ele>4.0</ele><time>2026-04-04T11:41:13.213Z</time></trkpt><trkpt lat="41.4418549" lon="12.8051257"><ele>4.0</ele><time>2026-04-04T11:41:14.213Z</time></trkpt><trkpt lat="41.4417544" lon="12.8051206"><ele>4.0</ele><time>2026-04-04T11:41:15.213Z</time></trkpt><trkpt lat="41.4415715" lon="12.8050874"><ele>4.0</ele><time>2026-04-04T11:41:17.213Z</time></trkpt><trkpt lat="41.4413807" lon="12.8050996"><ele>4.0</ele><time>2026-04-04T11:41:19.214Z</time></trkpt><trkpt lat="41.4412911" lon="12.8050772"><ele>4.0</ele><time>2026-04-04T11:41:20.214Z</time></trkpt><trkpt lat="41.4411799" lon="12.8050746"><ele>4.0</ele><time>2026-04-04T11:41:21.214Z</time></trkpt><trkpt lat="41.4410228" lon="12.8051078"><ele>4.6</ele><time>2026-04-04T11:41:23.213Z</time></trkpt><trkpt lat="41.4409256" lon="12.8051324"><ele>5.2</ele><time>2026-04-04T11:41:24.213Z</time></trkpt><trkpt lat="41.4408349" lon="12.8051393"><ele>5.799999999999999</ele><time>2026-04-04T11:41:25.213Z</time></trkpt><trkpt lat="41.4407588" lon="12.8051111"><ele>6.3999999999999995</ele><time>2026-04-04T11:41:26.214Z</time></trkpt><trkpt lat="41.4406907" lon="12.8049968"><ele>7.0</ele><time>2026-04-04T11:41:28.213Z</time></trkpt><trkpt lat="41.44067" lon="12.8048961"><ele>7.0</ele><time>2026-04-04T11:41:29.213Z</time></trkpt><trkpt lat="41.4406427" lon="12.8047844"><ele>7.0</ele><time>2026-04-04T11:41:30.213Z</time></trkpt><trkpt lat="41.4406098" lon="12.804582"><ele>7.0</ele><time>2026-04-04T11:41:32.213Z</time></trkpt><trkpt lat="41.4405692" lon="12.8043428"><ele>7.0</ele><time>2026-04-04T11:41:34.213Z</time></trkpt><trkpt lat="41.4405283" lon="12.8041135"><ele>6.8</ele><time>2026-04-04T11:41:36.214Z</time></trkpt><trkpt lat="41.4404982" lon="12.8040312"><ele>6.6</ele><time>2026-04-04T11:41:37.213Z</time></trkpt><trkpt lat="41.4404528" lon="12.8039087"><ele>6.3999999999999995</ele><time>2026-04-04T11:41:39.213Z</time></trkpt><trkpt lat="41.4403332" lon="12.8039357"><ele>6.199999999999999</ele><time>2026-04-04T11:41:43.213Z</time></trkpt><trkpt lat="41.440242" lon="12.8039646"><ele>6.0</ele><time>2026-04-04T11:41:44.213Z</time></trkpt><trkpt lat="41.4401665" lon="12.8039759"><ele>6.0</ele><time>2026-04-04T11:41:45.213Z</time></trkpt><trkpt lat="41.4400108" lon="12.8039433"><ele>6.0</ele><time>2026-04-04T11:41:47.213Z</time></trkpt><trkpt lat="41.439933" lon="12.8039287"><ele>6.0</ele><time>2026-04-04T11:41:48.213Z</time></trkpt><trkpt lat="41.4398533" lon="12.8039097"><ele>6.0</ele><time>2026-04-04T11:41:49.213Z</time></trkpt><trkpt lat="41.4397486" lon="12.8039069"><ele>6.0</ele><time>2026-04-04T11:41:50.214Z</time></trkpt><trkpt lat="41.4396615" lon="12.8039466"><ele>6.666666666666666</ele><time>2026-04-04T11:41:51.213Z</time></trkpt><trkpt lat="41.4395538" lon="12.8040389"><ele>7.333333333333333</ele><time>2026-04-04T11:41:52.213Z</time></trkpt><trkpt lat="41.4394511" lon="12.8041383"><ele>8.0</ele><time>2026-04-04T11:41:53.213Z</time></trkpt><trkpt lat="41.4392705" lon="12.8043107"><ele>7.75</ele><time>2026-04-04T11:41:55.213Z</time></trkpt><trkpt lat="41.4390999" lon="12.8044515"><ele>7.5</ele><time>2026-04-04T11:41:57.213Z</time></trkpt><trkpt lat="41.4390144" lon="12.8045321"><ele>7.25</ele><time>2026-04-04T11:41:58.213Z</time></trkpt><trkpt lat="41.4389289" lon="12.8045777"><ele>7.0</ele><time>2026-04-04T11:41:59.214Z</time></trkpt><trkpt lat="41.438838" lon="12.8045858"><ele>6.8</ele><time>2026-04-04T11:42:00.213Z</time></trkpt><trkpt lat="41.4387513" lon="12.8046321"><ele>6.6</ele><time>2026-04-04T11:42:01.213Z</time></trkpt><trkpt lat="41.4386642" lon="12.8046616"><ele>6.3999999999999995</ele><time>2026-04-04T11:42:02.213Z</time></trkpt><trkpt lat="41.4385733" lon="12.8046493"><ele>6.199999999999999</ele><time>2026-04-04T11:42:04.213Z</time></trkpt><trkpt lat="41.4385046" lon="12.804572"><ele>6.0</ele><time>2026-04-04T11:42:07.213Z</time></trkpt><trkpt lat="41.438383" lon="12.8045787"><ele>6.0</ele><time>2026-04-04T11:42:09.213Z</time></trkpt><trkpt lat="41.4383028" lon="12.8045574"><ele>6.0</ele><time>2026-04-04T11:42:10.213Z</time></trkpt><trkpt lat="41.4382164" lon="12.8045568"><ele>6.0</ele><time>2026-04-04T11:42:11.214Z</time></trkpt><trkpt lat="41.4381358" lon="12.8045502"><ele>6.0</ele><time>2026-04-04T11:42:12.213Z</time></trkpt><trkpt lat="41.4378851" lon="12.8045398"><ele>5.75</ele><time>2026-04-04T11:42:14.214Z</time></trkpt><trkpt lat="41.4376888" lon="12.804526"><ele>5.5</ele><time>2026-04-04T11:42:16.213Z</time></trkpt><trkpt lat="41.4375832" lon="12.8045121"><ele>5.25</ele><time>2026-04-04T11:42:17.214Z</time></trkpt><trkpt lat="41.437484" lon="12.8045079"><ele>5.0</ele><time>2026-04-04T11:42:18.213Z</time></trkpt><trkpt lat="41.437383" lon="12.8045095"><ele>5.0</ele><time>2026-04-04T11:42:19.213Z</time></trkpt><trkpt lat="41.4373005" lon="12.8044994"><ele>5.0</ele><time>2026-04-04T11:42:20.213Z</time></trkpt><trkpt lat="41.4371747" lon="12.8044853"><ele>5.0</ele><time>2026-04-04T11:42:22.213Z</time></trkpt><trkpt lat="41.4370725" lon="12.8045294"><ele>5.0</ele><time>2026-04-04T11:42:24.213Z</time></trkpt><trkpt lat="41.4370325" lon="12.8046357"><ele>5.0</ele><time>2026-04-04T11:42:27.213Z</time></trkpt><trkpt lat="41.4369587" lon="12.80471"><ele>5.0</ele><time>2026-04-04T11:42:29.213Z</time></trkpt><trkpt lat="41.4369363" lon="12.8049044"><ele>5.0</ele><time>2026-04-04T11:42:31.214Z</time></trkpt><trkpt lat="41.4369323" lon="12.8050372"><ele>5.0</ele><time>2026-04-04T11:42:32.214Z</time></trkpt><trkpt lat="41.4369605" lon="12.8053466"><ele>5.0</ele><time>2026-04-04T11:42:34.213Z</time></trkpt><trkpt lat="41.4369621" lon="12.8056461"><ele>5.0</ele><time>2026-04-04T11:42:36.213Z</time></trkpt><trkpt lat="41.4369635" lon="12.8059668"><ele>5.666666666666667</ele><time>2026-04-04T11:42:38.214Z</time></trkpt><trkpt lat="41.4369689" lon="12.8062792"><ele>6.333333333333334</ele><time>2026-04-04T11:42:40.214Z</time></trkpt><trkpt lat="41.4369567" lon="12.8065495"><ele>7.0</ele><time>2026-04-04T11:42:42.213Z</time></trkpt><trkpt lat="41.4369598" lon="12.8066855"><ele>7.0</ele><time>2026-04-04T11:42:43.213Z</time></trkpt><trkpt lat="41.4369585" lon="12.8068177"><ele>6.999999999999999</ele><time>2026-04-04T11:42:44.213Z</time></trkpt><trkpt lat="41.4370066" lon="12.8069552"><ele>6.999999999999999</ele><time>2026-04-04T11:42:45.214Z</time></trkpt><trkpt lat="41.4370199" lon="12.8070845"><ele>7.0</ele><time>2026-04-04T11:42:46.213Z</time></trkpt><trkpt lat="41.4370553" lon="12.8071964"><ele>7.0</ele><time>2026-04-04T11:42:47.213Z</time></trkpt><trkpt lat="41.4370667" lon="12.8073445"><ele>6.8</ele><time>2026-04-04T11:42:49.214Z</time></trkpt><trkpt lat="41.4369952" lon="12.8074595"><ele>6.6</ele><time>2026-04-04T11:42:51.214Z</time></trkpt><trkpt lat="41.4369396" lon="12.8075437"><ele>6.3999999999999995</ele><time>2026-04-04T11:42:52.213Z</time></trkpt><trkpt lat="41.4368588" lon="12.8076467"><ele>6.199999999999999</ele><time>2026-04-04T11:42:53.214Z</time></trkpt><trkpt lat="41.4367714" lon="12.8077448"><ele>6.0</ele><time>2026-04-04T11:42:54.213Z</time></trkpt><trkpt lat="41.4366926" lon="12.8078628"><ele>5.75</ele><time>2026-04-04T11:42:55.213Z</time></trkpt><trkpt lat="41.4366104" lon="12.807981"><ele>5.5</ele><time>2026-04-04T11:42:56.214Z</time></trkpt><trkpt lat="41.4365284" lon="12.8081061"><ele>5.25</ele><time>2026-04-04T11:42:57.213Z</time></trkpt><trkpt lat="41.4364517" lon="12.8082565"><ele>5.0</ele><time>2026-04-04T11:42:58.213Z</time></trkpt><trkpt lat="41.4363762" lon="12.8084035"><ele>5.0</ele><time>2026-04-04T11:42:59.213Z</time></trkpt><trkpt lat="41.4362506" lon="12.8086973"><ele>5.0</ele><time>2026-04-04T11:43:01.214Z</time></trkpt><trkpt lat="41.4361345" lon="12.8089947"><ele>5.0</ele><time>2026-04-04T11:43:03.213Z</time></trkpt><trkpt lat="41.4360908" lon="12.8091397"><ele>5.0</ele><time>2026-04-04T11:43:04.213Z</time></trkpt><trkpt lat="41.4360462" lon="12.8092986"><ele>5.0</ele><time>2026-04-04T11:43:05.213Z</time></trkpt><trkpt lat="41.4360011" lon="12.8094369"><ele>5.0</ele><time>2026-04-04T11:43:06.213Z</time></trkpt><trkpt lat="41.435956" lon="12.8095706"><ele>4.333333333333334</ele><time>2026-04-04T11:43:07.213Z</time></trkpt><trkpt lat="41.4358559" lon="12.8098179"><ele>3.666666666666667</ele><time>2026-04-04T11:43:09.213Z</time></trkpt><trkpt lat="41.435804" lon="12.8100462"><ele>3.0</ele><time>2026-04-04T11:43:11.213Z</time></trkpt><trkpt lat="41.4357497" lon="12.8102961"><ele>3.0</ele><time>2026-04-04T11:43:13.213Z</time></trkpt><trkpt lat="41.4356709" lon="12.8105485"><ele>3.0</ele><time>2026-04-04T11:43:15.213Z</time></trkpt><trkpt lat="41.4356293" lon="12.8106677"><ele>3.0</ele><time>2026-04-04T11:43:16.213Z</time></trkpt><trkpt lat="41.4355869" lon="12.8107925"><ele>3.0</ele><time>2026-04-04T11:43:17.213Z</time></trkpt><trkpt lat="41.4354849" lon="12.811035"><ele>3.666666666666667</ele><time>2026-04-04T11:43:19.213Z</time></trkpt><trkpt lat="41.4353982" lon="12.8112651"><ele>4.333333333333334</ele><time>2026-04-04T11:43:21.214Z</time></trkpt><trkpt lat="41.4353516" lon="12.8113788"><ele>5.0</ele><time>2026-04-04T11:43:22.213Z</time></trkpt><trkpt lat="41.4352618" lon="12.8115955"><ele>4.0</ele><time>2026-04-04T11:43:24.214Z</time></trkpt><trkpt lat="41.4351599" lon="12.8118242"><ele>3.0</ele><time>2026-04-04T11:43:26.213Z</time></trkpt><trkpt lat="41.4350615" lon="12.8120668"><ele>2.0</ele><time>2026-04-04T11:43:28.214Z</time></trkpt><trkpt lat="41.4349819" lon="12.8123183"><ele>2.0</ele><time>2026-04-04T11:43:30.213Z</time></trkpt><trkpt lat="41.4349457" lon="12.8124409"><ele>2.0</ele><time>2026-04-04T11:43:31.213Z</time></trkpt><trkpt lat="41.4349048" lon="12.8125734"><ele>2.0</ele><time>2026-04-04T11:43:32.213Z</time></trkpt><trkpt lat="41.4348636" lon="12.8127011"><ele>2.0</ele><time>2026-04-04T11:43:33.213Z</time></trkpt><trkpt lat="41.4348237" lon="12.8128281"><ele>2.0</ele><time>2026-04-04T11:43:34.214Z</time></trkpt><trkpt lat="41.4347609" lon="12.8130775"><ele>2.0</ele><time>2026-04-04T11:43:36.213Z</time></trkpt><trkpt lat="41.4346959" lon="12.813325"><ele>2.0</ele><time>2026-04-04T11:43:38.213Z</time></trkpt><trkpt lat="41.434656" lon="12.8134538"><ele>2.0</ele><time>2026-04-04T11:43:39.213Z</time></trkpt><trkpt lat="41.4345664" lon="12.8137035"><ele>2.25</ele><time>2026-04-04T11:43:41.213Z</time></trkpt><trkpt lat="41.4345277" lon="12.8138236"><ele>2.5</ele><time>2026-04-04T11:43:42.214Z</time></trkpt><trkpt lat="41.4344133" lon="12.8140532"><ele>2.75</ele><time>2026-04-04T11:43:44.213Z</time></trkpt><trkpt lat="41.4343472" lon="12.8141804"><ele>3.0</ele><time>2026-04-04T11:43:45.213Z</time></trkpt><trkpt lat="41.4342712" lon="12.8143092"><ele>2.75</ele><time>2026-04-04T11:43:46.214Z</time></trkpt><trkpt lat="41.4341939" lon="12.8144209"><ele>2.5</ele><time>2026-04-04T11:43:47.213Z</time></trkpt><trkpt lat="41.4341237" lon="12.8145248"><ele>2.25</ele><time>2026-04-04T11:43:48.213Z</time></trkpt><trkpt lat="41.4340537" lon="12.8146272"><ele>2.0</ele><time>2026-04-04T11:43:49.214Z</time></trkpt><trkpt lat="41.4337909" lon="12.8149003"><ele>2.25</ele><time>2026-04-04T11:43:52.213Z</time></trkpt><trkpt lat="41.4336949" lon="12.8149841"><ele>2.5</ele><time>2026-04-04T11:43:53.213Z</time></trkpt><trkpt lat="41.433598" lon="12.8150479"><ele>2.75</ele><time>2026-04-04T11:43:54.213Z</time></trkpt><trkpt lat="41.4333974" lon="12.8151816"><ele>3.0</ele><time>2026-04-04T11:43:56.213Z</time></trkpt><trkpt lat="41.4332948" lon="12.8152608"><ele>3.0</ele><time>2026-04-04T11:43:57.213Z</time></trkpt><trkpt lat="41.4331974" lon="12.8153269"><ele>3.0</ele><time>2026-04-04T11:43:58.213Z</time></trkpt><trkpt lat="41.4329947" lon="12.8154443"><ele>3.0</ele><time>2026-04-04T11:44:00.213Z</time></trkpt><trkpt lat="41.4327968" lon="12.8155174"><ele>2.5</ele><time>2026-04-04T11:44:02.213Z</time></trkpt><trkpt lat="41.4325907" lon="12.8155658"><ele>2.0</ele><time>2026-04-04T11:44:04.213Z</time></trkpt><trkpt lat="41.4325101" lon="12.8155826"><ele>1.5</ele><time>2026-04-04T11:44:05.214Z</time></trkpt><trkpt lat="41.4323963" lon="12.8155897"><ele>1.0</ele><time>2026-04-04T11:44:06.213Z</time></trkpt><trkpt lat="41.432273" lon="12.8155738"><ele>1.0</ele><time>2026-04-04T11:44:07.214Z</time></trkpt><trkpt lat="41.4321581" lon="12.8155589"><ele>1.0</ele><time>2026-04-04T11:44:08.213Z</time></trkpt><trkpt lat="41.4320466" lon="12.81554"><ele>1.0</ele><time>2026-04-04T11:44:09.213Z</time></trkpt><trkpt lat="41.4319321" lon="12.8155208"><ele>1.0</ele><time>2026-04-04T11:44:10.213Z</time></trkpt><trkpt lat="41.4318174" lon="12.815508"><ele>1.0</ele><time>2026-04-04T11:44:11.213Z</time></trkpt><trkpt lat="41.431705" lon="12.8154896"><ele>1.0</ele><time>2026-04-04T11:44:12.213Z</time></trkpt><trkpt lat="41.4315245" lon="12.8154292"><ele>1.0</ele><time>2026-04-04T11:44:14.213Z</time></trkpt><trkpt lat="41.4313382" lon="12.8153562"><ele>1.5</ele><time>2026-04-04T11:44:16.214Z</time></trkpt><trkpt lat="41.4311993" lon="12.8153386"><ele>2.0</ele><time>2026-04-04T11:44:18.213Z</time></trkpt><trkpt lat="41.4309801" lon="12.8153623"><ele>2.5</ele><time>2026-04-04T11:44:21.213Z</time></trkpt><trkpt lat="41.4309066" lon="12.8153618"><ele>3.0</ele><time>2026-04-04T11:44:22.214Z</time></trkpt><trkpt lat="41.4308316" lon="12.815359"><ele>3.0</ele><time>2026-04-04T11:44:23.214Z</time></trkpt><trkpt lat="41.4307568" lon="12.815357"><ele>3.0</ele><time>2026-04-04T11:44:24.213Z</time></trkpt><trkpt lat="41.43069" lon="12.815359"><ele>3.0</ele><time>2026-04-04T11:44:25.213Z</time></trkpt><trkpt lat="41.4306117" lon="12.8153492"><ele>3.0</ele><time>2026-04-04T11:44:26.213Z</time></trkpt><trkpt lat="41.4304598" lon="12.8153218"><ele>3.0</ele><time>2026-04-04T11:44:28.213Z</time></trkpt><trkpt lat="41.4303328" lon="12.8152973"><ele>3.0</ele><time>2026-04-04T11:44:30.213Z</time></trkpt><trkpt lat="41.4302329" lon="12.815278"><ele>3.0</ele><time>2026-04-04T11:44:32.213Z</time></trkpt><trkpt lat="41.4301266" lon="12.8152422"><ele>3.0</ele><time>2026-04-04T11:44:34.213Z</time></trkpt><trkpt lat="41.430052" lon="12.8151377"><ele>3.0</ele><time>2026-04-04T11:44:36.214Z</time></trkpt><trkpt lat="41.4298837" lon="12.8150311"><ele>3.0</ele><time>2026-04-04T11:44:40.214Z</time></trkpt><trkpt lat="41.4297271" lon="12.8149318"><ele>3.0</ele><time>2026-04-04T11:44:43.213Z</time></trkpt><trkpt lat="41.4296727" lon="12.8148845"><ele>3.0</ele><time>2026-04-04T11:44:44.213Z</time></trkpt><trkpt lat="41.4295486" lon="12.8147927"><ele>3.0</ele><time>2026-04-04T11:44:46.213Z</time></trkpt><trkpt lat="41.4294044" lon="12.814715"><ele>3.0</ele><time>2026-04-04T11:44:48.213Z</time></trkpt><trkpt lat="41.4293365" lon="12.8146749"><ele>3.0</ele><time>2026-04-04T11:44:49.214Z</time></trkpt><trkpt lat="41.429178" lon="12.8145934"><ele>3.0</ele><time>2026-04-04T11:44:51.214Z</time></trkpt><trkpt lat="41.4291168" lon="12.8145605"><ele>3.0</ele><time>2026-04-04T11:44:52.213Z</time></trkpt><trkpt lat="41.4289775" lon="12.8144879"><ele>3.0</ele><time>2026-04-04T11:44:54.213Z</time></trkpt><trkpt lat="41.4289108" lon="12.8144449"><ele>3.0</ele><time>2026-04-04T11:44:55.213Z</time></trkpt><trkpt lat="41.4288328" lon="12.8143974"><ele>3.0</ele><time>2026-04-04T11:44:56.213Z</time></trkpt><trkpt lat="41.4287552" lon="12.8143481"><ele>3.0</ele><time>2026-04-04T11:44:57.213Z</time></trkpt><trkpt lat="41.4286112" lon="12.8142462"><ele>3.0</ele><time>2026-04-04T11:44:59.213Z</time></trkpt><trkpt lat="41.4284551" lon="12.8141315"><ele>3.0</ele><time>2026-04-04T11:45:01.214Z</time></trkpt><trkpt lat="41.4283071" lon="12.8140257"><ele>3.0</ele><time>2026-04-04T11:45:03.213Z</time></trkpt><trkpt lat="41.4281543" lon="12.8139353"><ele>3.0</ele><time>2026-04-04T11:45:05.213Z</time></trkpt><trkpt lat="41.4280647" lon="12.8139085"><ele>3.0</ele><time>2026-04-04T11:45:06.213Z</time></trkpt><trkpt lat="41.4279927" lon="12.8138602"><ele>2.6</ele><time>2026-04-04T11:45:07.213Z</time></trkpt><trkpt lat="41.4279128" lon="12.8138219"><ele>2.1999999999999997</ele><time>2026-04-04T11:45:08.213Z</time></trkpt><trkpt lat="41.4278002" lon="12.8137265"><ele>1.8</ele><time>2026-04-04T11:45:10.214Z</time></trkpt><trkpt lat="41.4277466" lon="12.8136738"><ele>1.4</ele><time>2026-04-04T11:45:11.214Z</time></trkpt><trkpt lat="41.4276812" lon="12.8136178"><ele>1.0</ele><time>2026-04-04T11:45:12.214Z</time></trkpt><trkpt lat="41.4275541" lon="12.8135116"><ele>1.5</ele><time>2026-04-04T11:45:14.213Z</time></trkpt><trkpt lat="41.4274209" lon="12.8133875"><ele>2.0</ele><time>2026-04-04T11:45:16.213Z</time></trkpt><trkpt lat="41.4273475" lon="12.8133274"><ele>2.5</ele><time>2026-04-04T11:45:17.213Z</time></trkpt><trkpt lat="41.4271903" lon="12.8132234"><ele>3.0</ele><time>2026-04-04T11:45:19.213Z</time></trkpt><trkpt lat="41.4271073" lon="12.8131666"><ele>3.0</ele><time>2026-04-04T11:45:20.213Z</time></trkpt><trkpt lat="41.4270317" lon="12.8131298"><ele>3.0</ele><time>2026-04-04T11:45:21.214Z</time></trkpt><trkpt lat="41.4268733" lon="12.813051"><ele>3.0</ele><time>2026-04-04T11:45:23.213Z</time></trkpt><trkpt lat="41.4267899" lon="12.8130066"><ele>3.0</ele><time>2026-04-04T11:45:24.214Z</time></trkpt><trkpt lat="41.4265382" lon="12.8129054"><ele>3.0</ele><time>2026-04-04T11:45:27.213Z</time></trkpt><trkpt lat="41.4263678" lon="12.8128553"><ele>3.0</ele><time>2026-04-04T11:45:29.213Z</time></trkpt><trkpt lat="41.4262898" lon="12.8128406"><ele>3.0</ele><time>2026-04-04T11:45:30.213Z</time></trkpt><trkpt lat="41.4261705" lon="12.8127944"><ele>3.0</ele><time>2026-04-04T11:45:31.213Z</time></trkpt><trkpt lat="41.4260691" lon="12.8127578"><ele>2.75</ele><time>2026-04-04T11:45:32.213Z</time></trkpt><trkpt lat="41.4258863" lon="12.8127298"><ele>2.5</ele><time>2026-04-04T11:45:34.213Z</time></trkpt><trkpt lat="41.4257593" lon="12.8127253"><ele>2.25</ele><time>2026-04-04T11:45:35.213Z</time></trkpt><trkpt lat="41.4256599" lon="12.8127187"><ele>2.0</ele><time>2026-04-04T11:45:36.213Z</time></trkpt><trkpt lat="41.4254255" lon="12.8127042"><ele>2.0</ele><time>2026-04-04T11:45:38.213Z</time></trkpt><trkpt lat="41.4251999" lon="12.812698"><ele>2.0</ele><time>2026-04-04T11:45:40.213Z</time></trkpt><trkpt lat="41.4250767" lon="12.812693"><ele>2.0</ele><time>2026-04-04T11:45:41.213Z</time></trkpt><trkpt lat="41.4249495" lon="12.8126744"><ele>2.0</ele><time>2026-04-04T11:45:42.213Z</time></trkpt><trkpt lat="41.4247781" lon="12.8126606"><ele>2.0</ele><time>2026-04-04T11:45:44.213Z</time></trkpt><trkpt lat="41.4246716" lon="12.8126467"><ele>2.0</ele><time>2026-04-04T11:45:45.213Z</time></trkpt><trkpt lat="41.4245737" lon="12.8126379"><ele>2.0</ele><time>2026-04-04T11:45:46.213Z</time></trkpt><trkpt lat="41.4245016" lon="12.812687"><ele>1.8</ele><time>2026-04-04T11:45:47.213Z</time></trkpt><trkpt lat="41.4243886" lon="12.8126743"><ele>1.6</ele><time>2026-04-04T11:45:48.213Z</time></trkpt><trkpt lat="41.4243012" lon="12.8126854"><ele>1.4000000000000001</ele><time>2026-04-04T11:45:49.214Z</time></trkpt><trkpt lat="41.4241621" lon="12.8126954"><ele>1.2000000000000002</ele><time>2026-04-04T11:45:51.214Z</time></trkpt><trkpt lat="41.4240563" lon="12.8126795"><ele>1.0</ele><time>2026-04-04T11:45:53.213Z</time></trkpt><trkpt lat="41.4239849" lon="12.8126763"><ele>1.0</ele><time>2026-04-04T11:45:56.213Z</time></trkpt><trkpt lat="41.4238881" lon="12.8126711"><ele>1.0</ele><time>2026-04-04T11:45:58.214Z</time></trkpt><trkpt lat="41.4237699" lon="12.8126566"><ele>1.0</ele><time>2026-04-04T11:46:00.213Z</time></trkpt><trkpt lat="41.4236915" lon="12.8126219"><ele>1.0</ele><time>2026-04-04T11:46:01.213Z</time></trkpt><trkpt lat="41.4235066" lon="12.8125925"><ele>1.6</ele><time>2026-04-04T11:46:03.213Z</time></trkpt><trkpt lat="41.4234229" lon="12.8125811"><ele>2.2</ele><time>2026-04-04T11:46:04.214Z</time></trkpt><trkpt lat="41.4233281" lon="12.8125768"><ele>2.8000000000000003</ele><time>2026-04-04T11:46:05.213Z</time></trkpt><trkpt lat="41.4232403" lon="12.8125713"><ele>3.4000000000000004</ele><time>2026-04-04T11:46:06.213Z</time></trkpt><trkpt lat="41.4231579" lon="12.8125756"><ele>4.0</ele><time>2026-04-04T11:46:07.213Z</time></trkpt><trkpt lat="41.4230556" lon="12.8125687"><ele>4.0</ele><time>2026-04-04T11:46:08.213Z</time></trkpt><trkpt lat="41.4227833" lon="12.8125641"><ele>4.0</ele><time>2026-04-04T11:46:09.213Z</time></trkpt><trkpt lat="41.4225934" lon="12.8125507"><ele>4.0</ele><time>2026-04-04T11:46:11.213Z</time></trkpt><trkpt lat="41.4225068" lon="12.8125515"><ele>4.0</ele><time>2026-04-04T11:46:12.213Z</time></trkpt><trkpt lat="41.4223138" lon="12.8125749"><ele>4.0</ele><time>2026-04-04T11:46:14.214Z</time></trkpt><trkpt lat="41.4222167" lon="12.8125872"><ele>4.0</ele><time>2026-04-04T11:46:15.213Z</time></trkpt><trkpt lat="41.4220491" lon="12.8125911"><ele>4.0</ele><time>2026-04-04T11:46:16.214Z</time></trkpt><trkpt lat="41.4219817" lon="12.8125987"><ele>4.0</ele><time>2026-04-04T11:46:17.213Z</time></trkpt><trkpt lat="41.4219018" lon="12.8125889"><ele>4.0</ele><time>2026-04-04T11:46:18.213Z</time></trkpt><trkpt lat="41.4218148" lon="12.8125597"><ele>4.0</ele><time>2026-04-04T11:46:19.213Z</time></trkpt><trkpt lat="41.4217253" lon="12.8125502"><ele>4.0</ele><time>2026-04-04T11:46:20.213Z</time></trkpt><trkpt lat="41.4215119" lon="12.8125636"><ele>4.0</ele><time>2026-04-04T11:46:22.213Z</time></trkpt><trkpt lat="41.421424" lon="12.8125682"><ele>4.0</ele><time>2026-04-04T11:46:23.213Z</time></trkpt><trkpt lat="41.4212359" lon="12.8126233"><ele>4.0</ele><time>2026-04-04T11:46:25.213Z</time></trkpt><trkpt lat="41.4211247" lon="12.8126379"><ele>4.0</ele><time>2026-04-04T11:46:26.213Z</time></trkpt><trkpt lat="41.4209518" lon="12.8126107"><ele>4.333333333333333</ele><time>2026-04-04T11:46:27.214Z</time></trkpt><trkpt lat="41.4208004" lon="12.8126165"><ele>4.666666666666667</ele><time>2026-04-04T11:46:28.213Z</time></trkpt><trkpt lat="41.4206298" lon="12.8126089"><ele>5.0</ele><time>2026-04-04T11:46:29.213Z</time></trkpt><trkpt lat="41.4204575" lon="12.8125981"><ele>5.0</ele><time>2026-04-04T11:46:30.213Z</time></trkpt><trkpt lat="41.4200879" lon="12.8125888"><ele>5.0</ele><time>2026-04-04T11:46:32.213Z</time></trkpt><trkpt lat="41.419803" lon="12.8125777"><ele>5.0</ele><time>2026-04-04T11:46:34.213Z</time></trkpt><trkpt lat="41.4196933" lon="12.8125765"><ele>5.0</ele><time>2026-04-04T11:46:35.213Z</time></trkpt><trkpt lat="41.419567" lon="12.8125645"><ele>5.0</ele><time>2026-04-04T11:46:36.213Z</time></trkpt><trkpt lat="41.4193559" lon="12.8125591"><ele>5.0</ele><time>2026-04-04T11:46:38.214Z</time></trkpt><trkpt lat="41.4192692" lon="12.8125571"><ele>4.8</ele><time>2026-04-04T11:46:39.213Z</time></trkpt><trkpt lat="41.4191901" lon="12.8125467"><ele>4.6</ele><time>2026-04-04T11:46:40.213Z</time></trkpt><trkpt lat="41.4190446" lon="12.8125232"><ele>4.4</ele><time>2026-04-04T11:46:42.213Z</time></trkpt><trkpt lat="41.4189711" lon="12.8125046"><ele>4.2</ele><time>2026-04-04T11:46:43.214Z</time></trkpt><trkpt lat="41.4188847" lon="12.8124896"><ele>4.0</ele><time>2026-04-04T11:46:45.214Z</time></trkpt><trkpt lat="41.418809" lon="12.8124732"><ele>3.9999999999999996</ele><time>2026-04-04T11:46:47.213Z</time></trkpt><trkpt lat="41.4187698" lon="12.812379"><ele>4.0</ele><time>2026-04-04T11:46:50.214Z</time></trkpt><trkpt lat="41.4187538" lon="12.8122138"><ele>4.0</ele><time>2026-04-04T11:46:52.213Z</time></trkpt><trkpt lat="41.4186836" lon="12.8121558"><ele>4.0</ele><time>2026-04-04T11:46:56.213Z</time></trkpt><trkpt lat="41.418621" lon="12.8121367"><ele>3.9999999999999996</ele><time>2026-04-04T11:47:01.213Z</time></trkpt><trkpt lat="41.4185329" lon="12.8121301"><ele>4.0</ele><time>2026-04-04T11:47:04.213Z</time></trkpt><trkpt lat="41.41839" lon="12.8121229"><ele>4.0</ele><time>2026-04-04T11:47:08.214Z</time></trkpt><trkpt lat="41.4183127" lon="12.8121192"><ele>4.0</ele><time>2026-04-04T11:47:10.213Z</time></trkpt><trkpt lat="41.4182363" lon="12.8121142"><ele>4.0</ele><time>2026-04-04T11:47:12.213Z</time></trkpt><trkpt lat="41.4181257" lon="12.8121281"><ele>4.0</ele><time>2026-04-04T11:47:14.214Z</time></trkpt><trkpt lat="41.4179472" lon="12.8121088"><ele>4.0</ele><time>2026-04-04T11:47:17.213Z</time></trkpt><trkpt lat="41.4178786" lon="12.8121109"><ele>4.0</ele><time>2026-04-04T11:47:18.213Z</time></trkpt><trkpt lat="41.4177536" lon="12.8120994"><ele>4.0</ele><time>2026-04-04T11:47:20.214Z</time></trkpt><trkpt lat="41.4176778" lon="12.8120877"><ele>4.0</ele><time>2026-04-04T11:47:21.213Z</time></trkpt><trkpt lat="41.4174778" lon="12.8121014"><ele>4.0</ele><time>2026-04-04T11:47:22.213Z</time></trkpt><trkpt lat="41.4172563" lon="12.8120928"><ele>3.6</ele><time>2026-04-04T11:47:24.213Z</time></trkpt><trkpt lat="41.4171286" lon="12.8120855"><ele>3.2</ele><time>2026-04-04T11:47:25.213Z</time></trkpt><trkpt lat="41.4170243" lon="12.8120791"><ele>2.8000000000000003</ele><time>2026-04-04T11:47:26.213Z</time></trkpt><trkpt lat="41.4169237" lon="12.8120784"><ele>2.4000000000000004</ele><time>2026-04-04T11:47:27.214Z</time></trkpt><trkpt lat="41.4168325" lon="12.8120779"><ele>2.0</ele><time>2026-04-04T11:47:28.213Z</time></trkpt><trkpt lat="41.4167367" lon="12.8120794"><ele>2.0</ele><time>2026-04-04T11:47:29.214Z</time></trkpt><trkpt lat="41.4166517" lon="12.8120796"><ele>2.0</ele><time>2026-04-04T11:47:30.213Z</time></trkpt><trkpt lat="41.4164621" lon="12.8120765"><ele>2.0</ele><time>2026-04-04T11:47:32.213Z</time></trkpt><trkpt lat="41.4163709" lon="12.8120626"><ele>2.0</ele><time>2026-04-04T11:47:33.213Z</time></trkpt><trkpt lat="41.4162032" lon="12.8120548"><ele>1.9999999999999998</ele><time>2026-04-04T11:47:35.213Z</time></trkpt><trkpt lat="41.4161181" lon="12.8120492"><ele>2.0</ele><time>2026-04-04T11:47:36.213Z</time></trkpt><trkpt lat="41.4160416" lon="12.8120507"><ele>2.0</ele><time>2026-04-04T11:47:37.213Z</time></trkpt><trkpt lat="41.4159639" lon="12.8120348"><ele>2.0</ele><time>2026-04-04T11:47:38.213Z</time></trkpt><trkpt lat="41.4158895" lon="12.8120226"><ele>1.9999999999999998</ele><time>2026-04-04T11:47:39.213Z</time></trkpt><trkpt lat="41.4158223" lon="12.8120094"><ele>2.0</ele><time>2026-04-04T11:47:40.213Z</time></trkpt><trkpt lat="41.4157437" lon="12.8119982"><ele>2.0</ele><time>2026-04-04T11:47:41.213Z</time></trkpt><trkpt lat="41.4156501" lon="12.8119732"><ele>2.0</ele><time>2026-04-04T11:47:43.213Z</time></trkpt><trkpt lat="41.4155497" lon="12.8119727"><ele>2.0</ele><time>2026-04-04T11:47:46.213Z</time></trkpt><trkpt lat="41.4154968" lon="12.812063"><ele>2.0</ele><time>2026-04-04T11:47:50.213Z</time></trkpt><trkpt lat="41.4154931" lon="12.8121905"><ele>2.0</ele><time>2026-04-04T11:47:53.214Z</time></trkpt><trkpt lat="41.4155051" lon="12.8122914"><ele>2.0</ele><time>2026-04-04T11:47:54.213Z</time></trkpt><trkpt lat="41.4154977" lon="12.8123827"><ele>1.9999999999999998</ele><time>2026-04-04T11:47:55.213Z</time></trkpt><trkpt lat="41.4154958" lon="12.8125004"><ele>2.0</ele><time>2026-04-04T11:47:56.213Z</time></trkpt><trkpt lat="41.4154953" lon="12.8125919"><ele>2.0</ele><time>2026-04-04T11:47:57.213Z</time></trkpt><trkpt lat="41.4154954" lon="12.8126818"><ele>1.9999999999999998</ele><time>2026-04-04T11:47:58.213Z</time></trkpt><trkpt lat="41.4154983" lon="12.8127751"><ele>2.0</ele><time>2026-04-04T11:47:59.213Z</time></trkpt><trkpt lat="41.4154942" lon="12.8128648"><ele>2.0</ele><time>2026-04-04T11:48:00.213Z</time></trkpt><trkpt lat="41.415495" lon="12.8129998"><ele>2.0</ele><time>2026-04-04T11:48:02.213Z</time></trkpt><trkpt lat="41.4155092" lon="12.8130959"><ele>2.0</ele><time>2026-04-04T11:48:04.213Z</time></trkpt><trkpt lat="41.4155178" lon="12.8131888"><ele>2.0</ele><time>2026-04-04T11:48:06.213Z</time></trkpt><trkpt lat="41.4155121" lon="12.8132757"><ele>2.0</ele><time>2026-04-04T11:48:08.213Z</time></trkpt><trkpt lat="41.4152997" lon="12.8133526"><ele>2.0</ele><time>2026-04-04T11:48:11.213Z</time></trkpt><trkpt lat="41.4151846" lon="12.8133451"><ele>2.25</ele><time>2026-04-04T11:48:13.213Z</time></trkpt><trkpt lat="41.4150891" lon="12.8133433"><ele>2.5</ele><time>2026-04-04T11:48:15.213Z</time></trkpt><trkpt lat="41.414974" lon="12.8133544"><ele>2.75</ele><time>2026-04-04T11:48:17.213Z</time></trkpt><trkpt lat="41.414872" lon="12.8133492"><ele>3.0</ele><time>2026-04-04T11:48:19.213Z</time></trkpt><trkpt lat="41.4147171" lon="12.8133406"><ele>3.0</ele><time>2026-04-04T11:48:21.213Z</time></trkpt><trkpt lat="41.414643" lon="12.813341"><ele>3.0</ele><time>2026-04-04T11:48:23.213Z</time></trkpt><trkpt lat="41.4145713" lon="12.8133361"><ele>3.0</ele><time>2026-04-04T11:48:25.213Z</time></trkpt><trkpt lat="41.414487" lon="12.8133278"><ele>3.0</ele><time>2026-04-04T11:48:28.213Z</time></trkpt><trkpt lat="41.414549" lon="12.8133724"><ele>3.0</ele><time>2026-04-04T11:52:22.213Z</time></trkpt><trkpt lat="41.4146243" lon="12.8133787"><ele>3.0</ele><time>2026-04-04T11:52:24.213Z</time></trkpt><trkpt lat="41.4147003" lon="12.8134009"><ele>3.0</ele><time>2026-04-04T11:52:26.213Z</time></trkpt><trkpt lat="41.4147867" lon="12.8133806"><ele>3.0</ele><time>2026-04-04T11:52:28.213Z</time></trkpt><trkpt lat="41.4148597" lon="12.8133698"><ele>3.0</ele><time>2026-04-04T11:52:30.213Z</time></trkpt><trkpt lat="41.4149474" lon="12.8133844"><ele>3.0</ele><time>2026-04-04T11:52:32.213Z</time></trkpt><trkpt lat="41.4150163" lon="12.8134034"><ele>3.0</ele><time>2026-04-04T11:52:34.214Z</time></trkpt><trkpt lat="41.4151035" lon="12.8134182"><ele>3.0</ele><time>2026-04-04T11:52:36.213Z</time></trkpt><trkpt lat="41.4152483" lon="12.8134274"><ele>3.0</ele><time>2026-04-04T11:52:39.213Z</time></trkpt><trkpt lat="41.4153461" lon="12.8134185"><ele>3.0</ele><time>2026-04-04T11:52:41.214Z</time></trkpt><trkpt lat="41.4154229" lon="12.8133897"><ele>3.0</ele><time>2026-04-04T11:52:43.213Z</time></trkpt><trkpt lat="41.4154735" lon="12.8133357"><ele>3.0</ele><time>2026-04-04T11:52:45.214Z</time></trkpt><trkpt lat="41.4155067" lon="12.8132475"><ele>3.0</ele><time>2026-04-04T11:52:47.214Z</time></trkpt><trkpt lat="41.4155314" lon="12.8131613"><ele>3.0</ele><time>2026-04-04T11:52:49.213Z</time></trkpt><trkpt lat="41.4155293" lon="12.8130317"><ele>2.8</ele><time>2026-04-04T11:52:51.213Z</time></trkpt><trkpt lat="41.4155258" lon="12.8129405"><ele>2.5999999999999996</ele><time>2026-04-04T11:52:52.214Z</time></trkpt><trkpt lat="41.4155283" lon="12.8128445"><ele>2.4000000000000004</ele><time>2026-04-04T11:52:53.213Z</time></trkpt><trkpt lat="41.415525" lon="12.8127506"><ele>2.2</ele><time>2026-04-04T11:52:54.213Z</time></trkpt><trkpt lat="41.4155241" lon="12.8125714"><ele>2.0</ele><time>2026-04-04T11:52:56.213Z</time></trkpt><trkpt lat="41.4155213" lon="12.8124134"><ele>2.0</ele><time>2026-04-04T11:52:58.213Z</time></trkpt><trkpt lat="41.4155237" lon="12.8123137"><ele>2.0</ele><time>2026-04-04T11:53:00.213Z</time></trkpt><trkpt lat="41.415541" lon="12.8121504"><ele>2.0</ele><time>2026-04-04T11:53:03.214Z</time></trkpt><trkpt lat="41.4155185" lon="12.8120525"><ele>2.0</ele><time>2026-04-04T11:53:05.214Z</time></trkpt><trkpt lat="41.4155426" lon="12.8119616"><ele>2.0</ele><time>2026-04-04T11:53:06.213Z</time></trkpt><trkpt lat="41.4155594" lon="12.8118"><ele>3.0</ele><time>2026-04-04T11:53:08.214Z</time></trkpt><trkpt lat="41.4155702" lon="12.8114958"><ele>4.0</ele><time>2026-04-04T11:53:11.213Z</time></trkpt><trkpt lat="41.4155714" lon="12.8112073"><ele>5.0</ele><time>2026-04-04T11:53:13.213Z</time></trkpt><trkpt lat="41.4155758" lon="12.8110428"><ele>5.25</ele><time>2026-04-04T11:53:14.214Z</time></trkpt><trkpt lat="41.4155898" lon="12.8108952"><ele>5.5</ele><time>2026-04-04T11:53:15.214Z</time></trkpt><trkpt lat="41.4155956" lon="12.8107257"><ele>5.75</ele><time>2026-04-04T11:53:16.214Z</time></trkpt><trkpt lat="41.4156094" lon="12.8105816"><ele>6.0</ele><time>2026-04-04T11:53:17.213Z</time></trkpt><trkpt lat="41.4156328" lon="12.8102478"><ele>5.75</ele><time>2026-04-04T11:53:19.214Z</time></trkpt><trkpt lat="41.41565" lon="12.8099481"><ele>5.5</ele><time>2026-04-04T11:53:21.214Z</time></trkpt><trkpt lat="41.415651" lon="12.8098027"><ele>5.25</ele><time>2026-04-04T11:53:22.213Z</time></trkpt><trkpt lat="41.4156506" lon="12.8096591"><ele>5.0</ele><time>2026-04-04T11:53:23.213Z</time></trkpt><trkpt lat="41.4156445" lon="12.8093743"><ele>4.666666666666667</ele><time>2026-04-04T11:53:25.214Z</time></trkpt><trkpt lat="41.4156607" lon="12.8090479"><ele>4.333333333333333</ele><time>2026-04-04T11:53:27.213Z</time></trkpt><trkpt lat="41.4156646" lon="12.8088689"><ele>4.0</ele><time>2026-04-04T11:53:28.213Z</time></trkpt><trkpt lat="41.4156678" lon="12.8085668"><ele>4.0</ele><time>2026-04-04T11:53:30.214Z</time></trkpt><trkpt lat="41.4156888" lon="12.8082113"><ele>4.0</ele><time>2026-04-04T11:53:32.213Z</time></trkpt><trkpt lat="41.4157308" lon="12.8077237"><ele>4.0</ele><time>2026-04-04T11:53:34.213Z</time></trkpt><trkpt lat="41.4157423" lon="12.8074913"><ele>4.0</ele><time>2026-04-04T11:53:35.213Z</time></trkpt><trkpt lat="41.4157608" lon="12.8070684"><ele>3.333333333333333</ele><time>2026-04-04T11:53:37.214Z</time></trkpt><trkpt lat="41.4158262" lon="12.806688"><ele>2.6666666666666665</ele><time>2026-04-04T11:53:39.213Z</time></trkpt><trkpt lat="41.4158718" lon="12.8064975"><ele>2.0</ele><time>2026-04-04T11:53:40.213Z</time></trkpt><trkpt lat="41.415924" lon="12.8062973"><ele>2.0</ele><time>2026-04-04T11:53:41.213Z</time></trkpt><trkpt lat="41.4159579" lon="12.8061189"><ele>2.0</ele><time>2026-04-04T11:53:42.213Z</time></trkpt><trkpt lat="41.4160644" lon="12.8057254"><ele>2.0</ele><time>2026-04-04T11:53:44.213Z</time></trkpt><trkpt lat="41.4161827" lon="12.8053145"><ele>2.0</ele><time>2026-04-04T11:53:46.203Z</time></trkpt><trkpt lat="41.4162945" lon="12.8049206"><ele>1.3333333333333333</ele><time>2026-04-04T11:53:48.177Z</time></trkpt><trkpt lat="41.4163563" lon="12.8047202"><ele>0.6666666666666666</ele><time>2026-04-04T11:53:49.193Z</time></trkpt><trkpt lat="41.4164132" lon="12.8045296"><ele>0.0</ele><time>2026-04-04T11:53:50.216Z</time></trkpt><trkpt lat="41.4165241" lon="12.8041516"><ele>0.0</ele><time>2026-04-04T11:53:52.187Z</time></trkpt><trkpt lat="41.4166307" lon="12.8037727"><ele>0.0</ele><time>2026-04-04T11:53:54.187Z</time></trkpt><trkpt lat="41.4167394" lon="12.8034216"><ele>0.25</ele><time>2026-04-04T11:53:56.188Z</time></trkpt><trkpt lat="41.4167862" lon="12.8032556"><ele>0.5</ele><time>2026-04-04T11:53:57.188Z</time></trkpt><trkpt lat="41.4168467" lon="12.8030605"><ele>0.75</ele><time>2026-04-04T11:53:58.187Z</time></trkpt><trkpt lat="41.4168894" lon="12.8028996"><ele>1.0</ele><time>2026-04-04T11:53:59.187Z</time></trkpt><trkpt lat="41.4169328" lon="12.8027468"><ele>1.0</ele><time>2026-04-04T11:54:00.187Z</time></trkpt><trkpt lat="41.4169944" lon="12.8026046"><ele>1.0</ele><time>2026-04-04T11:54:01.187Z</time></trkpt><trkpt lat="41.4170596" lon="12.8024722"><ele>1.0</ele><time>2026-04-04T11:54:02.187Z</time></trkpt><trkpt lat="41.4172506" lon="12.8022757"><ele>1.0</ele><time>2026-04-04T11:54:04.187Z</time></trkpt><trkpt lat="41.4174307" lon="12.8020749"><ele>1.0</ele><time>2026-04-04T11:54:06.188Z</time></trkpt><trkpt lat="41.4175082" lon="12.8020028"><ele>1.0</ele><time>2026-04-04T11:54:07.187Z</time></trkpt><trkpt lat="41.4175839" lon="12.8019282"><ele>1.0</ele><time>2026-04-04T11:54:08.187Z</time></trkpt><trkpt lat="41.4176544" lon="12.8018319"><ele>1.0</ele><time>2026-04-04T11:54:09.187Z</time></trkpt><trkpt lat="41.4177381" lon="12.8016176"><ele>1.0</ele><time>2026-04-04T11:54:11.187Z</time></trkpt><trkpt lat="41.4177622" lon="12.8014985"><ele>1.0</ele><time>2026-04-04T11:54:12.187Z</time></trkpt><trkpt lat="41.4177764" lon="12.8013695"><ele>1.0</ele><time>2026-04-04T11:54:13.187Z</time></trkpt><trkpt lat="41.4177881" lon="12.8012406"><ele>1.0</ele><time>2026-04-04T11:54:14.187Z</time></trkpt><trkpt lat="41.4178058" lon="12.8010907"><ele>1.0</ele><time>2026-04-04T11:54:15.188Z</time></trkpt><trkpt lat="41.4178152" lon="12.8009441"><ele>1.0</ele><time>2026-04-04T11:54:16.187Z</time></trkpt><trkpt lat="41.4178225" lon="12.8008117"><ele>1.0</ele><time>2026-04-04T11:54:17.187Z</time></trkpt><trkpt lat="41.4178231" lon="12.8006697"><ele>1.0</ele><time>2026-04-04T11:54:18.187Z</time></trkpt><trkpt lat="41.4178267" lon="12.8005029"><ele>1.0</ele><time>2026-04-04T11:54:19.187Z</time></trkpt><trkpt lat="41.4178291" lon="12.8003231"><ele>1.0</ele><time>2026-04-04T11:54:20.187Z</time></trkpt><trkpt lat="41.4178387" lon="12.8001145"><ele>1.0</ele><time>2026-04-04T11:54:21.188Z</time></trkpt><trkpt lat="41.4178542" lon="12.7999027"><ele>1.0</ele><time>2026-04-04T11:54:22.187Z</time></trkpt><trkpt lat="41.4178725" lon="12.7996748"><ele>1.0</ele><time>2026-04-04T11:54:23.187Z</time></trkpt><trkpt lat="41.4179072" lon="12.7994229"><ele>1.0</ele><time>2026-04-04T11:54:24.187Z</time></trkpt><trkpt lat="41.4179895" lon="12.7989603"><ele>1.0</ele><time>2026-04-04T11:54:26.187Z</time></trkpt><trkpt lat="41.4180409" lon="12.7987095"><ele>1.0</ele><time>2026-04-04T11:54:27.188Z</time></trkpt><trkpt lat="41.4180964" lon="12.7984551"><ele>1.0</ele><time>2026-04-04T11:54:28.187Z</time></trkpt><trkpt lat="41.418182" lon="12.7981604"><ele>1.0</ele><time>2026-04-04T11:54:29.187Z</time></trkpt><trkpt lat="41.4182322" lon="12.7978811"><ele>1.0</ele><time>2026-04-04T11:54:30.187Z</time></trkpt><trkpt lat="41.4183531" lon="12.7973112"><ele>1.0</ele><time>2026-04-04T11:54:32.187Z</time></trkpt><trkpt lat="41.4184853" lon="12.7968065"><ele>1.0</ele><time>2026-04-04T11:54:34.187Z</time></trkpt><trkpt lat="41.4186131" lon="12.7963069"><ele>1.5</ele><time>2026-04-04T11:54:36.187Z</time></trkpt><trkpt lat="41.4187059" lon="12.7958645"><ele>2.0</ele><time>2026-04-04T11:54:38.188Z</time></trkpt><trkpt lat="41.4187482" lon="12.7956569"><ele>2.0</ele><time>2026-04-04T11:54:39.187Z</time></trkpt><trkpt lat="41.4187883" lon="12.7954464"><ele>2.0</ele><time>2026-04-04T11:54:40.187Z</time></trkpt><trkpt lat="41.418833" lon="12.795249"><ele>2.0</ele><time>2026-04-04T11:54:41.187Z</time></trkpt><trkpt lat="41.4189302" lon="12.7948295"><ele>2.5</ele><time>2026-04-04T11:54:43.187Z</time></trkpt><trkpt lat="41.4190365" lon="12.7944069"><ele>3.0</ele><time>2026-04-04T11:54:45.187Z</time></trkpt><trkpt lat="41.4191233" lon="12.7940057"><ele>3.0</ele><time>2026-04-04T11:54:47.188Z</time></trkpt><trkpt lat="41.4191693" lon="12.7937841"><ele>3.0</ele><time>2026-04-04T11:54:48.188Z</time></trkpt><trkpt lat="41.4192024" lon="12.7935902"><ele>3.0</ele><time>2026-04-04T11:54:49.187Z</time></trkpt><trkpt lat="41.4192365" lon="12.7933673"><ele>2.3333333333333335</ele><time>2026-04-04T11:54:50.187Z</time></trkpt><trkpt lat="41.4192636" lon="12.7931448"><ele>1.6666666666666665</ele><time>2026-04-04T11:54:51.187Z</time></trkpt><trkpt lat="41.4192944" lon="12.7929277"><ele>1.0</ele><time>2026-04-04T11:54:52.187Z</time></trkpt><trkpt lat="41.4193189" lon="12.7927067"><ele>1.0</ele><time>2026-04-04T11:54:53.187Z</time></trkpt><trkpt lat="41.4193476" lon="12.7924778"><ele>1.0</ele><time>2026-04-04T11:54:54.187Z</time></trkpt><trkpt lat="41.4194834" lon="12.7916322"><ele>-1.0</ele><time>2026-04-04T11:54:57.188Z</time></trkpt><trkpt lat="41.4195533" lon="12.7910358"><ele>-0.3333333333333333</ele><time>2026-04-04T11:54:59.187Z</time></trkpt><trkpt lat="41.4195873" lon="12.7907587"><ele>0.3333333333333333</ele><time>2026-04-04T11:55:00.187Z</time></trkpt><trkpt lat="41.4196062" lon="12.7904794"><ele>1.0</ele><time>2026-04-04T11:55:01.187Z</time></trkpt><trkpt lat="41.4196503" lon="12.789988"><ele>1.0</ele><time>2026-04-04T11:55:03.187Z</time></trkpt><trkpt lat="41.4196822" lon="12.7895194"><ele>1.0</ele><time>2026-04-04T11:55:05.187Z</time></trkpt><trkpt lat="41.4196929" lon="12.7893053"><ele>1.0</ele><time>2026-04-04T11:55:06.187Z</time></trkpt><trkpt lat="41.4197139" lon="12.7890821"><ele>1.0</ele><time>2026-04-04T11:55:07.187Z</time></trkpt><trkpt lat="41.4197392" lon="12.7888566"><ele>1.0</ele><time>2026-04-04T11:55:08.187Z</time></trkpt><trkpt lat="41.4197737" lon="12.7884104"><ele>1.0</ele><time>2026-04-04T11:55:10.187Z</time></trkpt><trkpt lat="41.4197869" lon="12.7881914"><ele>1.0</ele><time>2026-04-04T11:55:11.187Z</time></trkpt><trkpt lat="41.4197983" lon="12.7879846"><ele>1.0</ele><time>2026-04-04T11:55:12.188Z</time></trkpt><trkpt lat="41.4198087" lon="12.7877823"><ele>0.5</ele><time>2026-04-04T11:55:13.187Z</time></trkpt><trkpt lat="41.4198395" lon="12.7873807"><ele>0.0</ele><time>2026-04-04T11:55:15.187Z</time></trkpt><trkpt lat="41.41984" lon="12.7869787"><ele>0.0</ele><time>2026-04-04T11:55:17.187Z</time></trkpt><trkpt lat="41.419839" lon="12.7868158"><ele>0.0</ele><time>2026-04-04T11:55:18.188Z</time></trkpt><trkpt lat="41.4198874" lon="12.7865212"><ele>0.0</ele><time>2026-04-04T11:55:20.187Z</time></trkpt><trkpt lat="41.4199177" lon="12.7863091"><ele>0.0</ele><time>2026-04-04T11:55:21.187Z</time></trkpt><trkpt lat="41.4199355" lon="12.7861788"><ele>0.0</ele><time>2026-04-04T11:55:22.188Z</time></trkpt><trkpt lat="41.4199507" lon="12.7860872"><ele>0.0</ele><time>2026-04-04T11:55:23.187Z</time></trkpt><trkpt lat="41.4199961" lon="12.7859594"><ele>0.0</ele><time>2026-04-04T11:55:25.187Z</time></trkpt><trkpt lat="41.420062" lon="12.7859181"><ele>0.0</ele><time>2026-04-04T11:55:27.188Z</time></trkpt><trkpt lat="41.4201106" lon="12.7859759"><ele>0.0</ele><time>2026-04-04T11:55:36.187Z</time></trkpt><trkpt lat="41.420183" lon="12.7860619"><ele>0.0</ele><time>2026-04-04T11:56:00.187Z</time></trkpt><trkpt lat="41.4202916" lon="12.7860915"><ele>0.0</ele><time>2026-04-04T11:56:01.187Z</time></trkpt><trkpt lat="41.4204106" lon="12.7861115"><ele>0.0</ele><time>2026-04-04T11:56:03.187Z</time></trkpt><trkpt lat="41.4205654" lon="12.7861341"><ele>0.0</ele><time>2026-04-04T11:56:05.188Z</time></trkpt><trkpt lat="41.4206307" lon="12.7861509"><ele>0.2857142857142857</ele><time>2026-04-04T11:56:06.187Z</time></trkpt><trkpt lat="41.4206966" lon="12.7861777"><ele>0.5714285714285714</ele><time>2026-04-04T11:56:07.187Z</time></trkpt><trkpt lat="41.4207647" lon="12.7862115"><ele>0.8571428571428571</ele><time>2026-04-04T11:56:08.187Z</time></trkpt><trkpt lat="41.4208433" lon="12.7862469"><ele>1.1428571428571428</ele><time>2026-04-04T11:56:09.187Z</time></trkpt><trkpt lat="41.4209161" lon="12.7862956"><ele>1.4285714285714284</ele><time>2026-04-04T11:56:10.187Z</time></trkpt><trkpt lat="41.4209818" lon="12.7863186"><ele>1.7142857142857142</ele><time>2026-04-04T11:56:11.187Z</time></trkpt><trkpt lat="41.4210438" lon="12.7863496"><ele>2.0</ele><time>2026-04-04T11:56:12.187Z</time></trkpt><trkpt lat="41.4211764" lon="12.7864163"><ele>1.9999999999999998</ele><time>2026-04-04T11:56:14.187Z</time></trkpt><trkpt lat="41.4212454" lon="12.7864448"><ele>2.0</ele><time>2026-04-04T11:56:15.187Z</time></trkpt><trkpt lat="41.4213079" lon="12.7864714"><ele>2.0</ele><time>2026-04-04T11:56:16.187Z</time></trkpt><trkpt lat="41.4213863" lon="12.7864993"><ele>2.0</ele><time>2026-04-04T11:56:17.188Z</time></trkpt><trkpt lat="41.4215256" lon="12.7865528"><ele>1.9999999999999998</ele><time>2026-04-04T11:56:19.187Z</time></trkpt><trkpt lat="41.4215958" lon="12.7865767"><ele>2.0</ele><time>2026-04-04T11:56:20.187Z</time></trkpt><trkpt lat="41.4217466" lon="12.7866118"><ele>2.0</ele><time>2026-04-04T11:56:22.187Z</time></trkpt><trkpt lat="41.4218871" lon="12.7866529"><ele>2.0</ele><time>2026-04-04T11:56:24.187Z</time></trkpt><trkpt lat="41.4219564" lon="12.7866793"><ele>2.0</ele><time>2026-04-04T11:56:25.187Z</time></trkpt><trkpt lat="41.4220296" lon="12.7867072"><ele>2.0</ele><time>2026-04-04T11:56:26.187Z</time></trkpt><trkpt lat="41.4220956" lon="12.7867325"><ele>2.0</ele><time>2026-04-04T11:56:27.187Z</time></trkpt><trkpt lat="41.4222338" lon="12.7867707"><ele>2.0</ele><time>2026-04-04T11:56:29.187Z</time></trkpt><trkpt lat="41.4223038" lon="12.7867947"><ele>2.0</ele><time>2026-04-04T11:56:30.187Z</time></trkpt><trkpt lat="41.4224492" lon="12.786838"><ele>2.0</ele><time>2026-04-04T11:56:32.187Z</time></trkpt><trkpt lat="41.4226016" lon="12.786901"><ele>2.0</ele><time>2026-04-04T11:56:34.187Z</time></trkpt><trkpt lat="41.4226782" lon="12.7869179"><ele>1.8</ele><time>2026-04-04T11:56:35.187Z</time></trkpt><trkpt lat="41.4227542" lon="12.7869395"><ele>1.6</ele><time>2026-04-04T11:56:36.188Z</time></trkpt><trkpt lat="41.4228235" lon="12.7869616"><ele>1.4000000000000001</ele><time>2026-04-04T11:56:37.187Z</time></trkpt><trkpt lat="41.4228963" lon="12.7869742"><ele>1.2000000000000002</ele><time>2026-04-04T11:56:38.187Z</time></trkpt><trkpt lat="41.4230321" lon="12.7870073"><ele>1.0</ele><time>2026-04-04T11:56:40.188Z</time></trkpt><trkpt lat="41.4231823" lon="12.7869826"><ele>1.0</ele><time>2026-04-04T11:56:42.187Z</time></trkpt><trkpt lat="41.4233332" lon="12.787008"><ele>1.0</ele><time>2026-04-04T11:56:44.187Z</time></trkpt><trkpt lat="41.4234743" lon="12.7870399"><ele>1.0</ele><time>2026-04-04T11:56:46.187Z</time></trkpt><trkpt lat="41.4235928" lon="12.7870652"><ele>1.0</ele><time>2026-04-04T11:56:48.187Z</time></trkpt><trkpt lat="41.4236571" lon="12.787117"><ele>0.9999999999999999</ele><time>2026-04-04T11:56:50.187Z</time></trkpt><trkpt lat="41.4236793" lon="12.7872042"><ele>1.0</ele><time>2026-04-04T11:56:55.187Z</time></trkpt><trkpt lat="41.4236559" lon="12.7873331"><ele>1.0</ele><time>2026-04-04T11:57:49.187Z</time></trkpt><trkpt lat="41.4236235" lon="12.7874616"><ele>1.0</ele><time>2026-04-04T11:57:52.188Z</time></trkpt><trkpt lat="41.4236867" lon="12.7875261"><ele>0.9999999999999999</ele><time>2026-04-04T11:58:34.188Z</time></trkpt><trkpt lat="41.423687" lon="12.7874358"><ele>1.0</ele><time>2026-04-04T11:58:39.187Z</time></trkpt><trkpt lat="41.4236712" lon="12.7873449"><ele>0.9999999999999999</ele><time>2026-04-04T11:58:57.187Z</time></trkpt><trkpt lat="41.423671" lon="12.7875117"><ele>1.0</ele><time>2026-04-04T12:00:07.188Z</time></trkpt><trkpt lat="41.4237341" lon="12.7874941"><ele>1.0</ele><time>2026-04-04T12:00:22.187Z</time></trkpt><trkpt lat="41.4237791" lon="12.7875612"><ele>1.0</ele><time>2026-04-04T12:01:08.187Z</time></trkpt><trkpt lat="41.4237906" lon="12.7876516"><ele>0.9999999999999999</ele><time>2026-04-04T12:03:32.187Z</time></trkpt><trkpt lat="41.4237593" lon="12.7875744"><ele>1.0</ele><time>2026-04-04T12:06:16.211Z</time></trkpt><trkpt lat="41.4237871" lon="12.7874631"><ele>1.0</ele><time>2026-04-04T12:43:40.187Z</time></trkpt></trkseg></trk></gpx>